<?xml version="1.0" encoding="UTF-8" standalone="no" ?>
<gpx xmlns="http://www.topografix.com/GPX/1/1" creator="https://MapMagic.app" xmlns:xsi="http://www.w3.org/2001/XMLSchema-instance" xsi:schemaLocation="http://www.topografix.com/GPX/1/1 http://www.topografix.com/GPX/1/1/gpx.xsd" version="1.1">
	<wpt lat="54.446376" lon="21.019056">
		<name>КП1</name>
		<type>Generic</type>
	</wpt>
	<wpt lat="54.408795" lon="22.014957">
		<name>КП2</name>
		<type>Generic</type>
	</wpt>
	<wpt lat="54.634517" lon="22.566347">
		<name>КП3</name>
		<type>Generic</type>
	</wpt>
	<wpt lat="55.080891" lon="21.896567">
		<name>КП4</name>
		<type>Generic</type>
	</wpt>
	<wpt lat="54.650375" lon="21.341253">
		<name>КП5</name>
		<type>Generic</type>
	</wpt>
	<wpt lat="54.953657" lon="20.226181">
		<name>КП6</name>
		<type>Generic</type>
	</wpt>
	<trk>
		<name>600_Дорогой_героев_3_2026</name>
		<desc>600_Дорогой_героев_3_2026</desc>
		<trkseg>
			<trkpt lat="54.695720" lon="20.522030"><ele>0.7</ele><time>2026-05-28T07:29:43Z</time></trkpt>
			<trkpt lat="54.695720" lon="20.522030"><ele>0.7</ele><time>2026-05-28T07:29:49Z</time></trkpt>
			<trkpt lat="54.694580" lon="20.523930"><ele>1.1</ele><time>2026-05-28T07:29:55Z</time></trkpt>
			<trkpt lat="54.694420" lon="20.524220"><ele>1.1</ele><time>2026-05-28T07:30:02Z</time></trkpt>
			<trkpt lat="54.694300" lon="20.524170"><ele>1.2</ele><time>2026-05-28T07:30:08Z</time></trkpt>
			<trkpt lat="54.693980" lon="20.524130"><ele>1.3</ele><time>2026-05-28T07:30:14Z</time></trkpt>
			<trkpt lat="54.693820" lon="20.524120"><ele>1.3</ele><time>2026-05-28T07:30:20Z</time></trkpt>
			<trkpt lat="54.693260" lon="20.524040"><ele>1.4</ele><time>2026-05-28T07:30:26Z</time></trkpt>
			<trkpt lat="54.692850" lon="20.523980"><ele>1.5</ele><time>2026-05-28T07:30:32Z</time></trkpt>
			<trkpt lat="54.692650" lon="20.523940"><ele>1.6</ele><time>2026-05-28T07:30:38Z</time></trkpt>
			<trkpt lat="54.691940" lon="20.523810"><ele>1.7</ele><time>2026-05-28T07:30:44Z</time></trkpt>
			<trkpt lat="54.691800" lon="20.523780"><ele>1.8</ele><time>2026-05-28T07:30:50Z</time></trkpt>
			<trkpt lat="54.691170" lon="20.523660"><ele>1.9</ele><time>2026-05-28T07:30:56Z</time></trkpt>
			<trkpt lat="54.691080" lon="20.523650"><ele>2.0</ele><time>2026-05-28T07:31:02Z</time></trkpt>
			<trkpt lat="54.691030" lon="20.523640"><ele>2.0</ele><time>2026-05-28T07:31:08Z</time></trkpt>
			<trkpt lat="54.690870" lon="20.523620"><ele>2.0</ele><time>2026-05-28T07:31:14Z</time></trkpt>
			<trkpt lat="54.690790" lon="20.523610"><ele>2.0</ele><time>2026-05-28T07:31:20Z</time></trkpt>
			<trkpt lat="54.690790" lon="20.523610"><ele>2.0</ele><time>2026-05-28T07:31:23Z</time></trkpt>
			<trkpt lat="54.690700" lon="20.523600"><ele>2.1</ele><time>2026-05-28T07:31:25Z</time></trkpt>
			<trkpt lat="54.689940" lon="20.523460"><ele>2.5</ele><time>2026-05-28T07:31:28Z</time></trkpt>
			<trkpt lat="54.689710" lon="20.523430"><ele>2.6</ele><time>2026-05-28T07:31:30Z</time></trkpt>
			<trkpt lat="54.689290" lon="20.523380"><ele>2.8</ele><time>2026-05-28T07:31:33Z</time></trkpt>
			<trkpt lat="54.689040" lon="20.523360"><ele>3.0</ele><time>2026-05-28T07:31:35Z</time></trkpt>
			<trkpt lat="54.688900" lon="20.523340"><ele>3.0</ele><time>2026-05-28T07:31:37Z</time></trkpt>
			<trkpt lat="54.687870" lon="20.523180"><ele>3.6</ele><time>2026-05-28T07:31:40Z</time></trkpt>
			<trkpt lat="54.687640" lon="20.523140"><ele>3.7</ele><time>2026-05-28T07:31:42Z</time></trkpt>
			<trkpt lat="54.687550" lon="20.523130"><ele>3.7</ele><time>2026-05-28T07:31:45Z</time></trkpt>
			<trkpt lat="54.686920" lon="20.523060"><ele>4.1</ele><time>2026-05-28T07:31:47Z</time></trkpt>
			<trkpt lat="54.686680" lon="20.523020"><ele>4.2</ele><time>2026-05-28T07:31:49Z</time></trkpt>
			<trkpt lat="54.686190" lon="20.522930"><ele>4.4</ele><time>2026-05-28T07:31:52Z</time></trkpt>
			<trkpt lat="54.686050" lon="20.522900"><ele>4.5</ele><time>2026-05-28T07:31:54Z</time></trkpt>
			<trkpt lat="54.685700" lon="20.522880"><ele>4.7</ele><time>2026-05-28T07:31:57Z</time></trkpt>
			<trkpt lat="54.685510" lon="20.522870"><ele>4.8</ele><time>2026-05-28T07:31:59Z</time></trkpt>
			<trkpt lat="54.685400" lon="20.522870"><ele>4.9</ele><time>2026-05-28T07:32:02Z</time></trkpt>
			<trkpt lat="54.684960" lon="20.522810"><ele>5.2</ele><time>2026-05-28T07:32:04Z</time></trkpt>
			<trkpt lat="54.684780" lon="20.522800"><ele>5.4</ele><time>2026-05-28T07:32:06Z</time></trkpt>
			<trkpt lat="54.683590" lon="20.522620"><ele>6.4</ele><time>2026-05-28T07:32:09Z</time></trkpt>
			<trkpt lat="54.682860" lon="20.522510"><ele>7.1</ele><time>2026-05-28T07:32:11Z</time></trkpt>
			<trkpt lat="54.682570" lon="20.522470"><ele>7.3</ele><time>2026-05-28T07:32:14Z</time></trkpt>
			<trkpt lat="54.682030" lon="20.522380"><ele>7.8</ele><time>2026-05-28T07:32:16Z</time></trkpt>
			<trkpt lat="54.681830" lon="20.522340"><ele>7.9</ele><time>2026-05-28T07:32:19Z</time></trkpt>
			<trkpt lat="54.681730" lon="20.522330"><ele>8.0</ele><time>2026-05-28T07:32:21Z</time></trkpt>
			<trkpt lat="54.680680" lon="20.522170"><ele>8.9</ele><time>2026-05-28T07:32:23Z</time></trkpt>
			<trkpt lat="54.680560" lon="20.522140"><ele>9.0</ele><time>2026-05-28T07:32:26Z</time></trkpt>
			<trkpt lat="54.680310" lon="20.522110"><ele>9.2</ele><time>2026-05-28T07:32:28Z</time></trkpt>
			<trkpt lat="54.680100" lon="20.522070"><ele>9.4</ele><time>2026-05-28T07:32:31Z</time></trkpt>
			<trkpt lat="54.679910" lon="20.522060"><ele>9.5</ele><time>2026-05-28T07:32:33Z</time></trkpt>
			<trkpt lat="54.679170" lon="20.522020"><ele>9.9</ele><time>2026-05-28T07:32:36Z</time></trkpt>
			<trkpt lat="54.678890" lon="20.522020"><ele>10.0</ele><time>2026-05-28T07:32:38Z</time></trkpt>
			<trkpt lat="54.678510" lon="20.522010"><ele>10.2</ele><time>2026-05-28T07:32:40Z</time></trkpt>
			<trkpt lat="54.678290" lon="20.522010"><ele>10.3</ele><time>2026-05-28T07:32:43Z</time></trkpt>
			<trkpt lat="54.678180" lon="20.522010"><ele>10.4</ele><time>2026-05-28T07:32:45Z</time></trkpt>
			<trkpt lat="54.678020" lon="20.522000"><ele>10.4</ele><time>2026-05-28T07:32:48Z</time></trkpt>
			<trkpt lat="54.677570" lon="20.521990"><ele>10.7</ele><time>2026-05-28T07:32:50Z</time></trkpt>
			<trkpt lat="54.677410" lon="20.521990"><ele>10.7</ele><time>2026-05-28T07:32:53Z</time></trkpt>
			<trkpt lat="54.676990" lon="20.521970"><ele>10.9</ele><time>2026-05-28T07:32:55Z</time></trkpt>
			<trkpt lat="54.676850" lon="20.521970"><ele>11.0</ele><time>2026-05-28T07:32:57Z</time></trkpt>
			<trkpt lat="54.676660" lon="20.521980"><ele>11.1</ele><time>2026-05-28T07:33:00Z</time></trkpt>
			<trkpt lat="54.676400" lon="20.521970"><ele>11.2</ele><time>2026-05-28T07:33:02Z</time></trkpt>
			<trkpt lat="54.676080" lon="20.521970"><ele>11.4</ele><time>2026-05-28T07:33:05Z</time></trkpt>
			<trkpt lat="54.675870" lon="20.521940"><ele>11.5</ele><time>2026-05-28T07:33:07Z</time></trkpt>
			<trkpt lat="54.675710" lon="20.521960"><ele>11.6</ele><time>2026-05-28T07:33:09Z</time></trkpt>
			<trkpt lat="54.675510" lon="20.521920"><ele>11.7</ele><time>2026-05-28T07:33:12Z</time></trkpt>
			<trkpt lat="54.675290" lon="20.521840"><ele>11.8</ele><time>2026-05-28T07:33:14Z</time></trkpt>
			<trkpt lat="54.675050" lon="20.521760"><ele>11.9</ele><time>2026-05-28T07:33:17Z</time></trkpt>
			<trkpt lat="54.674900" lon="20.521710"><ele>12.0</ele><time>2026-05-28T07:33:19Z</time></trkpt>
			<trkpt lat="54.674740" lon="20.521660"><ele>12.0</ele><time>2026-05-28T07:33:22Z</time></trkpt>
			<trkpt lat="54.674330" lon="20.521510"><ele>12.1</ele><time>2026-05-28T07:33:24Z</time></trkpt>
			<trkpt lat="54.673880" lon="20.521340"><ele>12.2</ele><time>2026-05-28T07:33:26Z</time></trkpt>
			<trkpt lat="54.673040" lon="20.521040"><ele>12.3</ele><time>2026-05-28T07:33:29Z</time></trkpt>
			<trkpt lat="54.672760" lon="20.520940"><ele>12.3</ele><time>2026-05-28T07:33:31Z</time></trkpt>
			<trkpt lat="54.672520" lon="20.520840"><ele>12.3</ele><time>2026-05-28T07:33:34Z</time></trkpt>
			<trkpt lat="54.672370" lon="20.520780"><ele>12.3</ele><time>2026-05-28T07:33:36Z</time></trkpt>
			<trkpt lat="54.672150" lon="20.520700"><ele>12.4</ele><time>2026-05-28T07:33:39Z</time></trkpt>
			<trkpt lat="54.671920" lon="20.520630"><ele>12.4</ele><time>2026-05-28T07:33:41Z</time></trkpt>
			<trkpt lat="54.671840" lon="20.520600"><ele>12.4</ele><time>2026-05-28T07:33:43Z</time></trkpt>
			<trkpt lat="54.671500" lon="20.520490"><ele>12.4</ele><time>2026-05-28T07:33:46Z</time></trkpt>
			<trkpt lat="54.671320" lon="20.520430"><ele>12.5</ele><time>2026-05-28T07:33:48Z</time></trkpt>
			<trkpt lat="54.670440" lon="20.520110"><ele>12.6</ele><time>2026-05-28T07:33:51Z</time></trkpt>
			<trkpt lat="54.670180" lon="20.520010"><ele>12.6</ele><time>2026-05-28T07:33:53Z</time></trkpt>
			<trkpt lat="54.670060" lon="20.519980"><ele>12.6</ele><time>2026-05-28T07:33:56Z</time></trkpt>
			<trkpt lat="54.669850" lon="20.519900"><ele>12.6</ele><time>2026-05-28T07:33:58Z</time></trkpt>
			<trkpt lat="54.669720" lon="20.519790"><ele>12.7</ele><time>2026-05-28T07:34:00Z</time></trkpt>
			<trkpt lat="54.669590" lon="20.519590"><ele>12.7</ele><time>2026-05-28T07:34:03Z</time></trkpt>
			<trkpt lat="54.669540" lon="20.519460"><ele>12.7</ele><time>2026-05-28T07:34:05Z</time></trkpt>
			<trkpt lat="54.669380" lon="20.519000"><ele>12.7</ele><time>2026-05-28T07:34:08Z</time></trkpt>
			<trkpt lat="54.669280" lon="20.518760"><ele>12.6</ele><time>2026-05-28T07:34:10Z</time></trkpt>
			<trkpt lat="54.669190" lon="20.518530"><ele>12.6</ele><time>2026-05-28T07:34:13Z</time></trkpt>
			<trkpt lat="54.669120" lon="20.518380"><ele>12.6</ele><time>2026-05-28T07:34:15Z</time></trkpt>
			<trkpt lat="54.669080" lon="20.518290"><ele>12.6</ele><time>2026-05-28T07:34:17Z</time></trkpt>
			<trkpt lat="54.668780" lon="20.517630"><ele>12.5</ele><time>2026-05-28T07:34:20Z</time></trkpt>
			<trkpt lat="54.668670" lon="20.517490"><ele>12.5</ele><time>2026-05-28T07:34:22Z</time></trkpt>
			<trkpt lat="54.668550" lon="20.517460"><ele>12.5</ele><time>2026-05-28T07:34:25Z</time></trkpt>
			<trkpt lat="54.668300" lon="20.517470"><ele>12.5</ele><time>2026-05-28T07:34:27Z</time></trkpt>
			<trkpt lat="54.668150" lon="20.517540"><ele>12.4</ele><time>2026-05-28T07:34:29Z</time></trkpt>
			<trkpt lat="54.668050" lon="20.517600"><ele>12.4</ele><time>2026-05-28T07:34:32Z</time></trkpt>
			<trkpt lat="54.667840" lon="20.517690"><ele>12.4</ele><time>2026-05-28T07:34:34Z</time></trkpt>
			<trkpt lat="54.667720" lon="20.517740"><ele>12.4</ele><time>2026-05-28T07:34:37Z</time></trkpt>
			<trkpt lat="54.667170" lon="20.517990"><ele>12.3</ele><time>2026-05-28T07:34:39Z</time></trkpt>
			<trkpt lat="54.666980" lon="20.518070"><ele>12.3</ele><time>2026-05-28T07:34:42Z</time></trkpt>
			<trkpt lat="54.666910" lon="20.518090"><ele>12.3</ele><time>2026-05-28T07:34:44Z</time></trkpt>
			<trkpt lat="54.666810" lon="20.518090"><ele>12.2</ele><time>2026-05-28T07:34:46Z</time></trkpt>
			<trkpt lat="54.666720" lon="20.518080"><ele>12.2</ele><time>2026-05-28T07:34:49Z</time></trkpt>
			<trkpt lat="54.666710" lon="20.518070"><ele>12.2</ele><time>2026-05-28T07:34:51Z</time></trkpt>
			<trkpt lat="54.666590" lon="20.517960"><ele>12.2</ele><time>2026-05-28T07:34:54Z</time></trkpt>
			<trkpt lat="54.665800" lon="20.517080"><ele>12.1</ele><time>2026-05-28T07:34:56Z</time></trkpt>
			<trkpt lat="54.665460" lon="20.516690"><ele>12.0</ele><time>2026-05-28T07:34:59Z</time></trkpt>
			<trkpt lat="54.665230" lon="20.516430"><ele>12.0</ele><time>2026-05-28T07:35:01Z</time></trkpt>
			<trkpt lat="54.665140" lon="20.516200"><ele>12.0</ele><time>2026-05-28T07:35:03Z</time></trkpt>
			<trkpt lat="54.664070" lon="20.515180"><ele>12.6</ele><time>2026-05-28T07:35:06Z</time></trkpt>
			<trkpt lat="54.663500" lon="20.514720"><ele>12.9</ele><time>2026-05-28T07:35:08Z</time></trkpt>
			<trkpt lat="54.663060" lon="20.514400"><ele>13.2</ele><time>2026-05-28T07:35:11Z</time></trkpt>
			<trkpt lat="54.662160" lon="20.513790"><ele>13.7</ele><time>2026-05-28T07:35:13Z</time></trkpt>
			<trkpt lat="54.662010" lon="20.513670"><ele>13.8</ele><time>2026-05-28T07:35:16Z</time></trkpt>
			<trkpt lat="54.661910" lon="20.513600"><ele>13.8</ele><time>2026-05-28T07:35:18Z</time></trkpt>
			<trkpt lat="54.661730" lon="20.513470"><ele>13.9</ele><time>2026-05-28T07:35:20Z</time></trkpt>
			<trkpt lat="54.661170" lon="20.513100"><ele>14.3</ele><time>2026-05-28T07:35:23Z</time></trkpt>
			<trkpt lat="54.661170" lon="20.513100"><ele>14.3</ele><time>2026-05-28T07:35:26Z</time></trkpt>
			<trkpt lat="54.660770" lon="20.512890"><ele>14.5</ele><time>2026-05-28T07:35:30Z</time></trkpt>
			<trkpt lat="54.659950" lon="20.512390"><ele>14.9</ele><time>2026-05-28T07:35:34Z</time></trkpt>
			<trkpt lat="54.659400" lon="20.512080"><ele>14.9</ele><time>2026-05-28T07:35:37Z</time></trkpt>
			<trkpt lat="54.658560" lon="20.511710"><ele>15.0</ele><time>2026-05-28T07:35:41Z</time></trkpt>
			<trkpt lat="54.658000" lon="20.511490"><ele>15.1</ele><time>2026-05-28T07:35:45Z</time></trkpt>
			<trkpt lat="54.656660" lon="20.511030"><ele>15.2</ele><time>2026-05-28T07:35:48Z</time></trkpt>
			<trkpt lat="54.656150" lon="20.510800"><ele>15.3</ele><time>2026-05-28T07:35:52Z</time></trkpt>
			<trkpt lat="54.655860" lon="20.510690"><ele>15.3</ele><time>2026-05-28T07:35:56Z</time></trkpt>
			<trkpt lat="54.655620" lon="20.510640"><ele>15.3</ele><time>2026-05-28T07:35:59Z</time></trkpt>
			<trkpt lat="54.655500" lon="20.510660"><ele>15.4</ele><time>2026-05-28T07:36:03Z</time></trkpt>
			<trkpt lat="54.652760" lon="20.509900"><ele>16.0</ele><time>2026-05-28T07:36:07Z</time></trkpt>
			<trkpt lat="54.651980" lon="20.509640"><ele>16.2</ele><time>2026-05-28T07:36:10Z</time></trkpt>
			<trkpt lat="54.649270" lon="20.508910"><ele>16.9</ele><time>2026-05-28T07:36:14Z</time></trkpt>
			<trkpt lat="54.648560" lon="20.508800"><ele>17.1</ele><time>2026-05-28T07:36:18Z</time></trkpt>
			<trkpt lat="54.647460" lon="20.508640"><ele>17.5</ele><time>2026-05-28T07:36:21Z</time></trkpt>
			<trkpt lat="54.646770" lon="20.508460"><ele>17.7</ele><time>2026-05-28T07:36:25Z</time></trkpt>
			<trkpt lat="54.646020" lon="20.508180"><ele>17.9</ele><time>2026-05-28T07:36:29Z</time></trkpt>
			<trkpt lat="54.645110" lon="20.507950"><ele>18.2</ele><time>2026-05-28T07:36:32Z</time></trkpt>
			<trkpt lat="54.644890" lon="20.507780"><ele>18.3</ele><time>2026-05-28T07:36:36Z</time></trkpt>
			<trkpt lat="54.644590" lon="20.507530"><ele>18.4</ele><time>2026-05-28T07:36:40Z</time></trkpt>
			<trkpt lat="54.644060" lon="20.506930"><ele>18.5</ele><time>2026-05-28T07:36:43Z</time></trkpt>
			<trkpt lat="54.643740" lon="20.506630"><ele>18.5</ele><time>2026-05-28T07:36:47Z</time></trkpt>
			<trkpt lat="54.643310" lon="20.506330"><ele>18.4</ele><time>2026-05-28T07:36:51Z</time></trkpt>
			<trkpt lat="54.642720" lon="20.506000"><ele>18.4</ele><time>2026-05-28T07:36:54Z</time></trkpt>
			<trkpt lat="54.642340" lon="20.505770"><ele>18.3</ele><time>2026-05-28T07:36:58Z</time></trkpt>
			<trkpt lat="54.642120" lon="20.505590"><ele>18.3</ele><time>2026-05-28T07:37:02Z</time></trkpt>
			<trkpt lat="54.641900" lon="20.505370"><ele>18.3</ele><time>2026-05-28T07:37:05Z</time></trkpt>
			<trkpt lat="54.641720" lon="20.505120"><ele>18.3</ele><time>2026-05-28T07:37:09Z</time></trkpt>
			<trkpt lat="54.641070" lon="20.504020"><ele>18.2</ele><time>2026-05-28T07:37:13Z</time></trkpt>
			<trkpt lat="54.640690" lon="20.503370"><ele>18.1</ele><time>2026-05-28T07:37:16Z</time></trkpt>
			<trkpt lat="54.640590" lon="20.503200"><ele>18.1</ele><time>2026-05-28T07:37:20Z</time></trkpt>
			<trkpt lat="54.639310" lon="20.501050"><ele>18.1</ele><time>2026-05-28T07:37:24Z</time></trkpt>
			<trkpt lat="54.637780" lon="20.498450"><ele>18.3</ele><time>2026-05-28T07:37:27Z</time></trkpt>
			<trkpt lat="54.637650" lon="20.498250"><ele>18.3</ele><time>2026-05-28T07:37:31Z</time></trkpt>
			<trkpt lat="54.636640" lon="20.496480"><ele>18.5</ele><time>2026-05-28T07:37:35Z</time></trkpt>
			<trkpt lat="54.636240" lon="20.495850"><ele>18.5</ele><time>2026-05-28T07:37:38Z</time></trkpt>
			<trkpt lat="54.635600" lon="20.494730"><ele>19.1</ele><time>2026-05-28T07:37:42Z</time></trkpt>
			<trkpt lat="54.635380" lon="20.494350"><ele>19.4</ele><time>2026-05-28T07:37:46Z</time></trkpt>
			<trkpt lat="54.635320" lon="20.494250"><ele>19.4</ele><time>2026-05-28T07:37:49Z</time></trkpt>
			<trkpt lat="54.635090" lon="20.493860"><ele>19.7</ele><time>2026-05-28T07:37:53Z</time></trkpt>
			<trkpt lat="54.633980" lon="20.492010"><ele>21.1</ele><time>2026-05-28T07:37:57Z</time></trkpt>
			<trkpt lat="54.633080" lon="20.490430"><ele>22.2</ele><time>2026-05-28T07:38:00Z</time></trkpt>
			<trkpt lat="54.632630" lon="20.489780"><ele>22.8</ele><time>2026-05-28T07:38:04Z</time></trkpt>
			<trkpt lat="54.632290" lon="20.489240"><ele>23.2</ele><time>2026-05-28T07:38:08Z</time></trkpt>
			<trkpt lat="54.631220" lon="20.488380"><ele>22.9</ele><time>2026-05-28T07:38:11Z</time></trkpt>
			<trkpt lat="54.630450" lon="20.488100"><ele>22.6</ele><time>2026-05-28T07:38:15Z</time></trkpt>
			<trkpt lat="54.630150" lon="20.488040"><ele>22.4</ele><time>2026-05-28T07:38:19Z</time></trkpt>
			<trkpt lat="54.629940" lon="20.487990"><ele>22.3</ele><time>2026-05-28T07:38:22Z</time></trkpt>
			<trkpt lat="54.629410" lon="20.487840"><ele>22.1</ele><time>2026-05-28T07:38:26Z</time></trkpt>
			<trkpt lat="54.628780" lon="20.487700"><ele>21.8</ele><time>2026-05-28T07:38:30Z</time></trkpt>
			<trkpt lat="54.628170" lon="20.487510"><ele>21.5</ele><time>2026-05-28T07:38:33Z</time></trkpt>
			<trkpt lat="54.627240" lon="20.487290"><ele>21.1</ele><time>2026-05-28T07:38:37Z</time></trkpt>
			<trkpt lat="54.626710" lon="20.487150"><ele>20.9</ele><time>2026-05-28T07:38:41Z</time></trkpt>
			<trkpt lat="54.626590" lon="20.487110"><ele>20.9</ele><time>2026-05-28T07:38:44Z</time></trkpt>
			<trkpt lat="54.626490" lon="20.487070"><ele>20.9</ele><time>2026-05-28T07:38:48Z</time></trkpt>
			<trkpt lat="54.626270" lon="20.486940"><ele>20.8</ele><time>2026-05-28T07:38:52Z</time></trkpt>
			<trkpt lat="54.626130" lon="20.486800"><ele>20.8</ele><time>2026-05-28T07:38:55Z</time></trkpt>
			<trkpt lat="54.625930" lon="20.486540"><ele>20.7</ele><time>2026-05-28T07:38:59Z</time></trkpt>
			<trkpt lat="54.625830" lon="20.486430"><ele>20.7</ele><time>2026-05-28T07:39:03Z</time></trkpt>
			<trkpt lat="54.625740" lon="20.486350"><ele>20.7</ele><time>2026-05-28T07:39:06Z</time></trkpt>
			<trkpt lat="54.625650" lon="20.486310"><ele>20.7</ele><time>2026-05-28T07:39:10Z</time></trkpt>
			<trkpt lat="54.625590" lon="20.486310"><ele>20.7</ele><time>2026-05-28T07:39:14Z</time></trkpt>
			<trkpt lat="54.625510" lon="20.486340"><ele>20.6</ele><time>2026-05-28T07:39:17Z</time></trkpt>
			<trkpt lat="54.625440" lon="20.486390"><ele>20.6</ele><time>2026-05-28T07:39:21Z</time></trkpt>
			<trkpt lat="54.625260" lon="20.486500"><ele>20.6</ele><time>2026-05-28T07:39:25Z</time></trkpt>
			<trkpt lat="54.625190" lon="20.486520"><ele>20.6</ele><time>2026-05-28T07:39:28Z</time></trkpt>
			<trkpt lat="54.625120" lon="20.486510"><ele>20.6</ele><time>2026-05-28T07:39:32Z</time></trkpt>
			<trkpt lat="54.625050" lon="20.486490"><ele>20.6</ele><time>2026-05-28T07:39:36Z</time></trkpt>
			<trkpt lat="54.624900" lon="20.486360"><ele>20.5</ele><time>2026-05-28T07:39:39Z</time></trkpt>
			<trkpt lat="54.624800" lon="20.486290"><ele>20.5</ele><time>2026-05-28T07:39:43Z</time></trkpt>
			<trkpt lat="54.624720" lon="20.486250"><ele>20.5</ele><time>2026-05-28T07:39:47Z</time></trkpt>
			<trkpt lat="54.624170" lon="20.485390"><ele>20.4</ele><time>2026-05-28T07:39:50Z</time></trkpt>
			<trkpt lat="54.624170" lon="20.485390"><ele>20.4</ele><time>2026-05-28T07:40:17Z</time></trkpt>
			<trkpt lat="54.623830" lon="20.484870"><ele>20.3</ele><time>2026-05-28T07:40:45Z</time></trkpt>
			<trkpt lat="54.620710" lon="20.479990"><ele>18.9</ele><time>2026-05-28T07:41:12Z</time></trkpt>
			<trkpt lat="54.618450" lon="20.476450"><ele>17.5</ele><time>2026-05-28T07:41:39Z</time></trkpt>
			<trkpt lat="54.613220" lon="20.468430"><ele>11.0</ele><time>2026-05-28T07:42:06Z</time></trkpt>
			<trkpt lat="54.609860" lon="20.463470"><ele>10.9</ele><time>2026-05-28T07:42:33Z</time></trkpt>
			<trkpt lat="54.605260" lon="20.456640"><ele>6.7</ele><time>2026-05-28T07:43:00Z</time></trkpt>
			<trkpt lat="54.601210" lon="20.450550"><ele>5.9</ele><time>2026-05-28T07:43:27Z</time></trkpt>
			<trkpt lat="54.597490" lon="20.445020"><ele>6.9</ele><time>2026-05-28T07:43:54Z</time></trkpt>
			<trkpt lat="54.596060" lon="20.442820"><ele>7.5</ele><time>2026-05-28T07:44:21Z</time></trkpt>
			<trkpt lat="54.593950" lon="20.439650"><ele>8.3</ele><time>2026-05-28T07:44:48Z</time></trkpt>
			<trkpt lat="54.593440" lon="20.438890"><ele>7.5</ele><time>2026-05-28T07:45:15Z</time></trkpt>
			<trkpt lat="54.592720" lon="20.437810"><ele>6.4</ele><time>2026-05-28T07:45:42Z</time></trkpt>
			<trkpt lat="54.589420" lon="20.432870"><ele>1.6</ele><time>2026-05-28T07:46:09Z</time></trkpt>
			<trkpt lat="54.587720" lon="20.430270"><ele>0.6</ele><time>2026-05-28T07:46:36Z</time></trkpt>
			<trkpt lat="54.585510" lon="20.426370"><ele>-0.4</ele><time>2026-05-28T07:47:03Z</time></trkpt>
			<trkpt lat="54.584850" lon="20.425140"><ele>-0.0</ele><time>2026-05-28T07:47:30Z</time></trkpt>
			<trkpt lat="54.580890" lon="20.417190"><ele>2.4</ele><time>2026-05-28T07:47:57Z</time></trkpt>
			<trkpt lat="54.579990" lon="20.415360"><ele>3.0</ele><time>2026-05-28T07:48:24Z</time></trkpt>
			<trkpt lat="54.575440" lon="20.406280"><ele>9.4</ele><time>2026-05-28T07:48:51Z</time></trkpt>
			<trkpt lat="54.573100" lon="20.401480"><ele>5.2</ele><time>2026-05-28T07:49:18Z</time></trkpt>
			<trkpt lat="54.571590" lon="20.398520"><ele>2.6</ele><time>2026-05-28T07:49:45Z</time></trkpt>
			<trkpt lat="54.570750" lon="20.396900"><ele>2.2</ele><time>2026-05-28T07:50:12Z</time></trkpt>
			<trkpt lat="54.570080" lon="20.395520"><ele>1.8</ele><time>2026-05-28T07:50:39Z</time></trkpt>
			<trkpt lat="54.565720" lon="20.386770"><ele>0.4</ele><time>2026-05-28T07:51:06Z</time></trkpt>
			<trkpt lat="54.563730" lon="20.382740"><ele>0.5</ele><time>2026-05-28T07:51:33Z</time></trkpt>
			<trkpt lat="54.559880" lon="20.375100"><ele>1.7</ele><time>2026-05-28T07:52:00Z</time></trkpt>
			<trkpt lat="54.558080" lon="20.371440"><ele>2.6</ele><time>2026-05-28T07:52:27Z</time></trkpt>
			<trkpt lat="54.557760" lon="20.370790"><ele>2.8</ele><time>2026-05-28T07:52:54Z</time></trkpt>
			<trkpt lat="54.557360" lon="20.369980"><ele>2.7</ele><time>2026-05-28T07:53:21Z</time></trkpt>
			<trkpt lat="54.556720" lon="20.368670"><ele>2.5</ele><time>2026-05-28T07:53:48Z</time></trkpt>
			<trkpt lat="54.556230" lon="20.368840"><ele>2.4</ele><time>2026-05-28T07:54:15Z</time></trkpt>
			<trkpt lat="54.556030" lon="20.368930"><ele>2.4</ele><time>2026-05-28T07:54:42Z</time></trkpt>
			<trkpt lat="54.555850" lon="20.369130"><ele>2.3</ele><time>2026-05-28T07:55:09Z</time></trkpt>
			<trkpt lat="54.555520" lon="20.369610"><ele>2.3</ele><time>2026-05-28T07:55:36Z</time></trkpt>
			<trkpt lat="54.555370" lon="20.369810"><ele>2.2</ele><time>2026-05-28T07:56:03Z</time></trkpt>
			<trkpt lat="54.555180" lon="20.370010"><ele>2.2</ele><time>2026-05-28T07:56:30Z</time></trkpt>
			<trkpt lat="54.554960" lon="20.370160"><ele>2.1</ele><time>2026-05-28T07:56:57Z</time></trkpt>
			<trkpt lat="54.554620" lon="20.370350"><ele>2.1</ele><time>2026-05-28T07:57:24Z</time></trkpt>
			<trkpt lat="54.553840" lon="20.370730"><ele>1.9</ele><time>2026-05-28T07:57:51Z</time></trkpt>
			<trkpt lat="54.552810" lon="20.371080"><ele>2.2</ele><time>2026-05-28T07:58:18Z</time></trkpt>
			<trkpt lat="54.549870" lon="20.371840"><ele>5.5</ele><time>2026-05-28T07:58:45Z</time></trkpt>
			<trkpt lat="54.549620" lon="20.371870"><ele>5.8</ele><time>2026-05-28T07:59:12Z</time></trkpt>
			<trkpt lat="54.549330" lon="20.371870"><ele>6.1</ele><time>2026-05-28T07:59:39Z</time></trkpt>
			<trkpt lat="54.548650" lon="20.371780"><ele>6.9</ele><time>2026-05-28T08:00:06Z</time></trkpt>
			<trkpt lat="54.544490" lon="20.369710"><ele>7.5</ele><time>2026-05-28T08:00:33Z</time></trkpt>
			<trkpt lat="54.544290" lon="20.369620"><ele>7.4</ele><time>2026-05-28T08:01:00Z</time></trkpt>
			<trkpt lat="54.543460" lon="20.369170"><ele>7.4</ele><time>2026-05-28T08:01:27Z</time></trkpt>
			<trkpt lat="54.542600" lon="20.368330"><ele>7.3</ele><time>2026-05-28T08:01:54Z</time></trkpt>
			<trkpt lat="54.541750" lon="20.367450"><ele>7.5</ele><time>2026-05-28T08:02:21Z</time></trkpt>
			<trkpt lat="54.541540" lon="20.367250"><ele>7.6</ele><time>2026-05-28T08:02:48Z</time></trkpt>
			<trkpt lat="54.541330" lon="20.367140"><ele>7.6</ele><time>2026-05-28T08:03:15Z</time></trkpt>
			<trkpt lat="54.541080" lon="20.367130"><ele>7.7</ele><time>2026-05-28T08:03:42Z</time></trkpt>
			<trkpt lat="54.540830" lon="20.367220"><ele>7.8</ele><time>2026-05-28T08:04:09Z</time></trkpt>
			<trkpt lat="54.539610" lon="20.368010"><ele>8.1</ele><time>2026-05-28T08:04:36Z</time></trkpt>
			<trkpt lat="54.539520" lon="20.368070"><ele>8.1</ele><time>2026-05-28T08:05:03Z</time></trkpt>
			<trkpt lat="54.539250" lon="20.368240"><ele>8.2</ele><time>2026-05-28T08:05:30Z</time></trkpt>
			<trkpt lat="54.538870" lon="20.368450"><ele>8.2</ele><time>2026-05-28T08:05:57Z</time></trkpt>
			<trkpt lat="54.538480" lon="20.368580"><ele>8.3</ele><time>2026-05-28T08:06:24Z</time></trkpt>
			<trkpt lat="54.537970" lon="20.368600"><ele>8.5</ele><time>2026-05-28T08:06:51Z</time></trkpt>
			<trkpt lat="54.537790" lon="20.368570"><ele>8.5</ele><time>2026-05-28T08:07:18Z</time></trkpt>
			<trkpt lat="54.537250" lon="20.368550"><ele>8.6</ele><time>2026-05-28T08:07:45Z</time></trkpt>
			<trkpt lat="54.537060" lon="20.368580"><ele>8.7</ele><time>2026-05-28T08:08:12Z</time></trkpt>
			<trkpt lat="54.535630" lon="20.369450"><ele>9.0</ele><time>2026-05-28T08:08:39Z</time></trkpt>
			<trkpt lat="54.534620" lon="20.370120"><ele>9.2</ele><time>2026-05-28T08:09:06Z</time></trkpt>
			<trkpt lat="54.534390" lon="20.370410"><ele>9.3</ele><time>2026-05-28T08:09:33Z</time></trkpt>
			<trkpt lat="54.533640" lon="20.371340"><ele>9.5</ele><time>2026-05-28T08:10:00Z</time></trkpt>
			<trkpt lat="54.533710" lon="20.371520"><ele>9.5</ele><time>2026-05-28T08:10:27Z</time></trkpt>
			<trkpt lat="54.533710" lon="20.371770"><ele>9.6</ele><time>2026-05-28T08:10:54Z</time></trkpt>
			<trkpt lat="54.533690" lon="20.372690"><ele>9.7</ele><time>2026-05-28T08:11:21Z</time></trkpt>
			<trkpt lat="54.533650" lon="20.376740"><ele>11.9</ele><time>2026-05-28T08:11:48Z</time></trkpt>
			<trkpt lat="54.533620" lon="20.377970"><ele>12.6</ele><time>2026-05-28T08:12:15Z</time></trkpt>
			<trkpt lat="54.532980" lon="20.384110"><ele>13.9</ele><time>2026-05-28T08:12:42Z</time></trkpt>
			<trkpt lat="54.532920" lon="20.384620"><ele>13.5</ele><time>2026-05-28T08:13:09Z</time></trkpt>
			<trkpt lat="54.532820" lon="20.384990"><ele>13.2</ele><time>2026-05-28T08:13:36Z</time></trkpt>
			<trkpt lat="54.532610" lon="20.385280"><ele>12.9</ele><time>2026-05-28T08:14:03Z</time></trkpt>
			<trkpt lat="54.530340" lon="20.388010"><ele>9.9</ele><time>2026-05-28T08:14:30Z</time></trkpt>
			<trkpt lat="54.530180" lon="20.388340"><ele>9.6</ele><time>2026-05-28T08:14:57Z</time></trkpt>
			<trkpt lat="54.530030" lon="20.388920"><ele>9.2</ele><time>2026-05-28T08:15:24Z</time></trkpt>
			<trkpt lat="54.529940" lon="20.389830"><ele>9.9</ele><time>2026-05-28T08:15:51Z</time></trkpt>
			<trkpt lat="54.529730" lon="20.391540"><ele>12.0</ele><time>2026-05-28T08:16:18Z</time></trkpt>
			<trkpt lat="54.529650" lon="20.391990"><ele>12.5</ele><time>2026-05-28T08:16:45Z</time></trkpt>
			<trkpt lat="54.529510" lon="20.392740"><ele>13.5</ele><time>2026-05-28T08:17:12Z</time></trkpt>
			<trkpt lat="54.529320" lon="20.393820"><ele>14.8</ele><time>2026-05-28T08:17:39Z</time></trkpt>
			<trkpt lat="54.528910" lon="20.395910"><ele>17.5</ele><time>2026-05-28T08:18:06Z</time></trkpt>
			<trkpt lat="54.528620" lon="20.396870"><ele>18.8</ele><time>2026-05-28T08:18:33Z</time></trkpt>
			<trkpt lat="54.528280" lon="20.397590"><ele>19.9</ele><time>2026-05-28T08:19:00Z</time></trkpt>
			<trkpt lat="54.525470" lon="20.402160"><ele>24.7</ele><time>2026-05-28T08:19:27Z</time></trkpt>
			<trkpt lat="54.524380" lon="20.403610"><ele>26.3</ele><time>2026-05-28T08:19:54Z</time></trkpt>
			<trkpt lat="54.524380" lon="20.403610"><ele>26.3</ele><time>2026-05-28T08:20:12Z</time></trkpt>
			<trkpt lat="54.521970" lon="20.406810"><ele>24.7</ele><time>2026-05-28T08:20:30Z</time></trkpt>
			<trkpt lat="54.520330" lon="20.409260"><ele>23.0</ele><time>2026-05-28T08:20:48Z</time></trkpt>
			<trkpt lat="54.516140" lon="20.415910"><ele>21.1</ele><time>2026-05-28T08:21:05Z</time></trkpt>
			<trkpt lat="54.513720" lon="20.419340"><ele>21.5</ele><time>2026-05-28T08:21:23Z</time></trkpt>
			<trkpt lat="54.510740" lon="20.423500"><ele>20.8</ele><time>2026-05-28T08:21:41Z</time></trkpt>
			<trkpt lat="54.510380" lon="20.424070"><ele>20.3</ele><time>2026-05-28T08:21:58Z</time></trkpt>
			<trkpt lat="54.509690" lon="20.425400"><ele>19.4</ele><time>2026-05-28T08:22:16Z</time></trkpt>
			<trkpt lat="54.509320" lon="20.426230"><ele>18.9</ele><time>2026-05-28T08:22:34Z</time></trkpt>
			<trkpt lat="54.509040" lon="20.426970"><ele>18.4</ele><time>2026-05-28T08:22:51Z</time></trkpt>
			<trkpt lat="54.508650" lon="20.428460"><ele>17.6</ele><time>2026-05-28T08:23:09Z</time></trkpt>
			<trkpt lat="54.506460" lon="20.438320"><ele>32.0</ele><time>2026-05-28T08:23:27Z</time></trkpt>
			<trkpt lat="54.504850" lon="20.445520"><ele>26.9</ele><time>2026-05-28T08:23:44Z</time></trkpt>
			<trkpt lat="54.504720" lon="20.445940"><ele>26.6</ele><time>2026-05-28T08:24:02Z</time></trkpt>
			<trkpt lat="54.504630" lon="20.446210"><ele>26.4</ele><time>2026-05-28T08:24:20Z</time></trkpt>
			<trkpt lat="54.504540" lon="20.446440"><ele>26.2</ele><time>2026-05-28T08:24:37Z</time></trkpt>
			<trkpt lat="54.504430" lon="20.446660"><ele>26.4</ele><time>2026-05-28T08:24:55Z</time></trkpt>
			<trkpt lat="54.503900" lon="20.447660"><ele>27.6</ele><time>2026-05-28T08:25:13Z</time></trkpt>
			<trkpt lat="54.503480" lon="20.447560"><ele>28.2</ele><time>2026-05-28T08:25:30Z</time></trkpt>
			<trkpt lat="54.502180" lon="20.447370"><ele>30.1</ele><time>2026-05-28T08:25:48Z</time></trkpt>
			<trkpt lat="54.502030" lon="20.447250"><ele>30.4</ele><time>2026-05-28T08:26:06Z</time></trkpt>
			<trkpt lat="54.501940" lon="20.447150"><ele>30.5</ele><time>2026-05-28T08:26:24Z</time></trkpt>
			<trkpt lat="54.501840" lon="20.447010"><ele>30.7</ele><time>2026-05-28T08:26:41Z</time></trkpt>
			<trkpt lat="54.500520" lon="20.445000"><ele>33.3</ele><time>2026-05-28T08:26:59Z</time></trkpt>
			<trkpt lat="54.500380" lon="20.444750"><ele>33.6</ele><time>2026-05-28T08:27:17Z</time></trkpt>
			<trkpt lat="54.500320" lon="20.444600"><ele>33.8</ele><time>2026-05-28T08:27:34Z</time></trkpt>
			<trkpt lat="54.500240" lon="20.444000"><ele>34.4</ele><time>2026-05-28T08:27:52Z</time></trkpt>
			<trkpt lat="54.500070" lon="20.443820"><ele>34.8</ele><time>2026-05-28T08:28:10Z</time></trkpt>
			<trkpt lat="54.499870" lon="20.443680"><ele>35.3</ele><time>2026-05-28T08:28:27Z</time></trkpt>
			<trkpt lat="54.499200" lon="20.443340"><ele>36.9</ele><time>2026-05-28T08:28:45Z</time></trkpt>
			<trkpt lat="54.498880" lon="20.443120"><ele>37.7</ele><time>2026-05-28T08:29:03Z</time></trkpt>
			<trkpt lat="54.498700" lon="20.442950"><ele>38.1</ele><time>2026-05-28T08:29:20Z</time></trkpt>
			<trkpt lat="54.498190" lon="20.442410"><ele>39.5</ele><time>2026-05-28T08:29:38Z</time></trkpt>
			<trkpt lat="54.497770" lon="20.442250"><ele>40.5</ele><time>2026-05-28T08:29:56Z</time></trkpt>
			<trkpt lat="54.497680" lon="20.442260"><ele>40.7</ele><time>2026-05-28T08:30:13Z</time></trkpt>
			<trkpt lat="54.497500" lon="20.442310"><ele>41.1</ele><time>2026-05-28T08:30:31Z</time></trkpt>
			<trkpt lat="54.497390" lon="20.442400"><ele>41.4</ele><time>2026-05-28T08:30:49Z</time></trkpt>
			<trkpt lat="54.496900" lon="20.442880"><ele>42.6</ele><time>2026-05-28T08:31:06Z</time></trkpt>
			<trkpt lat="54.494440" lon="20.444590"><ele>47.4</ele><time>2026-05-28T08:31:24Z</time></trkpt>
			<trkpt lat="54.494150" lon="20.444800"><ele>47.7</ele><time>2026-05-28T08:31:42Z</time></trkpt>
			<trkpt lat="54.493170" lon="20.445000"><ele>48.6</ele><time>2026-05-28T08:31:59Z</time></trkpt>
			<trkpt lat="54.493010" lon="20.445070"><ele>48.8</ele><time>2026-05-28T08:32:17Z</time></trkpt>
			<trkpt lat="54.492300" lon="20.445540"><ele>49.5</ele><time>2026-05-28T08:32:35Z</time></trkpt>
			<trkpt lat="54.491610" lon="20.446090"><ele>50.3</ele><time>2026-05-28T08:32:53Z</time></trkpt>
			<trkpt lat="54.490090" lon="20.447240"><ele>51.9</ele><time>2026-05-28T08:33:10Z</time></trkpt>
			<trkpt lat="54.489420" lon="20.447500"><ele>52.7</ele><time>2026-05-28T08:33:28Z</time></trkpt>
			<trkpt lat="54.488730" lon="20.447660"><ele>53.5</ele><time>2026-05-28T08:33:46Z</time></trkpt>
			<trkpt lat="54.488080" lon="20.447750"><ele>54.3</ele><time>2026-05-28T08:34:03Z</time></trkpt>
			<trkpt lat="54.487450" lon="20.447740"><ele>55.0</ele><time>2026-05-28T08:34:21Z</time></trkpt>
			<trkpt lat="54.486330" lon="20.447390"><ele>56.4</ele><time>2026-05-28T08:34:39Z</time></trkpt>
			<trkpt lat="54.484680" lon="20.446730"><ele>58.1</ele><time>2026-05-28T08:34:56Z</time></trkpt>
			<trkpt lat="54.483470" lon="20.446310"><ele>58.5</ele><time>2026-05-28T08:35:14Z</time></trkpt>
			<trkpt lat="54.482100" lon="20.445490"><ele>59.0</ele><time>2026-05-28T08:35:32Z</time></trkpt>
			<trkpt lat="54.477910" lon="20.442760"><ele>62.1</ele><time>2026-05-28T08:35:49Z</time></trkpt>
			<trkpt lat="54.477780" lon="20.442640"><ele>62.3</ele><time>2026-05-28T08:36:07Z</time></trkpt>
			<trkpt lat="54.476620" lon="20.441990"><ele>63.6</ele><time>2026-05-28T08:36:25Z</time></trkpt>
			<trkpt lat="54.476180" lon="20.441810"><ele>64.1</ele><time>2026-05-28T08:36:42Z</time></trkpt>
			<trkpt lat="54.474750" lon="20.441610"><ele>65.7</ele><time>2026-05-28T08:37:00Z</time></trkpt>
			<trkpt lat="54.473480" lon="20.441430"><ele>66.0</ele><time>2026-05-28T08:37:18Z</time></trkpt>
			<trkpt lat="54.470680" lon="20.440980"><ele>66.7</ele><time>2026-05-28T08:37:35Z</time></trkpt>
			<trkpt lat="54.469740" lon="20.440900"><ele>66.9</ele><time>2026-05-28T08:37:53Z</time></trkpt>
			<trkpt lat="54.465930" lon="20.440240"><ele>74.0</ele><time>2026-05-28T08:38:11Z</time></trkpt>
			<trkpt lat="54.463920" lon="20.439920"><ele>78.2</ele><time>2026-05-28T08:38:28Z</time></trkpt>
			<trkpt lat="54.462810" lon="20.439780"><ele>81.2</ele><time>2026-05-28T08:38:46Z</time></trkpt>
			<trkpt lat="54.462570" lon="20.439810"><ele>81.8</ele><time>2026-05-28T08:39:04Z</time></trkpt>
			<trkpt lat="54.460050" lon="20.439620"><ele>88.6</ele><time>2026-05-28T08:39:22Z</time></trkpt>
			<trkpt lat="54.459110" lon="20.439710"><ele>91.1</ele><time>2026-05-28T08:39:39Z</time></trkpt>
			<trkpt lat="54.455110" lon="20.440650"><ele>101.0</ele><time>2026-05-28T08:39:57Z</time></trkpt>
			<trkpt lat="54.450940" lon="20.442430"><ele>109.0</ele><time>2026-05-28T08:40:15Z</time></trkpt>
			<trkpt lat="54.449130" lon="20.443130"><ele>111.7</ele><time>2026-05-28T08:40:32Z</time></trkpt>
			<trkpt lat="54.448820" lon="20.443230"><ele>112.1</ele><time>2026-05-28T08:40:50Z</time></trkpt>
			<trkpt lat="54.448400" lon="20.443530"><ele>112.7</ele><time>2026-05-28T08:41:08Z</time></trkpt>
			<trkpt lat="54.448270" lon="20.443670"><ele>113.0</ele><time>2026-05-28T08:41:25Z</time></trkpt>
			<trkpt lat="54.448040" lon="20.443970"><ele>113.4</ele><time>2026-05-28T08:41:43Z</time></trkpt>
			<trkpt lat="54.447910" lon="20.444270"><ele>113.5</ele><time>2026-05-28T08:42:01Z</time></trkpt>
			<trkpt lat="54.447830" lon="20.444510"><ele>113.6</ele><time>2026-05-28T08:42:18Z</time></trkpt>
			<trkpt lat="54.447180" lon="20.446980"><ele>114.5</ele><time>2026-05-28T08:42:36Z</time></trkpt>
			<trkpt lat="54.446880" lon="20.448240"><ele>115.0</ele><time>2026-05-28T08:42:54Z</time></trkpt>
			<trkpt lat="54.446550" lon="20.449470"><ele>115.5</ele><time>2026-05-28T08:43:11Z</time></trkpt>
			<trkpt lat="54.446450" lon="20.449700"><ele>115.6</ele><time>2026-05-28T08:43:29Z</time></trkpt>
			<trkpt lat="54.446300" lon="20.450000"><ele>115.7</ele><time>2026-05-28T08:43:47Z</time></trkpt>
			<trkpt lat="54.446130" lon="20.450380"><ele>115.9</ele><time>2026-05-28T08:44:04Z</time></trkpt>
			<trkpt lat="54.445830" lon="20.450610"><ele>116.1</ele><time>2026-05-28T08:44:22Z</time></trkpt>
			<trkpt lat="54.445710" lon="20.450730"><ele>116.2</ele><time>2026-05-28T08:44:40Z</time></trkpt>
			<trkpt lat="54.445590" lon="20.450760"><ele>116.3</ele><time>2026-05-28T08:44:58Z</time></trkpt>
			<trkpt lat="54.445470" lon="20.450760"><ele>116.3</ele><time>2026-05-28T08:45:15Z</time></trkpt>
			<trkpt lat="54.445250" lon="20.450730"><ele>116.5</ele><time>2026-05-28T08:45:33Z</time></trkpt>
			<trkpt lat="54.443500" lon="20.450350"><ele>117.3</ele><time>2026-05-28T08:45:51Z</time></trkpt>
			<trkpt lat="54.443230" lon="20.450310"><ele>117.5</ele><time>2026-05-28T08:46:08Z</time></trkpt>
			<trkpt lat="54.442960" lon="20.450280"><ele>117.6</ele><time>2026-05-28T08:46:26Z</time></trkpt>
			<trkpt lat="54.442790" lon="20.450300"><ele>117.7</ele><time>2026-05-28T08:46:44Z</time></trkpt>
			<trkpt lat="54.442540" lon="20.450390"><ele>117.8</ele><time>2026-05-28T08:47:01Z</time></trkpt>
			<trkpt lat="54.441310" lon="20.450890"><ele>118.4</ele><time>2026-05-28T08:47:19Z</time></trkpt>
			<trkpt lat="54.440980" lon="20.450990"><ele>118.5</ele><time>2026-05-28T08:47:37Z</time></trkpt>
			<trkpt lat="54.439560" lon="20.451240"><ele>119.3</ele><time>2026-05-28T08:47:54Z</time></trkpt>
			<trkpt lat="54.438160" lon="20.451460"><ele>122.3</ele><time>2026-05-28T08:48:12Z</time></trkpt>
			<trkpt lat="54.435290" lon="20.451950"><ele>128.5</ele><time>2026-05-28T08:48:30Z</time></trkpt>
			<trkpt lat="54.435160" lon="20.452010"><ele>128.8</ele><time>2026-05-28T08:48:47Z</time></trkpt>
			<trkpt lat="54.435010" lon="20.452110"><ele>129.1</ele><time>2026-05-28T08:49:05Z</time></trkpt>
			<trkpt lat="54.431110" lon="20.455640"><ele>125.8</ele><time>2026-05-28T08:49:23Z</time></trkpt>
			<trkpt lat="54.430370" lon="20.454560"><ele>124.5</ele><time>2026-05-28T08:49:40Z</time></trkpt>
			<trkpt lat="54.430240" lon="20.454420"><ele>124.3</ele><time>2026-05-28T08:49:58Z</time></trkpt>
			<trkpt lat="54.430040" lon="20.454290"><ele>124.0</ele><time>2026-05-28T08:50:16Z</time></trkpt>
			<trkpt lat="54.429930" lon="20.454250"><ele>123.8</ele><time>2026-05-28T08:50:33Z</time></trkpt>
			<trkpt lat="54.429830" lon="20.454230"><ele>123.7</ele><time>2026-05-28T08:50:51Z</time></trkpt>
			<trkpt lat="54.429300" lon="20.454230"><ele>124.0</ele><time>2026-05-28T08:51:09Z</time></trkpt>
			<trkpt lat="54.428200" lon="20.454270"><ele>125.5</ele><time>2026-05-28T08:51:27Z</time></trkpt>
			<trkpt lat="54.427680" lon="20.454390"><ele>126.2</ele><time>2026-05-28T08:51:44Z</time></trkpt>
			<trkpt lat="54.427530" lon="20.454410"><ele>126.5</ele><time>2026-05-28T08:52:02Z</time></trkpt>
			<trkpt lat="54.427020" lon="20.454430"><ele>127.2</ele><time>2026-05-28T08:52:20Z</time></trkpt>
			<trkpt lat="54.426730" lon="20.454470"><ele>127.6</ele><time>2026-05-28T08:52:37Z</time></trkpt>
			<trkpt lat="54.424560" lon="20.454860"><ele>130.6</ele><time>2026-05-28T08:52:55Z</time></trkpt>
			<trkpt lat="54.422890" lon="20.455140"><ele>131.9</ele><time>2026-05-28T08:53:13Z</time></trkpt>
			<trkpt lat="54.422460" lon="20.455150"><ele>132.2</ele><time>2026-05-28T08:53:30Z</time></trkpt>
			<trkpt lat="54.422070" lon="20.455040"><ele>132.5</ele><time>2026-05-28T08:53:48Z</time></trkpt>
			<trkpt lat="54.421700" lon="20.454860"><ele>132.7</ele><time>2026-05-28T08:54:06Z</time></trkpt>
			<trkpt lat="54.421310" lon="20.454650"><ele>133.0</ele><time>2026-05-28T08:54:23Z</time></trkpt>
			<trkpt lat="54.420000" lon="20.453980"><ele>133.9</ele><time>2026-05-28T08:54:41Z</time></trkpt>
			<trkpt lat="54.419860" lon="20.453980"><ele>134.0</ele><time>2026-05-28T08:54:59Z</time></trkpt>
			<trkpt lat="54.419740" lon="20.454030"><ele>134.1</ele><time>2026-05-28T08:55:16Z</time></trkpt>
			<trkpt lat="54.419650" lon="20.454130"><ele>134.2</ele><time>2026-05-28T08:55:34Z</time></trkpt>
			<trkpt lat="54.419570" lon="20.454280"><ele>134.3</ele><time>2026-05-28T08:55:52Z</time></trkpt>
			<trkpt lat="54.419510" lon="20.454460"><ele>134.3</ele><time>2026-05-28T08:56:09Z</time></trkpt>
			<trkpt lat="54.419470" lon="20.454730"><ele>134.5</ele><time>2026-05-28T08:56:27Z</time></trkpt>
			<trkpt lat="54.419400" lon="20.455820"><ele>133.7</ele><time>2026-05-28T08:56:45Z</time></trkpt>
			<trkpt lat="54.419240" lon="20.458060"><ele>130.4</ele><time>2026-05-28T08:57:02Z</time></trkpt>
			<trkpt lat="54.419000" lon="20.462060"><ele>124.5</ele><time>2026-05-28T08:57:20Z</time></trkpt>
			<trkpt lat="54.419000" lon="20.462060"><ele>124.5</ele><time>2026-05-28T08:57:35Z</time></trkpt>
			<trkpt lat="54.418890" lon="20.463900"><ele>121.9</ele><time>2026-05-28T08:57:50Z</time></trkpt>
			<trkpt lat="54.418620" lon="20.466920"><ele>118.8</ele><time>2026-05-28T08:58:05Z</time></trkpt>
			<trkpt lat="54.418040" lon="20.471540"><ele>114.5</ele><time>2026-05-28T08:58:19Z</time></trkpt>
			<trkpt lat="54.418010" lon="20.473160"><ele>113.1</ele><time>2026-05-28T08:58:34Z</time></trkpt>
			<trkpt lat="54.418100" lon="20.474290"><ele>111.5</ele><time>2026-05-28T08:58:49Z</time></trkpt>
			<trkpt lat="54.418920" lon="20.481210"><ele>100.4</ele><time>2026-05-28T08:59:04Z</time></trkpt>
			<trkpt lat="54.419810" lon="20.488630"><ele>95.1</ele><time>2026-05-28T08:59:19Z</time></trkpt>
			<trkpt lat="54.419960" lon="20.490190"><ele>94.3</ele><time>2026-05-28T08:59:34Z</time></trkpt>
			<trkpt lat="54.420070" lon="20.491780"><ele>93.5</ele><time>2026-05-28T08:59:48Z</time></trkpt>
			<trkpt lat="54.420450" lon="20.498170"><ele>87.4</ele><time>2026-05-28T09:00:03Z</time></trkpt>
			<trkpt lat="54.420590" lon="20.500680"><ele>85.0</ele><time>2026-05-28T09:00:18Z</time></trkpt>
			<trkpt lat="54.420650" lon="20.501750"><ele>83.9</ele><time>2026-05-28T09:00:33Z</time></trkpt>
			<trkpt lat="54.420760" lon="20.502580"><ele>83.1</ele><time>2026-05-28T09:00:48Z</time></trkpt>
			<trkpt lat="54.421080" lon="20.507970"><ele>77.9</ele><time>2026-05-28T09:01:03Z</time></trkpt>
			<trkpt lat="54.421300" lon="20.511410"><ele>75.0</ele><time>2026-05-28T09:01:17Z</time></trkpt>
			<trkpt lat="54.421420" lon="20.513340"><ele>73.8</ele><time>2026-05-28T09:01:32Z</time></trkpt>
			<trkpt lat="54.421640" lon="20.515590"><ele>72.4</ele><time>2026-05-28T09:01:47Z</time></trkpt>
			<trkpt lat="54.422010" lon="20.518060"><ele>70.9</ele><time>2026-05-28T09:02:02Z</time></trkpt>
			<trkpt lat="54.422180" lon="20.519200"><ele>70.2</ele><time>2026-05-28T09:02:17Z</time></trkpt>
			<trkpt lat="54.422110" lon="20.519900"><ele>70.2</ele><time>2026-05-28T09:02:32Z</time></trkpt>
			<trkpt lat="54.422030" lon="20.520340"><ele>70.2</ele><time>2026-05-28T09:02:46Z</time></trkpt>
			<trkpt lat="54.421840" lon="20.521380"><ele>70.3</ele><time>2026-05-28T09:03:01Z</time></trkpt>
			<trkpt lat="54.421690" lon="20.522330"><ele>70.4</ele><time>2026-05-28T09:03:16Z</time></trkpt>
			<trkpt lat="54.421630" lon="20.522630"><ele>70.5</ele><time>2026-05-28T09:03:31Z</time></trkpt>
			<trkpt lat="54.421520" lon="20.523280"><ele>70.5</ele><time>2026-05-28T09:03:46Z</time></trkpt>
			<trkpt lat="54.421440" lon="20.523790"><ele>70.6</ele><time>2026-05-28T09:04:01Z</time></trkpt>
			<trkpt lat="54.421120" lon="20.525580"><ele>70.8</ele><time>2026-05-28T09:04:15Z</time></trkpt>
			<trkpt lat="54.420430" lon="20.529740"><ele>69.7</ele><time>2026-05-28T09:04:30Z</time></trkpt>
			<trkpt lat="54.420210" lon="20.531770"><ele>67.8</ele><time>2026-05-28T09:04:45Z</time></trkpt>
			<trkpt lat="54.420160" lon="20.533260"><ele>66.4</ele><time>2026-05-28T09:05:00Z</time></trkpt>
			<trkpt lat="54.420180" lon="20.534330"><ele>65.4</ele><time>2026-05-28T09:05:15Z</time></trkpt>
			<trkpt lat="54.420250" lon="20.534980"><ele>64.8</ele><time>2026-05-28T09:05:29Z</time></trkpt>
			<trkpt lat="54.420460" lon="20.536740"><ele>63.1</ele><time>2026-05-28T09:05:44Z</time></trkpt>
			<trkpt lat="54.420510" lon="20.537520"><ele>62.4</ele><time>2026-05-28T09:05:59Z</time></trkpt>
			<trkpt lat="54.420460" lon="20.538690"><ele>61.6</ele><time>2026-05-28T09:06:14Z</time></trkpt>
			<trkpt lat="54.420350" lon="20.540810"><ele>60.2</ele><time>2026-05-28T09:06:29Z</time></trkpt>
			<trkpt lat="54.420330" lon="20.541090"><ele>60.0</ele><time>2026-05-28T09:06:44Z</time></trkpt>
			<trkpt lat="54.419840" lon="20.545320"><ele>57.1</ele><time>2026-05-28T09:06:58Z</time></trkpt>
			<trkpt lat="54.419710" lon="20.546250"><ele>56.4</ele><time>2026-05-28T09:07:13Z</time></trkpt>
			<trkpt lat="54.419480" lon="20.546730"><ele>56.1</ele><time>2026-05-28T09:07:28Z</time></trkpt>
			<trkpt lat="54.416920" lon="20.550840"><ele>54.2</ele><time>2026-05-28T09:07:43Z</time></trkpt>
			<trkpt lat="54.416220" lon="20.552010"><ele>53.7</ele><time>2026-05-28T09:07:58Z</time></trkpt>
			<trkpt lat="54.415080" lon="20.553840"><ele>53.9</ele><time>2026-05-28T09:08:13Z</time></trkpt>
			<trkpt lat="54.412260" lon="20.558450"><ele>56.7</ele><time>2026-05-28T09:08:27Z</time></trkpt>
			<trkpt lat="54.412040" lon="20.558640"><ele>56.8</ele><time>2026-05-28T09:08:42Z</time></trkpt>
			<trkpt lat="54.411850" lon="20.558770"><ele>57.0</ele><time>2026-05-28T09:08:57Z</time></trkpt>
			<trkpt lat="54.411040" lon="20.559300"><ele>58.9</ele><time>2026-05-28T09:09:12Z</time></trkpt>
			<trkpt lat="54.410890" lon="20.559400"><ele>59.4</ele><time>2026-05-28T09:09:27Z</time></trkpt>
			<trkpt lat="54.408840" lon="20.560660"><ele>65.7</ele><time>2026-05-28T09:09:42Z</time></trkpt>
			<trkpt lat="54.408650" lon="20.560780"><ele>66.3</ele><time>2026-05-28T09:09:56Z</time></trkpt>
			<trkpt lat="54.404780" lon="20.563190"><ele>78.4</ele><time>2026-05-28T09:10:11Z</time></trkpt>
			<trkpt lat="54.402140" lon="20.564840"><ele>86.9</ele><time>2026-05-28T09:10:26Z</time></trkpt>
			<trkpt lat="54.401760" lon="20.565090"><ele>88.2</ele><time>2026-05-28T09:10:41Z</time></trkpt>
			<trkpt lat="54.401630" lon="20.565200"><ele>88.6</ele><time>2026-05-28T09:10:56Z</time></trkpt>
			<trkpt lat="54.401540" lon="20.565400"><ele>89.1</ele><time>2026-05-28T09:11:11Z</time></trkpt>
			<trkpt lat="54.401460" lon="20.565620"><ele>89.0</ele><time>2026-05-28T09:11:25Z</time></trkpt>
			<trkpt lat="54.401340" lon="20.566200"><ele>88.6</ele><time>2026-05-28T09:11:40Z</time></trkpt>
			<trkpt lat="54.401220" lon="20.566560"><ele>88.3</ele><time>2026-05-28T09:11:55Z</time></trkpt>
			<trkpt lat="54.401110" lon="20.566850"><ele>88.1</ele><time>2026-05-28T09:12:10Z</time></trkpt>
			<trkpt lat="54.400720" lon="20.567750"><ele>87.3</ele><time>2026-05-28T09:12:25Z</time></trkpt>
			<trkpt lat="54.400550" lon="20.568160"><ele>87.0</ele><time>2026-05-28T09:12:40Z</time></trkpt>
			<trkpt lat="54.400070" lon="20.569190"><ele>86.1</ele><time>2026-05-28T09:12:54Z</time></trkpt>
			<trkpt lat="54.400000" lon="20.569610"><ele>85.8</ele><time>2026-05-28T09:13:09Z</time></trkpt>
			<trkpt lat="54.399810" lon="20.571260"><ele>84.7</ele><time>2026-05-28T09:13:24Z</time></trkpt>
			<trkpt lat="54.399610" lon="20.572850"><ele>83.7</ele><time>2026-05-28T09:13:39Z</time></trkpt>
			<trkpt lat="54.399480" lon="20.573610"><ele>83.1</ele><time>2026-05-28T09:13:54Z</time></trkpt>
			<trkpt lat="54.399240" lon="20.574420"><ele>82.8</ele><time>2026-05-28T09:14:08Z</time></trkpt>
			<trkpt lat="54.398900" lon="20.575190"><ele>82.7</ele><time>2026-05-28T09:14:23Z</time></trkpt>
			<trkpt lat="54.398400" lon="20.576150"><ele>82.4</ele><time>2026-05-28T09:14:38Z</time></trkpt>
			<trkpt lat="54.397800" lon="20.577220"><ele>82.1</ele><time>2026-05-28T09:14:53Z</time></trkpt>
			<trkpt lat="54.397330" lon="20.578200"><ele>81.8</ele><time>2026-05-28T09:15:08Z</time></trkpt>
			<trkpt lat="54.397040" lon="20.578980"><ele>81.6</ele><time>2026-05-28T09:15:23Z</time></trkpt>
			<trkpt lat="54.396590" lon="20.580400"><ele>81.3</ele><time>2026-05-28T09:15:37Z</time></trkpt>
			<trkpt lat="54.396410" lon="20.580970"><ele>81.2</ele><time>2026-05-28T09:15:52Z</time></trkpt>
			<trkpt lat="54.396070" lon="20.581880"><ele>80.9</ele><time>2026-05-28T09:16:07Z</time></trkpt>
			<trkpt lat="54.394350" lon="20.585990"><ele>79.3</ele><time>2026-05-28T09:16:22Z</time></trkpt>
			<trkpt lat="54.394220" lon="20.586430"><ele>79.1</ele><time>2026-05-28T09:16:37Z</time></trkpt>
			<trkpt lat="54.394110" lon="20.586960"><ele>78.9</ele><time>2026-05-28T09:16:52Z</time></trkpt>
			<trkpt lat="54.394040" lon="20.588280"><ele>78.5</ele><time>2026-05-28T09:17:06Z</time></trkpt>
			<trkpt lat="54.393670" lon="20.592410"><ele>73.2</ele><time>2026-05-28T09:17:21Z</time></trkpt>
			<trkpt lat="54.392950" lon="20.597790"><ele>64.2</ele><time>2026-05-28T09:17:36Z</time></trkpt>
			<trkpt lat="54.392330" lon="20.602550"><ele>62.2</ele><time>2026-05-28T09:17:51Z</time></trkpt>
			<trkpt lat="54.392090" lon="20.604150"><ele>61.8</ele><time>2026-05-28T09:18:06Z</time></trkpt>
			<trkpt lat="54.391910" lon="20.604880"><ele>61.7</ele><time>2026-05-28T09:18:21Z</time></trkpt>
			<trkpt lat="54.391020" lon="20.607880"><ele>61.5</ele><time>2026-05-28T09:18:35Z</time></trkpt>
			<trkpt lat="54.390590" lon="20.609350"><ele>62.4</ele><time>2026-05-28T09:18:50Z</time></trkpt>
			<trkpt lat="54.389970" lon="20.611510"><ele>63.8</ele><time>2026-05-28T09:19:05Z</time></trkpt>
			<trkpt lat="54.389330" lon="20.613690"><ele>65.2</ele><time>2026-05-28T09:19:20Z</time></trkpt>
			<trkpt lat="54.388350" lon="20.617090"><ele>67.8</ele><time>2026-05-28T09:19:35Z</time></trkpt>
			<trkpt lat="54.387950" lon="20.618440"><ele>69.1</ele><time>2026-05-28T09:19:50Z</time></trkpt>
			<trkpt lat="54.387860" lon="20.618820"><ele>69.4</ele><time>2026-05-28T09:20:04Z</time></trkpt>
			<trkpt lat="54.387820" lon="20.619020"><ele>69.6</ele><time>2026-05-28T09:20:19Z</time></trkpt>
			<trkpt lat="54.387820" lon="20.619360"><ele>69.9</ele><time>2026-05-28T09:20:34Z</time></trkpt>
			<trkpt lat="54.387830" lon="20.619480"><ele>70.0</ele><time>2026-05-28T09:20:49Z</time></trkpt>
			<trkpt lat="54.387850" lon="20.619690"><ele>70.2</ele><time>2026-05-28T09:21:04Z</time></trkpt>
			<trkpt lat="54.387960" lon="20.620310"><ele>70.7</ele><time>2026-05-28T09:21:18Z</time></trkpt>
			<trkpt lat="54.388250" lon="20.622010"><ele>72.2</ele><time>2026-05-28T09:21:33Z</time></trkpt>
			<trkpt lat="54.388530" lon="20.624450"><ele>74.2</ele><time>2026-05-28T09:21:48Z</time></trkpt>
			<trkpt lat="54.388570" lon="20.624890"><ele>74.0</ele><time>2026-05-28T09:22:03Z</time></trkpt>
			<trkpt lat="54.388560" lon="20.625300"><ele>73.9</ele><time>2026-05-28T09:22:18Z</time></trkpt>
			<trkpt lat="54.388530" lon="20.625890"><ele>73.7</ele><time>2026-05-28T09:22:33Z</time></trkpt>
			<trkpt lat="54.388510" lon="20.626130"><ele>73.6</ele><time>2026-05-28T09:22:47Z</time></trkpt>
			<trkpt lat="54.388490" lon="20.626380"><ele>73.5</ele><time>2026-05-28T09:23:02Z</time></trkpt>
			<trkpt lat="54.388390" lon="20.626960"><ele>73.3</ele><time>2026-05-28T09:23:17Z</time></trkpt>
			<trkpt lat="54.388340" lon="20.627120"><ele>73.3</ele><time>2026-05-28T09:23:32Z</time></trkpt>
			<trkpt lat="54.388290" lon="20.627270"><ele>73.2</ele><time>2026-05-28T09:23:47Z</time></trkpt>
			<trkpt lat="54.388210" lon="20.627450"><ele>73.1</ele><time>2026-05-28T09:24:02Z</time></trkpt>
			<trkpt lat="54.388090" lon="20.627660"><ele>73.0</ele><time>2026-05-28T09:24:16Z</time></trkpt>
			<trkpt lat="54.387680" lon="20.628250"><ele>72.7</ele><time>2026-05-28T09:24:31Z</time></trkpt>
			<trkpt lat="54.387530" lon="20.628500"><ele>72.6</ele><time>2026-05-28T09:24:46Z</time></trkpt>
			<trkpt lat="54.387440" lon="20.628710"><ele>72.5</ele><time>2026-05-28T09:25:01Z</time></trkpt>
			<trkpt lat="54.387270" lon="20.629200"><ele>72.4</ele><time>2026-05-28T09:25:16Z</time></trkpt>
			<trkpt lat="54.387190" lon="20.629470"><ele>72.3</ele><time>2026-05-28T09:25:31Z</time></trkpt>
			<trkpt lat="54.386550" lon="20.631530"><ele>71.5</ele><time>2026-05-28T09:25:45Z</time></trkpt>
			<trkpt lat="54.386490" lon="20.631770"><ele>71.4</ele><time>2026-05-28T09:26:00Z</time></trkpt>
			<trkpt lat="54.386400" lon="20.632700"><ele>71.4</ele><time>2026-05-28T09:26:15Z</time></trkpt>
			<trkpt lat="54.386320" lon="20.633690"><ele>72.1</ele><time>2026-05-28T09:26:30Z</time></trkpt>
			<trkpt lat="54.386280" lon="20.634010"><ele>72.3</ele><time>2026-05-28T09:26:45Z</time></trkpt>
			<trkpt lat="54.386240" lon="20.634150"><ele>72.4</ele><time>2026-05-28T09:27:00Z</time></trkpt>
			<trkpt lat="54.386180" lon="20.634320"><ele>72.5</ele><time>2026-05-28T09:27:14Z</time></trkpt>
			<trkpt lat="54.385940" lon="20.634770"><ele>73.0</ele><time>2026-05-28T09:27:29Z</time></trkpt>
			<trkpt lat="54.385580" lon="20.635650"><ele>73.7</ele><time>2026-05-28T09:27:44Z</time></trkpt>
			<trkpt lat="54.385530" lon="20.635840"><ele>73.9</ele><time>2026-05-28T09:27:59Z</time></trkpt>
			<trkpt lat="54.385510" lon="20.636070"><ele>74.0</ele><time>2026-05-28T09:28:14Z</time></trkpt>
			<trkpt lat="54.385650" lon="20.637070"><ele>74.8</ele><time>2026-05-28T09:28:28Z</time></trkpt>
			<trkpt lat="54.385690" lon="20.637400"><ele>75.0</ele><time>2026-05-28T09:28:43Z</time></trkpt>
			<trkpt lat="54.385850" lon="20.638030"><ele>75.5</ele><time>2026-05-28T09:28:58Z</time></trkpt>
			<trkpt lat="54.386020" lon="20.638680"><ele>76.0</ele><time>2026-05-28T09:29:13Z</time></trkpt>
			<trkpt lat="54.386110" lon="20.638880"><ele>76.2</ele><time>2026-05-28T09:29:28Z</time></trkpt>
			<trkpt lat="54.386490" lon="20.639530"><ele>76.8</ele><time>2026-05-28T09:29:43Z</time></trkpt>
			<trkpt lat="54.386570" lon="20.639660"><ele>76.9</ele><time>2026-05-28T09:29:57Z</time></trkpt>
			<trkpt lat="54.386220" lon="20.640650"><ele>77.7</ele><time>2026-05-28T09:30:12Z</time></trkpt>
			<trkpt lat="54.386320" lon="20.640840"><ele>77.6</ele><time>2026-05-28T09:30:27Z</time></trkpt>
			<trkpt lat="54.386800" lon="20.641960"><ele>76.9</ele><time>2026-05-28T09:30:42Z</time></trkpt>
			<trkpt lat="54.387010" lon="20.642480"><ele>76.6</ele><time>2026-05-28T09:30:57Z</time></trkpt>
			<trkpt lat="54.387130" lon="20.642810"><ele>76.5</ele><time>2026-05-28T09:31:12Z</time></trkpt>
			<trkpt lat="54.387160" lon="20.642950"><ele>76.4</ele><time>2026-05-28T09:31:26Z</time></trkpt>
			<trkpt lat="54.387190" lon="20.643150"><ele>76.3</ele><time>2026-05-28T09:31:41Z</time></trkpt>
			<trkpt lat="54.387240" lon="20.643680"><ele>76.0</ele><time>2026-05-28T09:31:56Z</time></trkpt>
			<trkpt lat="54.387290" lon="20.644040"><ele>75.9</ele><time>2026-05-28T09:32:11Z</time></trkpt>
			<trkpt lat="54.387310" lon="20.644160"><ele>75.8</ele><time>2026-05-28T09:32:26Z</time></trkpt>
			<trkpt lat="54.387340" lon="20.644310"><ele>75.7</ele><time>2026-05-28T09:32:41Z</time></trkpt>
			<trkpt lat="54.387440" lon="20.644620"><ele>75.6</ele><time>2026-05-28T09:32:55Z</time></trkpt>
			<trkpt lat="54.387880" lon="20.645780"><ele>74.9</ele><time>2026-05-28T09:33:10Z</time></trkpt>
			<trkpt lat="54.388230" lon="20.646680"><ele>74.4</ele><time>2026-05-28T09:33:25Z</time></trkpt>
			<trkpt lat="54.388270" lon="20.646830"><ele>74.4</ele><time>2026-05-28T09:33:40Z</time></trkpt>
			<trkpt lat="54.388270" lon="20.647470"><ele>74.1</ele><time>2026-05-28T09:33:55Z</time></trkpt>
			<trkpt lat="54.388270" lon="20.648040"><ele>73.8</ele><time>2026-05-28T09:34:10Z</time></trkpt>
			<trkpt lat="54.388220" lon="20.648280"><ele>73.7</ele><time>2026-05-28T09:34:24Z</time></trkpt>
			<trkpt lat="54.387520" lon="20.651990"><ele>73.6</ele><time>2026-05-28T09:34:39Z</time></trkpt>
			<trkpt lat="54.387250" lon="20.653610"><ele>73.7</ele><time>2026-05-28T09:34:54Z</time></trkpt>
			<trkpt lat="54.387010" lon="20.654890"><ele>73.8</ele><time>2026-05-28T09:35:09Z</time></trkpt>
			<trkpt lat="54.386900" lon="20.655460"><ele>73.9</ele><time>2026-05-28T09:35:24Z</time></trkpt>
			<trkpt lat="54.385800" lon="20.659660"><ele>74.3</ele><time>2026-05-28T09:35:38Z</time></trkpt>
			<trkpt lat="54.385640" lon="20.660340"><ele>74.3</ele><time>2026-05-28T09:35:53Z</time></trkpt>
			<trkpt lat="54.385590" lon="20.660750"><ele>74.4</ele><time>2026-05-28T09:36:08Z</time></trkpt>
			<trkpt lat="54.385550" lon="20.661200"><ele>74.4</ele><time>2026-05-28T09:36:23Z</time></trkpt>
			<trkpt lat="54.385500" lon="20.662740"><ele>74.6</ele><time>2026-05-28T09:36:38Z</time></trkpt>
			<trkpt lat="54.385480" lon="20.663620"><ele>74.7</ele><time>2026-05-28T09:36:53Z</time></trkpt>
			<trkpt lat="54.385460" lon="20.664470"><ele>74.8</ele><time>2026-05-28T09:37:07Z</time></trkpt>
			<trkpt lat="54.385450" lon="20.664900"><ele>74.9</ele><time>2026-05-28T09:37:22Z</time></trkpt>
			<trkpt lat="54.385450" lon="20.665000"><ele>74.9</ele><time>2026-05-28T09:37:37Z</time></trkpt>
			<trkpt lat="54.385420" lon="20.665870"><ele>75.0</ele><time>2026-05-28T09:37:52Z</time></trkpt>
			<trkpt lat="54.385390" lon="20.666740"><ele>75.1</ele><time>2026-05-28T09:38:07Z</time></trkpt>
			<trkpt lat="54.385380" lon="20.667250"><ele>75.3</ele><time>2026-05-28T09:38:22Z</time></trkpt>
			<trkpt lat="54.385330" lon="20.669210"><ele>76.1</ele><time>2026-05-28T09:38:36Z</time></trkpt>
			<trkpt lat="54.385270" lon="20.671180"><ele>76.9</ele><time>2026-05-28T09:38:51Z</time></trkpt>
			<trkpt lat="54.385260" lon="20.672000"><ele>77.3</ele><time>2026-05-28T09:39:06Z</time></trkpt>
			<trkpt lat="54.385060" lon="20.677560"><ele>77.2</ele><time>2026-05-28T09:39:21Z</time></trkpt>
			<trkpt lat="54.384880" lon="20.685520"><ele>70.1</ele><time>2026-05-28T09:39:36Z</time></trkpt>
			<trkpt lat="54.384700" lon="20.687070"><ele>69.8</ele><time>2026-05-28T09:39:51Z</time></trkpt>
			<trkpt lat="54.384280" lon="20.687810"><ele>69.7</ele><time>2026-05-28T09:40:05Z</time></trkpt>
			<trkpt lat="54.383840" lon="20.688400"><ele>69.5</ele><time>2026-05-28T09:40:20Z</time></trkpt>
			<trkpt lat="54.383350" lon="20.689310"><ele>69.3</ele><time>2026-05-28T09:40:35Z</time></trkpt>
			<trkpt lat="54.383120" lon="20.690520"><ele>69.1</ele><time>2026-05-28T09:40:50Z</time></trkpt>
			<trkpt lat="54.383130" lon="20.691620"><ele>69.0</ele><time>2026-05-28T09:41:05Z</time></trkpt>
			<trkpt lat="54.383450" lon="20.692800"><ele>68.7</ele><time>2026-05-28T09:41:20Z</time></trkpt>
			<trkpt lat="54.383760" lon="20.694210"><ele>68.3</ele><time>2026-05-28T09:41:34Z</time></trkpt>
			<trkpt lat="54.383740" lon="20.695480"><ele>67.9</ele><time>2026-05-28T09:41:49Z</time></trkpt>
			<trkpt lat="54.383080" lon="20.701440"><ele>66.0</ele><time>2026-05-28T09:42:04Z</time></trkpt>
			<trkpt lat="54.383080" lon="20.701440"><ele>66.0</ele><time>2026-05-28T09:42:27Z</time></trkpt>
			<trkpt lat="54.382960" lon="20.702540"><ele>65.8</ele><time>2026-05-28T09:42:50Z</time></trkpt>
			<trkpt lat="54.382760" lon="20.704600"><ele>66.6</ele><time>2026-05-28T09:43:13Z</time></trkpt>
			<trkpt lat="54.381890" lon="20.709830"><ele>68.4</ele><time>2026-05-28T09:43:36Z</time></trkpt>
			<trkpt lat="54.380960" lon="20.714730"><ele>65.3</ele><time>2026-05-28T09:44:00Z</time></trkpt>
			<trkpt lat="54.380820" lon="20.715760"><ele>64.3</ele><time>2026-05-28T09:44:23Z</time></trkpt>
			<trkpt lat="54.380780" lon="20.716030"><ele>64.1</ele><time>2026-05-28T09:44:46Z</time></trkpt>
			<trkpt lat="54.380810" lon="20.717020"><ele>63.1</ele><time>2026-05-28T09:45:09Z</time></trkpt>
			<trkpt lat="54.380900" lon="20.718340"><ele>61.8</ele><time>2026-05-28T09:45:32Z</time></trkpt>
			<trkpt lat="54.380730" lon="20.721230"><ele>60.3</ele><time>2026-05-28T09:45:55Z</time></trkpt>
			<trkpt lat="54.380690" lon="20.722330"><ele>60.6</ele><time>2026-05-28T09:46:18Z</time></trkpt>
			<trkpt lat="54.380840" lon="20.723230"><ele>60.9</ele><time>2026-05-28T09:46:41Z</time></trkpt>
			<trkpt lat="54.380950" lon="20.723930"><ele>61.2</ele><time>2026-05-28T09:47:05Z</time></trkpt>
			<trkpt lat="54.381060" lon="20.724660"><ele>61.4</ele><time>2026-05-28T09:47:28Z</time></trkpt>
			<trkpt lat="54.381110" lon="20.725450"><ele>61.6</ele><time>2026-05-28T09:47:51Z</time></trkpt>
			<trkpt lat="54.381010" lon="20.729010"><ele>62.8</ele><time>2026-05-28T09:48:14Z</time></trkpt>
			<trkpt lat="54.381090" lon="20.730000"><ele>63.1</ele><time>2026-05-28T09:48:37Z</time></trkpt>
			<trkpt lat="54.384140" lon="20.744980"><ele>73.5</ele><time>2026-05-28T09:49:00Z</time></trkpt>
			<trkpt lat="54.384450" lon="20.746160"><ele>74.7</ele><time>2026-05-28T09:49:23Z</time></trkpt>
			<trkpt lat="54.384900" lon="20.746950"><ele>75.4</ele><time>2026-05-28T09:49:46Z</time></trkpt>
			<trkpt lat="54.386530" lon="20.750060"><ele>75.0</ele><time>2026-05-28T09:50:09Z</time></trkpt>
			<trkpt lat="54.387730" lon="20.752360"><ele>74.7</ele><time>2026-05-28T09:50:33Z</time></trkpt>
			<trkpt lat="54.388520" lon="20.753980"><ele>74.9</ele><time>2026-05-28T09:50:56Z</time></trkpt>
			<trkpt lat="54.388860" lon="20.755260"><ele>76.2</ele><time>2026-05-28T09:51:19Z</time></trkpt>
			<trkpt lat="54.388890" lon="20.756660"><ele>77.6</ele><time>2026-05-28T09:51:42Z</time></trkpt>
			<trkpt lat="54.389610" lon="20.774630"><ele>88.3</ele><time>2026-05-28T09:52:05Z</time></trkpt>
			<trkpt lat="54.389640" lon="20.775840"><ele>89.8</ele><time>2026-05-28T09:52:28Z</time></trkpt>
			<trkpt lat="54.389830" lon="20.778810"><ele>93.6</ele><time>2026-05-28T09:52:51Z</time></trkpt>
			<trkpt lat="54.390080" lon="20.780970"><ele>96.5</ele><time>2026-05-28T09:53:14Z</time></trkpt>
			<trkpt lat="54.390270" lon="20.782000"><ele>96.8</ele><time>2026-05-28T09:53:37Z</time></trkpt>
			<trkpt lat="54.390440" lon="20.782350"><ele>96.9</ele><time>2026-05-28T09:54:01Z</time></trkpt>
			<trkpt lat="54.391440" lon="20.782740"><ele>97.1</ele><time>2026-05-28T09:54:24Z</time></trkpt>
			<trkpt lat="54.396030" lon="20.785030"><ele>97.6</ele><time>2026-05-28T09:54:47Z</time></trkpt>
			<trkpt lat="54.396480" lon="20.785240"><ele>97.6</ele><time>2026-05-28T09:55:10Z</time></trkpt>
			<trkpt lat="54.397540" lon="20.785740"><ele>97.5</ele><time>2026-05-28T09:55:33Z</time></trkpt>
			<trkpt lat="54.398390" lon="20.786330"><ele>97.4</ele><time>2026-05-28T09:55:56Z</time></trkpt>
			<trkpt lat="54.398920" lon="20.786850"><ele>97.4</ele><time>2026-05-28T09:56:19Z</time></trkpt>
			<trkpt lat="54.401380" lon="20.789820"><ele>96.4</ele><time>2026-05-28T09:56:42Z</time></trkpt>
			<trkpt lat="54.401820" lon="20.790500"><ele>96.1</ele><time>2026-05-28T09:57:06Z</time></trkpt>
			<trkpt lat="54.401900" lon="20.790610"><ele>96.0</ele><time>2026-05-28T09:57:29Z</time></trkpt>
			<trkpt lat="54.402140" lon="20.791350"><ele>95.8</ele><time>2026-05-28T09:57:52Z</time></trkpt>
			<trkpt lat="54.402430" lon="20.792750"><ele>95.4</ele><time>2026-05-28T09:58:15Z</time></trkpt>
			<trkpt lat="54.402840" lon="20.794250"><ele>94.9</ele><time>2026-05-28T09:58:38Z</time></trkpt>
			<trkpt lat="54.403160" lon="20.795700"><ele>94.4</ele><time>2026-05-28T09:59:01Z</time></trkpt>
			<trkpt lat="54.403470" lon="20.797520"><ele>93.4</ele><time>2026-05-28T09:59:24Z</time></trkpt>
			<trkpt lat="54.404550" lon="20.804110"><ele>90.2</ele><time>2026-05-28T09:59:47Z</time></trkpt>
			<trkpt lat="54.404930" lon="20.804710"><ele>90.3</ele><time>2026-05-28T10:00:10Z</time></trkpt>
			<trkpt lat="54.405730" lon="20.805710"><ele>90.4</ele><time>2026-05-28T10:00:34Z</time></trkpt>
			<trkpt lat="54.410430" lon="20.811510"><ele>89.3</ele><time>2026-05-28T10:00:57Z</time></trkpt>
			<trkpt lat="54.410570" lon="20.811690"><ele>89.2</ele><time>2026-05-28T10:01:20Z</time></trkpt>
			<trkpt lat="54.411170" lon="20.812110"><ele>88.6</ele><time>2026-05-28T10:01:43Z</time></trkpt>
			<trkpt lat="54.412790" lon="20.812900"><ele>87.2</ele><time>2026-05-28T10:02:06Z</time></trkpt>
			<trkpt lat="54.414410" lon="20.813880"><ele>85.0</ele><time>2026-05-28T10:02:29Z</time></trkpt>
			<trkpt lat="54.417580" lon="20.816480"><ele>78.6</ele><time>2026-05-28T10:02:52Z</time></trkpt>
			<trkpt lat="54.419390" lon="20.817980"><ele>77.1</ele><time>2026-05-28T10:03:15Z</time></trkpt>
			<trkpt lat="54.421620" lon="20.819810"><ele>78.5</ele><time>2026-05-28T10:03:39Z</time></trkpt>
			<trkpt lat="54.421650" lon="20.819910"><ele>78.6</ele><time>2026-05-28T10:04:02Z</time></trkpt>
			<trkpt lat="54.421800" lon="20.820370"><ele>78.7</ele><time>2026-05-28T10:04:25Z</time></trkpt>
			<trkpt lat="54.422070" lon="20.821680"><ele>79.2</ele><time>2026-05-28T10:04:48Z</time></trkpt>
			<trkpt lat="54.422500" lon="20.822590"><ele>79.6</ele><time>2026-05-28T10:05:11Z</time></trkpt>
			<trkpt lat="54.422870" lon="20.823120"><ele>79.6</ele><time>2026-05-28T10:05:34Z</time></trkpt>
			<trkpt lat="54.423060" lon="20.823340"><ele>79.6</ele><time>2026-05-28T10:05:57Z</time></trkpt>
			<trkpt lat="54.423790" lon="20.824080"><ele>79.4</ele><time>2026-05-28T10:06:20Z</time></trkpt>
			<trkpt lat="54.423910" lon="20.824420"><ele>79.3</ele><time>2026-05-28T10:06:43Z</time></trkpt>
			<trkpt lat="54.423970" lon="20.824730"><ele>79.2</ele><time>2026-05-28T10:07:07Z</time></trkpt>
			<trkpt lat="54.423990" lon="20.825020"><ele>79.2</ele><time>2026-05-28T10:07:30Z</time></trkpt>
			<trkpt lat="54.423990" lon="20.825230"><ele>79.2</ele><time>2026-05-28T10:07:53Z</time></trkpt>
			<trkpt lat="54.423960" lon="20.825440"><ele>79.1</ele><time>2026-05-28T10:08:16Z</time></trkpt>
			<trkpt lat="54.423840" lon="20.825830"><ele>79.1</ele><time>2026-05-28T10:08:39Z</time></trkpt>
			<trkpt lat="54.423700" lon="20.826140"><ele>79.0</ele><time>2026-05-28T10:09:02Z</time></trkpt>
			<trkpt lat="54.423640" lon="20.826350"><ele>79.0</ele><time>2026-05-28T10:09:25Z</time></trkpt>
			<trkpt lat="54.423660" lon="20.826520"><ele>79.0</ele><time>2026-05-28T10:09:48Z</time></trkpt>
			<trkpt lat="54.423740" lon="20.826900"><ele>78.9</ele><time>2026-05-28T10:10:11Z</time></trkpt>
			<trkpt lat="54.423790" lon="20.827120"><ele>78.9</ele><time>2026-05-28T10:10:35Z</time></trkpt>
			<trkpt lat="54.423920" lon="20.827750"><ele>78.8</ele><time>2026-05-28T10:10:58Z</time></trkpt>
			<trkpt lat="54.423770" lon="20.827950"><ele>78.7</ele><time>2026-05-28T10:11:21Z</time></trkpt>
			<trkpt lat="54.423600" lon="20.828190"><ele>78.6</ele><time>2026-05-28T10:11:44Z</time></trkpt>
			<trkpt lat="54.423440" lon="20.828590"><ele>78.6</ele><time>2026-05-28T10:12:07Z</time></trkpt>
			<trkpt lat="54.423380" lon="20.829280"><ele>78.5</ele><time>2026-05-28T10:12:30Z</time></trkpt>
			<trkpt lat="54.423340" lon="20.830420"><ele>78.3</ele><time>2026-05-28T10:12:53Z</time></trkpt>
			<trkpt lat="54.423410" lon="20.831210"><ele>77.9</ele><time>2026-05-28T10:13:16Z</time></trkpt>
			<trkpt lat="54.423380" lon="20.831510"><ele>77.8</ele><time>2026-05-28T10:13:40Z</time></trkpt>
			<trkpt lat="54.423320" lon="20.831740"><ele>77.7</ele><time>2026-05-28T10:14:03Z</time></trkpt>
			<trkpt lat="54.423210" lon="20.831940"><ele>77.6</ele><time>2026-05-28T10:14:26Z</time></trkpt>
			<trkpt lat="54.423040" lon="20.832130"><ele>77.5</ele><time>2026-05-28T10:14:49Z</time></trkpt>
			<trkpt lat="54.422500" lon="20.832430"><ele>77.1</ele><time>2026-05-28T10:15:12Z</time></trkpt>
			<trkpt lat="54.422010" lon="20.832560"><ele>76.7</ele><time>2026-05-28T10:15:35Z</time></trkpt>
			<trkpt lat="54.421670" lon="20.832730"><ele>76.4</ele><time>2026-05-28T10:15:58Z</time></trkpt>
			<trkpt lat="54.421190" lon="20.833270"><ele>76.0</ele><time>2026-05-28T10:16:21Z</time></trkpt>
			<trkpt lat="54.420620" lon="20.834190"><ele>75.5</ele><time>2026-05-28T10:16:44Z</time></trkpt>
			<trkpt lat="54.419610" lon="20.836010"><ele>74.4</ele><time>2026-05-28T10:17:08Z</time></trkpt>
			<trkpt lat="54.417710" lon="20.839060"><ele>70.3</ele><time>2026-05-28T10:17:31Z</time></trkpt>
			<trkpt lat="54.416860" lon="20.840280"><ele>68.5</ele><time>2026-05-28T10:17:54Z</time></trkpt>
			<trkpt lat="54.415020" lon="20.842910"><ele>67.3</ele><time>2026-05-28T10:18:17Z</time></trkpt>
			<trkpt lat="54.414340" lon="20.842970"><ele>68.6</ele><time>2026-05-28T10:18:40Z</time></trkpt>
			<trkpt lat="54.414040" lon="20.843000"><ele>69.1</ele><time>2026-05-28T10:19:03Z</time></trkpt>
			<trkpt lat="54.413870" lon="20.843400"><ele>69.7</ele><time>2026-05-28T10:19:26Z</time></trkpt>
			<trkpt lat="54.412750" lon="20.846150"><ele>73.2</ele><time>2026-05-28T10:19:49Z</time></trkpt>
			<trkpt lat="54.411640" lon="20.849850"><ele>74.2</ele><time>2026-05-28T10:20:13Z</time></trkpt>
			<trkpt lat="54.411530" lon="20.850230"><ele>73.8</ele><time>2026-05-28T10:20:36Z</time></trkpt>
			<trkpt lat="54.410300" lon="20.855460"><ele>68.2</ele><time>2026-05-28T10:20:59Z</time></trkpt>
			<trkpt lat="54.409320" lon="20.860030"><ele>63.8</ele><time>2026-05-28T10:21:22Z</time></trkpt>
			<trkpt lat="54.409010" lon="20.862660"><ele>61.4</ele><time>2026-05-28T10:21:45Z</time></trkpt>
			<trkpt lat="54.408780" lon="20.864820"><ele>59.5</ele><time>2026-05-28T10:22:08Z</time></trkpt>
			<trkpt lat="54.408060" lon="20.871460"><ele>53.1</ele><time>2026-05-28T10:22:31Z</time></trkpt>
			<trkpt lat="54.407570" lon="20.875940"><ele>49.0</ele><time>2026-05-28T10:22:54Z</time></trkpt>
			<trkpt lat="54.407170" lon="20.879140"><ele>47.1</ele><time>2026-05-28T10:23:17Z</time></trkpt>
			<trkpt lat="54.407270" lon="20.889110"><ele>43.5</ele><time>2026-05-28T10:23:41Z</time></trkpt>
			<trkpt lat="54.407280" lon="20.891190"><ele>43.4</ele><time>2026-05-28T10:24:04Z</time></trkpt>
			<trkpt lat="54.407290" lon="20.893320"><ele>43.2</ele><time>2026-05-28T10:24:27Z</time></trkpt>
			<trkpt lat="54.407350" lon="20.903950"><ele>42.0</ele><time>2026-05-28T10:24:50Z</time></trkpt>
			<trkpt lat="54.407410" lon="20.907440"><ele>38.7</ele><time>2026-05-28T10:25:13Z</time></trkpt>
			<trkpt lat="54.407530" lon="20.914650"><ele>34.8</ele><time>2026-05-28T10:25:36Z</time></trkpt>
			<trkpt lat="54.407580" lon="20.915550"><ele>35.0</ele><time>2026-05-28T10:25:59Z</time></trkpt>
			<trkpt lat="54.407700" lon="20.916340"><ele>35.1</ele><time>2026-05-28T10:26:22Z</time></trkpt>
			<trkpt lat="54.407760" lon="20.916950"><ele>35.2</ele><time>2026-05-28T10:26:45Z</time></trkpt>
			<trkpt lat="54.407770" lon="20.917350"><ele>35.2</ele><time>2026-05-28T10:27:09Z</time></trkpt>
			<trkpt lat="54.407740" lon="20.917710"><ele>35.3</ele><time>2026-05-28T10:27:32Z</time></trkpt>
			<trkpt lat="54.407140" lon="20.922770"><ele>37.0</ele><time>2026-05-28T10:27:55Z</time></trkpt>
			<trkpt lat="54.406780" lon="20.925640"><ele>39.2</ele><time>2026-05-28T10:28:18Z</time></trkpt>
			<trkpt lat="54.406380" lon="20.928930"><ele>41.6</ele><time>2026-05-28T10:28:41Z</time></trkpt>
			<trkpt lat="54.406040" lon="20.931660"><ele>42.3</ele><time>2026-05-28T10:29:04Z</time></trkpt>
			<trkpt lat="54.405950" lon="20.932390"><ele>42.2</ele><time>2026-05-28T10:29:27Z</time></trkpt>
			<trkpt lat="54.406000" lon="20.933030"><ele>42.0</ele><time>2026-05-28T10:29:50Z</time></trkpt>
			<trkpt lat="54.406170" lon="20.933540"><ele>41.9</ele><time>2026-05-28T10:30:14Z</time></trkpt>
			<trkpt lat="54.406180" lon="20.933570"><ele>41.9</ele><time>2026-05-28T10:30:37Z</time></trkpt>
			<trkpt lat="54.406420" lon="20.933930"><ele>41.8</ele><time>2026-05-28T10:31:00Z</time></trkpt>
			<trkpt lat="54.406740" lon="20.934100"><ele>41.7</ele><time>2026-05-28T10:31:23Z</time></trkpt>
			<trkpt lat="54.407990" lon="20.934640"><ele>41.2</ele><time>2026-05-28T10:31:46Z</time></trkpt>
			<trkpt lat="54.408450" lon="20.934880"><ele>41.0</ele><time>2026-05-28T10:32:09Z</time></trkpt>
			<trkpt lat="54.408450" lon="20.934880"><ele>41.0</ele><time>2026-05-28T10:32:25Z</time></trkpt>
			<trkpt lat="54.412070" lon="20.936710"><ele>39.5</ele><time>2026-05-28T10:32:41Z</time></trkpt>
			<trkpt lat="54.413710" lon="20.937900"><ele>38.7</ele><time>2026-05-28T10:32:57Z</time></trkpt>
			<trkpt lat="54.416210" lon="20.939610"><ele>37.7</ele><time>2026-05-28T10:33:14Z</time></trkpt>
			<trkpt lat="54.418410" lon="20.941180"><ele>36.8</ele><time>2026-05-28T10:33:30Z</time></trkpt>
			<trkpt lat="54.418870" lon="20.941500"><ele>36.6</ele><time>2026-05-28T10:33:46Z</time></trkpt>
			<trkpt lat="54.420840" lon="20.942950"><ele>36.4</ele><time>2026-05-28T10:34:02Z</time></trkpt>
			<trkpt lat="54.421440" lon="20.943410"><ele>36.4</ele><time>2026-05-28T10:34:18Z</time></trkpt>
			<trkpt lat="54.421720" lon="20.943770"><ele>36.4</ele><time>2026-05-28T10:34:34Z</time></trkpt>
			<trkpt lat="54.421900" lon="20.944210"><ele>36.4</ele><time>2026-05-28T10:34:50Z</time></trkpt>
			<trkpt lat="54.422220" lon="20.945140"><ele>36.4</ele><time>2026-05-28T10:35:06Z</time></trkpt>
			<trkpt lat="54.423060" lon="20.947530"><ele>36.5</ele><time>2026-05-28T10:35:22Z</time></trkpt>
			<trkpt lat="54.424110" lon="20.950310"><ele>35.4</ele><time>2026-05-28T10:35:38Z</time></trkpt>
			<trkpt lat="54.424880" lon="20.952550"><ele>34.2</ele><time>2026-05-28T10:35:55Z</time></trkpt>
			<trkpt lat="54.425480" lon="20.953730"><ele>33.6</ele><time>2026-05-28T10:36:11Z</time></trkpt>
			<trkpt lat="54.426350" lon="20.955350"><ele>32.6</ele><time>2026-05-28T10:36:27Z</time></trkpt>
			<trkpt lat="54.426930" lon="20.956510"><ele>32.4</ele><time>2026-05-28T10:36:43Z</time></trkpt>
			<trkpt lat="54.427450" lon="20.957460"><ele>32.2</ele><time>2026-05-28T10:36:59Z</time></trkpt>
			<trkpt lat="54.428700" lon="20.958890"><ele>31.9</ele><time>2026-05-28T10:37:15Z</time></trkpt>
			<trkpt lat="54.431690" lon="20.962250"><ele>30.2</ele><time>2026-05-28T10:37:31Z</time></trkpt>
			<trkpt lat="54.432100" lon="20.962780"><ele>29.6</ele><time>2026-05-28T10:37:47Z</time></trkpt>
			<trkpt lat="54.432430" lon="20.963440"><ele>29.1</ele><time>2026-05-28T10:38:03Z</time></trkpt>
			<trkpt lat="54.433090" lon="20.964950"><ele>27.9</ele><time>2026-05-28T10:38:19Z</time></trkpt>
			<trkpt lat="54.433530" lon="20.966070"><ele>27.1</ele><time>2026-05-28T10:38:36Z</time></trkpt>
			<trkpt lat="54.433790" lon="20.966960"><ele>26.5</ele><time>2026-05-28T10:38:52Z</time></trkpt>
			<trkpt lat="54.434140" lon="20.968650"><ele>26.0</ele><time>2026-05-28T10:39:08Z</time></trkpt>
			<trkpt lat="54.434390" lon="20.969490"><ele>26.5</ele><time>2026-05-28T10:39:24Z</time></trkpt>
			<trkpt lat="54.435070" lon="20.971420"><ele>27.6</ele><time>2026-05-28T10:39:40Z</time></trkpt>
			<trkpt lat="54.435480" lon="20.972710"><ele>28.3</ele><time>2026-05-28T10:39:56Z</time></trkpt>
			<trkpt lat="54.436620" lon="20.975920"><ele>30.1</ele><time>2026-05-28T10:40:12Z</time></trkpt>
			<trkpt lat="54.438320" lon="20.980740"><ele>31.8</ele><time>2026-05-28T10:40:28Z</time></trkpt>
			<trkpt lat="54.438510" lon="20.981340"><ele>32.0</ele><time>2026-05-28T10:40:44Z</time></trkpt>
			<trkpt lat="54.438650" lon="20.982230"><ele>32.3</ele><time>2026-05-28T10:41:00Z</time></trkpt>
			<trkpt lat="54.439390" lon="20.985950"><ele>32.8</ele><time>2026-05-28T10:41:17Z</time></trkpt>
			<trkpt lat="54.439490" lon="20.986490"><ele>32.7</ele><time>2026-05-28T10:41:33Z</time></trkpt>
			<trkpt lat="54.439520" lon="20.986650"><ele>32.7</ele><time>2026-05-28T10:41:49Z</time></trkpt>
			<trkpt lat="54.439680" lon="20.987470"><ele>32.6</ele><time>2026-05-28T10:42:05Z</time></trkpt>
			<trkpt lat="54.439900" lon="20.988570"><ele>32.5</ele><time>2026-05-28T10:42:21Z</time></trkpt>
			<trkpt lat="54.439990" lon="20.989030"><ele>32.4</ele><time>2026-05-28T10:42:37Z</time></trkpt>
			<trkpt lat="54.440320" lon="20.990720"><ele>32.2</ele><time>2026-05-28T10:42:53Z</time></trkpt>
			<trkpt lat="54.440920" lon="20.993780"><ele>32.0</ele><time>2026-05-28T10:43:09Z</time></trkpt>
			<trkpt lat="54.441300" lon="20.995710"><ele>32.2</ele><time>2026-05-28T10:43:25Z</time></trkpt>
			<trkpt lat="54.441630" lon="20.997330"><ele>32.4</ele><time>2026-05-28T10:43:41Z</time></trkpt>
			<trkpt lat="54.441630" lon="20.997850"><ele>32.4</ele><time>2026-05-28T10:43:58Z</time></trkpt>
			<trkpt lat="54.441600" lon="20.998570"><ele>32.5</ele><time>2026-05-28T10:44:14Z</time></trkpt>
			<trkpt lat="54.441600" lon="20.998990"><ele>32.5</ele><time>2026-05-28T10:44:30Z</time></trkpt>
			<trkpt lat="54.441620" lon="20.999220"><ele>32.6</ele><time>2026-05-28T10:44:46Z</time></trkpt>
			<trkpt lat="54.441760" lon="20.999380"><ele>32.6</ele><time>2026-05-28T10:45:02Z</time></trkpt>
			<trkpt lat="54.441990" lon="20.999440"><ele>32.6</ele><time>2026-05-28T10:45:18Z</time></trkpt>
			<trkpt lat="54.442120" lon="20.999660"><ele>32.7</ele><time>2026-05-28T10:45:34Z</time></trkpt>
			<trkpt lat="54.442390" lon="21.001050"><ele>32.8</ele><time>2026-05-28T10:45:50Z</time></trkpt>
			<trkpt lat="54.442740" lon="21.002760"><ele>32.3</ele><time>2026-05-28T10:46:06Z</time></trkpt>
			<trkpt lat="54.443050" lon="21.004300"><ele>31.5</ele><time>2026-05-28T10:46:22Z</time></trkpt>
			<trkpt lat="54.443390" lon="21.005890"><ele>30.6</ele><time>2026-05-28T10:46:39Z</time></trkpt>
			<trkpt lat="54.443420" lon="21.006040"><ele>30.5</ele><time>2026-05-28T10:46:55Z</time></trkpt>
			<trkpt lat="54.443950" lon="21.007900"><ele>29.5</ele><time>2026-05-28T10:47:11Z</time></trkpt>
			<trkpt lat="54.444400" lon="21.009340"><ele>28.7</ele><time>2026-05-28T10:47:27Z</time></trkpt>
			<trkpt lat="54.444710" lon="21.010120"><ele>28.2</ele><time>2026-05-28T10:47:43Z</time></trkpt>
			<trkpt lat="54.444940" lon="21.010930"><ele>28.0</ele><time>2026-05-28T10:47:59Z</time></trkpt>
			<trkpt lat="54.445090" lon="21.011530"><ele>27.8</ele><time>2026-05-28T10:48:15Z</time></trkpt>
			<trkpt lat="54.445180" lon="21.011950"><ele>27.7</ele><time>2026-05-28T10:48:31Z</time></trkpt>
			<trkpt lat="54.445460" lon="21.013390"><ele>27.3</ele><time>2026-05-28T10:48:47Z</time></trkpt>
			<trkpt lat="54.445630" lon="21.014250"><ele>27.0</ele><time>2026-05-28T10:49:03Z</time></trkpt>
			<trkpt lat="54.446040" lon="21.016320"><ele>26.5</ele><time>2026-05-28T10:49:20Z</time></trkpt>
			<trkpt lat="54.446010" lon="21.016470"><ele>26.4</ele><time>2026-05-28T10:49:36Z</time></trkpt>
			<trkpt lat="54.446060" lon="21.016910"><ele>26.3</ele><time>2026-05-28T10:49:52Z</time></trkpt>
			<trkpt lat="54.446070" lon="21.017100"><ele>26.3</ele><time>2026-05-28T10:50:08Z</time></trkpt>
			<trkpt lat="54.446050" lon="21.017290"><ele>26.2</ele><time>2026-05-28T10:50:24Z</time></trkpt>
			<trkpt lat="54.445950" lon="21.017490"><ele>26.2</ele><time>2026-05-28T10:50:40Z</time></trkpt>
			<trkpt lat="54.445920" lon="21.017620"><ele>26.1</ele><time>2026-05-28T10:50:56Z</time></trkpt>
			<trkpt lat="54.446000" lon="21.018220"><ele>26.0</ele><time>2026-05-28T10:51:12Z</time></trkpt>
			<trkpt lat="54.446130" lon="21.019140"><ele>25.9</ele><time>2026-05-28T10:51:28Z</time></trkpt>
			<trkpt lat="54.446280" lon="21.020370"><ele>26.3</ele><time>2026-05-28T10:51:44Z</time></trkpt>
			<trkpt lat="54.446320" lon="21.020750"><ele>26.5</ele><time>2026-05-28T10:52:01Z</time></trkpt>
			<trkpt lat="54.446170" lon="21.021320"><ele>26.7</ele><time>2026-05-28T10:52:17Z</time></trkpt>
			<trkpt lat="54.446070" lon="21.021510"><ele>26.8</ele><time>2026-05-28T10:52:33Z</time></trkpt>
			<trkpt lat="54.445780" lon="21.021790"><ele>27.0</ele><time>2026-05-28T10:52:49Z</time></trkpt>
			<trkpt lat="54.445280" lon="21.022220"><ele>27.3</ele><time>2026-05-28T10:53:05Z</time></trkpt>
			<trkpt lat="54.444590" lon="21.022780"><ele>27.7</ele><time>2026-05-28T10:53:21Z</time></trkpt>
			<trkpt lat="54.444500" lon="21.022860"><ele>27.8</ele><time>2026-05-28T10:53:37Z</time></trkpt>
			<trkpt lat="54.444350" lon="21.023110"><ele>27.9</ele><time>2026-05-28T10:53:53Z</time></trkpt>
			<trkpt lat="54.444200" lon="21.023450"><ele>28.1</ele><time>2026-05-28T10:54:09Z</time></trkpt>
			<trkpt lat="54.444150" lon="21.023710"><ele>28.1</ele><time>2026-05-28T10:54:25Z</time></trkpt>
			<trkpt lat="54.444030" lon="21.024140"><ele>28.3</ele><time>2026-05-28T10:54:42Z</time></trkpt>
			<trkpt lat="54.443880" lon="21.024620"><ele>28.5</ele><time>2026-05-28T10:54:58Z</time></trkpt>
			<trkpt lat="54.443560" lon="21.025340"><ele>28.8</ele><time>2026-05-28T10:55:14Z</time></trkpt>
			<trkpt lat="54.443360" lon="21.025740"><ele>29.0</ele><time>2026-05-28T10:55:30Z</time></trkpt>
			<trkpt lat="54.443290" lon="21.025850"><ele>29.1</ele><time>2026-05-28T10:55:46Z</time></trkpt>
			<trkpt lat="54.443130" lon="21.026070"><ele>29.2</ele><time>2026-05-28T10:56:02Z</time></trkpt>
			<trkpt lat="54.442900" lon="21.026270"><ele>29.4</ele><time>2026-05-28T10:56:18Z</time></trkpt>
			<trkpt lat="54.442530" lon="21.026520"><ele>29.7</ele><time>2026-05-28T10:56:34Z</time></trkpt>
			<trkpt lat="54.442360" lon="21.026700"><ele>29.8</ele><time>2026-05-28T10:56:50Z</time></trkpt>
			<trkpt lat="54.442290" lon="21.026790"><ele>29.9</ele><time>2026-05-28T10:57:06Z</time></trkpt>
			<trkpt lat="54.442130" lon="21.027100"><ele>30.1</ele><time>2026-05-28T10:57:23Z</time></trkpt>
			<trkpt lat="54.441810" lon="21.028100"><ele>30.6</ele><time>2026-05-28T10:57:39Z</time></trkpt>
			<trkpt lat="54.441430" lon="21.029260"><ele>31.1</ele><time>2026-05-28T10:57:55Z</time></trkpt>
			<trkpt lat="54.441180" lon="21.030070"><ele>31.5</ele><time>2026-05-28T10:58:11Z</time></trkpt>
			<trkpt lat="54.441000" lon="21.030530"><ele>31.8</ele><time>2026-05-28T10:58:27Z</time></trkpt>
			<trkpt lat="54.440870" lon="21.030750"><ele>31.9</ele><time>2026-05-28T10:58:43Z</time></trkpt>
			<trkpt lat="54.440720" lon="21.031010"><ele>32.1</ele><time>2026-05-28T10:58:59Z</time></trkpt>
			<trkpt lat="54.440430" lon="21.031410"><ele>32.3</ele><time>2026-05-28T10:59:15Z</time></trkpt>
			<trkpt lat="54.437880" lon="21.034990"><ele>30.0</ele><time>2026-05-28T10:59:31Z</time></trkpt>
			<trkpt lat="54.437560" lon="21.035570"><ele>29.4</ele><time>2026-05-28T10:59:47Z</time></trkpt>
			<trkpt lat="54.437460" lon="21.035720"><ele>29.3</ele><time>2026-05-28T11:00:04Z</time></trkpt>
			<trkpt lat="54.436980" lon="21.036830"><ele>28.3</ele><time>2026-05-28T11:00:20Z</time></trkpt>
			<trkpt lat="54.434950" lon="21.041500"><ele>27.4</ele><time>2026-05-28T11:00:36Z</time></trkpt>
			<trkpt lat="54.434670" lon="21.042130"><ele>27.6</ele><time>2026-05-28T11:00:52Z</time></trkpt>
			<trkpt lat="54.432740" lon="21.046550"><ele>29.0</ele><time>2026-05-28T11:01:08Z</time></trkpt>
			<trkpt lat="54.431680" lon="21.049010"><ele>29.2</ele><time>2026-05-28T11:01:24Z</time></trkpt>
			<trkpt lat="54.431590" lon="21.049120"><ele>29.2</ele><time>2026-05-28T11:01:40Z</time></trkpt>
			<trkpt lat="54.431490" lon="21.049200"><ele>29.3</ele><time>2026-05-28T11:01:56Z</time></trkpt>
			<trkpt lat="54.431410" lon="21.049220"><ele>29.3</ele><time>2026-05-28T11:02:12Z</time></trkpt>
			<trkpt lat="54.431300" lon="21.049180"><ele>29.3</ele><time>2026-05-28T11:02:28Z</time></trkpt>
			<trkpt lat="54.431130" lon="21.049060"><ele>29.3</ele><time>2026-05-28T11:02:45Z</time></trkpt>
			<trkpt lat="54.430950" lon="21.048890"><ele>29.3</ele><time>2026-05-28T11:03:01Z</time></trkpt>
			<trkpt lat="54.430840" lon="21.048810"><ele>29.3</ele><time>2026-05-28T11:03:17Z</time></trkpt>
			<trkpt lat="54.430740" lon="21.048770"><ele>29.4</ele><time>2026-05-28T11:03:33Z</time></trkpt>
			<trkpt lat="54.430640" lon="21.048760"><ele>29.4</ele><time>2026-05-28T11:03:49Z</time></trkpt>
			<trkpt lat="54.430490" lon="21.048780"><ele>29.4</ele><time>2026-05-28T11:04:05Z</time></trkpt>
			<trkpt lat="54.430300" lon="21.048850"><ele>29.4</ele><time>2026-05-28T11:04:21Z</time></trkpt>
			<trkpt lat="54.430190" lon="21.048860"><ele>29.4</ele><time>2026-05-28T11:04:37Z</time></trkpt>
			<trkpt lat="54.430100" lon="21.048860"><ele>29.4</ele><time>2026-05-28T11:04:53Z</time></trkpt>
			<trkpt lat="54.429920" lon="21.048790"><ele>29.5</ele><time>2026-05-28T11:05:09Z</time></trkpt>
			<trkpt lat="54.429800" lon="21.048670"><ele>29.5</ele><time>2026-05-28T11:05:26Z</time></trkpt>
			<trkpt lat="54.429680" lon="21.048530"><ele>29.5</ele><time>2026-05-28T11:05:42Z</time></trkpt>
			<trkpt lat="54.428990" lon="21.047530"><ele>29.6</ele><time>2026-05-28T11:05:58Z</time></trkpt>
			<trkpt lat="54.428770" lon="21.047250"><ele>29.6</ele><time>2026-05-28T11:06:14Z</time></trkpt>
			<trkpt lat="54.428660" lon="21.047160"><ele>29.7</ele><time>2026-05-28T11:06:30Z</time></trkpt>
			<trkpt lat="54.428540" lon="21.047110"><ele>29.7</ele><time>2026-05-28T11:06:46Z</time></trkpt>
			<trkpt lat="54.428460" lon="21.047090"><ele>29.7</ele><time>2026-05-28T11:07:02Z</time></trkpt>
			<trkpt lat="54.428350" lon="21.047140"><ele>29.7</ele><time>2026-05-28T11:07:18Z</time></trkpt>
			<trkpt lat="54.428270" lon="21.047230"><ele>29.7</ele><time>2026-05-28T11:07:34Z</time></trkpt>
			<trkpt lat="54.428170" lon="21.047390"><ele>29.7</ele><time>2026-05-28T11:07:50Z</time></trkpt>
			<trkpt lat="54.427130" lon="21.049960"><ele>30.0</ele><time>2026-05-28T11:08:07Z</time></trkpt>
			<trkpt lat="54.426910" lon="21.050470"><ele>30.0</ele><time>2026-05-28T11:08:23Z</time></trkpt>
			<trkpt lat="54.423230" lon="21.059450"><ele>32.1</ele><time>2026-05-28T11:08:39Z</time></trkpt>
			<trkpt lat="54.418560" lon="21.070130"><ele>31.4</ele><time>2026-05-28T11:08:55Z</time></trkpt>
			<trkpt lat="54.417910" lon="21.071620"><ele>31.7</ele><time>2026-05-28T11:09:11Z</time></trkpt>
			<trkpt lat="54.417650" lon="21.072370"><ele>31.9</ele><time>2026-05-28T11:09:27Z</time></trkpt>
			<trkpt lat="54.416210" lon="21.076960"><ele>32.7</ele><time>2026-05-28T11:09:43Z</time></trkpt>
			<trkpt lat="54.416050" lon="21.077300"><ele>32.7</ele><time>2026-05-28T11:09:59Z</time></trkpt>
			<trkpt lat="54.415900" lon="21.077630"><ele>32.8</ele><time>2026-05-28T11:10:15Z</time></trkpt>
			<trkpt lat="54.415660" lon="21.077970"><ele>32.8</ele><time>2026-05-28T11:10:31Z</time></trkpt>
			<trkpt lat="54.415390" lon="21.078280"><ele>32.9</ele><time>2026-05-28T11:10:48Z</time></trkpt>
			<trkpt lat="54.412510" lon="21.080710"><ele>33.3</ele><time>2026-05-28T11:11:04Z</time></trkpt>
			<trkpt lat="54.407540" lon="21.087970"><ele>31.7</ele><time>2026-05-28T11:11:20Z</time></trkpt>
			<trkpt lat="54.400550" lon="21.098120"><ele>35.4</ele><time>2026-05-28T11:11:36Z</time></trkpt>
			<trkpt lat="54.400190" lon="21.098870"><ele>35.7</ele><time>2026-05-28T11:11:52Z</time></trkpt>
			<trkpt lat="54.399970" lon="21.099600"><ele>35.8</ele><time>2026-05-28T11:12:08Z</time></trkpt>
			<trkpt lat="54.399860" lon="21.100240"><ele>36.0</ele><time>2026-05-28T11:12:24Z</time></trkpt>
			<trkpt lat="54.399790" lon="21.100990"><ele>36.0</ele><time>2026-05-28T11:12:40Z</time></trkpt>
			<trkpt lat="54.399650" lon="21.102960"><ele>35.6</ele><time>2026-05-28T11:12:56Z</time></trkpt>
			<trkpt lat="54.399550" lon="21.104340"><ele>35.2</ele><time>2026-05-28T11:13:12Z</time></trkpt>
			<trkpt lat="54.399480" lon="21.104860"><ele>35.1</ele><time>2026-05-28T11:13:29Z</time></trkpt>
			<trkpt lat="54.399260" lon="21.105450"><ele>34.9</ele><time>2026-05-28T11:13:45Z</time></trkpt>
			<trkpt lat="54.399040" lon="21.105750"><ele>34.8</ele><time>2026-05-28T11:14:01Z</time></trkpt>
			<trkpt lat="54.398610" lon="21.106350"><ele>34.6</ele><time>2026-05-28T11:14:17Z</time></trkpt>
			<trkpt lat="54.398430" lon="21.106670"><ele>34.5</ele><time>2026-05-28T11:14:33Z</time></trkpt>
			<trkpt lat="54.398400" lon="21.107010"><ele>34.4</ele><time>2026-05-28T11:14:49Z</time></trkpt>
			<trkpt lat="54.398510" lon="21.107860"><ele>34.2</ele><time>2026-05-28T11:15:05Z</time></trkpt>
			<trkpt lat="54.398520" lon="21.108220"><ele>34.1</ele><time>2026-05-28T11:15:21Z</time></trkpt>
			<trkpt lat="54.398470" lon="21.108400"><ele>34.0</ele><time>2026-05-28T11:15:37Z</time></trkpt>
			<trkpt lat="54.398260" lon="21.108740"><ele>33.9</ele><time>2026-05-28T11:15:53Z</time></trkpt>
			<trkpt lat="54.397600" lon="21.109510"><ele>33.7</ele><time>2026-05-28T11:16:10Z</time></trkpt>
			<trkpt lat="54.396870" lon="21.110450"><ele>33.5</ele><time>2026-05-28T11:16:26Z</time></trkpt>
			<trkpt lat="54.396190" lon="21.111400"><ele>33.3</ele><time>2026-05-28T11:16:42Z</time></trkpt>
			<trkpt lat="54.395520" lon="21.112360"><ele>33.0</ele><time>2026-05-28T11:16:58Z</time></trkpt>
			<trkpt lat="54.395320" lon="21.112620"><ele>33.0</ele><time>2026-05-28T11:17:14Z</time></trkpt>
			<trkpt lat="54.394190" lon="21.113880"><ele>32.6</ele><time>2026-05-28T11:17:30Z</time></trkpt>
			<trkpt lat="54.393300" lon="21.115220"><ele>33.2</ele><time>2026-05-28T11:17:46Z</time></trkpt>
			<trkpt lat="54.387950" lon="21.123570"><ele>39.2</ele><time>2026-05-28T11:18:02Z</time></trkpt>
			<trkpt lat="54.387950" lon="21.123570"><ele>39.2</ele><time>2026-05-28T11:18:22Z</time></trkpt>
			<trkpt lat="54.387770" lon="21.123850"><ele>39.3</ele><time>2026-05-28T11:18:42Z</time></trkpt>
			<trkpt lat="54.387660" lon="21.124090"><ele>39.4</ele><time>2026-05-28T11:19:02Z</time></trkpt>
			<trkpt lat="54.387570" lon="21.124350"><ele>39.4</ele><time>2026-05-28T11:19:22Z</time></trkpt>
			<trkpt lat="54.387490" lon="21.124620"><ele>39.5</ele><time>2026-05-28T11:19:42Z</time></trkpt>
			<trkpt lat="54.387340" lon="21.125290"><ele>39.7</ele><time>2026-05-28T11:20:02Z</time></trkpt>
			<trkpt lat="54.386140" lon="21.130730"><ele>39.4</ele><time>2026-05-28T11:20:22Z</time></trkpt>
			<trkpt lat="54.386010" lon="21.131210"><ele>39.2</ele><time>2026-05-28T11:20:41Z</time></trkpt>
			<trkpt lat="54.383970" lon="21.137100"><ele>37.6</ele><time>2026-05-28T11:21:01Z</time></trkpt>
			<trkpt lat="54.383770" lon="21.137590"><ele>37.8</ele><time>2026-05-28T11:21:21Z</time></trkpt>
			<trkpt lat="54.383370" lon="21.138440"><ele>38.3</ele><time>2026-05-28T11:21:41Z</time></trkpt>
			<trkpt lat="54.380160" lon="21.144530"><ele>40.7</ele><time>2026-05-28T11:22:01Z</time></trkpt>
			<trkpt lat="54.377860" lon="21.148940"><ele>40.1</ele><time>2026-05-28T11:22:21Z</time></trkpt>
			<trkpt lat="54.375970" lon="21.152510"><ele>41.2</ele><time>2026-05-28T11:22:41Z</time></trkpt>
			<trkpt lat="54.375560" lon="21.153350"><ele>41.6</ele><time>2026-05-28T11:23:01Z</time></trkpt>
			<trkpt lat="54.374760" lon="21.154970"><ele>42.5</ele><time>2026-05-28T11:23:21Z</time></trkpt>
			<trkpt lat="54.374430" lon="21.155730"><ele>42.9</ele><time>2026-05-28T11:23:40Z</time></trkpt>
			<trkpt lat="54.373380" lon="21.158630"><ele>43.8</ele><time>2026-05-28T11:24:00Z</time></trkpt>
			<trkpt lat="54.372990" lon="21.159680"><ele>43.8</ele><time>2026-05-28T11:24:20Z</time></trkpt>
			<trkpt lat="54.370020" lon="21.167930"><ele>44.9</ele><time>2026-05-28T11:24:40Z</time></trkpt>
			<trkpt lat="54.369850" lon="21.168430"><ele>45.1</ele><time>2026-05-28T11:25:00Z</time></trkpt>
			<trkpt lat="54.369750" lon="21.169000"><ele>45.3</ele><time>2026-05-28T11:25:20Z</time></trkpt>
			<trkpt lat="54.369340" lon="21.171680"><ele>46.3</ele><time>2026-05-28T11:25:40Z</time></trkpt>
			<trkpt lat="54.368480" lon="21.177320"><ele>49.1</ele><time>2026-05-28T11:26:00Z</time></trkpt>
			<trkpt lat="54.368350" lon="21.178190"><ele>49.7</ele><time>2026-05-28T11:26:20Z</time></trkpt>
			<trkpt lat="54.368280" lon="21.178820"><ele>50.0</ele><time>2026-05-28T11:26:40Z</time></trkpt>
			<trkpt lat="54.368260" lon="21.179210"><ele>50.3</ele><time>2026-05-28T11:26:59Z</time></trkpt>
			<trkpt lat="54.368250" lon="21.181030"><ele>51.3</ele><time>2026-05-28T11:27:19Z</time></trkpt>
			<trkpt lat="54.368260" lon="21.190890"><ele>43.5</ele><time>2026-05-28T11:27:39Z</time></trkpt>
			<trkpt lat="54.368180" lon="21.203850"><ele>49.1</ele><time>2026-05-28T11:27:59Z</time></trkpt>
			<trkpt lat="54.368140" lon="21.225430"><ele>59.9</ele><time>2026-05-28T11:28:19Z</time></trkpt>
			<trkpt lat="54.368100" lon="21.233680"><ele>61.0</ele><time>2026-05-28T11:28:39Z</time></trkpt>
			<trkpt lat="54.368070" lon="21.234180"><ele>61.0</ele><time>2026-05-28T11:28:59Z</time></trkpt>
			<trkpt lat="54.368010" lon="21.234650"><ele>61.1</ele><time>2026-05-28T11:29:19Z</time></trkpt>
			<trkpt lat="54.367910" lon="21.235100"><ele>61.2</ele><time>2026-05-28T11:29:39Z</time></trkpt>
			<trkpt lat="54.367780" lon="21.235550"><ele>61.3</ele><time>2026-05-28T11:29:59Z</time></trkpt>
			<trkpt lat="54.367610" lon="21.236110"><ele>61.4</ele><time>2026-05-28T11:30:18Z</time></trkpt>
			<trkpt lat="54.364500" lon="21.245560"><ele>53.0</ele><time>2026-05-28T11:30:38Z</time></trkpt>
			<trkpt lat="54.364220" lon="21.246430"><ele>52.0</ele><time>2026-05-28T11:30:58Z</time></trkpt>
			<trkpt lat="54.364010" lon="21.247850"><ele>51.0</ele><time>2026-05-28T11:31:18Z</time></trkpt>
			<trkpt lat="54.363960" lon="21.248330"><ele>50.6</ele><time>2026-05-28T11:31:38Z</time></trkpt>
			<trkpt lat="54.363570" lon="21.253010"><ele>47.2</ele><time>2026-05-28T11:31:58Z</time></trkpt>
			<trkpt lat="54.363360" lon="21.255250"><ele>45.5</ele><time>2026-05-28T11:32:18Z</time></trkpt>
			<trkpt lat="54.363350" lon="21.255500"><ele>45.4</ele><time>2026-05-28T11:32:38Z</time></trkpt>
			<trkpt lat="54.363350" lon="21.255750"><ele>45.4</ele><time>2026-05-28T11:32:58Z</time></trkpt>
			<trkpt lat="54.363360" lon="21.256010"><ele>45.3</ele><time>2026-05-28T11:33:17Z</time></trkpt>
			<trkpt lat="54.363530" lon="21.257510"><ele>45.1</ele><time>2026-05-28T11:33:37Z</time></trkpt>
			<trkpt lat="54.363580" lon="21.258160"><ele>45.1</ele><time>2026-05-28T11:33:57Z</time></trkpt>
			<trkpt lat="54.363600" lon="21.258590"><ele>45.0</ele><time>2026-05-28T11:34:17Z</time></trkpt>
			<trkpt lat="54.363590" lon="21.259370"><ele>44.9</ele><time>2026-05-28T11:34:37Z</time></trkpt>
			<trkpt lat="54.363420" lon="21.271960"><ele>42.4</ele><time>2026-05-28T11:34:57Z</time></trkpt>
			<trkpt lat="54.363370" lon="21.274850"><ele>42.0</ele><time>2026-05-28T11:35:17Z</time></trkpt>
			<trkpt lat="54.363360" lon="21.275770"><ele>42.1</ele><time>2026-05-28T11:35:37Z</time></trkpt>
			<trkpt lat="54.363330" lon="21.277950"><ele>42.3</ele><time>2026-05-28T11:35:57Z</time></trkpt>
			<trkpt lat="54.363210" lon="21.285920"><ele>40.9</ele><time>2026-05-28T11:36:17Z</time></trkpt>
			<trkpt lat="54.363160" lon="21.289300"><ele>38.7</ele><time>2026-05-28T11:36:36Z</time></trkpt>
			<trkpt lat="54.363090" lon="21.291060"><ele>37.5</ele><time>2026-05-28T11:36:56Z</time></trkpt>
			<trkpt lat="54.363060" lon="21.291640"><ele>37.1</ele><time>2026-05-28T11:37:16Z</time></trkpt>
			<trkpt lat="54.362920" lon="21.292810"><ele>36.3</ele><time>2026-05-28T11:37:36Z</time></trkpt>
			<trkpt lat="54.362570" lon="21.295020"><ele>34.7</ele><time>2026-05-28T11:37:56Z</time></trkpt>
			<trkpt lat="54.362320" lon="21.296830"><ele>33.5</ele><time>2026-05-28T11:38:16Z</time></trkpt>
			<trkpt lat="54.362250" lon="21.297260"><ele>33.2</ele><time>2026-05-28T11:38:36Z</time></trkpt>
			<trkpt lat="54.362130" lon="21.298190"><ele>32.5</ele><time>2026-05-28T11:38:56Z</time></trkpt>
			<trkpt lat="54.362030" lon="21.299290"><ele>31.8</ele><time>2026-05-28T11:39:16Z</time></trkpt>
			<trkpt lat="54.361950" lon="21.300270"><ele>31.1</ele><time>2026-05-28T11:39:36Z</time></trkpt>
			<trkpt lat="54.361810" lon="21.302140"><ele>30.4</ele><time>2026-05-28T11:39:55Z</time></trkpt>
			<trkpt lat="54.361780" lon="21.302570"><ele>30.5</ele><time>2026-05-28T11:40:15Z</time></trkpt>
			<trkpt lat="54.361760" lon="21.302900"><ele>30.6</ele><time>2026-05-28T11:40:35Z</time></trkpt>
			<trkpt lat="54.361770" lon="21.303150"><ele>30.6</ele><time>2026-05-28T11:40:55Z</time></trkpt>
			<trkpt lat="54.361810" lon="21.303320"><ele>30.6</ele><time>2026-05-28T11:41:15Z</time></trkpt>
			<trkpt lat="54.362010" lon="21.303720"><ele>30.7</ele><time>2026-05-28T11:41:35Z</time></trkpt>
			<trkpt lat="54.362040" lon="21.303910"><ele>30.8</ele><time>2026-05-28T11:41:55Z</time></trkpt>
			<trkpt lat="54.362010" lon="21.303990"><ele>30.8</ele><time>2026-05-28T11:42:15Z</time></trkpt>
			<trkpt lat="54.361930" lon="21.304060"><ele>30.8</ele><time>2026-05-28T11:42:35Z</time></trkpt>
			<trkpt lat="54.361390" lon="21.304410"><ele>31.0</ele><time>2026-05-28T11:42:55Z</time></trkpt>
			<trkpt lat="54.361170" lon="21.304550"><ele>31.1</ele><time>2026-05-28T11:43:14Z</time></trkpt>
			<trkpt lat="54.361120" lon="21.304620"><ele>31.1</ele><time>2026-05-28T11:43:34Z</time></trkpt>
			<trkpt lat="54.361090" lon="21.304660"><ele>31.1</ele><time>2026-05-28T11:43:54Z</time></trkpt>
			<trkpt lat="54.361070" lon="21.304730"><ele>31.1</ele><time>2026-05-28T11:44:14Z</time></trkpt>
			<trkpt lat="54.361080" lon="21.304850"><ele>31.1</ele><time>2026-05-28T11:44:34Z</time></trkpt>
			<trkpt lat="54.361230" lon="21.305630"><ele>31.3</ele><time>2026-05-28T11:44:54Z</time></trkpt>
			<trkpt lat="54.361280" lon="21.305710"><ele>31.3</ele><time>2026-05-28T11:45:14Z</time></trkpt>
			<trkpt lat="54.361330" lon="21.305800"><ele>31.3</ele><time>2026-05-28T11:45:34Z</time></trkpt>
			<trkpt lat="54.361380" lon="21.305970"><ele>31.3</ele><time>2026-05-28T11:45:54Z</time></trkpt>
			<trkpt lat="54.361450" lon="21.306320"><ele>31.4</ele><time>2026-05-28T11:46:13Z</time></trkpt>
			<trkpt lat="54.361490" lon="21.306430"><ele>31.4</ele><time>2026-05-28T11:46:33Z</time></trkpt>
			<trkpt lat="54.361560" lon="21.306540"><ele>31.4</ele><time>2026-05-28T11:46:53Z</time></trkpt>
			<trkpt lat="54.361730" lon="21.306720"><ele>31.5</ele><time>2026-05-28T11:47:13Z</time></trkpt>
			<trkpt lat="54.362240" lon="21.307130"><ele>31.7</ele><time>2026-05-28T11:47:33Z</time></trkpt>
			<trkpt lat="54.362450" lon="21.307180"><ele>31.7</ele><time>2026-05-28T11:47:53Z</time></trkpt>
			<trkpt lat="54.362550" lon="21.307150"><ele>31.8</ele><time>2026-05-28T11:48:13Z</time></trkpt>
			<trkpt lat="54.362980" lon="21.306940"><ele>31.9</ele><time>2026-05-28T11:48:33Z</time></trkpt>
			<trkpt lat="54.363050" lon="21.306930"><ele>31.9</ele><time>2026-05-28T11:48:53Z</time></trkpt>
			<trkpt lat="54.363130" lon="21.306950"><ele>32.1</ele><time>2026-05-28T11:49:13Z</time></trkpt>
			<trkpt lat="54.363210" lon="21.307000"><ele>32.4</ele><time>2026-05-28T11:49:32Z</time></trkpt>
			<trkpt lat="54.363300" lon="21.307120"><ele>32.7</ele><time>2026-05-28T11:49:52Z</time></trkpt>
			<trkpt lat="54.363570" lon="21.307500"><ele>33.6</ele><time>2026-05-28T11:50:12Z</time></trkpt>
			<trkpt lat="54.363690" lon="21.307770"><ele>34.1</ele><time>2026-05-28T11:50:32Z</time></trkpt>
			<trkpt lat="54.363760" lon="21.308030"><ele>34.5</ele><time>2026-05-28T11:50:52Z</time></trkpt>
			<trkpt lat="54.363900" lon="21.308500"><ele>35.3</ele><time>2026-05-28T11:51:12Z</time></trkpt>
			<trkpt lat="54.363930" lon="21.308620"><ele>35.5</ele><time>2026-05-28T11:51:32Z</time></trkpt>
			<trkpt lat="54.364000" lon="21.309050"><ele>36.2</ele><time>2026-05-28T11:51:52Z</time></trkpt>
			<trkpt lat="54.364000" lon="21.309280"><ele>36.6</ele><time>2026-05-28T11:52:12Z</time></trkpt>
			<trkpt lat="54.363950" lon="21.309480"><ele>36.9</ele><time>2026-05-28T11:52:32Z</time></trkpt>
			<trkpt lat="54.363890" lon="21.309620"><ele>37.2</ele><time>2026-05-28T11:52:51Z</time></trkpt>
			<trkpt lat="54.363420" lon="21.310370"><ele>38.9</ele><time>2026-05-28T11:53:11Z</time></trkpt>
			<trkpt lat="54.363110" lon="21.310600"><ele>39.7</ele><time>2026-05-28T11:53:31Z</time></trkpt>
			<trkpt lat="54.361930" lon="21.311010"><ele>42.9</ele><time>2026-05-28T11:53:51Z</time></trkpt>
			<trkpt lat="54.361640" lon="21.311180"><ele>43.7</ele><time>2026-05-28T11:54:11Z</time></trkpt>
			<trkpt lat="54.361370" lon="21.311520"><ele>44.6</ele><time>2026-05-28T11:54:31Z</time></trkpt>
			<trkpt lat="54.361180" lon="21.311960"><ele>45.4</ele><time>2026-05-28T11:54:51Z</time></trkpt>
			<trkpt lat="54.361030" lon="21.312550"><ele>46.0</ele><time>2026-05-28T11:55:11Z</time></trkpt>
			<trkpt lat="54.360950" lon="21.313300"><ele>45.5</ele><time>2026-05-28T11:55:31Z</time></trkpt>
			<trkpt lat="54.360880" lon="21.314370"><ele>44.9</ele><time>2026-05-28T11:55:51Z</time></trkpt>
			<trkpt lat="54.360810" lon="21.315560"><ele>44.3</ele><time>2026-05-28T11:56:10Z</time></trkpt>
			<trkpt lat="54.360690" lon="21.317300"><ele>43.3</ele><time>2026-05-28T11:56:30Z</time></trkpt>
			<trkpt lat="54.360570" lon="21.319500"><ele>42.1</ele><time>2026-05-28T11:56:50Z</time></trkpt>
			<trkpt lat="54.360490" lon="21.320810"><ele>41.3</ele><time>2026-05-28T11:57:10Z</time></trkpt>
			<trkpt lat="54.360470" lon="21.321210"><ele>41.1</ele><time>2026-05-28T11:57:30Z</time></trkpt>
			<trkpt lat="54.360370" lon="21.322840"><ele>42.5</ele><time>2026-05-28T11:57:50Z</time></trkpt>
			<trkpt lat="54.360290" lon="21.323800"><ele>43.6</ele><time>2026-05-28T11:58:10Z</time></trkpt>
			<trkpt lat="54.360220" lon="21.324230"><ele>44.2</ele><time>2026-05-28T11:58:30Z</time></trkpt>
			<trkpt lat="54.360200" lon="21.324350"><ele>44.3</ele><time>2026-05-28T11:58:50Z</time></trkpt>
			<trkpt lat="54.359820" lon="21.325650"><ele>46.1</ele><time>2026-05-28T11:59:09Z</time></trkpt>
			<trkpt lat="54.359640" lon="21.326260"><ele>46.9</ele><time>2026-05-28T11:59:29Z</time></trkpt>
			<trkpt lat="54.359150" lon="21.327940"><ele>49.2</ele><time>2026-05-28T11:59:49Z</time></trkpt>
			<trkpt lat="54.358830" lon="21.329000"><ele>50.6</ele><time>2026-05-28T12:00:09Z</time></trkpt>
			<trkpt lat="54.358480" lon="21.330190"><ele>52.1</ele><time>2026-05-28T12:00:29Z</time></trkpt>
			<trkpt lat="54.357840" lon="21.332260"><ele>52.4</ele><time>2026-05-28T12:00:49Z</time></trkpt>
			<trkpt lat="54.357020" lon="21.335040"><ele>52.8</ele><time>2026-05-28T12:01:09Z</time></trkpt>
			<trkpt lat="54.356190" lon="21.337930"><ele>53.3</ele><time>2026-05-28T12:01:29Z</time></trkpt>
			<trkpt lat="54.356140" lon="21.338140"><ele>53.3</ele><time>2026-05-28T12:01:49Z</time></trkpt>
			<trkpt lat="54.355640" lon="21.340200"><ele>53.5</ele><time>2026-05-28T12:02:09Z</time></trkpt>
			<trkpt lat="54.355320" lon="21.341260"><ele>53.6</ele><time>2026-05-28T12:02:28Z</time></trkpt>
			<trkpt lat="54.355180" lon="21.341620"><ele>53.6</ele><time>2026-05-28T12:02:48Z</time></trkpt>
			<trkpt lat="54.355120" lon="21.341760"><ele>53.6</ele><time>2026-05-28T12:03:08Z</time></trkpt>
			<trkpt lat="54.353760" lon="21.344310"><ele>53.9</ele><time>2026-05-28T12:03:28Z</time></trkpt>
			<trkpt lat="54.349380" lon="21.352370"><ele>55.5</ele><time>2026-05-28T12:03:48Z</time></trkpt>
			<trkpt lat="54.348110" lon="21.354750"><ele>55.3</ele><time>2026-05-28T12:04:08Z</time></trkpt>
			<trkpt lat="54.346140" lon="21.359250"><ele>54.8</ele><time>2026-05-28T12:04:28Z</time></trkpt>
			<trkpt lat="54.344540" lon="21.362340"><ele>53.3</ele><time>2026-05-28T12:04:48Z</time></trkpt>
			<trkpt lat="54.343810" lon="21.366840"><ele>51.3</ele><time>2026-05-28T12:05:08Z</time></trkpt>
			<trkpt lat="54.342790" lon="21.374190"><ele>51.7</ele><time>2026-05-28T12:05:28Z</time></trkpt>
			<trkpt lat="54.342710" lon="21.374870"><ele>51.8</ele><time>2026-05-28T12:05:47Z</time></trkpt>
			<trkpt lat="54.342640" lon="21.375530"><ele>51.9</ele><time>2026-05-28T12:06:07Z</time></trkpt>
			<trkpt lat="54.342440" lon="21.377490"><ele>51.8</ele><time>2026-05-28T12:06:27Z</time></trkpt>
			<trkpt lat="54.341710" lon="21.386950"><ele>46.7</ele><time>2026-05-28T12:06:47Z</time></trkpt>
			<trkpt lat="54.341710" lon="21.386950"><ele>46.7</ele><time>2026-05-28T12:07:30Z</time></trkpt>
			<trkpt lat="54.341460" lon="21.390150"><ele>49.5</ele><time>2026-05-28T12:08:13Z</time></trkpt>
			<trkpt lat="54.340880" lon="21.393800"><ele>52.9</ele><time>2026-05-28T12:08:56Z</time></trkpt>
			<trkpt lat="54.340380" lon="21.396500"><ele>54.9</ele><time>2026-05-28T12:09:40Z</time></trkpt>
			<trkpt lat="54.340040" lon="21.397670"><ele>55.6</ele><time>2026-05-28T12:10:23Z</time></trkpt>
			<trkpt lat="54.339530" lon="21.399340"><ele>56.6</ele><time>2026-05-28T12:11:06Z</time></trkpt>
			<trkpt lat="54.337880" lon="21.403290"><ele>59.2</ele><time>2026-05-28T12:11:49Z</time></trkpt>
			<trkpt lat="54.328900" lon="21.421610"><ele>62.6</ele><time>2026-05-28T12:12:32Z</time></trkpt>
			<trkpt lat="54.328350" lon="21.423030"><ele>62.9</ele><time>2026-05-28T12:13:15Z</time></trkpt>
			<trkpt lat="54.328200" lon="21.424140"><ele>63.0</ele><time>2026-05-28T12:13:58Z</time></trkpt>
			<trkpt lat="54.328370" lon="21.426500"><ele>63.5</ele><time>2026-05-28T12:14:41Z</time></trkpt>
			<trkpt lat="54.328700" lon="21.429680"><ele>64.1</ele><time>2026-05-28T12:15:24Z</time></trkpt>
			<trkpt lat="54.329370" lon="21.432730"><ele>64.8</ele><time>2026-05-28T12:16:07Z</time></trkpt>
			<trkpt lat="54.334450" lon="21.454960"><ele>65.7</ele><time>2026-05-28T12:16:50Z</time></trkpt>
			<trkpt lat="54.334940" lon="21.456430"><ele>65.5</ele><time>2026-05-28T12:17:34Z</time></trkpt>
			<trkpt lat="54.335390" lon="21.457940"><ele>65.3</ele><time>2026-05-28T12:18:17Z</time></trkpt>
			<trkpt lat="54.335600" lon="21.459220"><ele>65.2</ele><time>2026-05-28T12:19:00Z</time></trkpt>
			<trkpt lat="54.337430" lon="21.482940"><ele>60.8</ele><time>2026-05-28T12:19:43Z</time></trkpt>
			<trkpt lat="54.337660" lon="21.486030"><ele>62.6</ele><time>2026-05-28T12:20:26Z</time></trkpt>
			<trkpt lat="54.337730" lon="21.487830"><ele>63.0</ele><time>2026-05-28T12:21:09Z</time></trkpt>
			<trkpt lat="54.337630" lon="21.489550"><ele>62.1</ele><time>2026-05-28T12:21:52Z</time></trkpt>
			<trkpt lat="54.333440" lon="21.524740"><ele>74.6</ele><time>2026-05-28T12:22:35Z</time></trkpt>
			<trkpt lat="54.332810" lon="21.527920"><ele>75.2</ele><time>2026-05-28T12:23:18Z</time></trkpt>
			<trkpt lat="54.332380" lon="21.530530"><ele>75.7</ele><time>2026-05-28T12:24:01Z</time></trkpt>
			<trkpt lat="54.331680" lon="21.535040"><ele>75.8</ele><time>2026-05-28T12:24:45Z</time></trkpt>
			<trkpt lat="54.331600" lon="21.535540"><ele>75.7</ele><time>2026-05-28T12:25:28Z</time></trkpt>
			<trkpt lat="54.331200" lon="21.538430"><ele>75.3</ele><time>2026-05-28T12:26:11Z</time></trkpt>
			<trkpt lat="54.329860" lon="21.548210"><ele>73.7</ele><time>2026-05-28T12:26:54Z</time></trkpt>
			<trkpt lat="54.329660" lon="21.549690"><ele>73.4</ele><time>2026-05-28T12:27:37Z</time></trkpt>
			<trkpt lat="54.329530" lon="21.550580"><ele>73.3</ele><time>2026-05-28T12:28:20Z</time></trkpt>
			<trkpt lat="54.329450" lon="21.550970"><ele>73.0</ele><time>2026-05-28T12:29:03Z</time></trkpt>
			<trkpt lat="54.329310" lon="21.551420"><ele>72.7</ele><time>2026-05-28T12:29:46Z</time></trkpt>
			<trkpt lat="54.329130" lon="21.551850"><ele>72.4</ele><time>2026-05-28T12:30:29Z</time></trkpt>
			<trkpt lat="54.328920" lon="21.552160"><ele>72.1</ele><time>2026-05-28T12:31:12Z</time></trkpt>
			<trkpt lat="54.328450" lon="21.552680"><ele>71.5</ele><time>2026-05-28T12:31:56Z</time></trkpt>
			<trkpt lat="54.328260" lon="21.552940"><ele>71.2</ele><time>2026-05-28T12:32:39Z</time></trkpt>
			<trkpt lat="54.328220" lon="21.553150"><ele>71.1</ele><time>2026-05-28T12:33:22Z</time></trkpt>
			<trkpt lat="54.328230" lon="21.553390"><ele>71.0</ele><time>2026-05-28T12:34:05Z</time></trkpt>
			<trkpt lat="54.328280" lon="21.553710"><ele>70.8</ele><time>2026-05-28T12:34:48Z</time></trkpt>
			<trkpt lat="54.328580" lon="21.555120"><ele>69.8</ele><time>2026-05-28T12:35:31Z</time></trkpt>
			<trkpt lat="54.328620" lon="21.555380"><ele>69.7</ele><time>2026-05-28T12:36:14Z</time></trkpt>
			<trkpt lat="54.328640" lon="21.555830"><ele>69.4</ele><time>2026-05-28T12:36:57Z</time></trkpt>
			<trkpt lat="54.328640" lon="21.555830"><ele>69.4</ele><time>2026-05-28T12:37:36Z</time></trkpt>
			<trkpt lat="54.328640" lon="21.556750"><ele>68.8</ele><time>2026-05-28T12:38:15Z</time></trkpt>
			<trkpt lat="54.328710" lon="21.557110"><ele>68.6</ele><time>2026-05-28T12:38:54Z</time></trkpt>
			<trkpt lat="54.328790" lon="21.557310"><ele>68.4</ele><time>2026-05-28T12:39:33Z</time></trkpt>
			<trkpt lat="54.328990" lon="21.557520"><ele>68.2</ele><time>2026-05-28T12:40:12Z</time></trkpt>
			<trkpt lat="54.329340" lon="21.557570"><ele>67.8</ele><time>2026-05-28T12:40:51Z</time></trkpt>
			<trkpt lat="54.329720" lon="21.557420"><ele>67.7</ele><time>2026-05-28T12:41:29Z</time></trkpt>
			<trkpt lat="54.330490" lon="21.557040"><ele>68.3</ele><time>2026-05-28T12:42:08Z</time></trkpt>
			<trkpt lat="54.332710" lon="21.556420"><ele>70.1</ele><time>2026-05-28T12:42:47Z</time></trkpt>
			<trkpt lat="54.333190" lon="21.556300"><ele>70.5</ele><time>2026-05-28T12:43:26Z</time></trkpt>
			<trkpt lat="54.333880" lon="21.556200"><ele>71.0</ele><time>2026-05-28T12:44:05Z</time></trkpt>
			<trkpt lat="54.334370" lon="21.556260"><ele>71.4</ele><time>2026-05-28T12:44:44Z</time></trkpt>
			<trkpt lat="54.337810" lon="21.556650"><ele>71.1</ele><time>2026-05-28T12:45:23Z</time></trkpt>
			<trkpt lat="54.339530" lon="21.556870"><ele>70.6</ele><time>2026-05-28T12:46:02Z</time></trkpt>
			<trkpt lat="54.340980" lon="21.557020"><ele>70.2</ele><time>2026-05-28T12:46:41Z</time></trkpt>
			<trkpt lat="54.342120" lon="21.556900"><ele>69.7</ele><time>2026-05-28T12:47:20Z</time></trkpt>
			<trkpt lat="54.343610" lon="21.556730"><ele>69.0</ele><time>2026-05-28T12:47:58Z</time></trkpt>
			<trkpt lat="54.344250" lon="21.556640"><ele>68.7</ele><time>2026-05-28T12:48:37Z</time></trkpt>
			<trkpt lat="54.344790" lon="21.556530"><ele>68.5</ele><time>2026-05-28T12:49:16Z</time></trkpt>
			<trkpt lat="54.345190" lon="21.556640"><ele>68.3</ele><time>2026-05-28T12:49:55Z</time></trkpt>
			<trkpt lat="54.345270" lon="21.556660"><ele>68.3</ele><time>2026-05-28T12:50:34Z</time></trkpt>
			<trkpt lat="54.345940" lon="21.557080"><ele>67.9</ele><time>2026-05-28T12:51:13Z</time></trkpt>
			<trkpt lat="54.352150" lon="21.561710"><ele>65.3</ele><time>2026-05-28T12:51:52Z</time></trkpt>
			<trkpt lat="54.353200" lon="21.562620"><ele>65.9</ele><time>2026-05-28T12:52:31Z</time></trkpt>
			<trkpt lat="54.354200" lon="21.563780"><ele>66.5</ele><time>2026-05-28T12:53:10Z</time></trkpt>
			<trkpt lat="54.357390" lon="21.567350"><ele>68.0</ele><time>2026-05-28T12:53:49Z</time></trkpt>
			<trkpt lat="54.360020" lon="21.569790"><ele>69.1</ele><time>2026-05-28T12:54:27Z</time></trkpt>
			<trkpt lat="54.360810" lon="21.570340"><ele>67.9</ele><time>2026-05-28T12:55:06Z</time></trkpt>
			<trkpt lat="54.361910" lon="21.570950"><ele>66.4</ele><time>2026-05-28T12:55:45Z</time></trkpt>
			<trkpt lat="54.365770" lon="21.573370"><ele>61.6</ele><time>2026-05-28T12:56:24Z</time></trkpt>
			<trkpt lat="54.366230" lon="21.573680"><ele>61.4</ele><time>2026-05-28T12:57:03Z</time></trkpt>
			<trkpt lat="54.366670" lon="21.574040"><ele>61.1</ele><time>2026-05-28T12:57:42Z</time></trkpt>
			<trkpt lat="54.369770" lon="21.577570"><ele>59.3</ele><time>2026-05-28T12:58:21Z</time></trkpt>
			<trkpt lat="54.375300" lon="21.583580"><ele>61.5</ele><time>2026-05-28T12:59:00Z</time></trkpt>
			<trkpt lat="54.373310" lon="21.590970"><ele>61.8</ele><time>2026-05-28T12:59:39Z</time></trkpt>
			<trkpt lat="54.373900" lon="21.606760"><ele>67.4</ele><time>2026-05-28T13:00:17Z</time></trkpt>
			<trkpt lat="54.373830" lon="21.607900"><ele>67.2</ele><time>2026-05-28T13:00:56Z</time></trkpt>
			<trkpt lat="54.373500" lon="21.610610"><ele>66.1</ele><time>2026-05-28T13:01:35Z</time></trkpt>
			<trkpt lat="54.373370" lon="21.611990"><ele>65.5</ele><time>2026-05-28T13:02:14Z</time></trkpt>
			<trkpt lat="54.373310" lon="21.615880"><ele>63.7</ele><time>2026-05-28T13:02:53Z</time></trkpt>
			<trkpt lat="54.373160" lon="21.620850"><ele>64.2</ele><time>2026-05-28T13:03:32Z</time></trkpt>
			<trkpt lat="54.373090" lon="21.621710"><ele>64.6</ele><time>2026-05-28T13:04:11Z</time></trkpt>
			<trkpt lat="54.372960" lon="21.622520"><ele>65.0</ele><time>2026-05-28T13:04:50Z</time></trkpt>
			<trkpt lat="54.367700" lon="21.648300"><ele>72.7</ele><time>2026-05-28T13:05:29Z</time></trkpt>
			<trkpt lat="54.367520" lon="21.649530"><ele>73.5</ele><time>2026-05-28T13:06:08Z</time></trkpt>
			<trkpt lat="54.367520" lon="21.650940"><ele>74.5</ele><time>2026-05-28T13:06:46Z</time></trkpt>
			<trkpt lat="54.367490" lon="21.653050"><ele>75.9</ele><time>2026-05-28T13:07:25Z</time></trkpt>
			<trkpt lat="54.367400" lon="21.655940"><ele>77.0</ele><time>2026-05-28T13:08:04Z</time></trkpt>
			<trkpt lat="54.365550" lon="21.679150"><ele>75.4</ele><time>2026-05-28T13:08:43Z</time></trkpt>
			<trkpt lat="54.365550" lon="21.679150"><ele>75.4</ele><time>2026-05-28T13:09:03Z</time></trkpt>
			<trkpt lat="54.365040" lon="21.685580"><ele>81.7</ele><time>2026-05-28T13:09:22Z</time></trkpt>
			<trkpt lat="54.365010" lon="21.686240"><ele>82.4</ele><time>2026-05-28T13:09:42Z</time></trkpt>
			<trkpt lat="54.365090" lon="21.686860"><ele>83.1</ele><time>2026-05-28T13:10:02Z</time></trkpt>
			<trkpt lat="54.365290" lon="21.687880"><ele>84.2</ele><time>2026-05-28T13:10:21Z</time></trkpt>
			<trkpt lat="54.368010" lon="21.694180"><ele>84.1</ele><time>2026-05-28T13:10:41Z</time></trkpt>
			<trkpt lat="54.369300" lon="21.697450"><ele>82.5</ele><time>2026-05-28T13:11:01Z</time></trkpt>
			<trkpt lat="54.369950" lon="21.700120"><ele>82.2</ele><time>2026-05-28T13:11:20Z</time></trkpt>
			<trkpt lat="54.371880" lon="21.708120"><ele>83.9</ele><time>2026-05-28T13:11:40Z</time></trkpt>
			<trkpt lat="54.373510" lon="21.714850"><ele>89.6</ele><time>2026-05-28T13:12:00Z</time></trkpt>
			<trkpt lat="54.373730" lon="21.716000"><ele>90.3</ele><time>2026-05-28T13:12:19Z</time></trkpt>
			<trkpt lat="54.374660" lon="21.722450"><ele>94.5</ele><time>2026-05-28T13:12:39Z</time></trkpt>
			<trkpt lat="54.375550" lon="21.728890"><ele>94.7</ele><time>2026-05-28T13:12:59Z</time></trkpt>
			<trkpt lat="54.375670" lon="21.729880"><ele>94.6</ele><time>2026-05-28T13:13:18Z</time></trkpt>
			<trkpt lat="54.375810" lon="21.731100"><ele>94.6</ele><time>2026-05-28T13:13:38Z</time></trkpt>
			<trkpt lat="54.375870" lon="21.731510"><ele>94.5</ele><time>2026-05-28T13:13:58Z</time></trkpt>
			<trkpt lat="54.375990" lon="21.734620"><ele>93.6</ele><time>2026-05-28T13:14:17Z</time></trkpt>
			<trkpt lat="54.376880" lon="21.751450"><ele>97.6</ele><time>2026-05-28T13:14:37Z</time></trkpt>
			<trkpt lat="54.377490" lon="21.762920"><ele>101.5</ele><time>2026-05-28T13:14:57Z</time></trkpt>
			<trkpt lat="54.377590" lon="21.765440"><ele>104.0</ele><time>2026-05-28T13:15:16Z</time></trkpt>
			<trkpt lat="54.377590" lon="21.765910"><ele>104.5</ele><time>2026-05-28T13:15:36Z</time></trkpt>
			<trkpt lat="54.377510" lon="21.771070"><ele>108.1</ele><time>2026-05-28T13:15:56Z</time></trkpt>
			<trkpt lat="54.377150" lon="21.791960"><ele>104.9</ele><time>2026-05-28T13:16:15Z</time></trkpt>
			<trkpt lat="54.376960" lon="21.792650"><ele>104.9</ele><time>2026-05-28T13:16:35Z</time></trkpt>
			<trkpt lat="54.376660" lon="21.793090"><ele>104.9</ele><time>2026-05-28T13:16:55Z</time></trkpt>
			<trkpt lat="54.373390" lon="21.794960"><ele>109.2</ele><time>2026-05-28T13:17:14Z</time></trkpt>
			<trkpt lat="54.373070" lon="21.795420"><ele>110.5</ele><time>2026-05-28T13:17:34Z</time></trkpt>
			<trkpt lat="54.372890" lon="21.796120"><ele>111.8</ele><time>2026-05-28T13:17:54Z</time></trkpt>
			<trkpt lat="54.372800" lon="21.797020"><ele>113.4</ele><time>2026-05-28T13:18:13Z</time></trkpt>
			<trkpt lat="54.372710" lon="21.797540"><ele>114.4</ele><time>2026-05-28T13:18:33Z</time></trkpt>
			<trkpt lat="54.372420" lon="21.798040"><ele>115.6</ele><time>2026-05-28T13:18:53Z</time></trkpt>
			<trkpt lat="54.367460" lon="21.803200"><ele>124.2</ele><time>2026-05-28T13:19:12Z</time></trkpt>
			<trkpt lat="54.367210" lon="21.803590"><ele>124.4</ele><time>2026-05-28T13:19:32Z</time></trkpt>
			<trkpt lat="54.365890" lon="21.808470"><ele>129.5</ele><time>2026-05-28T13:19:52Z</time></trkpt>
			<trkpt lat="54.365830" lon="21.808680"><ele>129.8</ele><time>2026-05-28T13:20:11Z</time></trkpt>
			<trkpt lat="54.365250" lon="21.811050"><ele>133.1</ele><time>2026-05-28T13:20:31Z</time></trkpt>
			<trkpt lat="54.364850" lon="21.812220"><ele>134.8</ele><time>2026-05-28T13:20:51Z</time></trkpt>
			<trkpt lat="54.361860" lon="21.820080"><ele>143.7</ele><time>2026-05-28T13:21:10Z</time></trkpt>
			<trkpt lat="54.361690" lon="21.820570"><ele>144.2</ele><time>2026-05-28T13:21:30Z</time></trkpt>
			<trkpt lat="54.361590" lon="21.821080"><ele>144.7</ele><time>2026-05-28T13:21:50Z</time></trkpt>
			<trkpt lat="54.361540" lon="21.821770"><ele>145.1</ele><time>2026-05-28T13:22:09Z</time></trkpt>
			<trkpt lat="54.361670" lon="21.824530"><ele>143.9</ele><time>2026-05-28T13:22:29Z</time></trkpt>
			<trkpt lat="54.361700" lon="21.829580"><ele>141.7</ele><time>2026-05-28T13:22:49Z</time></trkpt>
			<trkpt lat="54.362170" lon="21.832730"><ele>140.4</ele><time>2026-05-28T13:23:08Z</time></trkpt>
			<trkpt lat="54.362680" lon="21.836020"><ele>139.2</ele><time>2026-05-28T13:23:28Z</time></trkpt>
			<trkpt lat="54.363050" lon="21.837180"><ele>138.7</ele><time>2026-05-28T13:23:47Z</time></trkpt>
			<trkpt lat="54.364520" lon="21.840760"><ele>138.5</ele><time>2026-05-28T13:24:07Z</time></trkpt>
			<trkpt lat="54.365960" lon="21.843840"><ele>140.5</ele><time>2026-05-28T13:24:27Z</time></trkpt>
			<trkpt lat="54.366310" lon="21.844770"><ele>141.0</ele><time>2026-05-28T13:24:46Z</time></trkpt>
			<trkpt lat="54.366630" lon="21.845920"><ele>141.6</ele><time>2026-05-28T13:25:06Z</time></trkpt>
			<trkpt lat="54.367710" lon="21.850180"><ele>138.2</ele><time>2026-05-28T13:25:26Z</time></trkpt>
			<trkpt lat="54.368520" lon="21.852940"><ele>134.7</ele><time>2026-05-28T13:25:45Z</time></trkpt>
			<trkpt lat="54.369220" lon="21.855670"><ele>131.2</ele><time>2026-05-28T13:26:05Z</time></trkpt>
			<trkpt lat="54.370620" lon="21.861200"><ele>123.5</ele><time>2026-05-28T13:26:25Z</time></trkpt>
			<trkpt lat="54.372020" lon="21.866520"><ele>116.8</ele><time>2026-05-28T13:26:44Z</time></trkpt>
			<trkpt lat="54.372270" lon="21.867400"><ele>115.8</ele><time>2026-05-28T13:27:04Z</time></trkpt>
			<trkpt lat="54.372410" lon="21.868270"><ele>114.8</ele><time>2026-05-28T13:27:24Z</time></trkpt>
			<trkpt lat="54.373480" lon="21.875660"><ele>110.8</ele><time>2026-05-28T13:27:43Z</time></trkpt>
			<trkpt lat="54.373610" lon="21.876350"><ele>111.0</ele><time>2026-05-28T13:28:03Z</time></trkpt>
			<trkpt lat="54.373810" lon="21.877030"><ele>111.2</ele><time>2026-05-28T13:28:23Z</time></trkpt>
			<trkpt lat="54.374150" lon="21.877980"><ele>111.4</ele><time>2026-05-28T13:28:42Z</time></trkpt>
			<trkpt lat="54.374170" lon="21.878060"><ele>111.5</ele><time>2026-05-28T13:29:02Z</time></trkpt>
			<trkpt lat="54.376840" lon="21.885610"><ele>113.1</ele><time>2026-05-28T13:29:22Z</time></trkpt>
			<trkpt lat="54.379930" lon="21.894270"><ele>122.9</ele><time>2026-05-28T13:29:41Z</time></trkpt>
			<trkpt lat="54.380130" lon="21.895050"><ele>124.2</ele><time>2026-05-28T13:30:01Z</time></trkpt>
			<trkpt lat="54.380880" lon="21.898370"><ele>127.8</ele><time>2026-05-28T13:30:21Z</time></trkpt>
			<trkpt lat="54.381170" lon="21.899280"><ele>128.0</ele><time>2026-05-28T13:30:40Z</time></trkpt>
			<trkpt lat="54.381640" lon="21.900400"><ele>128.2</ele><time>2026-05-28T13:31:00Z</time></trkpt>
			<trkpt lat="54.384830" lon="21.907840"><ele>127.4</ele><time>2026-05-28T13:31:20Z</time></trkpt>
			<trkpt lat="54.385110" lon="21.908400"><ele>127.0</ele><time>2026-05-28T13:31:39Z</time></trkpt>
			<trkpt lat="54.385480" lon="21.908870"><ele>126.6</ele><time>2026-05-28T13:31:59Z</time></trkpt>
			<trkpt lat="54.386340" lon="21.909670"><ele>125.7</ele><time>2026-05-28T13:32:19Z</time></trkpt>
			<trkpt lat="54.386580" lon="21.910050"><ele>125.5</ele><time>2026-05-28T13:32:38Z</time></trkpt>
			<trkpt lat="54.386710" lon="21.910370"><ele>125.3</ele><time>2026-05-28T13:32:58Z</time></trkpt>
			<trkpt lat="54.386820" lon="21.910710"><ele>125.1</ele><time>2026-05-28T13:33:18Z</time></trkpt>
			<trkpt lat="54.388200" lon="21.915410"><ele>124.7</ele><time>2026-05-28T13:33:37Z</time></trkpt>
			<trkpt lat="54.388350" lon="21.915830"><ele>124.8</ele><time>2026-05-28T13:33:57Z</time></trkpt>
			<trkpt lat="54.388600" lon="21.916320"><ele>124.8</ele><time>2026-05-28T13:34:17Z</time></trkpt>
			<trkpt lat="54.388910" lon="21.916740"><ele>124.8</ele><time>2026-05-28T13:34:36Z</time></trkpt>
			<trkpt lat="54.394170" lon="21.923220"><ele>122.7</ele><time>2026-05-28T13:34:56Z</time></trkpt>
			<trkpt lat="54.396010" lon="21.925000"><ele>121.7</ele><time>2026-05-28T13:35:16Z</time></trkpt>
			<trkpt lat="54.396320" lon="21.925400"><ele>121.5</ele><time>2026-05-28T13:35:35Z</time></trkpt>
			<trkpt lat="54.396640" lon="21.926080"><ele>121.3</ele><time>2026-05-28T13:35:55Z</time></trkpt>
			<trkpt lat="54.398350" lon="21.930180"><ele>119.9</ele><time>2026-05-28T13:36:15Z</time></trkpt>
			<trkpt lat="54.400310" lon="21.934770"><ele>115.6</ele><time>2026-05-28T13:36:34Z</time></trkpt>
			<trkpt lat="54.400610" lon="21.935930"><ele>114.6</ele><time>2026-05-28T13:36:54Z</time></trkpt>
			<trkpt lat="54.401060" lon="21.937750"><ele>113.1</ele><time>2026-05-28T13:37:14Z</time></trkpt>
			<trkpt lat="54.401260" lon="21.938930"><ele>112.5</ele><time>2026-05-28T13:37:33Z</time></trkpt>
			<trkpt lat="54.401340" lon="21.939770"><ele>112.6</ele><time>2026-05-28T13:37:53Z</time></trkpt>
			<trkpt lat="54.401500" lon="21.942250"><ele>112.8</ele><time>2026-05-28T13:38:13Z</time></trkpt>
			<trkpt lat="54.401630" lon="21.944740"><ele>113.0</ele><time>2026-05-28T13:38:32Z</time></trkpt>
			<trkpt lat="54.401740" lon="21.946150"><ele>113.1</ele><time>2026-05-28T13:38:52Z</time></trkpt>
			<trkpt lat="54.401890" lon="21.948720"><ele>113.3</ele><time>2026-05-28T13:39:12Z</time></trkpt>
			<trkpt lat="54.401930" lon="21.949670"><ele>113.3</ele><time>2026-05-28T13:39:31Z</time></trkpt>
			<trkpt lat="54.402100" lon="21.952340"><ele>113.2</ele><time>2026-05-28T13:39:51Z</time></trkpt>
			<trkpt lat="54.402220" lon="21.954560"><ele>113.2</ele><time>2026-05-28T13:40:11Z</time></trkpt>
			<trkpt lat="54.402340" lon="21.957070"><ele>113.1</ele><time>2026-05-28T13:40:30Z</time></trkpt>
			<trkpt lat="54.402430" lon="21.958430"><ele>112.7</ele><time>2026-05-28T13:40:50Z</time></trkpt>
			<trkpt lat="54.402460" lon="21.959090"><ele>112.4</ele><time>2026-05-28T13:41:10Z</time></trkpt>
			<trkpt lat="54.402710" lon="21.961950"><ele>111.4</ele><time>2026-05-28T13:41:29Z</time></trkpt>
			<trkpt lat="54.402760" lon="21.962680"><ele>111.1</ele><time>2026-05-28T13:41:49Z</time></trkpt>
			<trkpt lat="54.402930" lon="21.964530"><ele>110.4</ele><time>2026-05-28T13:42:08Z</time></trkpt>
			<trkpt lat="54.403140" lon="21.966260"><ele>109.7</ele><time>2026-05-28T13:42:28Z</time></trkpt>
			<trkpt lat="54.403230" lon="21.966740"><ele>109.2</ele><time>2026-05-28T13:42:48Z</time></trkpt>
			<trkpt lat="54.404040" lon="21.969940"><ele>105.9</ele><time>2026-05-28T13:43:07Z</time></trkpt>
			<trkpt lat="54.404510" lon="21.971840"><ele>103.9</ele><time>2026-05-28T13:43:27Z</time></trkpt>
			<trkpt lat="54.404920" lon="21.973960"><ele>101.8</ele><time>2026-05-28T13:43:47Z</time></trkpt>
			<trkpt lat="54.405330" lon="21.975980"><ele>101.5</ele><time>2026-05-28T13:44:06Z</time></trkpt>
			<trkpt lat="54.405510" lon="21.976860"><ele>101.8</ele><time>2026-05-28T13:44:26Z</time></trkpt>
			<trkpt lat="54.406340" lon="21.981100"><ele>103.7</ele><time>2026-05-28T13:44:46Z</time></trkpt>
			<trkpt lat="54.406990" lon="21.984440"><ele>104.1</ele><time>2026-05-28T13:45:05Z</time></trkpt>
			<trkpt lat="54.408140" lon="21.990780"><ele>99.2</ele><time>2026-05-28T13:45:25Z</time></trkpt>
			<trkpt lat="54.408300" lon="21.991770"><ele>98.5</ele><time>2026-05-28T13:45:45Z</time></trkpt>
			<trkpt lat="54.408390" lon="21.993200"><ele>97.9</ele><time>2026-05-28T13:46:04Z</time></trkpt>
			<trkpt lat="54.408350" lon="21.993760"><ele>97.8</ele><time>2026-05-28T13:46:24Z</time></trkpt>
			<trkpt lat="54.407730" lon="21.997820"><ele>97.2</ele><time>2026-05-28T13:46:44Z</time></trkpt>
			<trkpt lat="54.407640" lon="21.998440"><ele>97.1</ele><time>2026-05-28T13:47:03Z</time></trkpt>
			<trkpt lat="54.407350" lon="22.000370"><ele>96.9</ele><time>2026-05-28T13:47:23Z</time></trkpt>
			<trkpt lat="54.406990" lon="22.002800"><ele>94.7</ele><time>2026-05-28T13:47:43Z</time></trkpt>
			<trkpt lat="54.407000" lon="22.002860"><ele>94.6</ele><time>2026-05-28T13:48:02Z</time></trkpt>
			<trkpt lat="54.406990" lon="22.003280"><ele>94.0</ele><time>2026-05-28T13:48:22Z</time></trkpt>
			<trkpt lat="54.407130" lon="22.004520"><ele>92.2</ele><time>2026-05-28T13:48:42Z</time></trkpt>
			<trkpt lat="54.407260" lon="22.005510"><ele>90.7</ele><time>2026-05-28T13:49:01Z</time></trkpt>
			<trkpt lat="54.407590" lon="22.008000"><ele>86.9</ele><time>2026-05-28T13:49:21Z</time></trkpt>
			<trkpt lat="54.407810" lon="22.009560"><ele>84.6</ele><time>2026-05-28T13:49:41Z</time></trkpt>
			<trkpt lat="54.407850" lon="22.009850"><ele>84.2</ele><time>2026-05-28T13:50:00Z</time></trkpt>
			<trkpt lat="54.408050" lon="22.011440"><ele>82.0</ele><time>2026-05-28T13:50:20Z</time></trkpt>
			<trkpt lat="54.408110" lon="22.011930"><ele>81.4</ele><time>2026-05-28T13:50:40Z</time></trkpt>
			<trkpt lat="54.408120" lon="22.012050"><ele>81.2</ele><time>2026-05-28T13:50:59Z</time></trkpt>
			<trkpt lat="54.408210" lon="22.012750"><ele>80.3</ele><time>2026-05-28T13:51:19Z</time></trkpt>
			<trkpt lat="54.408390" lon="22.013150"><ele>79.7</ele><time>2026-05-28T13:51:39Z</time></trkpt>
			<trkpt lat="54.408440" lon="22.013320"><ele>79.5</ele><time>2026-05-28T13:51:58Z</time></trkpt>
			<trkpt lat="54.408490" lon="22.013630"><ele>79.1</ele><time>2026-05-28T13:52:18Z</time></trkpt>
			<trkpt lat="54.408500" lon="22.013850"><ele>78.8</ele><time>2026-05-28T13:52:38Z</time></trkpt>
			<trkpt lat="54.408500" lon="22.014110"><ele>78.5</ele><time>2026-05-28T13:52:57Z</time></trkpt>
			<trkpt lat="54.408490" lon="22.014660"><ele>77.8</ele><time>2026-05-28T13:53:17Z</time></trkpt>
			<trkpt lat="54.408500" lon="22.014990"><ele>77.4</ele><time>2026-05-28T13:53:37Z</time></trkpt>
			<trkpt lat="54.408510" lon="22.015050"><ele>77.3</ele><time>2026-05-28T13:53:56Z</time></trkpt>
			<trkpt lat="54.408690" lon="22.016560"><ele>75.4</ele><time>2026-05-28T13:54:16Z</time></trkpt>
			<trkpt lat="54.408320" lon="22.016890"><ele>74.5</ele><time>2026-05-28T13:54:36Z</time></trkpt>
			<trkpt lat="54.408140" lon="22.017110"><ele>74.1</ele><time>2026-05-28T13:54:55Z</time></trkpt>
			<trkpt lat="54.408030" lon="22.017270"><ele>73.7</ele><time>2026-05-28T13:55:15Z</time></trkpt>
			<trkpt lat="54.407920" lon="22.017350"><ele>73.5</ele><time>2026-05-28T13:55:35Z</time></trkpt>
			<trkpt lat="54.407810" lon="22.017390"><ele>73.3</ele><time>2026-05-28T13:55:54Z</time></trkpt>
			<trkpt lat="54.407340" lon="22.017510"><ele>72.2</ele><time>2026-05-28T13:56:14Z</time></trkpt>
			<trkpt lat="54.407010" lon="22.017600"><ele>71.9</ele><time>2026-05-28T13:56:34Z</time></trkpt>
			<trkpt lat="54.406780" lon="22.017650"><ele>72.9</ele><time>2026-05-28T13:56:53Z</time></trkpt>
			<trkpt lat="54.406530" lon="22.017750"><ele>74.0</ele><time>2026-05-28T13:57:13Z</time></trkpt>
			<trkpt lat="54.406260" lon="22.017860"><ele>75.2</ele><time>2026-05-28T13:57:33Z</time></trkpt>
			<trkpt lat="54.406160" lon="22.017880"><ele>75.6</ele><time>2026-05-28T13:57:52Z</time></trkpt>
			<trkpt lat="54.406080" lon="22.017880"><ele>76.0</ele><time>2026-05-28T13:58:12Z</time></trkpt>
			<trkpt lat="54.406010" lon="22.017840"><ele>76.3</ele><time>2026-05-28T13:58:32Z</time></trkpt>
			<trkpt lat="54.405930" lon="22.017770"><ele>76.7</ele><time>2026-05-28T13:58:51Z</time></trkpt>
			<trkpt lat="54.405860" lon="22.017690"><ele>77.1</ele><time>2026-05-28T13:59:11Z</time></trkpt>
			<trkpt lat="54.405800" lon="22.017550"><ele>77.5</ele><time>2026-05-28T13:59:30Z</time></trkpt>
			<trkpt lat="54.405770" lon="22.017380"><ele>77.9</ele><time>2026-05-28T13:59:50Z</time></trkpt>
			<trkpt lat="54.405770" lon="22.017160"><ele>78.5</ele><time>2026-05-28T14:00:10Z</time></trkpt>
			<trkpt lat="54.405780" lon="22.016320"><ele>80.6</ele><time>2026-05-28T14:00:29Z</time></trkpt>
			<trkpt lat="54.405760" lon="22.016050"><ele>81.3</ele><time>2026-05-28T14:00:49Z</time></trkpt>
			<trkpt lat="54.405690" lon="22.015820"><ele>82.0</ele><time>2026-05-28T14:01:09Z</time></trkpt>
			<trkpt lat="54.405590" lon="22.015640"><ele>82.6</ele><time>2026-05-28T14:01:28Z</time></trkpt>
			<trkpt lat="54.405440" lon="22.015510"><ele>83.3</ele><time>2026-05-28T14:01:48Z</time></trkpt>
			<trkpt lat="54.405170" lon="22.015460"><ele>84.5</ele><time>2026-05-28T14:02:08Z</time></trkpt>
			<trkpt lat="54.404900" lon="22.015420"><ele>85.7</ele><time>2026-05-28T14:02:27Z</time></trkpt>
			<trkpt lat="54.404530" lon="22.015380"><ele>87.3</ele><time>2026-05-28T14:02:47Z</time></trkpt>
			<trkpt lat="54.404300" lon="22.015380"><ele>88.3</ele><time>2026-05-28T14:03:07Z</time></trkpt>
			<trkpt lat="54.404110" lon="22.015530"><ele>89.2</ele><time>2026-05-28T14:03:26Z</time></trkpt>
			<trkpt lat="54.404040" lon="22.015640"><ele>89.6</ele><time>2026-05-28T14:03:46Z</time></trkpt>
			<trkpt lat="54.403940" lon="22.015940"><ele>90.5</ele><time>2026-05-28T14:04:06Z</time></trkpt>
			<trkpt lat="54.403850" lon="22.016800"><ele>92.7</ele><time>2026-05-28T14:04:25Z</time></trkpt>
			<trkpt lat="54.403770" lon="22.017550"><ele>94.6</ele><time>2026-05-28T14:04:45Z</time></trkpt>
			<trkpt lat="54.403760" lon="22.017620"><ele>94.8</ele><time>2026-05-28T14:05:05Z</time></trkpt>
			<trkpt lat="54.403690" lon="22.018490"><ele>95.4</ele><time>2026-05-28T14:05:24Z</time></trkpt>
			<trkpt lat="54.403620" lon="22.018950"><ele>95.5</ele><time>2026-05-28T14:05:44Z</time></trkpt>
			<trkpt lat="54.403550" lon="22.019280"><ele>95.6</ele><time>2026-05-28T14:06:04Z</time></trkpt>
			<trkpt lat="54.403480" lon="22.019490"><ele>95.7</ele><time>2026-05-28T14:06:23Z</time></trkpt>
			<trkpt lat="54.403360" lon="22.019830"><ele>95.8</ele><time>2026-05-28T14:06:43Z</time></trkpt>
			<trkpt lat="54.403230" lon="22.020130"><ele>95.9</ele><time>2026-05-28T14:07:03Z</time></trkpt>
			<trkpt lat="54.403170" lon="22.020340"><ele>96.0</ele><time>2026-05-28T14:07:22Z</time></trkpt>
			<trkpt lat="54.403140" lon="22.020550"><ele>96.0</ele><time>2026-05-28T14:07:42Z</time></trkpt>
			<trkpt lat="54.403130" lon="22.020750"><ele>96.1</ele><time>2026-05-28T14:08:02Z</time></trkpt>
			<trkpt lat="54.403140" lon="22.021250"><ele>96.2</ele><time>2026-05-28T14:08:21Z</time></trkpt>
			<trkpt lat="54.403260" lon="22.024490"><ele>97.2</ele><time>2026-05-28T14:08:41Z</time></trkpt>
			<trkpt lat="54.403270" lon="22.024660"><ele>97.3</ele><time>2026-05-28T14:09:01Z</time></trkpt>
			<trkpt lat="54.403250" lon="22.025410"><ele>97.5</ele><time>2026-05-28T14:09:20Z</time></trkpt>
			<trkpt lat="54.403090" lon="22.026670"><ele>97.9</ele><time>2026-05-28T14:09:40Z</time></trkpt>
			<trkpt lat="54.402850" lon="22.028690"><ele>96.2</ele><time>2026-05-28T14:10:00Z</time></trkpt>
			<trkpt lat="54.402670" lon="22.030040"><ele>95.0</ele><time>2026-05-28T14:10:19Z</time></trkpt>
			<trkpt lat="54.402640" lon="22.030460"><ele>94.6</ele><time>2026-05-28T14:10:39Z</time></trkpt>
			<trkpt lat="54.402640" lon="22.030800"><ele>94.3</ele><time>2026-05-28T14:10:59Z</time></trkpt>
			<trkpt lat="54.402670" lon="22.031070"><ele>94.1</ele><time>2026-05-28T14:11:18Z</time></trkpt>
			<trkpt lat="54.402850" lon="22.031950"><ele>93.3</ele><time>2026-05-28T14:11:38Z</time></trkpt>
			<trkpt lat="54.403620" lon="22.035760"><ele>89.9</ele><time>2026-05-28T14:11:58Z</time></trkpt>
			<trkpt lat="54.403660" lon="22.036210"><ele>90.1</ele><time>2026-05-28T14:12:17Z</time></trkpt>
			<trkpt lat="54.407100" lon="22.040570"><ele>92.7</ele><time>2026-05-28T14:12:37Z</time></trkpt>
			<trkpt lat="54.407170" lon="22.040670"><ele>92.7</ele><time>2026-05-28T14:12:57Z</time></trkpt>
			<trkpt lat="54.407230" lon="22.040770"><ele>92.8</ele><time>2026-05-28T14:13:16Z</time></trkpt>
			<trkpt lat="54.407240" lon="22.040900"><ele>92.8</ele><time>2026-05-28T14:13:36Z</time></trkpt>
			<trkpt lat="54.407220" lon="22.041030"><ele>92.9</ele><time>2026-05-28T14:13:56Z</time></trkpt>
			<trkpt lat="54.406650" lon="22.042010"><ele>93.1</ele><time>2026-05-28T14:14:15Z</time></trkpt>
			<trkpt lat="54.406190" lon="22.042750"><ele>93.1</ele><time>2026-05-28T14:14:35Z</time></trkpt>
			<trkpt lat="54.405750" lon="22.043530"><ele>93.0</ele><time>2026-05-28T14:14:55Z</time></trkpt>
			<trkpt lat="54.405730" lon="22.043580"><ele>93.0</ele><time>2026-05-28T14:15:14Z</time></trkpt>
			<trkpt lat="54.405720" lon="22.043780"><ele>93.0</ele><time>2026-05-28T14:15:34Z</time></trkpt>
			<trkpt lat="54.405740" lon="22.043860"><ele>93.0</ele><time>2026-05-28T14:15:54Z</time></trkpt>
			<trkpt lat="54.405780" lon="22.043930"><ele>93.0</ele><time>2026-05-28T14:16:13Z</time></trkpt>
			<trkpt lat="54.405960" lon="22.044220"><ele>93.0</ele><time>2026-05-28T14:16:33Z</time></trkpt>
			<trkpt lat="54.406030" lon="22.044320"><ele>93.0</ele><time>2026-05-28T14:16:52Z</time></trkpt>
			<trkpt lat="54.406130" lon="22.044430"><ele>92.9</ele><time>2026-05-28T14:17:12Z</time></trkpt>
			<trkpt lat="54.406440" lon="22.044720"><ele>92.9</ele><time>2026-05-28T14:17:32Z</time></trkpt>
			<trkpt lat="54.406660" lon="22.044980"><ele>92.9</ele><time>2026-05-28T14:17:51Z</time></trkpt>
			<trkpt lat="54.406750" lon="22.045120"><ele>92.9</ele><time>2026-05-28T14:18:11Z</time></trkpt>
			<trkpt lat="54.406820" lon="22.045270"><ele>92.9</ele><time>2026-05-28T14:18:31Z</time></trkpt>
			<trkpt lat="54.408190" lon="22.048810"><ele>92.6</ele><time>2026-05-28T14:18:50Z</time></trkpt>
			<trkpt lat="54.409330" lon="22.051810"><ele>92.2</ele><time>2026-05-28T14:19:10Z</time></trkpt>
			<trkpt lat="54.410240" lon="22.054100"><ele>91.9</ele><time>2026-05-28T14:19:30Z</time></trkpt>
			<trkpt lat="54.410240" lon="22.054100"><ele>91.9</ele><time>2026-05-28T14:19:43Z</time></trkpt>
			<trkpt lat="54.410910" lon="22.055810"><ele>91.7</ele><time>2026-05-28T14:19:57Z</time></trkpt>
			<trkpt lat="54.411540" lon="22.057490"><ele>91.2</ele><time>2026-05-28T14:20:11Z</time></trkpt>
			<trkpt lat="54.411920" lon="22.058540"><ele>90.8</ele><time>2026-05-28T14:20:25Z</time></trkpt>
			<trkpt lat="54.412440" lon="22.060090"><ele>90.4</ele><time>2026-05-28T14:20:38Z</time></trkpt>
			<trkpt lat="54.412910" lon="22.061620"><ele>89.9</ele><time>2026-05-28T14:20:52Z</time></trkpt>
			<trkpt lat="54.414010" lon="22.065160"><ele>89.0</ele><time>2026-05-28T14:21:06Z</time></trkpt>
			<trkpt lat="54.414380" lon="22.066220"><ele>88.8</ele><time>2026-05-28T14:21:19Z</time></trkpt>
			<trkpt lat="54.414550" lon="22.066620"><ele>88.8</ele><time>2026-05-28T14:21:33Z</time></trkpt>
			<trkpt lat="54.414690" lon="22.066870"><ele>88.8</ele><time>2026-05-28T14:21:47Z</time></trkpt>
			<trkpt lat="54.415170" lon="22.067660"><ele>88.7</ele><time>2026-05-28T14:22:00Z</time></trkpt>
			<trkpt lat="54.415330" lon="22.067990"><ele>88.6</ele><time>2026-05-28T14:22:14Z</time></trkpt>
			<trkpt lat="54.415410" lon="22.068210"><ele>88.6</ele><time>2026-05-28T14:22:28Z</time></trkpt>
			<trkpt lat="54.415650" lon="22.068440"><ele>88.6</ele><time>2026-05-28T14:22:42Z</time></trkpt>
			<trkpt lat="54.417070" lon="22.069420"><ele>88.3</ele><time>2026-05-28T14:22:55Z</time></trkpt>
			<trkpt lat="54.417560" lon="22.069820"><ele>88.2</ele><time>2026-05-28T14:23:09Z</time></trkpt>
			<trkpt lat="54.417730" lon="22.070040"><ele>88.2</ele><time>2026-05-28T14:23:23Z</time></trkpt>
			<trkpt lat="54.417880" lon="22.070270"><ele>88.2</ele><time>2026-05-28T14:23:36Z</time></trkpt>
			<trkpt lat="54.417990" lon="22.070490"><ele>88.2</ele><time>2026-05-28T14:23:50Z</time></trkpt>
			<trkpt lat="54.418080" lon="22.070760"><ele>88.2</ele><time>2026-05-28T14:24:04Z</time></trkpt>
			<trkpt lat="54.418140" lon="22.071040"><ele>88.2</ele><time>2026-05-28T14:24:18Z</time></trkpt>
			<trkpt lat="54.418600" lon="22.074040"><ele>88.2</ele><time>2026-05-28T14:24:31Z</time></trkpt>
			<trkpt lat="54.419410" lon="22.079370"><ele>88.1</ele><time>2026-05-28T14:24:45Z</time></trkpt>
			<trkpt lat="54.419430" lon="22.079620"><ele>88.0</ele><time>2026-05-28T14:24:59Z</time></trkpt>
			<trkpt lat="54.418470" lon="22.095970"><ele>86.1</ele><time>2026-05-28T14:25:12Z</time></trkpt>
			<trkpt lat="54.418620" lon="22.098140"><ele>86.1</ele><time>2026-05-28T14:25:26Z</time></trkpt>
			<trkpt lat="54.418560" lon="22.098560"><ele>86.2</ele><time>2026-05-28T14:25:40Z</time></trkpt>
			<trkpt lat="54.418330" lon="22.099310"><ele>86.4</ele><time>2026-05-28T14:25:53Z</time></trkpt>
			<trkpt lat="54.418270" lon="22.099420"><ele>86.4</ele><time>2026-05-28T14:26:07Z</time></trkpt>
			<trkpt lat="54.415950" lon="22.104360"><ele>87.8</ele><time>2026-05-28T14:26:21Z</time></trkpt>
			<trkpt lat="54.415380" lon="22.105730"><ele>87.9</ele><time>2026-05-28T14:26:35Z</time></trkpt>
			<trkpt lat="54.414150" lon="22.108990"><ele>87.8</ele><time>2026-05-28T14:26:48Z</time></trkpt>
			<trkpt lat="54.413710" lon="22.110640"><ele>87.8</ele><time>2026-05-28T14:27:02Z</time></trkpt>
			<trkpt lat="54.413460" lon="22.111660"><ele>87.8</ele><time>2026-05-28T14:27:16Z</time></trkpt>
			<trkpt lat="54.412960" lon="22.113580"><ele>88.0</ele><time>2026-05-28T14:27:29Z</time></trkpt>
			<trkpt lat="54.412930" lon="22.114080"><ele>88.2</ele><time>2026-05-28T14:27:43Z</time></trkpt>
			<trkpt lat="54.413010" lon="22.115940"><ele>89.0</ele><time>2026-05-28T14:27:57Z</time></trkpt>
			<trkpt lat="54.413260" lon="22.120970"><ele>91.1</ele><time>2026-05-28T14:28:10Z</time></trkpt>
			<trkpt lat="54.413660" lon="22.128910"><ele>88.5</ele><time>2026-05-28T14:28:24Z</time></trkpt>
			<trkpt lat="54.413810" lon="22.131820"><ele>87.4</ele><time>2026-05-28T14:28:38Z</time></trkpt>
			<trkpt lat="54.414160" lon="22.137630"><ele>87.4</ele><time>2026-05-28T14:28:52Z</time></trkpt>
			<trkpt lat="54.414550" lon="22.145480"><ele>90.0</ele><time>2026-05-28T14:29:05Z</time></trkpt>
			<trkpt lat="54.414550" lon="22.145970"><ele>90.3</ele><time>2026-05-28T14:29:19Z</time></trkpt>
			<trkpt lat="54.414370" lon="22.148310"><ele>91.6</ele><time>2026-05-28T14:29:33Z</time></trkpt>
			<trkpt lat="54.414040" lon="22.152370"><ele>91.0</ele><time>2026-05-28T14:29:46Z</time></trkpt>
			<trkpt lat="54.413950" lon="22.153470"><ele>90.3</ele><time>2026-05-28T14:30:00Z</time></trkpt>
			<trkpt lat="54.413860" lon="22.154230"><ele>89.8</ele><time>2026-05-28T14:30:14Z</time></trkpt>
			<trkpt lat="54.413820" lon="22.154760"><ele>89.5</ele><time>2026-05-28T14:30:27Z</time></trkpt>
			<trkpt lat="54.413870" lon="22.155360"><ele>89.2</ele><time>2026-05-28T14:30:41Z</time></trkpt>
			<trkpt lat="54.413950" lon="22.156200"><ele>88.7</ele><time>2026-05-28T14:30:55Z</time></trkpt>
			<trkpt lat="54.414090" lon="22.157280"><ele>88.0</ele><time>2026-05-28T14:31:09Z</time></trkpt>
			<trkpt lat="54.414190" lon="22.157970"><ele>87.6</ele><time>2026-05-28T14:31:22Z</time></trkpt>
			<trkpt lat="54.414210" lon="22.158050"><ele>87.5</ele><time>2026-05-28T14:31:36Z</time></trkpt>
			<trkpt lat="54.414600" lon="22.160360"><ele>86.5</ele><time>2026-05-28T14:31:50Z</time></trkpt>
			<trkpt lat="54.414720" lon="22.161210"><ele>86.3</ele><time>2026-05-28T14:32:03Z</time></trkpt>
			<trkpt lat="54.414730" lon="22.161540"><ele>86.2</ele><time>2026-05-28T14:32:17Z</time></trkpt>
			<trkpt lat="54.414690" lon="22.161920"><ele>86.1</ele><time>2026-05-28T14:32:31Z</time></trkpt>
			<trkpt lat="54.414460" lon="22.162950"><ele>85.8</ele><time>2026-05-28T14:32:44Z</time></trkpt>
			<trkpt lat="54.414090" lon="22.164640"><ele>85.3</ele><time>2026-05-28T14:32:58Z</time></trkpt>
			<trkpt lat="54.414070" lon="22.164960"><ele>85.2</ele><time>2026-05-28T14:33:12Z</time></trkpt>
			<trkpt lat="54.414080" lon="22.165230"><ele>85.2</ele><time>2026-05-28T14:33:26Z</time></trkpt>
			<trkpt lat="54.414190" lon="22.167180"><ele>84.6</ele><time>2026-05-28T14:33:39Z</time></trkpt>
			<trkpt lat="54.414180" lon="22.167790"><ele>84.5</ele><time>2026-05-28T14:33:53Z</time></trkpt>
			<trkpt lat="54.413770" lon="22.183170"><ele>78.8</ele><time>2026-05-28T14:34:07Z</time></trkpt>
			<trkpt lat="54.413770" lon="22.183550"><ele>78.7</ele><time>2026-05-28T14:34:20Z</time></trkpt>
			<trkpt lat="54.413800" lon="22.183810"><ele>78.7</ele><time>2026-05-28T14:34:34Z</time></trkpt>
			<trkpt lat="54.413930" lon="22.184010"><ele>78.6</ele><time>2026-05-28T14:34:48Z</time></trkpt>
			<trkpt lat="54.414740" lon="22.184720"><ele>78.3</ele><time>2026-05-28T14:35:02Z</time></trkpt>
			<trkpt lat="54.415050" lon="22.184990"><ele>78.2</ele><time>2026-05-28T14:35:15Z</time></trkpt>
			<trkpt lat="54.415270" lon="22.185140"><ele>78.3</ele><time>2026-05-28T14:35:29Z</time></trkpt>
			<trkpt lat="54.415420" lon="22.185270"><ele>78.6</ele><time>2026-05-28T14:35:43Z</time></trkpt>
			<trkpt lat="54.415560" lon="22.185430"><ele>78.9</ele><time>2026-05-28T14:35:56Z</time></trkpt>
			<trkpt lat="54.415630" lon="22.185660"><ele>79.2</ele><time>2026-05-28T14:36:10Z</time></trkpt>
			<trkpt lat="54.415650" lon="22.185930"><ele>79.5</ele><time>2026-05-28T14:36:24Z</time></trkpt>
			<trkpt lat="54.415620" lon="22.186220"><ele>79.8</ele><time>2026-05-28T14:36:37Z</time></trkpt>
			<trkpt lat="54.415410" lon="22.186750"><ele>80.5</ele><time>2026-05-28T14:36:51Z</time></trkpt>
			<trkpt lat="54.415150" lon="22.187270"><ele>81.2</ele><time>2026-05-28T14:37:05Z</time></trkpt>
			<trkpt lat="54.414900" lon="22.187970"><ele>82.1</ele><time>2026-05-28T14:37:19Z</time></trkpt>
			<trkpt lat="54.414660" lon="22.188740"><ele>83.0</ele><time>2026-05-28T14:37:32Z</time></trkpt>
			<trkpt lat="54.414500" lon="22.189320"><ele>83.7</ele><time>2026-05-28T14:37:46Z</time></trkpt>
			<trkpt lat="54.413980" lon="22.193240"><ele>87.9</ele><time>2026-05-28T14:38:00Z</time></trkpt>
			<trkpt lat="54.413870" lon="22.193640"><ele>87.8</ele><time>2026-05-28T14:38:13Z</time></trkpt>
			<trkpt lat="54.413640" lon="22.194070"><ele>87.6</ele><time>2026-05-28T14:38:27Z</time></trkpt>
			<trkpt lat="54.411630" lon="22.197430"><ele>85.6</ele><time>2026-05-28T14:38:41Z</time></trkpt>
			<trkpt lat="54.411480" lon="22.197550"><ele>85.5</ele><time>2026-05-28T14:38:54Z</time></trkpt>
			<trkpt lat="54.411330" lon="22.197580"><ele>85.4</ele><time>2026-05-28T14:39:08Z</time></trkpt>
			<trkpt lat="54.411090" lon="22.197540"><ele>85.2</ele><time>2026-05-28T14:39:22Z</time></trkpt>
			<trkpt lat="54.410380" lon="22.197330"><ele>84.7</ele><time>2026-05-28T14:39:36Z</time></trkpt>
			<trkpt lat="54.409970" lon="22.197250"><ele>84.5</ele><time>2026-05-28T14:39:49Z</time></trkpt>
			<trkpt lat="54.409660" lon="22.197270"><ele>84.2</ele><time>2026-05-28T14:40:03Z</time></trkpt>
			<trkpt lat="54.407510" lon="22.197650"><ele>92.9</ele><time>2026-05-28T14:40:17Z</time></trkpt>
			<trkpt lat="54.407280" lon="22.197810"><ele>93.9</ele><time>2026-05-28T14:40:30Z</time></trkpt>
			<trkpt lat="54.405980" lon="22.199190"><ele>100.1</ele><time>2026-05-28T14:40:44Z</time></trkpt>
			<trkpt lat="54.405860" lon="22.199360"><ele>100.8</ele><time>2026-05-28T14:40:58Z</time></trkpt>
			<trkpt lat="54.405770" lon="22.199680"><ele>101.6</ele><time>2026-05-28T14:41:11Z</time></trkpt>
			<trkpt lat="54.405170" lon="22.202090"><ele>106.2</ele><time>2026-05-28T14:41:25Z</time></trkpt>
			<trkpt lat="54.405080" lon="22.202630"><ele>106.2</ele><time>2026-05-28T14:41:39Z</time></trkpt>
			<trkpt lat="54.405080" lon="22.202950"><ele>106.2</ele><time>2026-05-28T14:41:53Z</time></trkpt>
			<trkpt lat="54.405220" lon="22.205370"><ele>106.2</ele><time>2026-05-28T14:42:06Z</time></trkpt>
			<trkpt lat="54.405340" lon="22.207950"><ele>106.2</ele><time>2026-05-28T14:42:20Z</time></trkpt>
			<trkpt lat="54.405410" lon="22.209880"><ele>106.1</ele><time>2026-05-28T14:42:34Z</time></trkpt>
			<trkpt lat="54.405450" lon="22.210600"><ele>106.1</ele><time>2026-05-28T14:42:47Z</time></trkpt>
			<trkpt lat="54.405460" lon="22.210880"><ele>106.3</ele><time>2026-05-28T14:43:01Z</time></trkpt>
			<trkpt lat="54.405450" lon="22.211080"><ele>106.5</ele><time>2026-05-28T14:43:15Z</time></trkpt>
			<trkpt lat="54.405420" lon="22.211280"><ele>106.6</ele><time>2026-05-28T14:43:28Z</time></trkpt>
			<trkpt lat="54.404500" lon="22.215030"><ele>109.8</ele><time>2026-05-28T14:43:42Z</time></trkpt>
			<trkpt lat="54.404260" lon="22.215940"><ele>110.6</ele><time>2026-05-28T14:43:56Z</time></trkpt>
			<trkpt lat="54.402880" lon="22.220270"><ele>112.5</ele><time>2026-05-28T14:44:10Z</time></trkpt>
			<trkpt lat="54.401830" lon="22.224240"><ele>109.7</ele><time>2026-05-28T14:44:23Z</time></trkpt>
			<trkpt lat="54.401300" lon="22.225940"><ele>108.5</ele><time>2026-05-28T14:44:37Z</time></trkpt>
			<trkpt lat="54.400040" lon="22.229470"><ele>109.4</ele><time>2026-05-28T14:44:51Z</time></trkpt>
			<trkpt lat="54.399820" lon="22.230050"><ele>109.9</ele><time>2026-05-28T14:45:04Z</time></trkpt>
			<trkpt lat="54.399620" lon="22.230670"><ele>110.5</ele><time>2026-05-28T14:45:18Z</time></trkpt>
			<trkpt lat="54.398890" lon="22.234290"><ele>113.4</ele><time>2026-05-28T14:45:32Z</time></trkpt>
			<trkpt lat="54.398720" lon="22.236700"><ele>113.6</ele><time>2026-05-28T14:45:45Z</time></trkpt>
			<trkpt lat="54.398700" lon="22.236960"><ele>113.4</ele><time>2026-05-28T14:45:59Z</time></trkpt>
			<trkpt lat="54.398680" lon="22.237260"><ele>113.1</ele><time>2026-05-28T14:46:13Z</time></trkpt>
			<trkpt lat="54.398650" lon="22.237610"><ele>112.7</ele><time>2026-05-28T14:46:27Z</time></trkpt>
			<trkpt lat="54.398610" lon="22.237940"><ele>112.4</ele><time>2026-05-28T14:46:40Z</time></trkpt>
			<trkpt lat="54.398390" lon="22.238280"><ele>111.9</ele><time>2026-05-28T14:46:54Z</time></trkpt>
			<trkpt lat="54.398180" lon="22.238700"><ele>111.4</ele><time>2026-05-28T14:47:08Z</time></trkpt>
			<trkpt lat="54.397840" lon="22.239540"><ele>110.3</ele><time>2026-05-28T14:47:21Z</time></trkpt>
			<trkpt lat="54.397610" lon="22.240050"><ele>109.7</ele><time>2026-05-28T14:47:35Z</time></trkpt>
			<trkpt lat="54.397080" lon="22.241150"><ele>108.3</ele><time>2026-05-28T14:47:49Z</time></trkpt>
			<trkpt lat="54.396950" lon="22.241520"><ele>107.9</ele><time>2026-05-28T14:48:03Z</time></trkpt>
			<trkpt lat="54.396810" lon="22.241760"><ele>107.5</ele><time>2026-05-28T14:48:16Z</time></trkpt>
			<trkpt lat="54.396670" lon="22.241950"><ele>107.2</ele><time>2026-05-28T14:48:30Z</time></trkpt>
			<trkpt lat="54.396050" lon="22.242330"><ele>106.1</ele><time>2026-05-28T14:48:44Z</time></trkpt>
			<trkpt lat="54.395810" lon="22.242480"><ele>105.7</ele><time>2026-05-28T14:48:57Z</time></trkpt>
			<trkpt lat="54.395340" lon="22.242700"><ele>105.5</ele><time>2026-05-28T14:49:11Z</time></trkpt>
			<trkpt lat="54.395080" lon="22.242900"><ele>105.6</ele><time>2026-05-28T14:49:25Z</time></trkpt>
			<trkpt lat="54.394450" lon="22.243650"><ele>105.9</ele><time>2026-05-28T14:49:38Z</time></trkpt>
			<trkpt lat="54.394240" lon="22.243920"><ele>106.0</ele><time>2026-05-28T14:49:52Z</time></trkpt>
			<trkpt lat="54.392820" lon="22.245550"><ele>106.8</ele><time>2026-05-28T14:50:06Z</time></trkpt>
			<trkpt lat="54.392640" lon="22.245780"><ele>106.9</ele><time>2026-05-28T14:50:20Z</time></trkpt>
			<trkpt lat="54.392550" lon="22.245930"><ele>107.0</ele><time>2026-05-28T14:50:33Z</time></trkpt>
			<trkpt lat="54.392470" lon="22.246120"><ele>107.0</ele><time>2026-05-28T14:50:47Z</time></trkpt>
			<trkpt lat="54.392390" lon="22.246360"><ele>107.1</ele><time>2026-05-28T14:51:01Z</time></trkpt>
			<trkpt lat="54.391880" lon="22.248290"><ele>107.6</ele><time>2026-05-28T14:51:14Z</time></trkpt>
			<trkpt lat="54.391670" lon="22.249090"><ele>107.5</ele><time>2026-05-28T14:51:28Z</time></trkpt>
			<trkpt lat="54.391510" lon="22.249590"><ele>107.3</ele><time>2026-05-28T14:51:42Z</time></trkpt>
			<trkpt lat="54.389810" lon="22.253420"><ele>105.5</ele><time>2026-05-28T14:51:55Z</time></trkpt>
			<trkpt lat="54.388620" lon="22.256900"><ele>104.6</ele><time>2026-05-28T14:52:09Z</time></trkpt>
			<trkpt lat="54.388530" lon="22.257130"><ele>104.7</ele><time>2026-05-28T14:52:23Z</time></trkpt>
			<trkpt lat="54.388450" lon="22.257300"><ele>104.9</ele><time>2026-05-28T14:52:37Z</time></trkpt>
			<trkpt lat="54.388340" lon="22.257500"><ele>105.0</ele><time>2026-05-28T14:52:50Z</time></trkpt>
			<trkpt lat="54.388210" lon="22.257630"><ele>105.1</ele><time>2026-05-28T14:53:04Z</time></trkpt>
			<trkpt lat="54.388080" lon="22.257710"><ele>105.3</ele><time>2026-05-28T14:53:18Z</time></trkpt>
			<trkpt lat="54.387920" lon="22.257740"><ele>105.4</ele><time>2026-05-28T14:53:31Z</time></trkpt>
			<trkpt lat="54.387760" lon="22.257720"><ele>105.6</ele><time>2026-05-28T14:53:45Z</time></trkpt>
			<trkpt lat="54.385730" lon="22.256900"><ele>107.5</ele><time>2026-05-28T14:53:59Z</time></trkpt>
			<trkpt lat="54.385570" lon="22.256790"><ele>107.7</ele><time>2026-05-28T14:54:12Z</time></trkpt>
			<trkpt lat="54.384890" lon="22.255940"><ele>108.5</ele><time>2026-05-28T14:54:26Z</time></trkpt>
			<trkpt lat="54.384060" lon="22.254630"><ele>109.8</ele><time>2026-05-28T14:54:40Z</time></trkpt>
			<trkpt lat="54.383820" lon="22.254320"><ele>110.3</ele><time>2026-05-28T14:54:54Z</time></trkpt>
			<trkpt lat="54.383650" lon="22.254150"><ele>110.6</ele><time>2026-05-28T14:55:07Z</time></trkpt>
			<trkpt lat="54.383450" lon="22.254020"><ele>111.0</ele><time>2026-05-28T14:55:21Z</time></trkpt>
			<trkpt lat="54.383250" lon="22.253940"><ele>111.4</ele><time>2026-05-28T14:55:35Z</time></trkpt>
			<trkpt lat="54.383090" lon="22.253900"><ele>111.7</ele><time>2026-05-28T14:55:48Z</time></trkpt>
			<trkpt lat="54.382910" lon="22.253880"><ele>112.0</ele><time>2026-05-28T14:56:02Z</time></trkpt>
			<trkpt lat="54.382240" lon="22.254010"><ele>113.2</ele><time>2026-05-28T14:56:16Z</time></trkpt>
			<trkpt lat="54.381950" lon="22.254020"><ele>113.7</ele><time>2026-05-28T14:56:29Z</time></trkpt>
			<trkpt lat="54.381730" lon="22.253980"><ele>114.1</ele><time>2026-05-28T14:56:43Z</time></trkpt>
			<trkpt lat="54.381540" lon="22.253900"><ele>114.4</ele><time>2026-05-28T14:56:57Z</time></trkpt>
			<trkpt lat="54.381370" lon="22.253790"><ele>114.7</ele><time>2026-05-28T14:57:11Z</time></trkpt>
			<trkpt lat="54.381250" lon="22.253690"><ele>115.0</ele><time>2026-05-28T14:57:24Z</time></trkpt>
			<trkpt lat="54.381110" lon="22.253530"><ele>115.3</ele><time>2026-05-28T14:57:38Z</time></trkpt>
			<trkpt lat="54.380940" lon="22.253390"><ele>115.6</ele><time>2026-05-28T14:57:52Z</time></trkpt>
			<trkpt lat="54.380480" lon="22.253120"><ele>116.4</ele><time>2026-05-28T14:58:05Z</time></trkpt>
			<trkpt lat="54.380270" lon="22.253100"><ele>116.8</ele><time>2026-05-28T14:58:19Z</time></trkpt>
			<trkpt lat="54.380080" lon="22.253130"><ele>117.2</ele><time>2026-05-28T14:58:33Z</time></trkpt>
			<trkpt lat="54.379670" lon="22.253280"><ele>117.9</ele><time>2026-05-28T14:58:46Z</time></trkpt>
			<trkpt lat="54.379480" lon="22.253380"><ele>118.2</ele><time>2026-05-28T14:59:00Z</time></trkpt>
			<trkpt lat="54.379350" lon="22.253510"><ele>118.5</ele><time>2026-05-28T14:59:14Z</time></trkpt>
			<trkpt lat="54.379260" lon="22.253660"><ele>118.7</ele><time>2026-05-28T14:59:28Z</time></trkpt>
			<trkpt lat="54.378140" lon="22.255530"><ele>123.5</ele><time>2026-05-28T14:59:41Z</time></trkpt>
			<trkpt lat="54.377220" lon="22.257090"><ele>127.6</ele><time>2026-05-28T14:59:55Z</time></trkpt>
			<trkpt lat="54.372330" lon="22.265250"><ele>137.4</ele><time>2026-05-28T15:00:09Z</time></trkpt>
			<trkpt lat="54.371190" lon="22.267630"><ele>139.2</ele><time>2026-05-28T15:00:22Z</time></trkpt>
			<trkpt lat="54.371030" lon="22.267920"><ele>139.7</ele><time>2026-05-28T15:00:36Z</time></trkpt>
			<trkpt lat="54.370910" lon="22.268070"><ele>140.0</ele><time>2026-05-28T15:00:50Z</time></trkpt>
			<trkpt lat="54.370750" lon="22.268220"><ele>140.4</ele><time>2026-05-28T15:01:04Z</time></trkpt>
			<trkpt lat="54.369260" lon="22.269130"><ele>143.7</ele><time>2026-05-28T15:01:17Z</time></trkpt>
			<trkpt lat="54.368790" lon="22.269390"><ele>144.8</ele><time>2026-05-28T15:01:31Z</time></trkpt>
			<trkpt lat="54.368370" lon="22.269690"><ele>145.7</ele><time>2026-05-28T15:01:45Z</time></trkpt>
			<trkpt lat="54.368180" lon="22.269860"><ele>146.2</ele><time>2026-05-28T15:01:58Z</time></trkpt>
			<trkpt lat="54.366350" lon="22.272070"><ele>147.3</ele><time>2026-05-28T15:02:12Z</time></trkpt>
			<trkpt lat="54.366240" lon="22.272250"><ele>146.9</ele><time>2026-05-28T15:02:26Z</time></trkpt>
			<trkpt lat="54.366170" lon="22.272450"><ele>146.5</ele><time>2026-05-28T15:02:39Z</time></trkpt>
			<trkpt lat="54.366000" lon="22.273050"><ele>145.5</ele><time>2026-05-28T15:02:53Z</time></trkpt>
			<trkpt lat="54.365750" lon="22.273900"><ele>144.0</ele><time>2026-05-28T15:03:07Z</time></trkpt>
			<trkpt lat="54.365590" lon="22.274530"><ele>143.0</ele><time>2026-05-28T15:03:21Z</time></trkpt>
			<trkpt lat="54.365310" lon="22.275870"><ele>140.8</ele><time>2026-05-28T15:03:34Z</time></trkpt>
			<trkpt lat="54.365030" lon="22.277470"><ele>138.2</ele><time>2026-05-28T15:03:48Z</time></trkpt>
			<trkpt lat="54.365000" lon="22.277730"><ele>137.8</ele><time>2026-05-28T15:04:02Z</time></trkpt>
			<trkpt lat="54.364960" lon="22.278170"><ele>137.1</ele><time>2026-05-28T15:04:15Z</time></trkpt>
			<trkpt lat="54.364960" lon="22.278570"><ele>136.5</ele><time>2026-05-28T15:04:29Z</time></trkpt>
			<trkpt lat="54.364980" lon="22.279100"><ele>135.7</ele><time>2026-05-28T15:04:43Z</time></trkpt>
			<trkpt lat="54.365000" lon="22.279510"><ele>135.0</ele><time>2026-05-28T15:04:56Z</time></trkpt>
			<trkpt lat="54.365010" lon="22.280000"><ele>135.9</ele><time>2026-05-28T15:05:10Z</time></trkpt>
			<trkpt lat="54.364980" lon="22.280280"><ele>136.4</ele><time>2026-05-28T15:05:24Z</time></trkpt>
			<trkpt lat="54.364930" lon="22.280400"><ele>136.6</ele><time>2026-05-28T15:05:38Z</time></trkpt>
			<trkpt lat="54.364880" lon="22.280540"><ele>136.9</ele><time>2026-05-28T15:05:51Z</time></trkpt>
			<trkpt lat="54.364860" lon="22.280580"><ele>137.0</ele><time>2026-05-28T15:06:05Z</time></trkpt>
			<trkpt lat="54.364680" lon="22.280830"><ele>137.8</ele><time>2026-05-28T15:06:19Z</time></trkpt>
			<trkpt lat="54.364040" lon="22.281640"><ele>140.3</ele><time>2026-05-28T15:06:32Z</time></trkpt>
			<trkpt lat="54.363830" lon="22.281940"><ele>141.1</ele><time>2026-05-28T15:06:46Z</time></trkpt>
			<trkpt lat="54.363400" lon="22.282340"><ele>142.7</ele><time>2026-05-28T15:07:00Z</time></trkpt>
			<trkpt lat="54.362080" lon="22.283250"><ele>147.1</ele><time>2026-05-28T15:07:13Z</time></trkpt>
			<trkpt lat="54.361550" lon="22.283620"><ele>148.9</ele><time>2026-05-28T15:07:27Z</time></trkpt>
			<trkpt lat="54.361130" lon="22.283870"><ele>150.3</ele><time>2026-05-28T15:07:41Z</time></trkpt>
			<trkpt lat="54.360880" lon="22.284170"><ele>151.3</ele><time>2026-05-28T15:07:55Z</time></trkpt>
			<trkpt lat="54.360620" lon="22.284490"><ele>152.5</ele><time>2026-05-28T15:08:08Z</time></trkpt>
			<trkpt lat="54.360410" lon="22.284910"><ele>154.3</ele><time>2026-05-28T15:08:22Z</time></trkpt>
			<trkpt lat="54.360040" lon="22.286140"><ele>158.8</ele><time>2026-05-28T15:08:36Z</time></trkpt>
			<trkpt lat="54.359980" lon="22.286330"><ele>159.5</ele><time>2026-05-28T15:08:49Z</time></trkpt>
			<trkpt lat="54.359680" lon="22.287300"><ele>163.1</ele><time>2026-05-28T15:09:03Z</time></trkpt>
			<trkpt lat="54.358770" lon="22.288710"><ele>169.9</ele><time>2026-05-28T15:09:17Z</time></trkpt>
			<trkpt lat="54.357620" lon="22.290390"><ele>178.3</ele><time>2026-05-28T15:09:30Z</time></trkpt>
			<trkpt lat="54.357620" lon="22.290390"><ele>178.3</ele><time>2026-05-28T15:09:42Z</time></trkpt>
			<trkpt lat="54.357560" lon="22.290480"><ele>178.7</ele><time>2026-05-28T15:09:53Z</time></trkpt>
			<trkpt lat="54.356100" lon="22.293100"><ele>182.6</ele><time>2026-05-28T15:10:04Z</time></trkpt>
			<trkpt lat="54.355050" lon="22.294170"><ele>183.0</ele><time>2026-05-28T15:10:15Z</time></trkpt>
			<trkpt lat="54.354110" lon="22.294640"><ele>183.4</ele><time>2026-05-28T15:10:26Z</time></trkpt>
			<trkpt lat="54.352860" lon="22.295810"><ele>184.0</ele><time>2026-05-28T15:10:37Z</time></trkpt>
			<trkpt lat="54.352400" lon="22.296060"><ele>183.8</ele><time>2026-05-28T15:10:48Z</time></trkpt>
			<trkpt lat="54.350950" lon="22.296040"><ele>181.9</ele><time>2026-05-28T15:10:59Z</time></trkpt>
			<trkpt lat="54.350380" lon="22.296370"><ele>181.1</ele><time>2026-05-28T15:11:11Z</time></trkpt>
			<trkpt lat="54.349890" lon="22.297120"><ele>180.2</ele><time>2026-05-28T15:11:22Z</time></trkpt>
			<trkpt lat="54.349130" lon="22.297810"><ele>179.1</ele><time>2026-05-28T15:11:33Z</time></trkpt>
			<trkpt lat="54.348360" lon="22.297920"><ele>178.1</ele><time>2026-05-28T15:11:44Z</time></trkpt>
			<trkpt lat="54.347980" lon="22.297920"><ele>177.6</ele><time>2026-05-28T15:11:55Z</time></trkpt>
			<trkpt lat="54.347710" lon="22.297970"><ele>177.3</ele><time>2026-05-28T15:12:06Z</time></trkpt>
			<trkpt lat="54.347600" lon="22.298020"><ele>177.1</ele><time>2026-05-28T15:12:17Z</time></trkpt>
			<trkpt lat="54.347500" lon="22.298060"><ele>176.9</ele><time>2026-05-28T15:12:28Z</time></trkpt>
			<trkpt lat="54.347370" lon="22.298150"><ele>176.3</ele><time>2026-05-28T15:12:40Z</time></trkpt>
			<trkpt lat="54.347270" lon="22.298220"><ele>175.9</ele><time>2026-05-28T15:12:51Z</time></trkpt>
			<trkpt lat="54.347190" lon="22.298320"><ele>175.5</ele><time>2026-05-28T15:13:02Z</time></trkpt>
			<trkpt lat="54.346980" lon="22.298520"><ele>174.6</ele><time>2026-05-28T15:13:13Z</time></trkpt>
			<trkpt lat="54.346920" lon="22.298600"><ele>174.3</ele><time>2026-05-28T15:13:24Z</time></trkpt>
			<trkpt lat="54.346900" lon="22.298570"><ele>174.2</ele><time>2026-05-28T15:13:35Z</time></trkpt>
			<trkpt lat="54.346870" lon="22.298560"><ele>174.1</ele><time>2026-05-28T15:13:46Z</time></trkpt>
			<trkpt lat="54.346840" lon="22.298570"><ele>173.9</ele><time>2026-05-28T15:13:57Z</time></trkpt>
			<trkpt lat="54.346820" lon="22.298600"><ele>173.8</ele><time>2026-05-28T15:14:09Z</time></trkpt>
			<trkpt lat="54.346800" lon="22.298650"><ele>173.7</ele><time>2026-05-28T15:14:20Z</time></trkpt>
			<trkpt lat="54.346800" lon="22.298690"><ele>173.6</ele><time>2026-05-28T15:14:31Z</time></trkpt>
			<trkpt lat="54.346800" lon="22.298740"><ele>173.5</ele><time>2026-05-28T15:14:42Z</time></trkpt>
			<trkpt lat="54.346820" lon="22.298780"><ele>173.4</ele><time>2026-05-28T15:14:53Z</time></trkpt>
			<trkpt lat="54.346840" lon="22.298810"><ele>173.3</ele><time>2026-05-28T15:15:04Z</time></trkpt>
			<trkpt lat="54.346870" lon="22.298820"><ele>173.1</ele><time>2026-05-28T15:15:15Z</time></trkpt>
			<trkpt lat="54.346900" lon="22.298810"><ele>173.0</ele><time>2026-05-28T15:15:26Z</time></trkpt>
			<trkpt lat="54.346920" lon="22.298790"><ele>172.9</ele><time>2026-05-28T15:15:38Z</time></trkpt>
			<trkpt lat="54.347060" lon="22.299180"><ele>171.9</ele><time>2026-05-28T15:15:49Z</time></trkpt>
			<trkpt lat="54.347110" lon="22.299280"><ele>171.6</ele><time>2026-05-28T15:16:00Z</time></trkpt>
			<trkpt lat="54.347380" lon="22.300140"><ele>169.3</ele><time>2026-05-28T15:16:11Z</time></trkpt>
			<trkpt lat="54.347660" lon="22.301230"><ele>166.6</ele><time>2026-05-28T15:16:22Z</time></trkpt>
			<trkpt lat="54.348260" lon="22.303410"><ele>161.1</ele><time>2026-05-28T15:16:33Z</time></trkpt>
			<trkpt lat="54.348430" lon="22.303960"><ele>159.6</ele><time>2026-05-28T15:16:44Z</time></trkpt>
			<trkpt lat="54.348700" lon="22.304720"><ele>157.6</ele><time>2026-05-28T15:16:55Z</time></trkpt>
			<trkpt lat="54.348940" lon="22.305260"><ele>156.0</ele><time>2026-05-28T15:17:07Z</time></trkpt>
			<trkpt lat="54.349280" lon="22.305900"><ele>156.6</ele><time>2026-05-28T15:17:18Z</time></trkpt>
			<trkpt lat="54.350350" lon="22.307740"><ele>159.7</ele><time>2026-05-28T15:17:29Z</time></trkpt>
			<trkpt lat="54.351050" lon="22.308830"><ele>161.7</ele><time>2026-05-28T15:17:40Z</time></trkpt>
			<trkpt lat="54.351490" lon="22.309390"><ele>162.8</ele><time>2026-05-28T15:17:51Z</time></trkpt>
			<trkpt lat="54.352020" lon="22.309950"><ele>164.1</ele><time>2026-05-28T15:18:02Z</time></trkpt>
			<trkpt lat="54.352480" lon="22.310370"><ele>165.2</ele><time>2026-05-28T15:18:13Z</time></trkpt>
			<trkpt lat="54.352880" lon="22.310670"><ele>166.1</ele><time>2026-05-28T15:18:24Z</time></trkpt>
			<trkpt lat="54.353230" lon="22.310870"><ele>166.8</ele><time>2026-05-28T15:18:35Z</time></trkpt>
			<trkpt lat="54.353570" lon="22.311020"><ele>167.5</ele><time>2026-05-28T15:18:47Z</time></trkpt>
			<trkpt lat="54.354040" lon="22.311150"><ele>168.4</ele><time>2026-05-28T15:18:58Z</time></trkpt>
			<trkpt lat="54.354730" lon="22.311280"><ele>169.7</ele><time>2026-05-28T15:19:09Z</time></trkpt>
			<trkpt lat="54.357330" lon="22.311650"><ele>174.7</ele><time>2026-05-28T15:19:20Z</time></trkpt>
			<trkpt lat="54.358340" lon="22.311810"><ele>176.7</ele><time>2026-05-28T15:19:31Z</time></trkpt>
			<trkpt lat="54.359110" lon="22.311960"><ele>177.4</ele><time>2026-05-28T15:19:42Z</time></trkpt>
			<trkpt lat="54.359610" lon="22.312140"><ele>177.7</ele><time>2026-05-28T15:19:53Z</time></trkpt>
			<trkpt lat="54.359940" lon="22.312300"><ele>177.9</ele><time>2026-05-28T15:20:04Z</time></trkpt>
			<trkpt lat="54.360530" lon="22.312650"><ele>178.2</ele><time>2026-05-28T15:20:16Z</time></trkpt>
			<trkpt lat="54.361150" lon="22.313140"><ele>178.6</ele><time>2026-05-28T15:20:27Z</time></trkpt>
			<trkpt lat="54.362120" lon="22.314020"><ele>179.2</ele><time>2026-05-28T15:20:38Z</time></trkpt>
			<trkpt lat="54.362640" lon="22.314450"><ele>179.5</ele><time>2026-05-28T15:20:49Z</time></trkpt>
			<trkpt lat="54.363080" lon="22.314770"><ele>179.7</ele><time>2026-05-28T15:21:00Z</time></trkpt>
			<trkpt lat="54.363320" lon="22.314920"><ele>179.9</ele><time>2026-05-28T15:21:11Z</time></trkpt>
			<trkpt lat="54.364090" lon="22.315300"><ele>179.9</ele><time>2026-05-28T15:21:22Z</time></trkpt>
			<trkpt lat="54.364440" lon="22.315440"><ele>179.8</ele><time>2026-05-28T15:21:33Z</time></trkpt>
			<trkpt lat="54.365310" lon="22.315730"><ele>179.4</ele><time>2026-05-28T15:21:45Z</time></trkpt>
			<trkpt lat="54.366000" lon="22.315980"><ele>179.2</ele><time>2026-05-28T15:21:56Z</time></trkpt>
			<trkpt lat="54.366230" lon="22.316100"><ele>179.1</ele><time>2026-05-28T15:22:07Z</time></trkpt>
			<trkpt lat="54.366560" lon="22.316280"><ele>179.0</ele><time>2026-05-28T15:22:18Z</time></trkpt>
			<trkpt lat="54.366900" lon="22.316520"><ele>178.9</ele><time>2026-05-28T15:22:29Z</time></trkpt>
			<trkpt lat="54.367340" lon="22.316870"><ele>178.7</ele><time>2026-05-28T15:22:40Z</time></trkpt>
			<trkpt lat="54.367460" lon="22.316970"><ele>178.6</ele><time>2026-05-28T15:22:51Z</time></trkpt>
			<trkpt lat="54.367800" lon="22.317320"><ele>178.5</ele><time>2026-05-28T15:23:02Z</time></trkpt>
			<trkpt lat="54.368200" lon="22.317780"><ele>178.3</ele><time>2026-05-28T15:23:14Z</time></trkpt>
			<trkpt lat="54.370630" lon="22.321160"><ele>177.7</ele><time>2026-05-28T15:23:25Z</time></trkpt>
			<trkpt lat="54.371120" lon="22.321870"><ele>177.6</ele><time>2026-05-28T15:23:36Z</time></trkpt>
			<trkpt lat="54.371740" lon="22.322850"><ele>177.5</ele><time>2026-05-28T15:23:47Z</time></trkpt>
			<trkpt lat="54.372650" lon="22.324410"><ele>177.3</ele><time>2026-05-28T15:23:58Z</time></trkpt>
			<trkpt lat="54.373100" lon="22.325220"><ele>176.5</ele><time>2026-05-28T15:24:09Z</time></trkpt>
			<trkpt lat="54.374300" lon="22.327530"><ele>174.1</ele><time>2026-05-28T15:24:20Z</time></trkpt>
			<trkpt lat="54.374610" lon="22.328100"><ele>173.5</ele><time>2026-05-28T15:24:31Z</time></trkpt>
			<trkpt lat="54.374920" lon="22.328640"><ele>172.9</ele><time>2026-05-28T15:24:43Z</time></trkpt>
			<trkpt lat="54.375210" lon="22.329130"><ele>172.3</ele><time>2026-05-28T15:24:54Z</time></trkpt>
			<trkpt lat="54.375680" lon="22.329880"><ele>171.5</ele><time>2026-05-28T15:25:05Z</time></trkpt>
			<trkpt lat="54.376430" lon="22.330980"><ele>170.2</ele><time>2026-05-28T15:25:16Z</time></trkpt>
			<trkpt lat="54.376940" lon="22.331680"><ele>168.3</ele><time>2026-05-28T15:25:27Z</time></trkpt>
			<trkpt lat="54.377760" lon="22.332700"><ele>165.1</ele><time>2026-05-28T15:25:38Z</time></trkpt>
			<trkpt lat="54.377980" lon="22.332940"><ele>164.3</ele><time>2026-05-28T15:25:49Z</time></trkpt>
			<trkpt lat="54.379320" lon="22.334260"><ele>159.6</ele><time>2026-05-28T15:26:00Z</time></trkpt>
			<trkpt lat="54.379660" lon="22.334570"><ele>158.4</ele><time>2026-05-28T15:26:12Z</time></trkpt>
			<trkpt lat="54.380250" lon="22.335040"><ele>156.4</ele><time>2026-05-28T15:26:23Z</time></trkpt>
			<trkpt lat="54.380740" lon="22.335380"><ele>154.8</ele><time>2026-05-28T15:26:34Z</time></trkpt>
			<trkpt lat="54.381710" lon="22.336010"><ele>153.6</ele><time>2026-05-28T15:26:45Z</time></trkpt>
			<trkpt lat="54.382250" lon="22.336310"><ele>153.8</ele><time>2026-05-28T15:26:56Z</time></trkpt>
			<trkpt lat="54.383290" lon="22.336820"><ele>154.1</ele><time>2026-05-28T15:27:07Z</time></trkpt>
			<trkpt lat="54.384250" lon="22.337190"><ele>154.3</ele><time>2026-05-28T15:27:18Z</time></trkpt>
			<trkpt lat="54.384750" lon="22.337340"><ele>154.5</ele><time>2026-05-28T15:27:29Z</time></trkpt>
			<trkpt lat="54.385690" lon="22.337540"><ele>154.7</ele><time>2026-05-28T15:27:40Z</time></trkpt>
			<trkpt lat="54.387250" lon="22.337720"><ele>153.7</ele><time>2026-05-28T15:27:52Z</time></trkpt>
			<trkpt lat="54.387680" lon="22.337750"><ele>153.1</ele><time>2026-05-28T15:28:03Z</time></trkpt>
			<trkpt lat="54.388140" lon="22.337720"><ele>152.4</ele><time>2026-05-28T15:28:14Z</time></trkpt>
			<trkpt lat="54.389830" lon="22.337550"><ele>150.0</ele><time>2026-05-28T15:28:25Z</time></trkpt>
			<trkpt lat="54.391690" lon="22.337400"><ele>147.3</ele><time>2026-05-28T15:28:36Z</time></trkpt>
			<trkpt lat="54.392820" lon="22.337210"><ele>141.6</ele><time>2026-05-28T15:28:47Z</time></trkpt>
			<trkpt lat="54.393970" lon="22.337160"><ele>135.5</ele><time>2026-05-28T15:28:58Z</time></trkpt>
			<trkpt lat="54.396230" lon="22.336980"><ele>123.5</ele><time>2026-05-28T15:29:09Z</time></trkpt>
			<trkpt lat="54.396980" lon="22.336890"><ele>119.5</ele><time>2026-05-28T15:29:21Z</time></trkpt>
			<trkpt lat="54.396980" lon="22.336890"><ele>119.5</ele><time>2026-05-28T15:29:37Z</time></trkpt>
			<trkpt lat="54.397530" lon="22.336790"><ele>118.6</ele><time>2026-05-28T15:29:53Z</time></trkpt>
			<trkpt lat="54.397930" lon="22.336680"><ele>118.9</ele><time>2026-05-28T15:30:09Z</time></trkpt>
			<trkpt lat="54.398550" lon="22.336380"><ele>119.4</ele><time>2026-05-28T15:30:25Z</time></trkpt>
			<trkpt lat="54.399170" lon="22.336050"><ele>119.9</ele><time>2026-05-28T15:30:41Z</time></trkpt>
			<trkpt lat="54.400150" lon="22.335340"><ele>120.7</ele><time>2026-05-28T15:30:58Z</time></trkpt>
			<trkpt lat="54.400370" lon="22.335140"><ele>120.9</ele><time>2026-05-28T15:31:14Z</time></trkpt>
			<trkpt lat="54.401130" lon="22.334440"><ele>121.5</ele><time>2026-05-28T15:31:30Z</time></trkpt>
			<trkpt lat="54.401550" lon="22.334080"><ele>121.9</ele><time>2026-05-28T15:31:46Z</time></trkpt>
			<trkpt lat="54.402980" lon="22.332920"><ele>120.9</ele><time>2026-05-28T15:32:02Z</time></trkpt>
			<trkpt lat="54.404620" lon="22.331570"><ele>117.8</ele><time>2026-05-28T15:32:19Z</time></trkpt>
			<trkpt lat="54.406720" lon="22.329800"><ele>113.8</ele><time>2026-05-28T15:32:35Z</time></trkpt>
			<trkpt lat="54.408260" lon="22.327800"><ele>113.2</ele><time>2026-05-28T15:32:51Z</time></trkpt>
			<trkpt lat="54.409100" lon="22.326680"><ele>113.2</ele><time>2026-05-28T15:33:07Z</time></trkpt>
			<trkpt lat="54.409770" lon="22.325940"><ele>113.2</ele><time>2026-05-28T15:33:23Z</time></trkpt>
			<trkpt lat="54.409870" lon="22.325750"><ele>113.2</ele><time>2026-05-28T15:33:39Z</time></trkpt>
			<trkpt lat="54.409860" lon="22.325680"><ele>113.2</ele><time>2026-05-28T15:33:56Z</time></trkpt>
			<trkpt lat="54.409860" lon="22.325520"><ele>113.2</ele><time>2026-05-28T15:34:12Z</time></trkpt>
			<trkpt lat="54.409860" lon="22.325430"><ele>113.2</ele><time>2026-05-28T15:34:28Z</time></trkpt>
			<trkpt lat="54.409830" lon="22.325020"><ele>113.2</ele><time>2026-05-28T15:34:44Z</time></trkpt>
			<trkpt lat="54.409720" lon="22.324360"><ele>113.2</ele><time>2026-05-28T15:35:00Z</time></trkpt>
			<trkpt lat="54.409710" lon="22.323860"><ele>113.2</ele><time>2026-05-28T15:35:16Z</time></trkpt>
			<trkpt lat="54.409760" lon="22.323270"><ele>113.2</ele><time>2026-05-28T15:35:33Z</time></trkpt>
			<trkpt lat="54.409930" lon="22.322610"><ele>113.1</ele><time>2026-05-28T15:35:49Z</time></trkpt>
			<trkpt lat="54.410170" lon="22.322080"><ele>112.3</ele><time>2026-05-28T15:36:05Z</time></trkpt>
			<trkpt lat="54.410810" lon="22.320780"><ele>110.1</ele><time>2026-05-28T15:36:21Z</time></trkpt>
			<trkpt lat="54.410900" lon="22.320600"><ele>109.8</ele><time>2026-05-28T15:36:37Z</time></trkpt>
			<trkpt lat="54.411810" lon="22.318800"><ele>106.8</ele><time>2026-05-28T15:36:54Z</time></trkpt>
			<trkpt lat="54.412080" lon="22.318120"><ele>105.7</ele><time>2026-05-28T15:37:10Z</time></trkpt>
			<trkpt lat="54.412330" lon="22.317230"><ele>104.4</ele><time>2026-05-28T15:37:26Z</time></trkpt>
			<trkpt lat="54.413290" lon="22.313670"><ele>101.8</ele><time>2026-05-28T15:37:42Z</time></trkpt>
			<trkpt lat="54.413790" lon="22.311770"><ele>102.4</ele><time>2026-05-28T15:37:58Z</time></trkpt>
			<trkpt lat="54.413850" lon="22.311590"><ele>102.5</ele><time>2026-05-28T15:38:14Z</time></trkpt>
			<trkpt lat="54.413960" lon="22.311150"><ele>102.6</ele><time>2026-05-28T15:38:31Z</time></trkpt>
			<trkpt lat="54.414320" lon="22.309780"><ele>103.0</ele><time>2026-05-28T15:38:47Z</time></trkpt>
			<trkpt lat="54.414530" lon="22.309240"><ele>103.2</ele><time>2026-05-28T15:39:03Z</time></trkpt>
			<trkpt lat="54.414580" lon="22.309130"><ele>103.2</ele><time>2026-05-28T15:39:19Z</time></trkpt>
			<trkpt lat="54.414740" lon="22.308950"><ele>103.3</ele><time>2026-05-28T15:39:35Z</time></trkpt>
			<trkpt lat="54.414880" lon="22.308910"><ele>103.4</ele><time>2026-05-28T15:39:52Z</time></trkpt>
			<trkpt lat="54.415000" lon="22.308900"><ele>103.5</ele><time>2026-05-28T15:40:08Z</time></trkpt>
			<trkpt lat="54.415190" lon="22.308930"><ele>103.6</ele><time>2026-05-28T15:40:24Z</time></trkpt>
			<trkpt lat="54.415540" lon="22.309040"><ele>103.7</ele><time>2026-05-28T15:40:40Z</time></trkpt>
			<trkpt lat="54.415950" lon="22.309190"><ele>103.9</ele><time>2026-05-28T15:40:56Z</time></trkpt>
			<trkpt lat="54.416030" lon="22.309200"><ele>104.0</ele><time>2026-05-28T15:41:12Z</time></trkpt>
			<trkpt lat="54.416150" lon="22.309220"><ele>104.0</ele><time>2026-05-28T15:41:29Z</time></trkpt>
			<trkpt lat="54.416230" lon="22.309220"><ele>104.0</ele><time>2026-05-28T15:41:45Z</time></trkpt>
			<trkpt lat="54.418000" lon="22.309010"><ele>103.5</ele><time>2026-05-28T15:42:01Z</time></trkpt>
			<trkpt lat="54.418530" lon="22.308960"><ele>103.3</ele><time>2026-05-28T15:42:17Z</time></trkpt>
			<trkpt lat="54.419800" lon="22.308800"><ele>102.9</ele><time>2026-05-28T15:42:33Z</time></trkpt>
			<trkpt lat="54.420220" lon="22.308700"><ele>102.8</ele><time>2026-05-28T15:42:49Z</time></trkpt>
			<trkpt lat="54.420650" lon="22.308430"><ele>102.7</ele><time>2026-05-28T15:43:06Z</time></trkpt>
			<trkpt lat="54.421480" lon="22.307690"><ele>102.8</ele><time>2026-05-28T15:43:22Z</time></trkpt>
			<trkpt lat="54.426190" lon="22.303830"><ele>119.8</ele><time>2026-05-28T15:43:38Z</time></trkpt>
			<trkpt lat="54.440330" lon="22.292370"><ele>100.1</ele><time>2026-05-28T15:43:54Z</time></trkpt>
			<trkpt lat="54.440720" lon="22.292190"><ele>99.7</ele><time>2026-05-28T15:44:10Z</time></trkpt>
			<trkpt lat="54.441410" lon="22.291990"><ele>98.9</ele><time>2026-05-28T15:44:27Z</time></trkpt>
			<trkpt lat="54.442640" lon="22.291700"><ele>97.5</ele><time>2026-05-28T15:44:43Z</time></trkpt>
			<trkpt lat="54.443070" lon="22.291750"><ele>97.0</ele><time>2026-05-28T15:44:59Z</time></trkpt>
			<trkpt lat="54.445230" lon="22.292050"><ele>94.6</ele><time>2026-05-28T15:45:15Z</time></trkpt>
			<trkpt lat="54.445540" lon="22.292200"><ele>94.2</ele><time>2026-05-28T15:45:31Z</time></trkpt>
			<trkpt lat="54.445940" lon="22.292500"><ele>93.7</ele><time>2026-05-28T15:45:47Z</time></trkpt>
			<trkpt lat="54.448820" lon="22.295010"><ele>94.5</ele><time>2026-05-28T15:46:04Z</time></trkpt>
			<trkpt lat="54.448940" lon="22.295110"><ele>94.5</ele><time>2026-05-28T15:46:20Z</time></trkpt>
			<trkpt lat="54.449110" lon="22.296240"><ele>94.8</ele><time>2026-05-28T15:46:36Z</time></trkpt>
			<trkpt lat="54.449160" lon="22.297030"><ele>95.0</ele><time>2026-05-28T15:46:52Z</time></trkpt>
			<trkpt lat="54.449210" lon="22.297690"><ele>95.1</ele><time>2026-05-28T15:47:08Z</time></trkpt>
			<trkpt lat="54.448650" lon="22.299040"><ele>95.5</ele><time>2026-05-28T15:47:24Z</time></trkpt>
			<trkpt lat="54.448570" lon="22.299480"><ele>95.8</ele><time>2026-05-28T15:47:41Z</time></trkpt>
			<trkpt lat="54.448680" lon="22.300390"><ele>96.2</ele><time>2026-05-28T15:47:57Z</time></trkpt>
			<trkpt lat="54.448920" lon="22.301570"><ele>96.7</ele><time>2026-05-28T15:48:13Z</time></trkpt>
			<trkpt lat="54.449110" lon="22.303060"><ele>97.4</ele><time>2026-05-28T15:48:29Z</time></trkpt>
			<trkpt lat="54.449260" lon="22.304540"><ele>98.1</ele><time>2026-05-28T15:48:45Z</time></trkpt>
			<trkpt lat="54.449270" lon="22.306330"><ele>98.9</ele><time>2026-05-28T15:49:02Z</time></trkpt>
			<trkpt lat="54.449180" lon="22.306970"><ele>99.2</ele><time>2026-05-28T15:49:18Z</time></trkpt>
			<trkpt lat="54.449100" lon="22.307680"><ele>99.5</ele><time>2026-05-28T15:49:34Z</time></trkpt>
			<trkpt lat="54.448280" lon="22.310270"><ele>100.9</ele><time>2026-05-28T15:49:50Z</time></trkpt>
			<trkpt lat="54.448170" lon="22.311010"><ele>101.2</ele><time>2026-05-28T15:50:06Z</time></trkpt>
			<trkpt lat="54.448230" lon="22.315110"><ele>103.1</ele><time>2026-05-28T15:50:22Z</time></trkpt>
			<trkpt lat="54.448650" lon="22.317530"><ele>102.9</ele><time>2026-05-28T15:50:39Z</time></trkpt>
			<trkpt lat="54.448750" lon="22.318020"><ele>102.2</ele><time>2026-05-28T15:50:55Z</time></trkpt>
			<trkpt lat="54.448750" lon="22.318020"><ele>102.2</ele><time>2026-05-28T15:51:11Z</time></trkpt>
			<trkpt lat="54.448970" lon="22.319130"><ele>100.8</ele><time>2026-05-28T15:51:27Z</time></trkpt>
			<trkpt lat="54.449310" lon="22.319810"><ele>99.6</ele><time>2026-05-28T15:51:43Z</time></trkpt>
			<trkpt lat="54.449740" lon="22.320610"><ele>98.3</ele><time>2026-05-28T15:51:59Z</time></trkpt>
			<trkpt lat="54.449760" lon="22.320750"><ele>98.1</ele><time>2026-05-28T15:52:15Z</time></trkpt>
			<trkpt lat="54.449900" lon="22.321570"><ele>97.0</ele><time>2026-05-28T15:52:31Z</time></trkpt>
			<trkpt lat="54.450010" lon="22.323800"><ele>94.2</ele><time>2026-05-28T15:52:47Z</time></trkpt>
			<trkpt lat="54.449950" lon="22.324710"><ele>93.0</ele><time>2026-05-28T15:53:03Z</time></trkpt>
			<trkpt lat="54.449720" lon="22.325100"><ele>92.3</ele><time>2026-05-28T15:53:19Z</time></trkpt>
			<trkpt lat="54.449190" lon="22.325450"><ele>92.4</ele><time>2026-05-28T15:53:35Z</time></trkpt>
			<trkpt lat="54.448910" lon="22.325810"><ele>92.5</ele><time>2026-05-28T15:53:51Z</time></trkpt>
			<trkpt lat="54.448220" lon="22.327900"><ele>93.0</ele><time>2026-05-28T15:54:07Z</time></trkpt>
			<trkpt lat="54.447900" lon="22.328970"><ele>93.3</ele><time>2026-05-28T15:54:23Z</time></trkpt>
			<trkpt lat="54.447960" lon="22.329830"><ele>93.5</ele><time>2026-05-28T15:54:39Z</time></trkpt>
			<trkpt lat="54.448380" lon="22.331230"><ele>93.8</ele><time>2026-05-28T15:54:55Z</time></trkpt>
			<trkpt lat="54.448940" lon="22.332250"><ele>94.1</ele><time>2026-05-28T15:55:11Z</time></trkpt>
			<trkpt lat="54.449720" lon="22.333460"><ele>97.0</ele><time>2026-05-28T15:55:27Z</time></trkpt>
			<trkpt lat="54.450600" lon="22.334720"><ele>101.0</ele><time>2026-05-28T15:55:43Z</time></trkpt>
			<trkpt lat="54.451430" lon="22.336130"><ele>105.0</ele><time>2026-05-28T15:55:59Z</time></trkpt>
			<trkpt lat="54.451420" lon="22.341820"><ele>113.4</ele><time>2026-05-28T15:56:15Z</time></trkpt>
			<trkpt lat="54.451550" lon="22.342780"><ele>113.8</ele><time>2026-05-28T15:56:31Z</time></trkpt>
			<trkpt lat="54.452310" lon="22.346060"><ele>115.1</ele><time>2026-05-28T15:56:47Z</time></trkpt>
			<trkpt lat="54.454120" lon="22.353870"><ele>117.3</ele><time>2026-05-28T15:57:03Z</time></trkpt>
			<trkpt lat="54.455340" lon="22.359070"><ele>117.9</ele><time>2026-05-28T15:57:19Z</time></trkpt>
			<trkpt lat="54.456020" lon="22.361270"><ele>117.9</ele><time>2026-05-28T15:57:35Z</time></trkpt>
			<trkpt lat="54.457670" lon="22.365910"><ele>117.6</ele><time>2026-05-28T15:57:51Z</time></trkpt>
			<trkpt lat="54.457770" lon="22.366760"><ele>117.2</ele><time>2026-05-28T15:58:07Z</time></trkpt>
			<trkpt lat="54.457760" lon="22.367070"><ele>117.1</ele><time>2026-05-28T15:58:23Z</time></trkpt>
			<trkpt lat="54.457750" lon="22.367340"><ele>117.0</ele><time>2026-05-28T15:58:39Z</time></trkpt>
			<trkpt lat="54.457730" lon="22.368260"><ele>116.6</ele><time>2026-05-28T15:58:55Z</time></trkpt>
			<trkpt lat="54.457620" lon="22.370950"><ele>115.5</ele><time>2026-05-28T15:59:11Z</time></trkpt>
			<trkpt lat="54.457670" lon="22.372350"><ele>114.9</ele><time>2026-05-28T15:59:27Z</time></trkpt>
			<trkpt lat="54.457700" lon="22.373130"><ele>114.6</ele><time>2026-05-28T15:59:43Z</time></trkpt>
			<trkpt lat="54.457830" lon="22.374310"><ele>114.1</ele><time>2026-05-28T15:59:59Z</time></trkpt>
			<trkpt lat="54.458040" lon="22.376110"><ele>115.5</ele><time>2026-05-28T16:00:15Z</time></trkpt>
			<trkpt lat="54.458270" lon="22.377410"><ele>117.2</ele><time>2026-05-28T16:00:31Z</time></trkpt>
			<trkpt lat="54.458540" lon="22.378790"><ele>118.9</ele><time>2026-05-28T16:00:47Z</time></trkpt>
			<trkpt lat="54.459150" lon="22.380410"><ele>121.2</ele><time>2026-05-28T16:01:03Z</time></trkpt>
			<trkpt lat="54.459590" lon="22.381520"><ele>122.8</ele><time>2026-05-28T16:01:19Z</time></trkpt>
			<trkpt lat="54.459800" lon="22.382060"><ele>123.6</ele><time>2026-05-28T16:01:35Z</time></trkpt>
			<trkpt lat="54.460160" lon="22.383350"><ele>125.1</ele><time>2026-05-28T16:01:51Z</time></trkpt>
			<trkpt lat="54.460310" lon="22.384040"><ele>125.3</ele><time>2026-05-28T16:02:07Z</time></trkpt>
			<trkpt lat="54.460510" lon="22.384980"><ele>125.6</ele><time>2026-05-28T16:02:23Z</time></trkpt>
			<trkpt lat="54.460710" lon="22.386620"><ele>126.1</ele><time>2026-05-28T16:02:39Z</time></trkpt>
			<trkpt lat="54.460910" lon="22.388630"><ele>126.7</ele><time>2026-05-28T16:02:55Z</time></trkpt>
			<trkpt lat="54.460950" lon="22.389760"><ele>127.0</ele><time>2026-05-28T16:03:11Z</time></trkpt>
			<trkpt lat="54.460700" lon="22.392100"><ele>127.7</ele><time>2026-05-28T16:03:27Z</time></trkpt>
			<trkpt lat="54.460450" lon="22.394650"><ele>128.5</ele><time>2026-05-28T16:03:43Z</time></trkpt>
			<trkpt lat="54.460280" lon="22.395670"><ele>128.8</ele><time>2026-05-28T16:03:59Z</time></trkpt>
			<trkpt lat="54.459650" lon="22.398580"><ele>129.8</ele><time>2026-05-28T16:04:15Z</time></trkpt>
			<trkpt lat="54.458750" lon="22.402470"><ele>131.0</ele><time>2026-05-28T16:04:31Z</time></trkpt>
			<trkpt lat="54.458480" lon="22.403930"><ele>131.4</ele><time>2026-05-28T16:04:47Z</time></trkpt>
			<trkpt lat="54.458490" lon="22.404880"><ele>131.7</ele><time>2026-05-28T16:05:03Z</time></trkpt>
			<trkpt lat="54.458750" lon="22.410130"><ele>133.0</ele><time>2026-05-28T16:05:19Z</time></trkpt>
			<trkpt lat="54.458800" lon="22.411400"><ele>133.9</ele><time>2026-05-28T16:05:35Z</time></trkpt>
			<trkpt lat="54.458800" lon="22.412250"><ele>134.5</ele><time>2026-05-28T16:05:51Z</time></trkpt>
			<trkpt lat="54.458780" lon="22.413150"><ele>135.2</ele><time>2026-05-28T16:06:07Z</time></trkpt>
			<trkpt lat="54.458610" lon="22.414480"><ele>136.1</ele><time>2026-05-28T16:06:23Z</time></trkpt>
			<trkpt lat="54.458410" lon="22.416360"><ele>137.5</ele><time>2026-05-28T16:06:39Z</time></trkpt>
			<trkpt lat="54.458350" lon="22.417090"><ele>138.0</ele><time>2026-05-28T16:06:55Z</time></trkpt>
			<trkpt lat="54.458240" lon="22.418030"><ele>138.7</ele><time>2026-05-28T16:07:11Z</time></trkpt>
			<trkpt lat="54.457840" lon="22.420340"><ele>137.8</ele><time>2026-05-28T16:07:27Z</time></trkpt>
			<trkpt lat="54.457730" lon="22.420900"><ele>136.8</ele><time>2026-05-28T16:07:43Z</time></trkpt>
			<trkpt lat="54.457360" lon="22.422910"><ele>133.1</ele><time>2026-05-28T16:07:59Z</time></trkpt>
			<trkpt lat="54.457060" lon="22.424510"><ele>130.2</ele><time>2026-05-28T16:08:15Z</time></trkpt>
			<trkpt lat="54.456710" lon="22.426260"><ele>127.1</ele><time>2026-05-28T16:08:31Z</time></trkpt>
			<trkpt lat="54.456570" lon="22.427000"><ele>125.7</ele><time>2026-05-28T16:08:47Z</time></trkpt>
			<trkpt lat="54.456270" lon="22.428620"><ele>123.3</ele><time>2026-05-28T16:09:03Z</time></trkpt>
			<trkpt lat="54.456000" lon="22.430070"><ele>122.1</ele><time>2026-05-28T16:09:19Z</time></trkpt>
			<trkpt lat="54.455860" lon="22.430880"><ele>121.5</ele><time>2026-05-28T16:09:35Z</time></trkpt>
			<trkpt lat="54.455910" lon="22.431260"><ele>121.2</ele><time>2026-05-28T16:09:51Z</time></trkpt>
			<trkpt lat="54.455990" lon="22.431580"><ele>120.9</ele><time>2026-05-28T16:10:07Z</time></trkpt>
			<trkpt lat="54.456140" lon="22.431950"><ele>120.5</ele><time>2026-05-28T16:10:23Z</time></trkpt>
			<trkpt lat="54.456750" lon="22.433090"><ele>119.3</ele><time>2026-05-28T16:10:39Z</time></trkpt>
			<trkpt lat="54.457330" lon="22.434140"><ele>118.2</ele><time>2026-05-28T16:10:55Z</time></trkpt>
			<trkpt lat="54.457500" lon="22.434450"><ele>117.9</ele><time>2026-05-28T16:11:11Z</time></trkpt>
			<trkpt lat="54.457710" lon="22.434820"><ele>117.5</ele><time>2026-05-28T16:11:27Z</time></trkpt>
			<trkpt lat="54.458430" lon="22.435920"><ele>116.8</ele><time>2026-05-28T16:11:43Z</time></trkpt>
			<trkpt lat="54.458660" lon="22.436240"><ele>117.1</ele><time>2026-05-28T16:11:59Z</time></trkpt>
			<trkpt lat="54.459010" lon="22.436670"><ele>117.6</ele><time>2026-05-28T16:12:15Z</time></trkpt>
			<trkpt lat="54.459090" lon="22.436800"><ele>117.8</ele><time>2026-05-28T16:12:31Z</time></trkpt>
			<trkpt lat="54.459150" lon="22.436940"><ele>117.9</ele><time>2026-05-28T16:12:47Z</time></trkpt>
			<trkpt lat="54.459210" lon="22.437150"><ele>118.1</ele><time>2026-05-28T16:13:03Z</time></trkpt>
			<trkpt lat="54.459240" lon="22.437330"><ele>118.2</ele><time>2026-05-28T16:13:19Z</time></trkpt>
			<trkpt lat="54.459250" lon="22.437520"><ele>118.3</ele><time>2026-05-28T16:13:35Z</time></trkpt>
			<trkpt lat="54.459250" lon="22.438560"><ele>119.1</ele><time>2026-05-28T16:13:51Z</time></trkpt>
			<trkpt lat="54.459290" lon="22.439340"><ele>119.6</ele><time>2026-05-28T16:14:07Z</time></trkpt>
			<trkpt lat="54.459220" lon="22.440190"><ele>120.2</ele><time>2026-05-28T16:14:23Z</time></trkpt>
			<trkpt lat="54.459140" lon="22.440550"><ele>120.5</ele><time>2026-05-28T16:14:39Z</time></trkpt>
			<trkpt lat="54.458690" lon="22.441970"><ele>121.6</ele><time>2026-05-28T16:14:55Z</time></trkpt>
			<trkpt lat="54.458580" lon="22.442310"><ele>121.9</ele><time>2026-05-28T16:15:11Z</time></trkpt>
			<trkpt lat="54.458540" lon="22.442560"><ele>122.1</ele><time>2026-05-28T16:15:27Z</time></trkpt>
			<trkpt lat="54.458560" lon="22.442820"><ele>122.3</ele><time>2026-05-28T16:15:43Z</time></trkpt>
			<trkpt lat="54.459330" lon="22.448410"><ele>121.4</ele><time>2026-05-28T16:15:59Z</time></trkpt>
			<trkpt lat="54.460270" lon="22.455310"><ele>121.8</ele><time>2026-05-28T16:16:15Z</time></trkpt>
			<trkpt lat="54.460280" lon="22.455550"><ele>122.0</ele><time>2026-05-28T16:16:31Z</time></trkpt>
			<trkpt lat="54.460270" lon="22.455760"><ele>122.2</ele><time>2026-05-28T16:16:47Z</time></trkpt>
			<trkpt lat="54.459910" lon="22.459290"><ele>125.2</ele><time>2026-05-28T16:17:03Z</time></trkpt>
			<trkpt lat="54.459520" lon="22.463390"><ele>127.8</ele><time>2026-05-28T16:17:19Z</time></trkpt>
			<trkpt lat="54.458810" lon="22.470340"><ele>129.2</ele><time>2026-05-28T16:17:35Z</time></trkpt>
			<trkpt lat="54.458810" lon="22.470750"><ele>129.3</ele><time>2026-05-28T16:17:51Z</time></trkpt>
			<trkpt lat="54.458870" lon="22.471000"><ele>129.3</ele><time>2026-05-28T16:18:07Z</time></trkpt>
			<trkpt lat="54.460290" lon="22.473200"><ele>129.7</ele><time>2026-05-28T16:18:23Z</time></trkpt>
			<trkpt lat="54.461040" lon="22.474360"><ele>129.9</ele><time>2026-05-28T16:18:39Z</time></trkpt>
			<trkpt lat="54.461510" lon="22.475210"><ele>130.0</ele><time>2026-05-28T16:18:55Z</time></trkpt>
			<trkpt lat="54.461670" lon="22.475570"><ele>130.1</ele><time>2026-05-28T16:19:11Z</time></trkpt>
			<trkpt lat="54.461750" lon="22.475950"><ele>130.1</ele><time>2026-05-28T16:19:27Z</time></trkpt>
			<trkpt lat="54.461740" lon="22.476330"><ele>130.2</ele><time>2026-05-28T16:19:43Z</time></trkpt>
			<trkpt lat="54.461690" lon="22.476820"><ele>130.2</ele><time>2026-05-28T16:19:59Z</time></trkpt>
			<trkpt lat="54.461480" lon="22.478630"><ele>130.2</ele><time>2026-05-28T16:20:15Z</time></trkpt>
			<trkpt lat="54.461420" lon="22.479360"><ele>129.6</ele><time>2026-05-28T16:20:31Z</time></trkpt>
			<trkpt lat="54.461330" lon="22.480250"><ele>128.9</ele><time>2026-05-28T16:20:47Z</time></trkpt>
			<trkpt lat="54.461330" lon="22.480770"><ele>128.5</ele><time>2026-05-28T16:21:03Z</time></trkpt>
			<trkpt lat="54.461360" lon="22.481320"><ele>128.0</ele><time>2026-05-28T16:21:19Z</time></trkpt>
			<trkpt lat="54.461540" lon="22.482480"><ele>127.1</ele><time>2026-05-28T16:21:35Z</time></trkpt>
			<trkpt lat="54.461660" lon="22.482930"><ele>126.7</ele><time>2026-05-28T16:21:51Z</time></trkpt>
			<trkpt lat="54.463800" lon="22.488730"><ele>123.5</ele><time>2026-05-28T16:22:07Z</time></trkpt>
			<trkpt lat="54.464780" lon="22.491410"><ele>124.4</ele><time>2026-05-28T16:22:23Z</time></trkpt>
			<trkpt lat="54.465110" lon="22.492460"><ele>124.7</ele><time>2026-05-28T16:22:39Z</time></trkpt>
			<trkpt lat="54.467210" lon="22.502890"><ele>127.1</ele><time>2026-05-28T16:22:56Z</time></trkpt>
			<trkpt lat="54.468700" lon="22.510400"><ele>132.5</ele><time>2026-05-28T16:23:12Z</time></trkpt>
			<trkpt lat="54.468830" lon="22.510940"><ele>133.0</ele><time>2026-05-28T16:23:28Z</time></trkpt>
			<trkpt lat="54.468980" lon="22.511190"><ele>133.3</ele><time>2026-05-28T16:23:44Z</time></trkpt>
			<trkpt lat="54.470110" lon="22.511970"><ele>134.3</ele><time>2026-05-28T16:24:00Z</time></trkpt>
			<trkpt lat="54.471100" lon="22.512610"><ele>134.5</ele><time>2026-05-28T16:24:16Z</time></trkpt>
			<trkpt lat="54.472460" lon="22.511950"><ele>134.6</ele><time>2026-05-28T16:24:32Z</time></trkpt>
			<trkpt lat="54.472820" lon="22.511850"><ele>134.7</ele><time>2026-05-28T16:24:48Z</time></trkpt>
			<trkpt lat="54.473250" lon="22.511820"><ele>134.7</ele><time>2026-05-28T16:25:04Z</time></trkpt>
			<trkpt lat="54.473630" lon="22.511870"><ele>134.8</ele><time>2026-05-28T16:25:20Z</time></trkpt>
			<trkpt lat="54.474700" lon="22.512080"><ele>134.9</ele><time>2026-05-28T16:25:36Z</time></trkpt>
			<trkpt lat="54.476580" lon="22.512480"><ele>133.3</ele><time>2026-05-28T16:25:52Z</time></trkpt>
			<trkpt lat="54.477160" lon="22.512510"><ele>132.7</ele><time>2026-05-28T16:26:08Z</time></trkpt>
			<trkpt lat="54.478020" lon="22.512360"><ele>131.9</ele><time>2026-05-28T16:26:24Z</time></trkpt>
			<trkpt lat="54.478580" lon="22.512290"><ele>131.3</ele><time>2026-05-28T16:26:40Z</time></trkpt>
			<trkpt lat="54.478800" lon="22.512270"><ele>131.1</ele><time>2026-05-28T16:26:56Z</time></trkpt>
			<trkpt lat="54.479630" lon="22.512180"><ele>130.2</ele><time>2026-05-28T16:27:12Z</time></trkpt>
			<trkpt lat="54.480410" lon="22.512500"><ele>129.4</ele><time>2026-05-28T16:27:28Z</time></trkpt>
			<trkpt lat="54.480850" lon="22.512700"><ele>128.7</ele><time>2026-05-28T16:27:44Z</time></trkpt>
			<trkpt lat="54.481300" lon="22.512960"><ele>128.0</ele><time>2026-05-28T16:28:00Z</time></trkpt>
			<trkpt lat="54.482510" lon="22.513840"><ele>126.0</ele><time>2026-05-28T16:28:16Z</time></trkpt>
			<trkpt lat="54.482620" lon="22.513900"><ele>125.8</ele><time>2026-05-28T16:28:32Z</time></trkpt>
			<trkpt lat="54.482830" lon="22.513930"><ele>125.5</ele><time>2026-05-28T16:28:48Z</time></trkpt>
			<trkpt lat="54.483330" lon="22.513710"><ele>124.7</ele><time>2026-05-28T16:29:04Z</time></trkpt>
			<trkpt lat="54.483820" lon="22.513590"><ele>123.9</ele><time>2026-05-28T16:29:20Z</time></trkpt>
			<trkpt lat="54.484300" lon="22.513520"><ele>123.2</ele><time>2026-05-28T16:29:36Z</time></trkpt>
			<trkpt lat="54.484640" lon="22.513560"><ele>122.7</ele><time>2026-05-28T16:29:52Z</time></trkpt>
			<trkpt lat="54.485410" lon="22.513770"><ele>121.5</ele><time>2026-05-28T16:30:08Z</time></trkpt>
			<trkpt lat="54.487280" lon="22.514420"><ele>119.9</ele><time>2026-05-28T16:30:24Z</time></trkpt>
			<trkpt lat="54.488080" lon="22.514550"><ele>119.2</ele><time>2026-05-28T16:30:40Z</time></trkpt>
			<trkpt lat="54.488890" lon="22.514580"><ele>118.6</ele><time>2026-05-28T16:30:56Z</time></trkpt>
			<trkpt lat="54.495360" lon="22.514650"><ele>117.9</ele><time>2026-05-28T16:31:12Z</time></trkpt>
			<trkpt lat="54.496130" lon="22.514650"><ele>118.0</ele><time>2026-05-28T16:31:28Z</time></trkpt>
			<trkpt lat="54.500360" lon="22.514650"><ele>111.0</ele><time>2026-05-28T16:31:44Z</time></trkpt>
			<trkpt lat="54.501380" lon="22.514660"><ele>109.2</ele><time>2026-05-28T16:32:00Z</time></trkpt>
			<trkpt lat="54.503030" lon="22.514680"><ele>108.1</ele><time>2026-05-28T16:32:16Z</time></trkpt>
			<trkpt lat="54.503440" lon="22.514690"><ele>107.9</ele><time>2026-05-28T16:32:32Z</time></trkpt>
			<trkpt lat="54.503550" lon="22.514690"><ele>107.8</ele><time>2026-05-28T16:32:48Z</time></trkpt>
			<trkpt lat="54.504870" lon="22.514700"><ele>107.2</ele><time>2026-05-28T16:33:04Z</time></trkpt>
			<trkpt lat="54.506260" lon="22.514600"><ele>106.6</ele><time>2026-05-28T16:33:20Z</time></trkpt>
			<trkpt lat="54.507610" lon="22.514510"><ele>106.2</ele><time>2026-05-28T16:33:36Z</time></trkpt>
			<trkpt lat="54.507990" lon="22.514470"><ele>106.2</ele><time>2026-05-28T16:33:52Z</time></trkpt>
			<trkpt lat="54.508140" lon="22.514450"><ele>106.2</ele><time>2026-05-28T16:34:08Z</time></trkpt>
			<trkpt lat="54.516690" lon="22.511990"><ele>99.6</ele><time>2026-05-28T16:34:24Z</time></trkpt>
			<trkpt lat="54.520650" lon="22.510910"><ele>98.1</ele><time>2026-05-28T16:34:40Z</time></trkpt>
			<trkpt lat="54.524520" lon="22.509800"><ele>96.4</ele><time>2026-05-28T16:34:56Z</time></trkpt>
			<trkpt lat="54.525300" lon="22.509580"><ele>95.4</ele><time>2026-05-28T16:35:12Z</time></trkpt>
			<trkpt lat="54.529990" lon="22.508340"><ele>88.8</ele><time>2026-05-28T16:35:28Z</time></trkpt>
			<trkpt lat="54.538800" lon="22.505970"><ele>79.3</ele><time>2026-05-28T16:35:44Z</time></trkpt>
			<trkpt lat="54.543700" lon="22.505020"><ele>77.9</ele><time>2026-05-28T16:36:00Z</time></trkpt>
			<trkpt lat="54.547210" lon="22.504360"><ele>77.1</ele><time>2026-05-28T16:36:16Z</time></trkpt>
			<trkpt lat="54.555530" lon="22.502920"><ele>72.8</ele><time>2026-05-28T16:36:32Z</time></trkpt>
			<trkpt lat="54.556220" lon="22.502770"><ele>71.4</ele><time>2026-05-28T16:36:48Z</time></trkpt>
			<trkpt lat="54.557290" lon="22.502510"><ele>69.3</ele><time>2026-05-28T16:37:04Z</time></trkpt>
			<trkpt lat="54.558610" lon="22.502170"><ele>66.7</ele><time>2026-05-28T16:37:20Z</time></trkpt>
			<trkpt lat="54.558940" lon="22.502120"><ele>66.1</ele><time>2026-05-28T16:37:36Z</time></trkpt>
			<trkpt lat="54.560220" lon="22.502030"><ele>63.6</ele><time>2026-05-28T16:37:52Z</time></trkpt>
			<trkpt lat="54.560440" lon="22.501960"><ele>63.2</ele><time>2026-05-28T16:38:08Z</time></trkpt>
			<trkpt lat="54.560680" lon="22.501850"><ele>62.8</ele><time>2026-05-28T16:38:24Z</time></trkpt>
			<trkpt lat="54.560930" lon="22.501710"><ele>62.7</ele><time>2026-05-28T16:38:40Z</time></trkpt>
			<trkpt lat="54.561740" lon="22.501110"><ele>62.3</ele><time>2026-05-28T16:38:56Z</time></trkpt>
			<trkpt lat="54.562960" lon="22.500180"><ele>61.7</ele><time>2026-05-28T16:39:12Z</time></trkpt>
			<trkpt lat="54.563220" lon="22.499990"><ele>61.6</ele><time>2026-05-28T16:39:28Z</time></trkpt>
			<trkpt lat="54.563330" lon="22.499930"><ele>61.6</ele><time>2026-05-28T16:39:44Z</time></trkpt>
			<trkpt lat="54.563580" lon="22.499840"><ele>61.4</ele><time>2026-05-28T16:40:00Z</time></trkpt>
			<trkpt lat="54.563720" lon="22.499820"><ele>61.4</ele><time>2026-05-28T16:40:16Z</time></trkpt>
			<trkpt lat="54.563910" lon="22.499800"><ele>61.3</ele><time>2026-05-28T16:40:32Z</time></trkpt>
			<trkpt lat="54.564010" lon="22.499810"><ele>61.3</ele><time>2026-05-28T16:40:48Z</time></trkpt>
			<trkpt lat="54.564380" lon="22.499880"><ele>61.1</ele><time>2026-05-28T16:41:04Z</time></trkpt>
			<trkpt lat="54.564890" lon="22.499990"><ele>60.9</ele><time>2026-05-28T16:41:20Z</time></trkpt>
			<trkpt lat="54.565000" lon="22.500030"><ele>60.8</ele><time>2026-05-28T16:41:36Z</time></trkpt>
			<trkpt lat="54.565120" lon="22.500110"><ele>60.8</ele><time>2026-05-28T16:41:52Z</time></trkpt>
			<trkpt lat="54.565190" lon="22.500170"><ele>60.8</ele><time>2026-05-28T16:42:08Z</time></trkpt>
			<trkpt lat="54.565290" lon="22.500300"><ele>60.7</ele><time>2026-05-28T16:42:24Z</time></trkpt>
			<trkpt lat="54.565380" lon="22.500460"><ele>60.6</ele><time>2026-05-28T16:42:40Z</time></trkpt>
			<trkpt lat="54.565550" lon="22.500740"><ele>60.5</ele><time>2026-05-28T16:42:56Z</time></trkpt>
			<trkpt lat="54.565600" lon="22.500800"><ele>60.5</ele><time>2026-05-28T16:43:12Z</time></trkpt>
			<trkpt lat="54.565750" lon="22.500930"><ele>60.4</ele><time>2026-05-28T16:43:28Z</time></trkpt>
			<trkpt lat="54.565870" lon="22.501010"><ele>60.4</ele><time>2026-05-28T16:43:44Z</time></trkpt>
			<trkpt lat="54.566100" lon="22.501070"><ele>60.3</ele><time>2026-05-28T16:44:00Z</time></trkpt>
			<trkpt lat="54.566690" lon="22.501090"><ele>60.0</ele><time>2026-05-28T16:44:16Z</time></trkpt>
			<trkpt lat="54.566870" lon="22.501120"><ele>59.9</ele><time>2026-05-28T16:44:32Z</time></trkpt>
			<trkpt lat="54.567080" lon="22.501230"><ele>59.8</ele><time>2026-05-28T16:44:48Z</time></trkpt>
			<trkpt lat="54.567250" lon="22.501370"><ele>59.7</ele><time>2026-05-28T16:45:04Z</time></trkpt>
			<trkpt lat="54.567350" lon="22.501480"><ele>59.7</ele><time>2026-05-28T16:45:20Z</time></trkpt>
			<trkpt lat="54.567440" lon="22.501600"><ele>59.6</ele><time>2026-05-28T16:45:36Z</time></trkpt>
			<trkpt lat="54.567520" lon="22.501750"><ele>59.6</ele><time>2026-05-28T16:45:52Z</time></trkpt>
			<trkpt lat="54.567600" lon="22.501940"><ele>59.5</ele><time>2026-05-28T16:46:08Z</time></trkpt>
			<trkpt lat="54.567660" lon="22.502120"><ele>59.4</ele><time>2026-05-28T16:46:24Z</time></trkpt>
			<trkpt lat="54.567840" lon="22.502780"><ele>59.2</ele><time>2026-05-28T16:46:40Z</time></trkpt>
			<trkpt lat="54.568100" lon="22.503830"><ele>58.9</ele><time>2026-05-28T16:46:56Z</time></trkpt>
			<trkpt lat="54.568150" lon="22.503980"><ele>58.9</ele><time>2026-05-28T16:47:12Z</time></trkpt>
			<trkpt lat="54.568230" lon="22.504210"><ele>58.8</ele><time>2026-05-28T16:47:28Z</time></trkpt>
			<trkpt lat="54.568340" lon="22.504420"><ele>58.7</ele><time>2026-05-28T16:47:44Z</time></trkpt>
			<trkpt lat="54.568390" lon="22.504490"><ele>58.7</ele><time>2026-05-28T16:48:00Z</time></trkpt>
			<trkpt lat="54.568540" lon="22.504650"><ele>58.6</ele><time>2026-05-28T16:48:16Z</time></trkpt>
			<trkpt lat="54.569560" lon="22.505670"><ele>58.1</ele><time>2026-05-28T16:48:32Z</time></trkpt>
			<trkpt lat="54.572300" lon="22.508440"><ele>61.1</ele><time>2026-05-28T16:48:48Z</time></trkpt>
			<trkpt lat="54.573300" lon="22.509390"><ele>62.3</ele><time>2026-05-28T16:49:04Z</time></trkpt>
			<trkpt lat="54.574290" lon="22.510370"><ele>63.4</ele><time>2026-05-28T16:49:20Z</time></trkpt>
			<trkpt lat="54.575910" lon="22.511960"><ele>65.4</ele><time>2026-05-28T16:49:36Z</time></trkpt>
			<trkpt lat="54.576180" lon="22.512260"><ele>65.7</ele><time>2026-05-28T16:49:52Z</time></trkpt>
			<trkpt lat="54.576300" lon="22.512400"><ele>65.9</ele><time>2026-05-28T16:50:08Z</time></trkpt>
			<trkpt lat="54.576410" lon="22.512550"><ele>66.0</ele><time>2026-05-28T16:50:24Z</time></trkpt>
			<trkpt lat="54.576490" lon="22.512730"><ele>66.2</ele><time>2026-05-28T16:50:40Z</time></trkpt>
			<trkpt lat="54.576550" lon="22.512930"><ele>66.3</ele><time>2026-05-28T16:50:56Z</time></trkpt>
			<trkpt lat="54.576600" lon="22.513160"><ele>66.4</ele><time>2026-05-28T16:51:12Z</time></trkpt>
			<trkpt lat="54.576640" lon="22.513450"><ele>66.6</ele><time>2026-05-28T16:51:28Z</time></trkpt>
			<trkpt lat="54.576670" lon="22.513770"><ele>66.8</ele><time>2026-05-28T16:51:44Z</time></trkpt>
			<trkpt lat="54.576680" lon="22.514460"><ele>67.2</ele><time>2026-05-28T16:52:00Z</time></trkpt>
			<trkpt lat="54.576660" lon="22.515140"><ele>67.6</ele><time>2026-05-28T16:52:16Z</time></trkpt>
			<trkpt lat="54.576640" lon="22.515460"><ele>67.8</ele><time>2026-05-28T16:52:32Z</time></trkpt>
			<trkpt lat="54.576560" lon="22.516200"><ele>68.3</ele><time>2026-05-28T16:52:48Z</time></trkpt>
			<trkpt lat="54.576570" lon="22.516570"><ele>68.5</ele><time>2026-05-28T16:53:04Z</time></trkpt>
			<trkpt lat="54.576600" lon="22.516970"><ele>68.8</ele><time>2026-05-28T16:53:20Z</time></trkpt>
			<trkpt lat="54.576710" lon="22.517830"><ele>69.2</ele><time>2026-05-28T16:53:36Z</time></trkpt>
			<trkpt lat="54.576830" lon="22.519100"><ele>69.1</ele><time>2026-05-28T16:53:52Z</time></trkpt>
			<trkpt lat="54.576870" lon="22.519300"><ele>69.1</ele><time>2026-05-28T16:54:08Z</time></trkpt>
			<trkpt lat="54.576920" lon="22.519450"><ele>69.1</ele><time>2026-05-28T16:54:24Z</time></trkpt>
			<trkpt lat="54.576980" lon="22.519580"><ele>69.1</ele><time>2026-05-28T16:54:40Z</time></trkpt>
			<trkpt lat="54.577980" lon="22.521090"><ele>69.0</ele><time>2026-05-28T16:54:56Z</time></trkpt>
			<trkpt lat="54.578640" lon="22.522080"><ele>69.0</ele><time>2026-05-28T16:55:12Z</time></trkpt>
			<trkpt lat="54.578870" lon="22.522470"><ele>68.9</ele><time>2026-05-28T16:55:28Z</time></trkpt>
			<trkpt lat="54.579160" lon="22.523020"><ele>68.9</ele><time>2026-05-28T16:55:44Z</time></trkpt>
			<trkpt lat="54.579530" lon="22.523760"><ele>68.9</ele><time>2026-05-28T16:56:00Z</time></trkpt>
			<trkpt lat="54.580320" lon="22.525200"><ele>68.4</ele><time>2026-05-28T16:56:16Z</time></trkpt>
			<trkpt lat="54.582260" lon="22.528700"><ele>65.6</ele><time>2026-05-28T16:56:32Z</time></trkpt>
			<trkpt lat="54.582770" lon="22.529670"><ele>64.9</ele><time>2026-05-28T16:56:48Z</time></trkpt>
			<trkpt lat="54.585530" lon="22.534650"><ele>62.3</ele><time>2026-05-28T16:57:04Z</time></trkpt>
			<trkpt lat="54.586490" lon="22.536420"><ele>61.6</ele><time>2026-05-28T16:57:20Z</time></trkpt>
			<trkpt lat="54.587200" lon="22.537680"><ele>61.1</ele><time>2026-05-28T16:57:36Z</time></trkpt>
			<trkpt lat="54.589300" lon="22.541610"><ele>61.1</ele><time>2026-05-28T16:57:52Z</time></trkpt>
			<trkpt lat="54.592670" lon="22.547810"><ele>59.7</ele><time>2026-05-28T16:58:08Z</time></trkpt>
			<trkpt lat="54.592850" lon="22.548100"><ele>59.5</ele><time>2026-05-28T16:58:24Z</time></trkpt>
			<trkpt lat="54.592960" lon="22.548270"><ele>59.4</ele><time>2026-05-28T16:58:40Z</time></trkpt>
			<trkpt lat="54.593030" lon="22.548340"><ele>59.4</ele><time>2026-05-28T16:58:56Z</time></trkpt>
			<trkpt lat="54.593170" lon="22.548480"><ele>59.3</ele><time>2026-05-28T16:59:12Z</time></trkpt>
			<trkpt lat="54.593280" lon="22.548540"><ele>59.2</ele><time>2026-05-28T16:59:28Z</time></trkpt>
			<trkpt lat="54.593390" lon="22.548570"><ele>59.1</ele><time>2026-05-28T16:59:44Z</time></trkpt>
			<trkpt lat="54.593520" lon="22.548590"><ele>59.0</ele><time>2026-05-28T17:00:00Z</time></trkpt>
			<trkpt lat="54.593680" lon="22.548590"><ele>58.9</ele><time>2026-05-28T17:00:16Z</time></trkpt>
			<trkpt lat="54.594180" lon="22.548560"><ele>58.6</ele><time>2026-05-28T17:00:32Z</time></trkpt>
			<trkpt lat="54.594320" lon="22.548550"><ele>58.5</ele><time>2026-05-28T17:00:48Z</time></trkpt>
			<trkpt lat="54.594760" lon="22.548520"><ele>58.2</ele><time>2026-05-28T17:01:04Z</time></trkpt>
			<trkpt lat="54.594810" lon="22.548530"><ele>58.1</ele><time>2026-05-28T17:01:20Z</time></trkpt>
			<trkpt lat="54.595060" lon="22.548630"><ele>57.9</ele><time>2026-05-28T17:01:36Z</time></trkpt>
			<trkpt lat="54.595330" lon="22.548770"><ele>57.7</ele><time>2026-05-28T17:01:52Z</time></trkpt>
			<trkpt lat="54.598260" lon="22.550800"><ele>59.6</ele><time>2026-05-28T17:02:08Z</time></trkpt>
			<trkpt lat="54.598850" lon="22.551210"><ele>60.0</ele><time>2026-05-28T17:02:24Z</time></trkpt>
			<trkpt lat="54.599150" lon="22.551460"><ele>60.3</ele><time>2026-05-28T17:02:40Z</time></trkpt>
			<trkpt lat="54.599450" lon="22.551750"><ele>60.5</ele><time>2026-05-28T17:02:56Z</time></trkpt>
			<trkpt lat="54.600050" lon="22.552380"><ele>61.1</ele><time>2026-05-28T17:03:12Z</time></trkpt>
			<trkpt lat="54.601180" lon="22.553580"><ele>61.5</ele><time>2026-05-28T17:03:28Z</time></trkpt>
			<trkpt lat="54.601780" lon="22.554200"><ele>61.5</ele><time>2026-05-28T17:03:44Z</time></trkpt>
			<trkpt lat="54.601910" lon="22.554320"><ele>61.5</ele><time>2026-05-28T17:04:00Z</time></trkpt>
			<trkpt lat="54.602340" lon="22.554630"><ele>61.5</ele><time>2026-05-28T17:04:16Z</time></trkpt>
			<trkpt lat="54.602740" lon="22.554900"><ele>61.5</ele><time>2026-05-28T17:04:32Z</time></trkpt>
			<trkpt lat="54.604540" lon="22.555960"><ele>61.4</ele><time>2026-05-28T17:04:48Z</time></trkpt>
			<trkpt lat="54.605810" lon="22.556870"><ele>61.3</ele><time>2026-05-28T17:05:04Z</time></trkpt>
			<trkpt lat="54.609920" lon="22.560060"><ele>59.7</ele><time>2026-05-28T17:05:20Z</time></trkpt>
			<trkpt lat="54.610630" lon="22.560630"><ele>59.6</ele><time>2026-05-28T17:05:36Z</time></trkpt>
			<trkpt lat="54.611270" lon="22.561260"><ele>59.7</ele><time>2026-05-28T17:05:52Z</time></trkpt>
			<trkpt lat="54.612830" lon="22.562920"><ele>59.9</ele><time>2026-05-28T17:06:08Z</time></trkpt>
			<trkpt lat="54.613690" lon="22.563920"><ele>60.0</ele><time>2026-05-28T17:06:24Z</time></trkpt>
			<trkpt lat="54.613900" lon="22.564130"><ele>60.0</ele><time>2026-05-28T17:06:40Z</time></trkpt>
			<trkpt lat="54.614110" lon="22.564330"><ele>60.0</ele><time>2026-05-28T17:06:56Z</time></trkpt>
			<trkpt lat="54.623860" lon="22.571450"><ele>66.6</ele><time>2026-05-28T17:07:13Z</time></trkpt>
			<trkpt lat="54.625750" lon="22.572850"><ele>68.0</ele><time>2026-05-28T17:07:29Z</time></trkpt>
			<trkpt lat="54.626010" lon="22.573030"><ele>68.1</ele><time>2026-05-28T17:07:45Z</time></trkpt>
			<trkpt lat="54.627230" lon="22.573920"><ele>68.7</ele><time>2026-05-28T17:08:01Z</time></trkpt>
			<trkpt lat="54.627330" lon="22.574030"><ele>68.7</ele><time>2026-05-28T17:08:17Z</time></trkpt>
			<trkpt lat="54.627370" lon="22.574070"><ele>68.7</ele><time>2026-05-28T17:08:33Z</time></trkpt>
			<trkpt lat="54.627570" lon="22.574390"><ele>68.9</ele><time>2026-05-28T17:08:49Z</time></trkpt>
			<trkpt lat="54.627590" lon="22.574450"><ele>68.9</ele><time>2026-05-28T17:09:05Z</time></trkpt>
			<trkpt lat="54.627630" lon="22.574620"><ele>68.9</ele><time>2026-05-28T17:09:21Z</time></trkpt>
			<trkpt lat="54.627790" lon="22.575490"><ele>69.2</ele><time>2026-05-28T17:09:37Z</time></trkpt>
			<trkpt lat="54.627830" lon="22.575430"><ele>69.2</ele><time>2026-05-28T17:09:53Z</time></trkpt>
			<trkpt lat="54.627990" lon="22.575320"><ele>69.3</ele><time>2026-05-28T17:10:09Z</time></trkpt>
			<trkpt lat="54.628200" lon="22.575120"><ele>69.4</ele><time>2026-05-28T17:10:25Z</time></trkpt>
			<trkpt lat="54.628370" lon="22.575010"><ele>69.4</ele><time>2026-05-28T17:10:41Z</time></trkpt>
			<trkpt lat="54.628500" lon="22.574870"><ele>69.5</ele><time>2026-05-28T17:10:57Z</time></trkpt>
			<trkpt lat="54.628540" lon="22.574820"><ele>69.5</ele><time>2026-05-28T17:11:13Z</time></trkpt>
			<trkpt lat="54.629860" lon="22.573320"><ele>70.1</ele><time>2026-05-28T17:11:29Z</time></trkpt>
			<trkpt lat="54.630650" lon="22.572350"><ele>70.1</ele><time>2026-05-28T17:11:45Z</time></trkpt>
			<trkpt lat="54.630780" lon="22.572200"><ele>70.2</ele><time>2026-05-28T17:12:01Z</time></trkpt>
			<trkpt lat="54.631060" lon="22.571870"><ele>70.2</ele><time>2026-05-28T17:12:17Z</time></trkpt>
			<trkpt lat="54.631100" lon="22.571840"><ele>70.2</ele><time>2026-05-28T17:12:33Z</time></trkpt>
			<trkpt lat="54.631160" lon="22.571850"><ele>70.2</ele><time>2026-05-28T17:12:49Z</time></trkpt>
			<trkpt lat="54.631170" lon="22.571790"><ele>70.2</ele><time>2026-05-28T17:13:05Z</time></trkpt>
			<trkpt lat="54.631200" lon="22.571730"><ele>70.2</ele><time>2026-05-28T17:13:21Z</time></trkpt>
			<trkpt lat="54.631450" lon="22.571430"><ele>70.2</ele><time>2026-05-28T17:13:37Z</time></trkpt>
			<trkpt lat="54.631820" lon="22.571030"><ele>70.3</ele><time>2026-05-28T17:13:53Z</time></trkpt>
			<trkpt lat="54.632680" lon="22.569960"><ele>70.4</ele><time>2026-05-28T17:14:09Z</time></trkpt>
			<trkpt lat="54.632760" lon="22.569830"><ele>70.4</ele><time>2026-05-28T17:14:25Z</time></trkpt>
			<trkpt lat="54.632790" lon="22.569680"><ele>70.4</ele><time>2026-05-28T17:14:41Z</time></trkpt>
			<trkpt lat="54.632900" lon="22.569240"><ele>70.4</ele><time>2026-05-28T17:14:57Z</time></trkpt>
			<trkpt lat="54.633020" lon="22.569040"><ele>70.4</ele><time>2026-05-28T17:15:13Z</time></trkpt>
			<trkpt lat="54.633550" lon="22.568630"><ele>70.5</ele><time>2026-05-28T17:15:29Z</time></trkpt>
			<trkpt lat="54.634160" lon="22.568100"><ele>69.9</ele><time>2026-05-28T17:15:45Z</time></trkpt>
			<trkpt lat="54.634750" lon="22.567430"><ele>69.0</ele><time>2026-05-28T17:16:01Z</time></trkpt>
			<trkpt lat="54.634800" lon="22.567310"><ele>68.9</ele><time>2026-05-28T17:16:17Z</time></trkpt>
			<trkpt lat="54.634750" lon="22.566880"><ele>68.6</ele><time>2026-05-28T17:16:33Z</time></trkpt>
			<trkpt lat="54.634690" lon="22.566550"><ele>68.3</ele><time>2026-05-28T17:16:49Z</time></trkpt>
			<trkpt lat="54.634650" lon="22.566190"><ele>68.0</ele><time>2026-05-28T17:17:05Z</time></trkpt>
			<trkpt lat="54.636610" lon="22.564040"><ele>65.1</ele><time>2026-05-28T17:17:21Z</time></trkpt>
			<trkpt lat="54.638000" lon="22.562490"><ele>63.1</ele><time>2026-05-28T17:17:37Z</time></trkpt>
			<trkpt lat="54.638850" lon="22.561430"><ele>62.1</ele><time>2026-05-28T17:17:53Z</time></trkpt>
			<trkpt lat="54.639330" lon="22.560820"><ele>61.5</ele><time>2026-05-28T17:18:09Z</time></trkpt>
			<trkpt lat="54.640500" lon="22.559270"><ele>60.1</ele><time>2026-05-28T17:18:25Z</time></trkpt>
			<trkpt lat="54.641860" lon="22.557550"><ele>58.5</ele><time>2026-05-28T17:18:41Z</time></trkpt>
			<trkpt lat="54.641990" lon="22.557480"><ele>58.4</ele><time>2026-05-28T17:18:57Z</time></trkpt>
			<trkpt lat="54.642150" lon="22.557470"><ele>58.3</ele><time>2026-05-28T17:19:13Z</time></trkpt>
			<trkpt lat="54.642250" lon="22.557520"><ele>58.2</ele><time>2026-05-28T17:19:29Z</time></trkpt>
			<trkpt lat="54.642620" lon="22.557710"><ele>58.0</ele><time>2026-05-28T17:19:45Z</time></trkpt>
			<trkpt lat="54.642620" lon="22.557710"><ele>58.0</ele><time>2026-05-28T17:19:52Z</time></trkpt>
			<trkpt lat="54.642720" lon="22.557770"><ele>58.0</ele><time>2026-05-28T17:20:00Z</time></trkpt>
			<trkpt lat="54.643740" lon="22.558110"><ele>57.4</ele><time>2026-05-28T17:20:07Z</time></trkpt>
			<trkpt lat="54.644780" lon="22.558750"><ele>56.8</ele><time>2026-05-28T17:20:15Z</time></trkpt>
			<trkpt lat="54.645110" lon="22.558920"><ele>56.6</ele><time>2026-05-28T17:20:22Z</time></trkpt>
			<trkpt lat="54.645250" lon="22.558940"><ele>56.5</ele><time>2026-05-28T17:20:30Z</time></trkpt>
			<trkpt lat="54.645510" lon="22.558900"><ele>56.3</ele><time>2026-05-28T17:20:37Z</time></trkpt>
			<trkpt lat="54.645970" lon="22.558690"><ele>56.1</ele><time>2026-05-28T17:20:45Z</time></trkpt>
			<trkpt lat="54.647820" lon="22.557920"><ele>54.8</ele><time>2026-05-28T17:20:52Z</time></trkpt>
			<trkpt lat="54.648020" lon="22.557910"><ele>54.6</ele><time>2026-05-28T17:21:00Z</time></trkpt>
			<trkpt lat="54.648180" lon="22.557980"><ele>54.5</ele><time>2026-05-28T17:21:07Z</time></trkpt>
			<trkpt lat="54.648760" lon="22.558490"><ele>53.9</ele><time>2026-05-28T17:21:14Z</time></trkpt>
			<trkpt lat="54.649550" lon="22.559230"><ele>53.2</ele><time>2026-05-28T17:21:22Z</time></trkpt>
			<trkpt lat="54.649750" lon="22.559350"><ele>53.0</ele><time>2026-05-28T17:21:29Z</time></trkpt>
			<trkpt lat="54.649980" lon="22.559400"><ele>52.8</ele><time>2026-05-28T17:21:37Z</time></trkpt>
			<trkpt lat="54.652240" lon="22.559620"><ele>50.8</ele><time>2026-05-28T17:21:44Z</time></trkpt>
			<trkpt lat="54.655340" lon="22.559900"><ele>49.2</ele><time>2026-05-28T17:21:52Z</time></trkpt>
			<trkpt lat="54.656070" lon="22.559960"><ele>48.8</ele><time>2026-05-28T17:21:59Z</time></trkpt>
			<trkpt lat="54.656370" lon="22.559960"><ele>48.7</ele><time>2026-05-28T17:22:07Z</time></trkpt>
			<trkpt lat="54.656830" lon="22.559880"><ele>48.4</ele><time>2026-05-28T17:22:14Z</time></trkpt>
			<trkpt lat="54.657180" lon="22.559880"><ele>48.3</ele><time>2026-05-28T17:22:22Z</time></trkpt>
			<trkpt lat="54.657390" lon="22.559910"><ele>48.2</ele><time>2026-05-28T17:22:29Z</time></trkpt>
			<trkpt lat="54.657500" lon="22.559920"><ele>48.1</ele><time>2026-05-28T17:22:37Z</time></trkpt>
			<trkpt lat="54.657640" lon="22.559960"><ele>48.0</ele><time>2026-05-28T17:22:44Z</time></trkpt>
			<trkpt lat="54.657840" lon="22.560040"><ele>48.0</ele><time>2026-05-28T17:22:52Z</time></trkpt>
			<trkpt lat="54.658560" lon="22.560370"><ele>48.1</ele><time>2026-05-28T17:22:59Z</time></trkpt>
			<trkpt lat="54.659570" lon="22.560810"><ele>48.4</ele><time>2026-05-28T17:23:07Z</time></trkpt>
			<trkpt lat="54.659980" lon="22.560940"><ele>48.5</ele><time>2026-05-28T17:23:14Z</time></trkpt>
			<trkpt lat="54.660110" lon="22.560960"><ele>48.5</ele><time>2026-05-28T17:23:22Z</time></trkpt>
			<trkpt lat="54.660220" lon="22.560950"><ele>48.5</ele><time>2026-05-28T17:23:29Z</time></trkpt>
			<trkpt lat="54.660350" lon="22.560920"><ele>48.6</ele><time>2026-05-28T17:23:37Z</time></trkpt>
			<trkpt lat="54.660710" lon="22.560800"><ele>48.7</ele><time>2026-05-28T17:23:44Z</time></trkpt>
			<trkpt lat="54.662320" lon="22.560190"><ele>49.0</ele><time>2026-05-28T17:23:51Z</time></trkpt>
			<trkpt lat="54.665000" lon="22.559210"><ele>49.4</ele><time>2026-05-28T17:23:59Z</time></trkpt>
			<trkpt lat="54.667190" lon="22.558440"><ele>49.6</ele><time>2026-05-28T17:24:06Z</time></trkpt>
			<trkpt lat="54.667310" lon="22.558380"><ele>49.6</ele><time>2026-05-28T17:24:14Z</time></trkpt>
			<trkpt lat="54.667420" lon="22.558300"><ele>49.7</ele><time>2026-05-28T17:24:21Z</time></trkpt>
			<trkpt lat="54.667740" lon="22.558030"><ele>49.7</ele><time>2026-05-28T17:24:29Z</time></trkpt>
			<trkpt lat="54.671890" lon="22.553970"><ele>53.1</ele><time>2026-05-28T17:24:36Z</time></trkpt>
			<trkpt lat="54.673290" lon="22.552630"><ele>54.0</ele><time>2026-05-28T17:24:44Z</time></trkpt>
			<trkpt lat="54.673670" lon="22.552270"><ele>54.0</ele><time>2026-05-28T17:24:51Z</time></trkpt>
			<trkpt lat="54.674740" lon="22.551220"><ele>54.0</ele><time>2026-05-28T17:24:59Z</time></trkpt>
			<trkpt lat="54.676110" lon="22.549930"><ele>54.0</ele><time>2026-05-28T17:25:06Z</time></trkpt>
			<trkpt lat="54.676290" lon="22.549800"><ele>54.0</ele><time>2026-05-28T17:25:14Z</time></trkpt>
			<trkpt lat="54.676520" lon="22.549700"><ele>54.0</ele><time>2026-05-28T17:25:21Z</time></trkpt>
			<trkpt lat="54.676910" lon="22.549560"><ele>54.0</ele><time>2026-05-28T17:25:29Z</time></trkpt>
			<trkpt lat="54.677270" lon="22.549460"><ele>54.0</ele><time>2026-05-28T17:25:36Z</time></trkpt>
			<trkpt lat="54.677920" lon="22.549330"><ele>54.0</ele><time>2026-05-28T17:25:44Z</time></trkpt>
			<trkpt lat="54.680490" lon="22.548890"><ele>53.7</ele><time>2026-05-28T17:25:51Z</time></trkpt>
			<trkpt lat="54.680760" lon="22.548860"><ele>53.7</ele><time>2026-05-28T17:25:59Z</time></trkpt>
			<trkpt lat="54.680870" lon="22.548860"><ele>53.7</ele><time>2026-05-28T17:26:06Z</time></trkpt>
			<trkpt lat="54.680980" lon="22.548890"><ele>53.7</ele><time>2026-05-28T17:26:13Z</time></trkpt>
			<trkpt lat="54.681090" lon="22.548940"><ele>53.7</ele><time>2026-05-28T17:26:21Z</time></trkpt>
			<trkpt lat="54.681210" lon="22.549020"><ele>53.7</ele><time>2026-05-28T17:26:28Z</time></trkpt>
			<trkpt lat="54.681520" lon="22.549290"><ele>53.6</ele><time>2026-05-28T17:26:36Z</time></trkpt>
			<trkpt lat="54.682150" lon="22.549860"><ele>53.6</ele><time>2026-05-28T17:26:43Z</time></trkpt>
			<trkpt lat="54.686440" lon="22.553630"><ele>54.7</ele><time>2026-05-28T17:26:51Z</time></trkpt>
			<trkpt lat="54.686550" lon="22.553720"><ele>54.8</ele><time>2026-05-28T17:26:58Z</time></trkpt>
			<trkpt lat="54.686640" lon="22.553760"><ele>54.8</ele><time>2026-05-28T17:27:06Z</time></trkpt>
			<trkpt lat="54.686750" lon="22.553800"><ele>54.8</ele><time>2026-05-28T17:27:13Z</time></trkpt>
			<trkpt lat="54.686900" lon="22.553810"><ele>54.9</ele><time>2026-05-28T17:27:21Z</time></trkpt>
			<trkpt lat="54.687430" lon="22.553740"><ele>55.0</ele><time>2026-05-28T17:27:28Z</time></trkpt>
			<trkpt lat="54.692290" lon="22.552950"><ele>53.4</ele><time>2026-05-28T17:27:36Z</time></trkpt>
			<trkpt lat="54.694220" lon="22.552440"><ele>52.8</ele><time>2026-05-28T17:27:43Z</time></trkpt>
			<trkpt lat="54.694990" lon="22.552220"><ele>52.8</ele><time>2026-05-28T17:27:51Z</time></trkpt>
			<trkpt lat="54.695100" lon="22.552190"><ele>52.8</ele><time>2026-05-28T17:27:58Z</time></trkpt>
			<trkpt lat="54.695340" lon="22.552100"><ele>52.8</ele><time>2026-05-28T17:28:06Z</time></trkpt>
			<trkpt lat="54.695690" lon="22.551960"><ele>52.7</ele><time>2026-05-28T17:28:13Z</time></trkpt>
			<trkpt lat="54.695990" lon="22.551780"><ele>52.7</ele><time>2026-05-28T17:28:21Z</time></trkpt>
			<trkpt lat="54.696530" lon="22.551340"><ele>52.7</ele><time>2026-05-28T17:28:28Z</time></trkpt>
			<trkpt lat="54.698140" lon="22.549850"><ele>52.5</ele><time>2026-05-28T17:28:36Z</time></trkpt>
			<trkpt lat="54.703300" lon="22.545030"><ele>55.0</ele><time>2026-05-28T17:28:43Z</time></trkpt>
			<trkpt lat="54.704720" lon="22.543710"><ele>55.0</ele><time>2026-05-28T17:28:50Z</time></trkpt>
			<trkpt lat="54.706650" lon="22.541900"><ele>55.0</ele><time>2026-05-28T17:28:58Z</time></trkpt>
			<trkpt lat="54.708070" lon="22.540580"><ele>55.1</ele><time>2026-05-28T17:29:05Z</time></trkpt>
			<trkpt lat="54.710070" lon="22.538700"><ele>56.8</ele><time>2026-05-28T17:29:13Z</time></trkpt>
			<trkpt lat="54.710730" lon="22.538090"><ele>57.3</ele><time>2026-05-28T17:29:20Z</time></trkpt>
			<trkpt lat="54.711170" lon="22.537700"><ele>57.7</ele><time>2026-05-28T17:29:28Z</time></trkpt>
			<trkpt lat="54.711370" lon="22.537570"><ele>57.9</ele><time>2026-05-28T17:29:35Z</time></trkpt>
			<trkpt lat="54.711470" lon="22.537520"><ele>57.9</ele><time>2026-05-28T17:29:43Z</time></trkpt>
			<trkpt lat="54.712440" lon="22.537280"><ele>58.7</ele><time>2026-05-28T17:29:50Z</time></trkpt>
			<trkpt lat="54.712630" lon="22.537220"><ele>58.8</ele><time>2026-05-28T17:29:58Z</time></trkpt>
			<trkpt lat="54.712740" lon="22.537140"><ele>58.9</ele><time>2026-05-28T17:30:05Z</time></trkpt>
			<trkpt lat="54.712900" lon="22.536950"><ele>58.9</ele><time>2026-05-28T17:30:13Z</time></trkpt>
			<trkpt lat="54.712990" lon="22.536770"><ele>58.8</ele><time>2026-05-28T17:30:20Z</time></trkpt>
			<trkpt lat="54.713090" lon="22.536460"><ele>58.6</ele><time>2026-05-28T17:30:28Z</time></trkpt>
			<trkpt lat="54.713340" lon="22.535200"><ele>57.9</ele><time>2026-05-28T17:30:35Z</time></trkpt>
			<trkpt lat="54.713450" lon="22.534650"><ele>57.6</ele><time>2026-05-28T17:30:43Z</time></trkpt>
			<trkpt lat="54.713780" lon="22.533470"><ele>57.0</ele><time>2026-05-28T17:30:50Z</time></trkpt>
			<trkpt lat="54.713900" lon="22.533090"><ele>56.7</ele><time>2026-05-28T17:30:58Z</time></trkpt>
			<trkpt lat="54.713990" lon="22.532910"><ele>56.6</ele><time>2026-05-28T17:31:05Z</time></trkpt>
			<trkpt lat="54.714040" lon="22.532830"><ele>56.6</ele><time>2026-05-28T17:31:12Z</time></trkpt>
			<trkpt lat="54.714100" lon="22.532760"><ele>56.5</ele><time>2026-05-28T17:31:20Z</time></trkpt>
			<trkpt lat="54.714220" lon="22.532670"><ele>56.4</ele><time>2026-05-28T17:31:27Z</time></trkpt>
			<trkpt lat="54.715870" lon="22.531810"><ele>54.9</ele><time>2026-05-28T17:31:35Z</time></trkpt>
			<trkpt lat="54.716150" lon="22.531660"><ele>54.6</ele><time>2026-05-28T17:31:42Z</time></trkpt>
			<trkpt lat="54.716580" lon="22.531440"><ele>54.2</ele><time>2026-05-28T17:31:50Z</time></trkpt>
			<trkpt lat="54.716700" lon="22.531380"><ele>54.3</ele><time>2026-05-28T17:31:57Z</time></trkpt>
			<trkpt lat="54.717960" lon="22.530750"><ele>54.5</ele><time>2026-05-28T17:32:05Z</time></trkpt>
			<trkpt lat="54.718110" lon="22.530660"><ele>54.6</ele><time>2026-05-28T17:32:12Z</time></trkpt>
			<trkpt lat="54.718190" lon="22.530600"><ele>54.6</ele><time>2026-05-28T17:32:20Z</time></trkpt>
			<trkpt lat="54.718330" lon="22.530460"><ele>54.6</ele><time>2026-05-28T17:32:27Z</time></trkpt>
			<trkpt lat="54.718920" lon="22.529660"><ele>54.8</ele><time>2026-05-28T17:32:35Z</time></trkpt>
			<trkpt lat="54.723050" lon="22.523850"><ele>57.1</ele><time>2026-05-28T17:32:42Z</time></trkpt>
			<trkpt lat="54.727140" lon="22.518110"><ele>59.6</ele><time>2026-05-28T17:32:50Z</time></trkpt>
			<trkpt lat="54.728250" lon="22.516540"><ele>60.0</ele><time>2026-05-28T17:32:57Z</time></trkpt>
			<trkpt lat="54.728580" lon="22.516040"><ele>60.1</ele><time>2026-05-28T17:33:05Z</time></trkpt>
			<trkpt lat="54.729220" lon="22.514950"><ele>60.3</ele><time>2026-05-28T17:33:12Z</time></trkpt>
			<trkpt lat="54.733840" lon="22.506690"><ele>61.8</ele><time>2026-05-28T17:33:20Z</time></trkpt>
			<trkpt lat="54.737890" lon="22.499500"><ele>58.8</ele><time>2026-05-28T17:33:27Z</time></trkpt>
			<trkpt lat="54.738110" lon="22.499140"><ele>58.9</ele><time>2026-05-28T17:33:35Z</time></trkpt>
			<trkpt lat="54.738290" lon="22.498890"><ele>59.1</ele><time>2026-05-28T17:33:42Z</time></trkpt>
			<trkpt lat="54.738480" lon="22.498680"><ele>59.2</ele><time>2026-05-28T17:33:49Z</time></trkpt>
			<trkpt lat="54.738600" lon="22.498580"><ele>59.3</ele><time>2026-05-28T17:33:57Z</time></trkpt>
			<trkpt lat="54.738720" lon="22.498520"><ele>59.3</ele><time>2026-05-28T17:34:04Z</time></trkpt>
			<trkpt lat="54.738820" lon="22.498510"><ele>59.4</ele><time>2026-05-28T17:34:12Z</time></trkpt>
			<trkpt lat="54.739730" lon="22.498710"><ele>59.9</ele><time>2026-05-28T17:34:19Z</time></trkpt>
			<trkpt lat="54.740320" lon="22.498790"><ele>60.2</ele><time>2026-05-28T17:34:27Z</time></trkpt>
			<trkpt lat="54.746740" lon="22.499430"><ele>59.4</ele><time>2026-05-28T17:34:34Z</time></trkpt>
			<trkpt lat="54.752320" lon="22.500100"><ele>57.2</ele><time>2026-05-28T17:34:42Z</time></trkpt>
			<trkpt lat="54.756860" lon="22.500610"><ele>64.1</ele><time>2026-05-28T17:34:49Z</time></trkpt>
			<trkpt lat="54.759860" lon="22.500920"><ele>70.2</ele><time>2026-05-28T17:34:57Z</time></trkpt>
			<trkpt lat="54.760520" lon="22.500970"><ele>71.6</ele><time>2026-05-28T17:35:04Z</time></trkpt>
			<trkpt lat="54.761510" lon="22.501070"><ele>73.8</ele><time>2026-05-28T17:35:12Z</time></trkpt>
			<trkpt lat="54.762430" lon="22.501160"><ele>75.9</ele><time>2026-05-28T17:35:19Z</time></trkpt>
			<trkpt lat="54.762440" lon="22.501160"><ele>75.9</ele><time>2026-05-28T17:35:27Z</time></trkpt>
			<trkpt lat="54.763190" lon="22.501240"><ele>77.6</ele><time>2026-05-28T17:35:34Z</time></trkpt>
			<trkpt lat="54.763850" lon="22.501310"><ele>78.0</ele><time>2026-05-28T17:35:42Z</time></trkpt>
			<trkpt lat="54.764140" lon="22.501370"><ele>78.1</ele><time>2026-05-28T17:35:49Z</time></trkpt>
			<trkpt lat="54.764530" lon="22.501530"><ele>78.3</ele><time>2026-05-28T17:35:57Z</time></trkpt>
			<trkpt lat="54.766500" lon="22.502400"><ele>79.2</ele><time>2026-05-28T17:36:04Z</time></trkpt>
			<trkpt lat="54.766680" lon="22.502470"><ele>79.3</ele><time>2026-05-28T17:36:12Z</time></trkpt>
			<trkpt lat="54.767660" lon="22.502940"><ele>79.8</ele><time>2026-05-28T17:36:19Z</time></trkpt>
			<trkpt lat="54.768020" lon="22.503230"><ele>80.0</ele><time>2026-05-28T17:36:26Z</time></trkpt>
			<trkpt lat="54.768670" lon="22.503760"><ele>79.2</ele><time>2026-05-28T17:36:34Z</time></trkpt>
			<trkpt lat="54.768760" lon="22.503790"><ele>78.8</ele><time>2026-05-28T17:36:41Z</time></trkpt>
			<trkpt lat="54.769730" lon="22.504070"><ele>74.5</ele><time>2026-05-28T17:36:49Z</time></trkpt>
			<trkpt lat="54.769810" lon="22.504090"><ele>74.2</ele><time>2026-05-28T17:36:56Z</time></trkpt>
			<trkpt lat="54.769890" lon="22.504040"><ele>73.8</ele><time>2026-05-28T17:37:04Z</time></trkpt>
			<trkpt lat="54.770140" lon="22.503930"><ele>72.7</ele><time>2026-05-28T17:37:11Z</time></trkpt>
			<trkpt lat="54.770240" lon="22.503920"><ele>72.2</ele><time>2026-05-28T17:37:19Z</time></trkpt>
			<trkpt lat="54.770400" lon="22.503950"><ele>71.5</ele><time>2026-05-28T17:37:26Z</time></trkpt>
			<trkpt lat="54.770670" lon="22.504080"><ele>70.3</ele><time>2026-05-28T17:37:34Z</time></trkpt>
			<trkpt lat="54.771230" lon="22.504330"><ele>67.7</ele><time>2026-05-28T17:37:41Z</time></trkpt>
			<trkpt lat="54.771290" lon="22.504340"><ele>67.5</ele><time>2026-05-28T17:37:49Z</time></trkpt>
			<trkpt lat="54.771460" lon="22.504450"><ele>66.7</ele><time>2026-05-28T17:37:56Z</time></trkpt>
			<trkpt lat="54.771690" lon="22.504630"><ele>65.6</ele><time>2026-05-28T17:38:04Z</time></trkpt>
			<trkpt lat="54.772730" lon="22.505430"><ele>60.6</ele><time>2026-05-28T17:38:11Z</time></trkpt>
			<trkpt lat="54.773020" lon="22.505660"><ele>59.2</ele><time>2026-05-28T17:38:19Z</time></trkpt>
			<trkpt lat="54.773160" lon="22.505740"><ele>58.5</ele><time>2026-05-28T17:38:26Z</time></trkpt>
			<trkpt lat="54.773340" lon="22.505820"><ele>57.7</ele><time>2026-05-28T17:38:34Z</time></trkpt>
			<trkpt lat="54.773710" lon="22.505940"><ele>56.4</ele><time>2026-05-28T17:38:41Z</time></trkpt>
			<trkpt lat="54.775710" lon="22.506510"><ele>55.0</ele><time>2026-05-28T17:38:48Z</time></trkpt>
			<trkpt lat="54.775840" lon="22.506520"><ele>54.9</ele><time>2026-05-28T17:38:56Z</time></trkpt>
			<trkpt lat="54.776120" lon="22.506480"><ele>54.7</ele><time>2026-05-28T17:39:03Z</time></trkpt>
			<trkpt lat="54.780220" lon="22.505710"><ele>51.5</ele><time>2026-05-28T17:39:11Z</time></trkpt>
			<trkpt lat="54.780700" lon="22.505610"><ele>51.1</ele><time>2026-05-28T17:39:18Z</time></trkpt>
			<trkpt lat="54.781190" lon="22.505530"><ele>50.7</ele><time>2026-05-28T17:39:26Z</time></trkpt>
			<trkpt lat="54.781430" lon="22.505510"><ele>50.5</ele><time>2026-05-28T17:39:33Z</time></trkpt>
			<trkpt lat="54.781680" lon="22.505510"><ele>50.3</ele><time>2026-05-28T17:39:41Z</time></trkpt>
			<trkpt lat="54.781880" lon="22.505530"><ele>50.2</ele><time>2026-05-28T17:39:48Z</time></trkpt>
			<trkpt lat="54.782280" lon="22.505630"><ele>49.8</ele><time>2026-05-28T17:39:56Z</time></trkpt>
			<trkpt lat="54.782500" lon="22.505720"><ele>49.6</ele><time>2026-05-28T17:40:03Z</time></trkpt>
			<trkpt lat="54.784160" lon="22.506550"><ele>48.2</ele><time>2026-05-28T17:40:11Z</time></trkpt>
			<trkpt lat="54.784760" lon="22.506860"><ele>48.2</ele><time>2026-05-28T17:40:18Z</time></trkpt>
			<trkpt lat="54.786560" lon="22.507780"><ele>48.7</ele><time>2026-05-28T17:40:26Z</time></trkpt>
			<trkpt lat="54.788340" lon="22.508680"><ele>49.1</ele><time>2026-05-28T17:40:33Z</time></trkpt>
			<trkpt lat="54.789450" lon="22.509250"><ele>49.4</ele><time>2026-05-28T17:40:41Z</time></trkpt>
			<trkpt lat="54.791540" lon="22.510310"><ele>51.3</ele><time>2026-05-28T17:40:48Z</time></trkpt>
			<trkpt lat="54.794690" lon="22.511910"><ele>54.2</ele><time>2026-05-28T17:40:56Z</time></trkpt>
			<trkpt lat="54.795600" lon="22.512390"><ele>55.1</ele><time>2026-05-28T17:41:03Z</time></trkpt>
			<trkpt lat="54.796150" lon="22.512660"><ele>55.6</ele><time>2026-05-28T17:41:11Z</time></trkpt>
			<trkpt lat="54.796630" lon="22.512850"><ele>56.0</ele><time>2026-05-28T17:41:18Z</time></trkpt>
			<trkpt lat="54.797030" lon="22.512950"><ele>56.4</ele><time>2026-05-28T17:41:25Z</time></trkpt>
			<trkpt lat="54.797520" lon="22.513030"><ele>56.8</ele><time>2026-05-28T17:41:33Z</time></trkpt>
			<trkpt lat="54.797640" lon="22.513370"><ele>57.0</ele><time>2026-05-28T17:41:40Z</time></trkpt>
			<trkpt lat="54.797860" lon="22.513920"><ele>57.4</ele><time>2026-05-28T17:41:48Z</time></trkpt>
			<trkpt lat="54.798110" lon="22.514640"><ele>57.8</ele><time>2026-05-28T17:41:55Z</time></trkpt>
			<trkpt lat="54.798330" lon="22.515920"><ele>58.5</ele><time>2026-05-28T17:42:03Z</time></trkpt>
			<trkpt lat="54.798710" lon="22.518490"><ele>57.6</ele><time>2026-05-28T17:42:10Z</time></trkpt>
			<trkpt lat="54.798820" lon="22.518920"><ele>57.2</ele><time>2026-05-28T17:42:18Z</time></trkpt>
			<trkpt lat="54.799140" lon="22.519940"><ele>56.2</ele><time>2026-05-28T17:42:25Z</time></trkpt>
			<trkpt lat="54.799230" lon="22.520490"><ele>55.7</ele><time>2026-05-28T17:42:33Z</time></trkpt>
			<trkpt lat="54.801260" lon="22.535410"><ele>47.7</ele><time>2026-05-28T17:42:40Z</time></trkpt>
			<trkpt lat="54.801670" lon="22.538020"><ele>45.6</ele><time>2026-05-28T17:42:48Z</time></trkpt>
			<trkpt lat="54.802380" lon="22.542110"><ele>42.4</ele><time>2026-05-28T17:42:55Z</time></trkpt>
			<trkpt lat="54.802460" lon="22.542440"><ele>42.1</ele><time>2026-05-28T17:43:03Z</time></trkpt>
			<trkpt lat="54.802550" lon="22.542690"><ele>41.9</ele><time>2026-05-28T17:43:10Z</time></trkpt>
			<trkpt lat="54.804270" lon="22.545670"><ele>42.5</ele><time>2026-05-28T17:43:18Z</time></trkpt>
			<trkpt lat="54.804600" lon="22.546140"><ele>43.0</ele><time>2026-05-28T17:43:25Z</time></trkpt>
			<trkpt lat="54.805560" lon="22.546920"><ele>44.0</ele><time>2026-05-28T17:43:33Z</time></trkpt>
			<trkpt lat="54.806130" lon="22.547560"><ele>44.7</ele><time>2026-05-28T17:43:40Z</time></trkpt>
			<trkpt lat="54.806960" lon="22.548550"><ele>45.7</ele><time>2026-05-28T17:43:47Z</time></trkpt>
			<trkpt lat="54.807650" lon="22.549990"><ele>45.8</ele><time>2026-05-28T17:43:55Z</time></trkpt>
			<trkpt lat="54.807880" lon="22.550350"><ele>45.6</ele><time>2026-05-28T17:44:02Z</time></trkpt>
			<trkpt lat="54.808110" lon="22.550460"><ele>45.4</ele><time>2026-05-28T17:44:10Z</time></trkpt>
			<trkpt lat="54.809010" lon="22.550770"><ele>44.8</ele><time>2026-05-28T17:44:17Z</time></trkpt>
			<trkpt lat="54.812540" lon="22.551820"><ele>42.3</ele><time>2026-05-28T17:44:25Z</time></trkpt>
			<trkpt lat="54.817540" lon="22.553840"><ele>43.0</ele><time>2026-05-28T17:44:32Z</time></trkpt>
			<trkpt lat="54.819170" lon="22.554630"><ele>43.5</ele><time>2026-05-28T17:44:40Z</time></trkpt>
			<trkpt lat="54.820590" lon="22.556030"><ele>44.1</ele><time>2026-05-28T17:44:47Z</time></trkpt>
			<trkpt lat="54.820920" lon="22.556180"><ele>44.2</ele><time>2026-05-28T17:44:55Z</time></trkpt>
			<trkpt lat="54.821080" lon="22.556150"><ele>44.3</ele><time>2026-05-28T17:45:02Z</time></trkpt>
			<trkpt lat="54.821170" lon="22.556040"><ele>44.3</ele><time>2026-05-28T17:45:10Z</time></trkpt>
			<trkpt lat="54.821500" lon="22.555500"><ele>44.5</ele><time>2026-05-28T17:45:17Z</time></trkpt>
			<trkpt lat="54.821630" lon="22.555420"><ele>44.5</ele><time>2026-05-28T17:45:25Z</time></trkpt>
			<trkpt lat="54.821750" lon="22.555420"><ele>44.6</ele><time>2026-05-28T17:45:32Z</time></trkpt>
			<trkpt lat="54.821880" lon="22.555550"><ele>44.6</ele><time>2026-05-28T17:45:40Z</time></trkpt>
			<trkpt lat="54.823250" lon="22.557650"><ele>44.2</ele><time>2026-05-28T17:45:47Z</time></trkpt>
			<trkpt lat="54.826000" lon="22.562880"><ele>41.7</ele><time>2026-05-28T17:45:55Z</time></trkpt>
			<trkpt lat="54.827700" lon="22.566160"><ele>42.9</ele><time>2026-05-28T17:46:02Z</time></trkpt>
			<trkpt lat="54.829360" lon="22.569350"><ele>44.2</ele><time>2026-05-28T17:46:10Z</time></trkpt>
			<trkpt lat="54.829490" lon="22.569520"><ele>44.3</ele><time>2026-05-28T17:46:17Z</time></trkpt>
			<trkpt lat="54.829610" lon="22.569650"><ele>44.4</ele><time>2026-05-28T17:46:24Z</time></trkpt>
			<trkpt lat="54.830950" lon="22.570970"><ele>44.2</ele><time>2026-05-28T17:46:32Z</time></trkpt>
			<trkpt lat="54.833370" lon="22.573400"><ele>43.4</ele><time>2026-05-28T17:46:39Z</time></trkpt>
			<trkpt lat="54.833460" lon="22.573520"><ele>43.3</ele><time>2026-05-28T17:46:47Z</time></trkpt>
			<trkpt lat="54.833530" lon="22.573660"><ele>43.3</ele><time>2026-05-28T17:46:54Z</time></trkpt>
			<trkpt lat="54.834630" lon="22.577040"><ele>42.7</ele><time>2026-05-28T17:47:02Z</time></trkpt>
			<trkpt lat="54.835700" lon="22.580410"><ele>42.2</ele><time>2026-05-28T17:47:09Z</time></trkpt>
			<trkpt lat="54.835930" lon="22.581230"><ele>42.1</ele><time>2026-05-28T17:47:17Z</time></trkpt>
			<trkpt lat="54.836340" lon="22.583400"><ele>41.7</ele><time>2026-05-28T17:47:24Z</time></trkpt>
			<trkpt lat="54.837530" lon="22.590030"><ele>39.7</ele><time>2026-05-28T17:47:32Z</time></trkpt>
			<trkpt lat="54.837610" lon="22.590450"><ele>39.5</ele><time>2026-05-28T17:47:39Z</time></trkpt>
			<trkpt lat="54.838050" lon="22.592580"><ele>38.8</ele><time>2026-05-28T17:47:47Z</time></trkpt>
			<trkpt lat="54.838200" lon="22.593670"><ele>39.6</ele><time>2026-05-28T17:47:54Z</time></trkpt>
			<trkpt lat="54.838210" lon="22.593850"><ele>39.8</ele><time>2026-05-28T17:48:02Z</time></trkpt>
			<trkpt lat="54.838220" lon="22.594000"><ele>39.9</ele><time>2026-05-28T17:48:09Z</time></trkpt>
			<trkpt lat="54.838210" lon="22.594190"><ele>40.0</ele><time>2026-05-28T17:48:17Z</time></trkpt>
			<trkpt lat="54.838110" lon="22.594840"><ele>40.6</ele><time>2026-05-28T17:48:24Z</time></trkpt>
			<trkpt lat="54.837910" lon="22.596060"><ele>41.7</ele><time>2026-05-28T17:48:32Z</time></trkpt>
			<trkpt lat="54.837720" lon="22.597430"><ele>42.9</ele><time>2026-05-28T17:48:39Z</time></trkpt>
			<trkpt lat="54.837720" lon="22.597530"><ele>43.0</ele><time>2026-05-28T17:48:46Z</time></trkpt>
			<trkpt lat="54.837740" lon="22.597560"><ele>43.0</ele><time>2026-05-28T17:48:54Z</time></trkpt>
			<trkpt lat="54.837770" lon="22.597580"><ele>43.1</ele><time>2026-05-28T17:49:01Z</time></trkpt>
			<trkpt lat="54.838890" lon="22.598250"><ele>44.8</ele><time>2026-05-28T17:49:09Z</time></trkpt>
			<trkpt lat="54.840000" lon="22.598980"><ele>46.6</ele><time>2026-05-28T17:49:16Z</time></trkpt>
			<trkpt lat="54.840470" lon="22.599310"><ele>46.6</ele><time>2026-05-28T17:49:24Z</time></trkpt>
			<trkpt lat="54.840690" lon="22.599470"><ele>46.5</ele><time>2026-05-28T17:49:31Z</time></trkpt>
			<trkpt lat="54.841310" lon="22.599900"><ele>46.3</ele><time>2026-05-28T17:49:39Z</time></trkpt>
			<trkpt lat="54.841640" lon="22.600130"><ele>46.1</ele><time>2026-05-28T17:49:46Z</time></trkpt>
			<trkpt lat="54.841990" lon="22.600370"><ele>46.0</ele><time>2026-05-28T17:49:54Z</time></trkpt>
			<trkpt lat="54.842430" lon="22.600680"><ele>45.8</ele><time>2026-05-28T17:50:01Z</time></trkpt>
			<trkpt lat="54.842770" lon="22.600910"><ele>45.7</ele><time>2026-05-28T17:50:09Z</time></trkpt>
			<trkpt lat="54.843020" lon="22.601080"><ele>45.6</ele><time>2026-05-28T17:50:16Z</time></trkpt>
			<trkpt lat="54.843580" lon="22.601460"><ele>45.4</ele><time>2026-05-28T17:50:24Z</time></trkpt>
			<trkpt lat="54.844170" lon="22.601870"><ele>45.1</ele><time>2026-05-28T17:50:31Z</time></trkpt>
			<trkpt lat="54.844380" lon="22.602020"><ele>45.1</ele><time>2026-05-28T17:50:39Z</time></trkpt>
			<trkpt lat="54.844430" lon="22.602050"><ele>45.0</ele><time>2026-05-28T17:50:46Z</time></trkpt>
			<trkpt lat="54.845040" lon="22.602500"><ele>44.8</ele><time>2026-05-28T17:50:54Z</time></trkpt>
			<trkpt lat="54.845130" lon="22.602560"><ele>44.8</ele><time>2026-05-28T17:51:01Z</time></trkpt>
			<trkpt lat="54.845320" lon="22.602740"><ele>44.6</ele><time>2026-05-28T17:51:09Z</time></trkpt>
			<trkpt lat="54.845480" lon="22.602940"><ele>44.5</ele><time>2026-05-28T17:51:16Z</time></trkpt>
			<trkpt lat="54.845550" lon="22.603050"><ele>44.5</ele><time>2026-05-28T17:51:23Z</time></trkpt>
			<trkpt lat="54.845680" lon="22.603250"><ele>44.4</ele><time>2026-05-28T17:51:31Z</time></trkpt>
			<trkpt lat="54.846150" lon="22.604030"><ele>44.0</ele><time>2026-05-28T17:51:38Z</time></trkpt>
			<trkpt lat="54.846310" lon="22.604310"><ele>43.9</ele><time>2026-05-28T17:51:46Z</time></trkpt>
			<trkpt lat="54.846960" lon="22.605380"><ele>43.4</ele><time>2026-05-28T17:51:53Z</time></trkpt>
			<trkpt lat="54.847640" lon="22.606490"><ele>42.9</ele><time>2026-05-28T17:52:01Z</time></trkpt>
			<trkpt lat="54.848380" lon="22.607710"><ele>42.3</ele><time>2026-05-28T17:52:08Z</time></trkpt>
			<trkpt lat="54.849360" lon="22.609340"><ele>41.4</ele><time>2026-05-28T17:52:16Z</time></trkpt>
			<trkpt lat="54.849710" lon="22.609870"><ele>41.0</ele><time>2026-05-28T17:52:23Z</time></trkpt>
			<trkpt lat="54.849760" lon="22.609950"><ele>40.9</ele><time>2026-05-28T17:52:31Z</time></trkpt>
			<trkpt lat="54.853020" lon="22.613750"><ele>37.3</ele><time>2026-05-28T17:52:38Z</time></trkpt>
			<trkpt lat="54.854080" lon="22.615000"><ele>36.8</ele><time>2026-05-28T17:52:46Z</time></trkpt>
			<trkpt lat="54.855420" lon="22.616550"><ele>36.8</ele><time>2026-05-28T17:52:53Z</time></trkpt>
			<trkpt lat="54.856270" lon="22.617550"><ele>36.8</ele><time>2026-05-28T17:53:01Z</time></trkpt>
			<trkpt lat="54.857660" lon="22.619150"><ele>36.8</ele><time>2026-05-28T17:53:08Z</time></trkpt>
			<trkpt lat="54.858500" lon="22.620110"><ele>37.1</ele><time>2026-05-28T17:53:16Z</time></trkpt>
			<trkpt lat="54.858930" lon="22.620620"><ele>37.4</ele><time>2026-05-28T17:53:23Z</time></trkpt>
			<trkpt lat="54.859310" lon="22.621190"><ele>37.6</ele><time>2026-05-28T17:53:31Z</time></trkpt>
			<trkpt lat="54.859550" lon="22.621560"><ele>37.8</ele><time>2026-05-28T17:53:38Z</time></trkpt>
			<trkpt lat="54.859660" lon="22.621760"><ele>37.9</ele><time>2026-05-28T17:53:46Z</time></trkpt>
			<trkpt lat="54.860180" lon="22.622840"><ele>38.2</ele><time>2026-05-28T17:53:53Z</time></trkpt>
			<trkpt lat="54.862560" lon="22.628060"><ele>39.1</ele><time>2026-05-28T17:54:00Z</time></trkpt>
			<trkpt lat="54.863400" lon="22.629870"><ele>38.8</ele><time>2026-05-28T17:54:08Z</time></trkpt>
			<trkpt lat="54.863580" lon="22.630240"><ele>38.7</ele><time>2026-05-28T17:54:15Z</time></trkpt>
			<trkpt lat="54.863770" lon="22.630590"><ele>38.7</ele><time>2026-05-28T17:54:23Z</time></trkpt>
			<trkpt lat="54.863920" lon="22.630780"><ele>38.6</ele><time>2026-05-28T17:54:30Z</time></trkpt>
			<trkpt lat="54.864310" lon="22.631250"><ele>38.5</ele><time>2026-05-28T17:54:38Z</time></trkpt>
			<trkpt lat="54.864470" lon="22.631400"><ele>38.5</ele><time>2026-05-28T17:54:45Z</time></trkpt>
			<trkpt lat="54.864640" lon="22.631510"><ele>38.5</ele><time>2026-05-28T17:54:53Z</time></trkpt>
			<trkpt lat="54.864870" lon="22.631620"><ele>38.4</ele><time>2026-05-28T17:55:00Z</time></trkpt>
			<trkpt lat="54.865100" lon="22.631710"><ele>38.3</ele><time>2026-05-28T17:55:08Z</time></trkpt>
			<trkpt lat="54.866240" lon="22.632060"><ele>38.2</ele><time>2026-05-28T17:55:15Z</time></trkpt>
			<trkpt lat="54.867520" lon="22.632420"><ele>38.4</ele><time>2026-05-28T17:55:23Z</time></trkpt>
			<trkpt lat="54.871290" lon="22.633760"><ele>38.7</ele><time>2026-05-28T17:55:30Z</time></trkpt>
			<trkpt lat="54.871740" lon="22.633870"><ele>38.6</ele><time>2026-05-28T17:55:38Z</time></trkpt>
			<trkpt lat="54.878090" lon="22.634800"><ele>38.2</ele><time>2026-05-28T17:55:45Z</time></trkpt>
			<trkpt lat="54.880420" lon="22.635130"><ele>38.9</ele><time>2026-05-28T17:55:53Z</time></trkpt>
			<trkpt lat="54.881000" lon="22.635200"><ele>39.1</ele><time>2026-05-28T17:56:00Z</time></trkpt>
			<trkpt lat="54.881300" lon="22.635220"><ele>39.1</ele><time>2026-05-28T17:56:08Z</time></trkpt>
			<trkpt lat="54.881590" lon="22.635200"><ele>39.2</ele><time>2026-05-28T17:56:15Z</time></trkpt>
			<trkpt lat="54.882910" lon="22.634940"><ele>39.6</ele><time>2026-05-28T17:56:22Z</time></trkpt>
			<trkpt lat="54.884100" lon="22.634730"><ele>39.8</ele><time>2026-05-28T17:56:30Z</time></trkpt>
			<trkpt lat="54.884280" lon="22.634730"><ele>39.9</ele><time>2026-05-28T17:56:37Z</time></trkpt>
			<trkpt lat="54.884540" lon="22.634780"><ele>39.9</ele><time>2026-05-28T17:56:45Z</time></trkpt>
			<trkpt lat="54.884600" lon="22.634770"><ele>39.9</ele><time>2026-05-28T17:56:52Z</time></trkpt>
			<trkpt lat="54.884720" lon="22.634720"><ele>40.0</ele><time>2026-05-28T17:57:00Z</time></trkpt>
			<trkpt lat="54.884780" lon="22.634690"><ele>40.0</ele><time>2026-05-28T17:57:07Z</time></trkpt>
			<trkpt lat="54.886330" lon="22.633640"><ele>40.4</ele><time>2026-05-28T17:57:15Z</time></trkpt>
			<trkpt lat="54.886520" lon="22.633540"><ele>40.4</ele><time>2026-05-28T17:57:22Z</time></trkpt>
			<trkpt lat="54.886720" lon="22.633470"><ele>40.5</ele><time>2026-05-28T17:57:30Z</time></trkpt>
			<trkpt lat="54.886930" lon="22.633420"><ele>40.5</ele><time>2026-05-28T17:57:37Z</time></trkpt>
			<trkpt lat="54.887290" lon="22.633400"><ele>40.4</ele><time>2026-05-28T17:57:45Z</time></trkpt>
			<trkpt lat="54.887350" lon="22.633400"><ele>40.3</ele><time>2026-05-28T17:57:52Z</time></trkpt>
			<trkpt lat="54.888080" lon="22.633500"><ele>39.8</ele><time>2026-05-28T17:58:00Z</time></trkpt>
			<trkpt lat="54.888560" lon="22.633530"><ele>39.4</ele><time>2026-05-28T17:58:07Z</time></trkpt>
			<trkpt lat="54.888700" lon="22.633500"><ele>39.3</ele><time>2026-05-28T17:58:15Z</time></trkpt>
			<trkpt lat="54.888900" lon="22.633450"><ele>39.2</ele><time>2026-05-28T17:58:22Z</time></trkpt>
			<trkpt lat="54.889350" lon="22.633300"><ele>38.8</ele><time>2026-05-28T17:58:30Z</time></trkpt>
			<trkpt lat="54.895810" lon="22.630920"><ele>34.0</ele><time>2026-05-28T17:58:37Z</time></trkpt>
			<trkpt lat="54.896670" lon="22.630580"><ele>33.4</ele><time>2026-05-28T17:58:45Z</time></trkpt>
			<trkpt lat="54.898250" lon="22.629980"><ele>32.7</ele><time>2026-05-28T17:58:52Z</time></trkpt>
			<trkpt lat="54.898750" lon="22.629850"><ele>32.9</ele><time>2026-05-28T17:58:59Z</time></trkpt>
			<trkpt lat="54.899300" lon="22.629870"><ele>33.0</ele><time>2026-05-28T17:59:07Z</time></trkpt>
			<trkpt lat="54.899810" lon="22.630090"><ele>33.1</ele><time>2026-05-28T17:59:14Z</time></trkpt>
			<trkpt lat="54.900390" lon="22.630550"><ele>33.2</ele><time>2026-05-28T17:59:22Z</time></trkpt>
			<trkpt lat="54.900980" lon="22.631360"><ele>33.4</ele><time>2026-05-28T17:59:29Z</time></trkpt>
			<trkpt lat="54.903120" lon="22.634830"><ele>33.5</ele><time>2026-05-28T17:59:37Z</time></trkpt>
			<trkpt lat="54.903170" lon="22.634740"><ele>33.5</ele><time>2026-05-28T17:59:44Z</time></trkpt>
			<trkpt lat="54.903830" lon="22.633560"><ele>33.2</ele><time>2026-05-28T17:59:52Z</time></trkpt>
			<trkpt lat="54.908790" lon="22.624640"><ele>33.5</ele><time>2026-05-28T17:59:59Z</time></trkpt>
			<trkpt lat="54.908790" lon="22.624640"><ele>33.5</ele><time>2026-05-28T18:00:08Z</time></trkpt>
			<trkpt lat="54.912760" lon="22.617480"><ele>33.7</ele><time>2026-05-28T18:00:17Z</time></trkpt>
			<trkpt lat="54.914660" lon="22.614050"><ele>33.0</ele><time>2026-05-28T18:00:25Z</time></trkpt>
			<trkpt lat="54.914790" lon="22.613780"><ele>33.0</ele><time>2026-05-28T18:00:34Z</time></trkpt>
			<trkpt lat="54.915230" lon="22.612780"><ele>32.7</ele><time>2026-05-28T18:00:43Z</time></trkpt>
			<trkpt lat="54.916910" lon="22.608920"><ele>31.6</ele><time>2026-05-28T18:00:52Z</time></trkpt>
			<trkpt lat="54.920390" lon="22.600910"><ele>31.1</ele><time>2026-05-28T18:01:00Z</time></trkpt>
			<trkpt lat="54.920710" lon="22.600170"><ele>31.2</ele><time>2026-05-28T18:01:09Z</time></trkpt>
			<trkpt lat="54.921690" lon="22.598410"><ele>31.6</ele><time>2026-05-28T18:01:18Z</time></trkpt>
			<trkpt lat="54.923780" lon="22.594660"><ele>32.2</ele><time>2026-05-28T18:01:27Z</time></trkpt>
			<trkpt lat="54.924440" lon="22.593470"><ele>32.7</ele><time>2026-05-28T18:01:35Z</time></trkpt>
			<trkpt lat="54.924510" lon="22.593320"><ele>32.7</ele><time>2026-05-28T18:01:44Z</time></trkpt>
			<trkpt lat="54.924610" lon="22.593130"><ele>32.8</ele><time>2026-05-28T18:01:53Z</time></trkpt>
			<trkpt lat="54.924910" lon="22.592430"><ele>33.1</ele><time>2026-05-28T18:02:01Z</time></trkpt>
			<trkpt lat="54.926030" lon="22.589690"><ele>34.3</ele><time>2026-05-28T18:02:10Z</time></trkpt>
			<trkpt lat="54.927760" lon="22.585410"><ele>35.0</ele><time>2026-05-28T18:02:19Z</time></trkpt>
			<trkpt lat="54.928230" lon="22.584250"><ele>34.5</ele><time>2026-05-28T18:02:28Z</time></trkpt>
			<trkpt lat="54.928920" lon="22.582530"><ele>33.8</ele><time>2026-05-28T18:02:36Z</time></trkpt>
			<trkpt lat="54.929330" lon="22.581520"><ele>33.4</ele><time>2026-05-28T18:02:45Z</time></trkpt>
			<trkpt lat="54.929740" lon="22.580490"><ele>33.0</ele><time>2026-05-28T18:02:54Z</time></trkpt>
			<trkpt lat="54.929780" lon="22.580410"><ele>32.9</ele><time>2026-05-28T18:03:03Z</time></trkpt>
			<trkpt lat="54.930940" lon="22.577510"><ele>31.8</ele><time>2026-05-28T18:03:11Z</time></trkpt>
			<trkpt lat="54.932100" lon="22.574680"><ele>30.7</ele><time>2026-05-28T18:03:20Z</time></trkpt>
			<trkpt lat="54.932440" lon="22.573670"><ele>30.4</ele><time>2026-05-28T18:03:29Z</time></trkpt>
			<trkpt lat="54.932720" lon="22.572580"><ele>30.0</ele><time>2026-05-28T18:03:38Z</time></trkpt>
			<trkpt lat="54.933380" lon="22.570080"><ele>29.3</ele><time>2026-05-28T18:03:46Z</time></trkpt>
			<trkpt lat="54.935000" lon="22.563870"><ele>27.9</ele><time>2026-05-28T18:03:55Z</time></trkpt>
			<trkpt lat="54.935490" lon="22.561850"><ele>27.9</ele><time>2026-05-28T18:04:04Z</time></trkpt>
			<trkpt lat="54.935690" lon="22.560940"><ele>28.4</ele><time>2026-05-28T18:04:12Z</time></trkpt>
			<trkpt lat="54.935830" lon="22.560400"><ele>28.7</ele><time>2026-05-28T18:04:21Z</time></trkpt>
			<trkpt lat="54.936520" lon="22.558300"><ele>30.0</ele><time>2026-05-28T18:04:30Z</time></trkpt>
			<trkpt lat="54.937080" lon="22.556050"><ele>31.3</ele><time>2026-05-28T18:04:39Z</time></trkpt>
			<trkpt lat="54.937370" lon="22.555010"><ele>31.9</ele><time>2026-05-28T18:04:47Z</time></trkpt>
			<trkpt lat="54.937630" lon="22.554020"><ele>32.5</ele><time>2026-05-28T18:04:56Z</time></trkpt>
			<trkpt lat="54.937950" lon="22.552850"><ele>34.6</ele><time>2026-05-28T18:05:05Z</time></trkpt>
			<trkpt lat="54.939180" lon="22.548430"><ele>42.9</ele><time>2026-05-28T18:05:14Z</time></trkpt>
			<trkpt lat="54.939260" lon="22.547920"><ele>43.7</ele><time>2026-05-28T18:05:22Z</time></trkpt>
			<trkpt lat="54.939320" lon="22.547320"><ele>44.8</ele><time>2026-05-28T18:05:31Z</time></trkpt>
			<trkpt lat="54.939310" lon="22.545230"><ele>48.3</ele><time>2026-05-28T18:05:40Z</time></trkpt>
			<trkpt lat="54.939280" lon="22.541370"><ele>46.8</ele><time>2026-05-28T18:05:48Z</time></trkpt>
			<trkpt lat="54.939260" lon="22.539580"><ele>46.1</ele><time>2026-05-28T18:05:57Z</time></trkpt>
			<trkpt lat="54.939250" lon="22.538690"><ele>45.7</ele><time>2026-05-28T18:06:06Z</time></trkpt>
			<trkpt lat="54.939200" lon="22.534040"><ele>44.3</ele><time>2026-05-28T18:06:15Z</time></trkpt>
			<trkpt lat="54.939150" lon="22.530440"><ele>43.8</ele><time>2026-05-28T18:06:23Z</time></trkpt>
			<trkpt lat="54.939140" lon="22.527960"><ele>43.5</ele><time>2026-05-28T18:06:32Z</time></trkpt>
			<trkpt lat="54.939170" lon="22.526500"><ele>43.3</ele><time>2026-05-28T18:06:41Z</time></trkpt>
			<trkpt lat="54.939230" lon="22.525710"><ele>42.6</ele><time>2026-05-28T18:06:50Z</time></trkpt>
			<trkpt lat="54.939470" lon="22.524160"><ele>41.2</ele><time>2026-05-28T18:06:58Z</time></trkpt>
			<trkpt lat="54.939610" lon="22.523420"><ele>40.5</ele><time>2026-05-28T18:07:07Z</time></trkpt>
			<trkpt lat="54.940020" lon="22.521530"><ele>38.7</ele><time>2026-05-28T18:07:16Z</time></trkpt>
			<trkpt lat="54.940980" lon="22.516910"><ele>34.4</ele><time>2026-05-28T18:07:25Z</time></trkpt>
			<trkpt lat="54.941580" lon="22.514360"><ele>32.5</ele><time>2026-05-28T18:07:33Z</time></trkpt>
			<trkpt lat="54.941720" lon="22.513860"><ele>32.1</ele><time>2026-05-28T18:07:42Z</time></trkpt>
			<trkpt lat="54.942620" lon="22.510130"><ele>29.2</ele><time>2026-05-28T18:07:51Z</time></trkpt>
			<trkpt lat="54.943030" lon="22.508530"><ele>28.2</ele><time>2026-05-28T18:07:59Z</time></trkpt>
			<trkpt lat="54.943340" lon="22.507340"><ele>28.1</ele><time>2026-05-28T18:08:08Z</time></trkpt>
			<trkpt lat="54.943470" lon="22.506690"><ele>28.1</ele><time>2026-05-28T18:08:17Z</time></trkpt>
			<trkpt lat="54.943610" lon="22.506020"><ele>28.1</ele><time>2026-05-28T18:08:26Z</time></trkpt>
			<trkpt lat="54.943990" lon="22.504180"><ele>28.0</ele><time>2026-05-28T18:08:34Z</time></trkpt>
			<trkpt lat="54.944080" lon="22.503780"><ele>27.9</ele><time>2026-05-28T18:08:43Z</time></trkpt>
			<trkpt lat="54.944180" lon="22.503490"><ele>27.9</ele><time>2026-05-28T18:08:52Z</time></trkpt>
			<trkpt lat="54.944390" lon="22.503020"><ele>27.9</ele><time>2026-05-28T18:09:01Z</time></trkpt>
			<trkpt lat="54.944630" lon="22.502440"><ele>27.9</ele><time>2026-05-28T18:09:09Z</time></trkpt>
			<trkpt lat="54.944680" lon="22.502300"><ele>27.8</ele><time>2026-05-28T18:09:18Z</time></trkpt>
			<trkpt lat="54.944720" lon="22.502110"><ele>27.8</ele><time>2026-05-28T18:09:27Z</time></trkpt>
			<trkpt lat="54.944770" lon="22.501410"><ele>27.8</ele><time>2026-05-28T18:09:35Z</time></trkpt>
			<trkpt lat="54.944750" lon="22.500840"><ele>27.8</ele><time>2026-05-28T18:09:44Z</time></trkpt>
			<trkpt lat="54.944740" lon="22.500630"><ele>27.8</ele><time>2026-05-28T18:09:53Z</time></trkpt>
			<trkpt lat="54.944680" lon="22.499970"><ele>27.6</ele><time>2026-05-28T18:10:02Z</time></trkpt>
			<trkpt lat="54.944590" lon="22.499510"><ele>27.2</ele><time>2026-05-28T18:10:10Z</time></trkpt>
			<trkpt lat="54.944520" lon="22.499180"><ele>26.8</ele><time>2026-05-28T18:10:19Z</time></trkpt>
			<trkpt lat="54.944260" lon="22.497970"><ele>25.7</ele><time>2026-05-28T18:10:28Z</time></trkpt>
			<trkpt lat="54.944140" lon="22.497410"><ele>25.1</ele><time>2026-05-28T18:10:37Z</time></trkpt>
			<trkpt lat="54.944910" lon="22.497560"><ele>23.9</ele><time>2026-05-28T18:10:45Z</time></trkpt>
			<trkpt lat="54.945190" lon="22.497610"><ele>23.5</ele><time>2026-05-28T18:10:54Z</time></trkpt>
			<trkpt lat="54.945350" lon="22.497600"><ele>23.2</ele><time>2026-05-28T18:11:03Z</time></trkpt>
			<trkpt lat="54.945470" lon="22.497590"><ele>23.0</ele><time>2026-05-28T18:11:12Z</time></trkpt>
			<trkpt lat="54.946260" lon="22.497330"><ele>21.7</ele><time>2026-05-28T18:11:20Z</time></trkpt>
			<trkpt lat="54.946460" lon="22.497250"><ele>21.4</ele><time>2026-05-28T18:11:29Z</time></trkpt>
			<trkpt lat="54.947250" lon="22.496920"><ele>20.1</ele><time>2026-05-28T18:11:38Z</time></trkpt>
			<trkpt lat="54.948040" lon="22.496650"><ele>19.5</ele><time>2026-05-28T18:11:46Z</time></trkpt>
			<trkpt lat="54.948350" lon="22.496520"><ele>20.0</ele><time>2026-05-28T18:11:55Z</time></trkpt>
			<trkpt lat="54.949280" lon="22.496150"><ele>21.4</ele><time>2026-05-28T18:12:04Z</time></trkpt>
			<trkpt lat="54.949390" lon="22.496130"><ele>21.6</ele><time>2026-05-28T18:12:13Z</time></trkpt>
			<trkpt lat="54.949890" lon="22.496190"><ele>22.4</ele><time>2026-05-28T18:12:21Z</time></trkpt>
			<trkpt lat="54.950040" lon="22.496080"><ele>22.6</ele><time>2026-05-28T18:12:30Z</time></trkpt>
			<trkpt lat="54.950180" lon="22.495930"><ele>22.9</ele><time>2026-05-28T18:12:39Z</time></trkpt>
			<trkpt lat="54.950730" lon="22.495260"><ele>23.9</ele><time>2026-05-28T18:12:48Z</time></trkpt>
			<trkpt lat="54.950940" lon="22.495000"><ele>24.3</ele><time>2026-05-28T18:12:56Z</time></trkpt>
			<trkpt lat="54.951070" lon="22.494870"><ele>24.5</ele><time>2026-05-28T18:13:05Z</time></trkpt>
			<trkpt lat="54.951160" lon="22.494790"><ele>24.6</ele><time>2026-05-28T18:13:14Z</time></trkpt>
			<trkpt lat="54.953120" lon="22.493810"><ele>27.2</ele><time>2026-05-28T18:13:22Z</time></trkpt>
			<trkpt lat="54.955110" lon="22.492840"><ele>26.5</ele><time>2026-05-28T18:13:31Z</time></trkpt>
			<trkpt lat="54.955660" lon="22.492560"><ele>26.3</ele><time>2026-05-28T18:13:40Z</time></trkpt>
			<trkpt lat="54.955800" lon="22.492460"><ele>26.2</ele><time>2026-05-28T18:13:49Z</time></trkpt>
			<trkpt lat="54.955950" lon="22.492280"><ele>26.1</ele><time>2026-05-28T18:13:57Z</time></trkpt>
			<trkpt lat="54.956980" lon="22.490840"><ele>25.6</ele><time>2026-05-28T18:14:06Z</time></trkpt>
			<trkpt lat="54.957100" lon="22.490700"><ele>25.6</ele><time>2026-05-28T18:14:15Z</time></trkpt>
			<trkpt lat="54.957220" lon="22.490600"><ele>25.5</ele><time>2026-05-28T18:14:24Z</time></trkpt>
			<trkpt lat="54.958670" lon="22.489710"><ele>25.3</ele><time>2026-05-28T18:14:32Z</time></trkpt>
			<trkpt lat="54.962270" lon="22.487830"><ele>25.0</ele><time>2026-05-28T18:14:41Z</time></trkpt>
			<trkpt lat="54.966800" lon="22.485520"><ele>25.6</ele><time>2026-05-28T18:14:50Z</time></trkpt>
			<trkpt lat="54.974050" lon="22.481810"><ele>23.2</ele><time>2026-05-28T18:14:59Z</time></trkpt>
			<trkpt lat="54.974170" lon="22.481750"><ele>23.3</ele><time>2026-05-28T18:15:07Z</time></trkpt>
			<trkpt lat="54.974470" lon="22.481550"><ele>23.6</ele><time>2026-05-28T18:15:16Z</time></trkpt>
			<trkpt lat="54.974800" lon="22.481270"><ele>23.9</ele><time>2026-05-28T18:15:25Z</time></trkpt>
			<trkpt lat="54.975570" lon="22.480530"><ele>24.6</ele><time>2026-05-28T18:15:33Z</time></trkpt>
			<trkpt lat="54.975610" lon="22.480480"><ele>24.6</ele><time>2026-05-28T18:15:42Z</time></trkpt>
			<trkpt lat="54.976120" lon="22.479870"><ele>25.1</ele><time>2026-05-28T18:15:51Z</time></trkpt>
			<trkpt lat="54.977900" lon="22.477710"><ele>26.9</ele><time>2026-05-28T18:16:00Z</time></trkpt>
			<trkpt lat="54.978080" lon="22.477460"><ele>26.9</ele><time>2026-05-28T18:16:08Z</time></trkpt>
			<trkpt lat="54.978220" lon="22.477210"><ele>26.9</ele><time>2026-05-28T18:16:17Z</time></trkpt>
			<trkpt lat="54.978320" lon="22.476950"><ele>26.8</ele><time>2026-05-28T18:16:26Z</time></trkpt>
			<trkpt lat="54.978680" lon="22.475980"><ele>26.6</ele><time>2026-05-28T18:16:35Z</time></trkpt>
			<trkpt lat="54.979260" lon="22.474360"><ele>26.3</ele><time>2026-05-28T18:16:43Z</time></trkpt>
			<trkpt lat="54.979600" lon="22.473290"><ele>26.1</ele><time>2026-05-28T18:16:52Z</time></trkpt>
			<trkpt lat="54.980070" lon="22.471660"><ele>25.7</ele><time>2026-05-28T18:17:01Z</time></trkpt>
			<trkpt lat="54.980200" lon="22.471130"><ele>25.6</ele><time>2026-05-28T18:17:09Z</time></trkpt>
			<trkpt lat="54.980440" lon="22.470040"><ele>25.4</ele><time>2026-05-28T18:17:18Z</time></trkpt>
			<trkpt lat="54.981850" lon="22.463380"><ele>24.3</ele><time>2026-05-28T18:17:27Z</time></trkpt>
			<trkpt lat="54.982730" lon="22.458970"><ele>25.2</ele><time>2026-05-28T18:17:36Z</time></trkpt>
			<trkpt lat="54.983020" lon="22.457860"><ele>26.2</ele><time>2026-05-28T18:17:44Z</time></trkpt>
			<trkpt lat="54.983250" lon="22.457470"><ele>26.7</ele><time>2026-05-28T18:17:53Z</time></trkpt>
			<trkpt lat="54.983510" lon="22.457250"><ele>27.1</ele><time>2026-05-28T18:18:02Z</time></trkpt>
			<trkpt lat="54.983890" lon="22.457170"><ele>27.6</ele><time>2026-05-28T18:18:11Z</time></trkpt>
			<trkpt lat="54.991610" lon="22.457060"><ele>28.7</ele><time>2026-05-28T18:18:19Z</time></trkpt>
			<trkpt lat="54.992820" lon="22.457150"><ele>28.9</ele><time>2026-05-28T18:18:28Z</time></trkpt>
			<trkpt lat="54.995600" lon="22.457100"><ele>30.6</ele><time>2026-05-28T18:18:37Z</time></trkpt>
			<trkpt lat="54.996380" lon="22.457120"><ele>31.1</ele><time>2026-05-28T18:18:46Z</time></trkpt>
			<trkpt lat="55.000030" lon="22.456940"><ele>33.5</ele><time>2026-05-28T18:18:54Z</time></trkpt>
			<trkpt lat="55.005390" lon="22.456840"><ele>39.8</ele><time>2026-05-28T18:19:03Z</time></trkpt>
			<trkpt lat="55.005390" lon="22.456840"><ele>39.8</ele><time>2026-05-28T18:19:09Z</time></trkpt>
			<trkpt lat="55.008710" lon="22.456780"><ele>43.8</ele><time>2026-05-28T18:19:15Z</time></trkpt>
			<trkpt lat="55.010100" lon="22.456750"><ele>41.0</ele><time>2026-05-28T18:19:22Z</time></trkpt>
			<trkpt lat="55.014370" lon="22.456680"><ele>34.7</ele><time>2026-05-28T18:19:28Z</time></trkpt>
			<trkpt lat="55.015950" lon="22.456640"><ele>36.8</ele><time>2026-05-28T18:19:34Z</time></trkpt>
			<trkpt lat="55.018720" lon="22.456580"><ele>40.4</ele><time>2026-05-28T18:19:40Z</time></trkpt>
			<trkpt lat="55.024170" lon="22.456490"><ele>42.9</ele><time>2026-05-28T18:19:46Z</time></trkpt>
			<trkpt lat="55.028880" lon="22.456380"><ele>34.4</ele><time>2026-05-28T18:19:53Z</time></trkpt>
			<trkpt lat="55.030310" lon="22.456290"><ele>33.2</ele><time>2026-05-28T18:19:59Z</time></trkpt>
			<trkpt lat="55.030310" lon="22.455360"><ele>34.0</ele><time>2026-05-28T18:20:05Z</time></trkpt>
			<trkpt lat="55.030340" lon="22.450710"><ele>38.0</ele><time>2026-05-28T18:20:11Z</time></trkpt>
			<trkpt lat="55.030500" lon="22.450060"><ele>38.6</ele><time>2026-05-28T18:20:17Z</time></trkpt>
			<trkpt lat="55.031250" lon="22.448380"><ele>40.4</ele><time>2026-05-28T18:20:24Z</time></trkpt>
			<trkpt lat="55.032630" lon="22.445550"><ele>38.1</ele><time>2026-05-28T18:20:30Z</time></trkpt>
			<trkpt lat="55.034390" lon="22.440820"><ele>34.0</ele><time>2026-05-28T18:20:36Z</time></trkpt>
			<trkpt lat="55.035370" lon="22.437710"><ele>34.0</ele><time>2026-05-28T18:20:42Z</time></trkpt>
			<trkpt lat="55.035910" lon="22.435980"><ele>34.2</ele><time>2026-05-28T18:20:48Z</time></trkpt>
			<trkpt lat="55.036150" lon="22.435460"><ele>34.3</ele><time>2026-05-28T18:20:55Z</time></trkpt>
			<trkpt lat="55.036590" lon="22.434880"><ele>34.3</ele><time>2026-05-28T18:21:01Z</time></trkpt>
			<trkpt lat="55.036850" lon="22.434420"><ele>34.4</ele><time>2026-05-28T18:21:07Z</time></trkpt>
			<trkpt lat="55.037050" lon="22.433960"><ele>34.4</ele><time>2026-05-28T18:21:13Z</time></trkpt>
			<trkpt lat="55.037500" lon="22.432970"><ele>34.5</ele><time>2026-05-28T18:21:19Z</time></trkpt>
			<trkpt lat="55.038490" lon="22.430860"><ele>33.8</ele><time>2026-05-28T18:21:26Z</time></trkpt>
			<trkpt lat="55.038920" lon="22.430090"><ele>33.5</ele><time>2026-05-28T18:21:32Z</time></trkpt>
			<trkpt lat="55.039320" lon="22.429250"><ele>33.2</ele><time>2026-05-28T18:21:38Z</time></trkpt>
			<trkpt lat="55.040220" lon="22.427060"><ele>32.5</ele><time>2026-05-28T18:21:44Z</time></trkpt>
			<trkpt lat="55.040590" lon="22.426340"><ele>32.2</ele><time>2026-05-28T18:21:50Z</time></trkpt>
			<trkpt lat="55.040810" lon="22.426080"><ele>32.1</ele><time>2026-05-28T18:21:57Z</time></trkpt>
			<trkpt lat="55.041770" lon="22.425340"><ele>30.4</ele><time>2026-05-28T18:22:03Z</time></trkpt>
			<trkpt lat="55.041870" lon="22.425230"><ele>30.1</ele><time>2026-05-28T18:22:09Z</time></trkpt>
			<trkpt lat="55.042110" lon="22.424880"><ele>29.5</ele><time>2026-05-28T18:22:15Z</time></trkpt>
			<trkpt lat="55.043910" lon="22.422210"><ele>24.6</ele><time>2026-05-28T18:22:21Z</time></trkpt>
			<trkpt lat="55.044650" lon="22.420950"><ele>22.4</ele><time>2026-05-28T18:22:28Z</time></trkpt>
			<trkpt lat="55.045080" lon="22.420280"><ele>21.2</ele><time>2026-05-28T18:22:34Z</time></trkpt>
			<trkpt lat="55.045170" lon="22.420100"><ele>21.0</ele><time>2026-05-28T18:22:40Z</time></trkpt>
			<trkpt lat="55.045500" lon="22.419170"><ele>20.4</ele><time>2026-05-28T18:22:46Z</time></trkpt>
			<trkpt lat="55.045780" lon="22.418370"><ele>20.0</ele><time>2026-05-28T18:22:52Z</time></trkpt>
			<trkpt lat="55.046520" lon="22.416440"><ele>19.1</ele><time>2026-05-28T18:22:59Z</time></trkpt>
			<trkpt lat="55.048210" lon="22.411500"><ele>17.1</ele><time>2026-05-28T18:23:05Z</time></trkpt>
			<trkpt lat="55.048540" lon="22.410370"><ele>16.9</ele><time>2026-05-28T18:23:11Z</time></trkpt>
			<trkpt lat="55.048580" lon="22.410180"><ele>16.9</ele><time>2026-05-28T18:23:17Z</time></trkpt>
			<trkpt lat="55.048560" lon="22.409910"><ele>16.8</ele><time>2026-05-28T18:23:24Z</time></trkpt>
			<trkpt lat="55.048530" lon="22.409760"><ele>16.8</ele><time>2026-05-28T18:23:30Z</time></trkpt>
			<trkpt lat="55.048480" lon="22.409610"><ele>16.8</ele><time>2026-05-28T18:23:36Z</time></trkpt>
			<trkpt lat="55.048260" lon="22.409100"><ele>16.7</ele><time>2026-05-28T18:23:42Z</time></trkpt>
			<trkpt lat="55.047850" lon="22.407980"><ele>16.5</ele><time>2026-05-28T18:23:48Z</time></trkpt>
			<trkpt lat="55.047750" lon="22.407560"><ele>16.5</ele><time>2026-05-28T18:23:55Z</time></trkpt>
			<trkpt lat="55.047670" lon="22.407060"><ele>16.4</ele><time>2026-05-28T18:24:01Z</time></trkpt>
			<trkpt lat="55.047650" lon="22.406650"><ele>16.3</ele><time>2026-05-28T18:24:07Z</time></trkpt>
			<trkpt lat="55.047670" lon="22.406270"><ele>16.3</ele><time>2026-05-28T18:24:13Z</time></trkpt>
			<trkpt lat="55.047810" lon="22.405460"><ele>16.2</ele><time>2026-05-28T18:24:19Z</time></trkpt>
			<trkpt lat="55.047860" lon="22.405050"><ele>16.1</ele><time>2026-05-28T18:24:26Z</time></trkpt>
			<trkpt lat="55.047940" lon="22.404470"><ele>16.0</ele><time>2026-05-28T18:24:32Z</time></trkpt>
			<trkpt lat="55.048020" lon="22.404230"><ele>16.0</ele><time>2026-05-28T18:24:38Z</time></trkpt>
			<trkpt lat="55.048100" lon="22.404050"><ele>15.9</ele><time>2026-05-28T18:24:44Z</time></trkpt>
			<trkpt lat="55.048590" lon="22.402570"><ele>16.1</ele><time>2026-05-28T18:24:50Z</time></trkpt>
			<trkpt lat="55.048840" lon="22.401890"><ele>16.4</ele><time>2026-05-28T18:24:57Z</time></trkpt>
			<trkpt lat="55.049020" lon="22.401410"><ele>16.6</ele><time>2026-05-28T18:25:03Z</time></trkpt>
			<trkpt lat="55.049150" lon="22.400850"><ele>16.8</ele><time>2026-05-28T18:25:09Z</time></trkpt>
			<trkpt lat="55.049210" lon="22.400450"><ele>16.9</ele><time>2026-05-28T18:25:15Z</time></trkpt>
			<trkpt lat="55.049300" lon="22.399370"><ele>17.3</ele><time>2026-05-28T18:25:21Z</time></trkpt>
			<trkpt lat="55.049340" lon="22.398820"><ele>17.4</ele><time>2026-05-28T18:25:28Z</time></trkpt>
			<trkpt lat="55.049340" lon="22.398440"><ele>17.6</ele><time>2026-05-28T18:25:34Z</time></trkpt>
			<trkpt lat="55.049320" lon="22.398050"><ele>17.7</ele><time>2026-05-28T18:25:40Z</time></trkpt>
			<trkpt lat="55.049270" lon="22.397610"><ele>17.8</ele><time>2026-05-28T18:25:46Z</time></trkpt>
			<trkpt lat="55.049150" lon="22.396840"><ele>18.1</ele><time>2026-05-28T18:25:52Z</time></trkpt>
			<trkpt lat="55.049130" lon="22.396620"><ele>18.2</ele><time>2026-05-28T18:25:59Z</time></trkpt>
			<trkpt lat="55.049110" lon="22.396250"><ele>18.3</ele><time>2026-05-28T18:26:05Z</time></trkpt>
			<trkpt lat="55.049110" lon="22.395750"><ele>18.4</ele><time>2026-05-28T18:26:11Z</time></trkpt>
			<trkpt lat="55.049110" lon="22.395390"><ele>18.6</ele><time>2026-05-28T18:26:17Z</time></trkpt>
			<trkpt lat="55.049110" lon="22.394810"><ele>18.8</ele><time>2026-05-28T18:26:23Z</time></trkpt>
			<trkpt lat="55.049150" lon="22.394170"><ele>18.8</ele><time>2026-05-28T18:26:30Z</time></trkpt>
			<trkpt lat="55.049180" lon="22.393660"><ele>18.8</ele><time>2026-05-28T18:26:36Z</time></trkpt>
			<trkpt lat="55.049200" lon="22.393530"><ele>18.8</ele><time>2026-05-28T18:26:42Z</time></trkpt>
			<trkpt lat="55.049210" lon="22.393490"><ele>18.8</ele><time>2026-05-28T18:26:48Z</time></trkpt>
			<trkpt lat="55.049320" lon="22.393170"><ele>18.7</ele><time>2026-05-28T18:26:54Z</time></trkpt>
			<trkpt lat="55.049510" lon="22.392530"><ele>18.6</ele><time>2026-05-28T18:27:01Z</time></trkpt>
			<trkpt lat="55.049590" lon="22.392190"><ele>18.6</ele><time>2026-05-28T18:27:07Z</time></trkpt>
			<trkpt lat="55.049690" lon="22.391700"><ele>18.5</ele><time>2026-05-28T18:27:13Z</time></trkpt>
			<trkpt lat="55.049700" lon="22.391560"><ele>18.5</ele><time>2026-05-28T18:27:19Z</time></trkpt>
			<trkpt lat="55.049710" lon="22.390980"><ele>18.5</ele><time>2026-05-28T18:27:25Z</time></trkpt>
			<trkpt lat="55.049690" lon="22.389890"><ele>18.3</ele><time>2026-05-28T18:27:32Z</time></trkpt>
			<trkpt lat="55.049690" lon="22.389630"><ele>18.3</ele><time>2026-05-28T18:27:38Z</time></trkpt>
			<trkpt lat="55.049690" lon="22.389190"><ele>18.3</ele><time>2026-05-28T18:27:44Z</time></trkpt>
			<trkpt lat="55.049710" lon="22.388480"><ele>18.2</ele><time>2026-05-28T18:27:50Z</time></trkpt>
			<trkpt lat="55.049730" lon="22.388030"><ele>18.1</ele><time>2026-05-28T18:27:56Z</time></trkpt>
			<trkpt lat="55.049780" lon="22.387370"><ele>18.1</ele><time>2026-05-28T18:28:03Z</time></trkpt>
			<trkpt lat="55.049820" lon="22.387120"><ele>18.0</ele><time>2026-05-28T18:28:09Z</time></trkpt>
			<trkpt lat="55.050130" lon="22.386060"><ele>17.9</ele><time>2026-05-28T18:28:15Z</time></trkpt>
			<trkpt lat="55.050320" lon="22.385430"><ele>17.8</ele><time>2026-05-28T18:28:21Z</time></trkpt>
			<trkpt lat="55.050530" lon="22.384210"><ele>17.9</ele><time>2026-05-28T18:28:27Z</time></trkpt>
			<trkpt lat="55.050640" lon="22.383540"><ele>18.0</ele><time>2026-05-28T18:28:34Z</time></trkpt>
			<trkpt lat="55.050250" lon="22.383210"><ele>18.1</ele><time>2026-05-28T18:28:40Z</time></trkpt>
			<trkpt lat="55.049250" lon="22.382210"><ele>18.2</ele><time>2026-05-28T18:28:46Z</time></trkpt>
			<trkpt lat="55.048360" lon="22.381300"><ele>18.4</ele><time>2026-05-28T18:28:52Z</time></trkpt>
			<trkpt lat="55.048220" lon="22.381140"><ele>18.4</ele><time>2026-05-28T18:28:58Z</time></trkpt>
			<trkpt lat="55.048120" lon="22.380950"><ele>18.5</ele><time>2026-05-28T18:29:05Z</time></trkpt>
			<trkpt lat="55.047970" lon="22.380640"><ele>18.5</ele><time>2026-05-28T18:29:11Z</time></trkpt>
			<trkpt lat="55.047330" lon="22.378790"><ele>18.8</ele><time>2026-05-28T18:29:17Z</time></trkpt>
			<trkpt lat="55.046840" lon="22.377190"><ele>19.9</ele><time>2026-05-28T18:29:23Z</time></trkpt>
			<trkpt lat="55.046380" lon="22.375550"><ele>20.9</ele><time>2026-05-28T18:29:29Z</time></trkpt>
			<trkpt lat="55.045990" lon="22.374090"><ele>21.8</ele><time>2026-05-28T18:29:36Z</time></trkpt>
			<trkpt lat="55.045480" lon="22.372280"><ele>23.0</ele><time>2026-05-28T18:29:42Z</time></trkpt>
			<trkpt lat="55.045400" lon="22.372060"><ele>23.1</ele><time>2026-05-28T18:29:48Z</time></trkpt>
			<trkpt lat="55.045320" lon="22.371860"><ele>23.3</ele><time>2026-05-28T18:29:54Z</time></trkpt>
			<trkpt lat="55.045190" lon="22.371630"><ele>23.5</ele><time>2026-05-28T18:30:00Z</time></trkpt>
			<trkpt lat="55.045020" lon="22.371380"><ele>23.7</ele><time>2026-05-28T18:30:07Z</time></trkpt>
			<trkpt lat="55.043910" lon="22.370120"><ele>25.6</ele><time>2026-05-28T18:30:13Z</time></trkpt>
			<trkpt lat="55.043570" lon="22.369750"><ele>26.3</ele><time>2026-05-28T18:30:19Z</time></trkpt>
			<trkpt lat="55.043440" lon="22.369490"><ele>26.6</ele><time>2026-05-28T18:30:25Z</time></trkpt>
			<trkpt lat="55.043330" lon="22.369220"><ele>26.9</ele><time>2026-05-28T18:30:32Z</time></trkpt>
			<trkpt lat="55.042990" lon="22.368290"><ele>28.0</ele><time>2026-05-28T18:30:38Z</time></trkpt>
			<trkpt lat="55.042290" lon="22.366330"><ele>30.1</ele><time>2026-05-28T18:30:44Z</time></trkpt>
			<trkpt lat="55.042090" lon="22.365680"><ele>30.8</ele><time>2026-05-28T18:30:50Z</time></trkpt>
			<trkpt lat="55.042020" lon="22.365430"><ele>31.1</ele><time>2026-05-28T18:30:56Z</time></trkpt>
			<trkpt lat="55.041970" lon="22.365150"><ele>31.4</ele><time>2026-05-28T18:31:03Z</time></trkpt>
			<trkpt lat="55.041660" lon="22.363360"><ele>32.8</ele><time>2026-05-28T18:31:09Z</time></trkpt>
			<trkpt lat="55.041540" lon="22.362820"><ele>32.1</ele><time>2026-05-28T18:31:15Z</time></trkpt>
			<trkpt lat="55.041430" lon="22.362420"><ele>31.5</ele><time>2026-05-28T18:31:21Z</time></trkpt>
			<trkpt lat="55.041320" lon="22.362070"><ele>31.0</ele><time>2026-05-28T18:31:27Z</time></trkpt>
			<trkpt lat="55.040440" lon="22.359610"><ele>27.1</ele><time>2026-05-28T18:31:34Z</time></trkpt>
			<trkpt lat="55.039680" lon="22.354590"><ele>20.6</ele><time>2026-05-28T18:31:40Z</time></trkpt>
			<trkpt lat="55.039640" lon="22.354340"><ele>20.6</ele><time>2026-05-28T18:31:46Z</time></trkpt>
			<trkpt lat="55.039580" lon="22.354100"><ele>20.6</ele><time>2026-05-28T18:31:52Z</time></trkpt>
			<trkpt lat="55.039160" lon="22.352790"><ele>20.6</ele><time>2026-05-28T18:31:58Z</time></trkpt>
			<trkpt lat="55.039060" lon="22.352220"><ele>20.6</ele><time>2026-05-28T18:32:05Z</time></trkpt>
			<trkpt lat="55.039040" lon="22.351980"><ele>20.6</ele><time>2026-05-28T18:32:11Z</time></trkpt>
			<trkpt lat="55.038970" lon="22.351370"><ele>20.6</ele><time>2026-05-28T18:32:17Z</time></trkpt>
			<trkpt lat="55.038850" lon="22.350370"><ele>20.5</ele><time>2026-05-28T18:32:23Z</time></trkpt>
			<trkpt lat="55.038800" lon="22.350020"><ele>20.5</ele><time>2026-05-28T18:32:29Z</time></trkpt>
			<trkpt lat="55.038610" lon="22.348290"><ele>20.5</ele><time>2026-05-28T18:32:36Z</time></trkpt>
			<trkpt lat="55.038370" lon="22.346140"><ele>20.5</ele><time>2026-05-28T18:32:42Z</time></trkpt>
			<trkpt lat="55.037960" lon="22.341730"><ele>26.1</ele><time>2026-05-28T18:32:48Z</time></trkpt>
			<trkpt lat="55.037870" lon="22.340540"><ele>27.8</ele><time>2026-05-28T18:32:54Z</time></trkpt>
			<trkpt lat="55.037820" lon="22.340120"><ele>28.4</ele><time>2026-05-28T18:33:00Z</time></trkpt>
			<trkpt lat="55.037760" lon="22.339780"><ele>28.9</ele><time>2026-05-28T18:33:07Z</time></trkpt>
			<trkpt lat="55.037020" lon="22.336960"><ele>33.2</ele><time>2026-05-28T18:33:13Z</time></trkpt>
			<trkpt lat="55.036400" lon="22.334910"><ele>33.1</ele><time>2026-05-28T18:33:19Z</time></trkpt>
			<trkpt lat="55.036310" lon="22.334530"><ele>33.0</ele><time>2026-05-28T18:33:25Z</time></trkpt>
			<trkpt lat="55.036310" lon="22.334530"><ele>33.0</ele><time>2026-05-28T18:33:34Z</time></trkpt>
			<trkpt lat="55.034660" lon="22.328180"><ele>31.2</ele><time>2026-05-28T18:33:44Z</time></trkpt>
			<trkpt lat="55.032770" lon="22.321320"><ele>29.9</ele><time>2026-05-28T18:33:53Z</time></trkpt>
			<trkpt lat="55.031230" lon="22.315560"><ele>29.3</ele><time>2026-05-28T18:34:02Z</time></trkpt>
			<trkpt lat="55.030940" lon="22.314580"><ele>29.3</ele><time>2026-05-28T18:34:11Z</time></trkpt>
			<trkpt lat="55.030880" lon="22.314420"><ele>29.3</ele><time>2026-05-28T18:34:20Z</time></trkpt>
			<trkpt lat="55.030530" lon="22.313460"><ele>29.2</ele><time>2026-05-28T18:34:29Z</time></trkpt>
			<trkpt lat="55.029780" lon="22.311950"><ele>29.1</ele><time>2026-05-28T18:34:39Z</time></trkpt>
			<trkpt lat="55.029100" lon="22.310080"><ele>27.3</ele><time>2026-05-28T18:34:48Z</time></trkpt>
			<trkpt lat="55.028640" lon="22.308900"><ele>25.8</ele><time>2026-05-28T18:34:57Z</time></trkpt>
			<trkpt lat="55.028110" lon="22.307820"><ele>24.4</ele><time>2026-05-28T18:35:06Z</time></trkpt>
			<trkpt lat="55.026760" lon="22.305340"><ele>20.9</ele><time>2026-05-28T18:35:15Z</time></trkpt>
			<trkpt lat="55.024470" lon="22.301640"><ele>21.8</ele><time>2026-05-28T18:35:25Z</time></trkpt>
			<trkpt lat="55.021690" lon="22.297220"><ele>26.2</ele><time>2026-05-28T18:35:34Z</time></trkpt>
			<trkpt lat="55.019760" lon="22.294300"><ele>31.0</ele><time>2026-05-28T18:35:43Z</time></trkpt>
			<trkpt lat="55.019170" lon="22.293260"><ele>32.5</ele><time>2026-05-28T18:35:52Z</time></trkpt>
			<trkpt lat="55.019090" lon="22.293070"><ele>32.8</ele><time>2026-05-28T18:36:01Z</time></trkpt>
			<trkpt lat="55.018830" lon="22.292270"><ele>33.7</ele><time>2026-05-28T18:36:11Z</time></trkpt>
			<trkpt lat="55.017350" lon="22.286900"><ele>27.5</ele><time>2026-05-28T18:36:20Z</time></trkpt>
			<trkpt lat="55.017190" lon="22.286210"><ele>26.3</ele><time>2026-05-28T18:36:29Z</time></trkpt>
			<trkpt lat="55.016930" lon="22.284810"><ele>24.0</ele><time>2026-05-28T18:36:38Z</time></trkpt>
			<trkpt lat="55.016420" lon="22.281520"><ele>19.9</ele><time>2026-05-28T18:36:47Z</time></trkpt>
			<trkpt lat="55.016050" lon="22.279960"><ele>19.4</ele><time>2026-05-28T18:36:56Z</time></trkpt>
			<trkpt lat="55.015590" lon="22.278280"><ele>18.9</ele><time>2026-05-28T18:37:06Z</time></trkpt>
			<trkpt lat="55.014690" lon="22.275830"><ele>18.1</ele><time>2026-05-28T18:37:15Z</time></trkpt>
			<trkpt lat="55.014350" lon="22.275020"><ele>17.8</ele><time>2026-05-28T18:37:24Z</time></trkpt>
			<trkpt lat="55.013450" lon="22.272520"><ele>17.0</ele><time>2026-05-28T18:37:33Z</time></trkpt>
			<trkpt lat="55.012230" lon="22.269430"><ele>15.9</ele><time>2026-05-28T18:37:42Z</time></trkpt>
			<trkpt lat="55.010520" lon="22.264890"><ele>15.7</ele><time>2026-05-28T18:37:52Z</time></trkpt>
			<trkpt lat="55.010280" lon="22.264030"><ele>16.1</ele><time>2026-05-28T18:38:01Z</time></trkpt>
			<trkpt lat="55.009340" lon="22.258680"><ele>18.7</ele><time>2026-05-28T18:38:10Z</time></trkpt>
			<trkpt lat="55.009130" lon="22.257550"><ele>19.2</ele><time>2026-05-28T18:38:19Z</time></trkpt>
			<trkpt lat="55.009000" lon="22.256840"><ele>19.2</ele><time>2026-05-28T18:38:28Z</time></trkpt>
			<trkpt lat="55.008990" lon="22.256790"><ele>19.2</ele><time>2026-05-28T18:38:37Z</time></trkpt>
			<trkpt lat="55.008850" lon="22.256050"><ele>19.3</ele><time>2026-05-28T18:38:47Z</time></trkpt>
			<trkpt lat="55.008720" lon="22.255290"><ele>19.4</ele><time>2026-05-28T18:38:56Z</time></trkpt>
			<trkpt lat="55.008610" lon="22.254530"><ele>19.5</ele><time>2026-05-28T18:39:05Z</time></trkpt>
			<trkpt lat="55.008600" lon="22.254260"><ele>19.5</ele><time>2026-05-28T18:39:14Z</time></trkpt>
			<trkpt lat="55.008590" lon="22.254000"><ele>19.5</ele><time>2026-05-28T18:39:23Z</time></trkpt>
			<trkpt lat="55.008590" lon="22.253770"><ele>19.6</ele><time>2026-05-28T18:39:33Z</time></trkpt>
			<trkpt lat="55.008760" lon="22.252450"><ele>19.7</ele><time>2026-05-28T18:39:42Z</time></trkpt>
			<trkpt lat="55.008860" lon="22.251860"><ele>19.8</ele><time>2026-05-28T18:39:51Z</time></trkpt>
			<trkpt lat="55.009100" lon="22.250520"><ele>19.9</ele><time>2026-05-28T18:40:00Z</time></trkpt>
			<trkpt lat="55.009920" lon="22.248100"><ele>20.4</ele><time>2026-05-28T18:40:09Z</time></trkpt>
			<trkpt lat="55.010000" lon="22.247760"><ele>20.6</ele><time>2026-05-28T18:40:18Z</time></trkpt>
			<trkpt lat="55.010420" lon="22.246050"><ele>21.3</ele><time>2026-05-28T18:40:28Z</time></trkpt>
			<trkpt lat="55.011270" lon="22.242560"><ele>22.8</ele><time>2026-05-28T18:40:37Z</time></trkpt>
			<trkpt lat="55.011940" lon="22.240020"><ele>23.8</ele><time>2026-05-28T18:40:46Z</time></trkpt>
			<trkpt lat="55.012350" lon="22.239020"><ele>22.6</ele><time>2026-05-28T18:40:55Z</time></trkpt>
			<trkpt lat="55.014670" lon="22.234030"><ele>16.3</ele><time>2026-05-28T18:41:04Z</time></trkpt>
			<trkpt lat="55.015280" lon="22.232640"><ele>14.7</ele><time>2026-05-28T18:41:14Z</time></trkpt>
			<trkpt lat="55.017340" lon="22.227290"><ele>15.0</ele><time>2026-05-28T18:41:23Z</time></trkpt>
			<trkpt lat="55.018820" lon="22.223240"><ele>13.8</ele><time>2026-05-28T18:41:32Z</time></trkpt>
			<trkpt lat="55.019000" lon="22.222840"><ele>13.5</ele><time>2026-05-28T18:41:41Z</time></trkpt>
			<trkpt lat="55.019860" lon="22.220370"><ele>11.6</ele><time>2026-05-28T18:41:50Z</time></trkpt>
			<trkpt lat="55.019960" lon="22.220070"><ele>11.3</ele><time>2026-05-28T18:42:00Z</time></trkpt>
			<trkpt lat="55.020040" lon="22.219780"><ele>11.1</ele><time>2026-05-28T18:42:09Z</time></trkpt>
			<trkpt lat="55.020090" lon="22.219460"><ele>10.9</ele><time>2026-05-28T18:42:18Z</time></trkpt>
			<trkpt lat="55.020220" lon="22.218350"><ele>10.2</ele><time>2026-05-28T18:42:27Z</time></trkpt>
			<trkpt lat="55.020260" lon="22.217990"><ele>9.9</ele><time>2026-05-28T18:42:36Z</time></trkpt>
			<trkpt lat="55.020280" lon="22.217640"><ele>9.7</ele><time>2026-05-28T18:42:45Z</time></trkpt>
			<trkpt lat="55.020270" lon="22.217250"><ele>9.4</ele><time>2026-05-28T18:42:55Z</time></trkpt>
			<trkpt lat="55.019990" lon="22.215840"><ele>9.0</ele><time>2026-05-28T18:43:04Z</time></trkpt>
			<trkpt lat="55.019850" lon="22.215310"><ele>9.1</ele><time>2026-05-28T18:43:13Z</time></trkpt>
			<trkpt lat="55.019710" lon="22.214810"><ele>9.2</ele><time>2026-05-28T18:43:22Z</time></trkpt>
			<trkpt lat="55.019570" lon="22.214380"><ele>9.3</ele><time>2026-05-28T18:43:31Z</time></trkpt>
			<trkpt lat="55.019370" lon="22.213870"><ele>9.4</ele><time>2026-05-28T18:43:41Z</time></trkpt>
			<trkpt lat="55.017750" lon="22.209750"><ele>10.3</ele><time>2026-05-28T18:43:50Z</time></trkpt>
			<trkpt lat="55.017240" lon="22.208420"><ele>10.6</ele><time>2026-05-28T18:43:59Z</time></trkpt>
			<trkpt lat="55.017200" lon="22.208250"><ele>10.8</ele><time>2026-05-28T18:44:08Z</time></trkpt>
			<trkpt lat="55.017190" lon="22.208100"><ele>10.9</ele><time>2026-05-28T18:44:17Z</time></trkpt>
			<trkpt lat="55.017180" lon="22.207750"><ele>11.1</ele><time>2026-05-28T18:44:26Z</time></trkpt>
			<trkpt lat="55.017180" lon="22.207390"><ele>11.4</ele><time>2026-05-28T18:44:36Z</time></trkpt>
			<trkpt lat="55.017200" lon="22.207080"><ele>11.6</ele><time>2026-05-28T18:44:45Z</time></trkpt>
			<trkpt lat="55.017230" lon="22.206790"><ele>11.8</ele><time>2026-05-28T18:44:54Z</time></trkpt>
			<trkpt lat="55.017400" lon="22.205950"><ele>12.4</ele><time>2026-05-28T18:45:03Z</time></trkpt>
			<trkpt lat="55.017410" lon="22.205740"><ele>12.5</ele><time>2026-05-28T18:45:12Z</time></trkpt>
			<trkpt lat="55.017400" lon="22.205620"><ele>12.6</ele><time>2026-05-28T18:45:22Z</time></trkpt>
			<trkpt lat="55.017330" lon="22.205380"><ele>12.8</ele><time>2026-05-28T18:45:31Z</time></trkpt>
			<trkpt lat="55.017270" lon="22.205220"><ele>12.9</ele><time>2026-05-28T18:45:40Z</time></trkpt>
			<trkpt lat="55.016910" lon="22.204400"><ele>13.6</ele><time>2026-05-28T18:45:49Z</time></trkpt>
			<trkpt lat="55.015710" lon="22.201710"><ele>15.9</ele><time>2026-05-28T18:45:58Z</time></trkpt>
			<trkpt lat="55.014980" lon="22.200080"><ele>17.0</ele><time>2026-05-28T18:46:07Z</time></trkpt>
			<trkpt lat="55.014730" lon="22.199540"><ele>17.1</ele><time>2026-05-28T18:46:17Z</time></trkpt>
			<trkpt lat="55.014540" lon="22.199140"><ele>17.1</ele><time>2026-05-28T18:46:26Z</time></trkpt>
			<trkpt lat="55.014440" lon="22.198900"><ele>17.1</ele><time>2026-05-28T18:46:35Z</time></trkpt>
			<trkpt lat="55.013410" lon="22.196570"><ele>17.2</ele><time>2026-05-28T18:46:44Z</time></trkpt>
			<trkpt lat="55.013000" lon="22.195640"><ele>17.3</ele><time>2026-05-28T18:46:53Z</time></trkpt>
			<trkpt lat="55.012650" lon="22.194910"><ele>17.4</ele><time>2026-05-28T18:47:03Z</time></trkpt>
			<trkpt lat="55.012220" lon="22.193900"><ele>17.4</ele><time>2026-05-28T18:47:12Z</time></trkpt>
			<trkpt lat="55.011730" lon="22.192820"><ele>17.4</ele><time>2026-05-28T18:47:21Z</time></trkpt>
			<trkpt lat="55.011420" lon="22.192100"><ele>17.2</ele><time>2026-05-28T18:47:30Z</time></trkpt>
			<trkpt lat="55.010860" lon="22.190870"><ele>16.7</ele><time>2026-05-28T18:47:39Z</time></trkpt>
			<trkpt lat="55.010410" lon="22.189830"><ele>16.4</ele><time>2026-05-28T18:47:49Z</time></trkpt>
			<trkpt lat="55.009980" lon="22.189110"><ele>16.1</ele><time>2026-05-28T18:47:58Z</time></trkpt>
			<trkpt lat="55.009710" lon="22.188690"><ele>15.9</ele><time>2026-05-28T18:48:07Z</time></trkpt>
			<trkpt lat="55.005870" lon="22.182550"><ele>13.7</ele><time>2026-05-28T18:48:16Z</time></trkpt>
			<trkpt lat="55.005270" lon="22.181620"><ele>13.4</ele><time>2026-05-28T18:48:25Z</time></trkpt>
			<trkpt lat="55.002350" lon="22.177020"><ele>13.0</ele><time>2026-05-28T18:48:34Z</time></trkpt>
			<trkpt lat="55.000610" lon="22.174340"><ele>13.2</ele><time>2026-05-28T18:48:44Z</time></trkpt>
			<trkpt lat="55.000130" lon="22.173510"><ele>13.3</ele><time>2026-05-28T18:48:53Z</time></trkpt>
			<trkpt lat="54.998940" lon="22.171670"><ele>13.6</ele><time>2026-05-28T18:49:02Z</time></trkpt>
			<trkpt lat="54.998480" lon="22.170970"><ele>13.7</ele><time>2026-05-28T18:49:11Z</time></trkpt>
			<trkpt lat="55.003710" lon="22.155390"><ele>16.5</ele><time>2026-05-28T18:49:20Z</time></trkpt>
			<trkpt lat="55.004480" lon="22.153060"><ele>17.1</ele><time>2026-05-28T18:49:30Z</time></trkpt>
			<trkpt lat="55.004560" lon="22.152830"><ele>17.2</ele><time>2026-05-28T18:49:39Z</time></trkpt>
			<trkpt lat="55.009120" lon="22.139280"><ele>27.4</ele><time>2026-05-28T18:49:48Z</time></trkpt>
			<trkpt lat="55.011380" lon="22.132420"><ele>42.8</ele><time>2026-05-28T18:49:57Z</time></trkpt>
			<trkpt lat="55.013610" lon="22.125690"><ele>46.3</ele><time>2026-05-28T18:50:06Z</time></trkpt>
			<trkpt lat="55.014240" lon="22.123750"><ele>45.9</ele><time>2026-05-28T18:50:15Z</time></trkpt>
			<trkpt lat="55.015030" lon="22.121300"><ele>45.2</ele><time>2026-05-28T18:50:25Z</time></trkpt>
			<trkpt lat="55.016140" lon="22.117900"><ele>44.2</ele><time>2026-05-28T18:50:34Z</time></trkpt>
			<trkpt lat="55.016380" lon="22.117180"><ele>44.0</ele><time>2026-05-28T18:50:43Z</time></trkpt>
			<trkpt lat="55.016640" lon="22.116250"><ele>44.3</ele><time>2026-05-28T18:50:52Z</time></trkpt>
			<trkpt lat="55.016850" lon="22.115380"><ele>44.5</ele><time>2026-05-28T18:51:01Z</time></trkpt>
			<trkpt lat="55.016970" lon="22.114710"><ele>44.7</ele><time>2026-05-28T18:51:11Z</time></trkpt>
			<trkpt lat="55.017000" lon="22.114500"><ele>44.8</ele><time>2026-05-28T18:51:20Z</time></trkpt>
			<trkpt lat="55.017070" lon="22.113720"><ele>45.0</ele><time>2026-05-28T18:51:29Z</time></trkpt>
			<trkpt lat="55.017130" lon="22.112810"><ele>45.3</ele><time>2026-05-28T18:51:38Z</time></trkpt>
			<trkpt lat="55.017130" lon="22.111920"><ele>45.5</ele><time>2026-05-28T18:51:47Z</time></trkpt>
			<trkpt lat="55.017150" lon="22.111220"><ele>45.7</ele><time>2026-05-28T18:51:57Z</time></trkpt>
			<trkpt lat="55.017190" lon="22.110380"><ele>45.9</ele><time>2026-05-28T18:52:06Z</time></trkpt>
			<trkpt lat="55.017220" lon="22.110100"><ele>46.0</ele><time>2026-05-28T18:52:15Z</time></trkpt>
			<trkpt lat="55.017380" lon="22.108840"><ele>46.4</ele><time>2026-05-28T18:52:24Z</time></trkpt>
			<trkpt lat="55.017970" lon="22.105360"><ele>44.0</ele><time>2026-05-28T18:52:33Z</time></trkpt>
			<trkpt lat="55.018050" lon="22.104650"><ele>43.3</ele><time>2026-05-28T18:52:42Z</time></trkpt>
			<trkpt lat="55.018330" lon="22.101480"><ele>40.5</ele><time>2026-05-28T18:52:52Z</time></trkpt>
			<trkpt lat="55.018330" lon="22.101430"><ele>40.4</ele><time>2026-05-28T18:53:01Z</time></trkpt>
			<trkpt lat="55.018630" lon="22.098100"><ele>37.9</ele><time>2026-05-28T18:53:10Z</time></trkpt>
			<trkpt lat="55.018710" lon="22.097160"><ele>37.5</ele><time>2026-05-28T18:53:19Z</time></trkpt>
			<trkpt lat="55.019270" lon="22.090820"><ele>35.1</ele><time>2026-05-28T18:53:28Z</time></trkpt>
			<trkpt lat="55.019560" lon="22.087440"><ele>35.1</ele><time>2026-05-28T18:53:38Z</time></trkpt>
			<trkpt lat="55.019870" lon="22.084060"><ele>35.8</ele><time>2026-05-28T18:53:47Z</time></trkpt>
			<trkpt lat="55.020070" lon="22.081690"><ele>36.2</ele><time>2026-05-28T18:53:56Z</time></trkpt>
			<trkpt lat="55.020090" lon="22.081500"><ele>36.3</ele><time>2026-05-28T18:54:05Z</time></trkpt>
			<trkpt lat="55.020170" lon="22.080710"><ele>36.4</ele><time>2026-05-28T18:54:14Z</time></trkpt>
			<trkpt lat="55.020340" lon="22.078630"><ele>36.3</ele><time>2026-05-28T18:54:23Z</time></trkpt>
			<trkpt lat="55.020490" lon="22.075120"><ele>36.0</ele><time>2026-05-28T18:54:33Z</time></trkpt>
			<trkpt lat="55.020520" lon="22.075000"><ele>36.0</ele><time>2026-05-28T18:54:42Z</time></trkpt>
			<trkpt lat="55.020700" lon="22.074380"><ele>35.9</ele><time>2026-05-28T18:54:51Z</time></trkpt>
			<trkpt lat="55.020730" lon="22.074290"><ele>35.9</ele><time>2026-05-28T18:55:00Z</time></trkpt>
			<trkpt lat="55.021680" lon="22.071220"><ele>35.6</ele><time>2026-05-28T18:55:09Z</time></trkpt>
			<trkpt lat="55.021680" lon="22.071220"><ele>35.6</ele><time>2026-05-28T18:55:19Z</time></trkpt>
			<trkpt lat="55.021780" lon="22.070890"><ele>35.5</ele><time>2026-05-28T18:55:29Z</time></trkpt>
			<trkpt lat="55.021950" lon="22.070340"><ele>35.5</ele><time>2026-05-28T18:55:39Z</time></trkpt>
			<trkpt lat="55.023760" lon="22.064460"><ele>35.1</ele><time>2026-05-28T18:55:49Z</time></trkpt>
			<trkpt lat="55.024780" lon="22.061220"><ele>35.9</ele><time>2026-05-28T18:55:59Z</time></trkpt>
			<trkpt lat="55.025420" lon="22.059150"><ele>36.8</ele><time>2026-05-28T18:56:09Z</time></trkpt>
			<trkpt lat="55.026180" lon="22.056650"><ele>38.0</ele><time>2026-05-28T18:56:18Z</time></trkpt>
			<trkpt lat="55.026220" lon="22.056510"><ele>38.0</ele><time>2026-05-28T18:56:28Z</time></trkpt>
			<trkpt lat="55.026370" lon="22.056060"><ele>38.2</ele><time>2026-05-28T18:56:38Z</time></trkpt>
			<trkpt lat="55.026680" lon="22.055180"><ele>38.6</ele><time>2026-05-28T18:56:48Z</time></trkpt>
			<trkpt lat="55.027240" lon="22.053810"><ele>38.9</ele><time>2026-05-28T18:56:58Z</time></trkpt>
			<trkpt lat="55.029470" lon="22.048620"><ele>39.4</ele><time>2026-05-28T18:57:08Z</time></trkpt>
			<trkpt lat="55.029870" lon="22.047670"><ele>39.4</ele><time>2026-05-28T18:57:18Z</time></trkpt>
			<trkpt lat="55.030110" lon="22.047180"><ele>39.4</ele><time>2026-05-28T18:57:27Z</time></trkpt>
			<trkpt lat="55.030330" lon="22.046820"><ele>39.1</ele><time>2026-05-28T18:57:37Z</time></trkpt>
			<trkpt lat="55.030520" lon="22.046550"><ele>38.8</ele><time>2026-05-28T18:57:47Z</time></trkpt>
			<trkpt lat="55.031850" lon="22.044550"><ele>37.1</ele><time>2026-05-28T18:57:57Z</time></trkpt>
			<trkpt lat="55.031930" lon="22.044420"><ele>37.0</ele><time>2026-05-28T18:58:07Z</time></trkpt>
			<trkpt lat="55.033040" lon="22.042770"><ele>35.5</ele><time>2026-05-28T18:58:17Z</time></trkpt>
			<trkpt lat="55.033130" lon="22.042620"><ele>35.4</ele><time>2026-05-28T18:58:27Z</time></trkpt>
			<trkpt lat="55.033210" lon="22.042400"><ele>35.3</ele><time>2026-05-28T18:58:37Z</time></trkpt>
			<trkpt lat="55.033260" lon="22.042160"><ele>35.1</ele><time>2026-05-28T18:58:46Z</time></trkpt>
			<trkpt lat="55.033320" lon="22.042110"><ele>35.1</ele><time>2026-05-28T18:58:56Z</time></trkpt>
			<trkpt lat="55.033360" lon="22.042020"><ele>35.0</ele><time>2026-05-28T18:59:06Z</time></trkpt>
			<trkpt lat="55.033730" lon="22.040340"><ele>33.8</ele><time>2026-05-28T18:59:16Z</time></trkpt>
			<trkpt lat="55.033790" lon="22.040120"><ele>33.6</ele><time>2026-05-28T18:59:26Z</time></trkpt>
			<trkpt lat="55.033860" lon="22.039860"><ele>33.3</ele><time>2026-05-28T18:59:36Z</time></trkpt>
			<trkpt lat="55.034040" lon="22.039250"><ele>32.5</ele><time>2026-05-28T18:59:46Z</time></trkpt>
			<trkpt lat="55.034800" lon="22.037070"><ele>29.7</ele><time>2026-05-28T18:59:55Z</time></trkpt>
			<trkpt lat="55.034860" lon="22.036800"><ele>29.4</ele><time>2026-05-28T19:00:05Z</time></trkpt>
			<trkpt lat="55.034940" lon="22.036050"><ele>28.6</ele><time>2026-05-28T19:00:15Z</time></trkpt>
			<trkpt lat="55.034980" lon="22.035790"><ele>28.3</ele><time>2026-05-28T19:00:25Z</time></trkpt>
			<trkpt lat="55.035040" lon="22.035580"><ele>28.0</ele><time>2026-05-28T19:00:35Z</time></trkpt>
			<trkpt lat="55.035110" lon="22.035410"><ele>27.8</ele><time>2026-05-28T19:00:45Z</time></trkpt>
			<trkpt lat="55.035380" lon="22.035090"><ele>27.1</ele><time>2026-05-28T19:00:55Z</time></trkpt>
			<trkpt lat="55.035430" lon="22.035030"><ele>27.0</ele><time>2026-05-28T19:01:05Z</time></trkpt>
			<trkpt lat="55.035670" lon="22.034810"><ele>26.5</ele><time>2026-05-28T19:01:14Z</time></trkpt>
			<trkpt lat="55.035840" lon="22.034580"><ele>26.1</ele><time>2026-05-28T19:01:24Z</time></trkpt>
			<trkpt lat="55.036260" lon="22.033830"><ele>25.0</ele><time>2026-05-28T19:01:34Z</time></trkpt>
			<trkpt lat="55.036330" lon="22.033720"><ele>24.8</ele><time>2026-05-28T19:01:44Z</time></trkpt>
			<trkpt lat="55.036530" lon="22.033420"><ele>24.3</ele><time>2026-05-28T19:01:54Z</time></trkpt>
			<trkpt lat="55.036610" lon="22.033280"><ele>24.0</ele><time>2026-05-28T19:02:04Z</time></trkpt>
			<trkpt lat="55.036920" lon="22.032910"><ele>23.5</ele><time>2026-05-28T19:02:14Z</time></trkpt>
			<trkpt lat="55.037070" lon="22.032740"><ele>23.3</ele><time>2026-05-28T19:02:23Z</time></trkpt>
			<trkpt lat="55.037140" lon="22.032660"><ele>23.2</ele><time>2026-05-28T19:02:33Z</time></trkpt>
			<trkpt lat="55.037620" lon="22.032470"><ele>22.6</ele><time>2026-05-28T19:02:43Z</time></trkpt>
			<trkpt lat="55.037770" lon="22.032350"><ele>22.4</ele><time>2026-05-28T19:02:53Z</time></trkpt>
			<trkpt lat="55.037870" lon="22.032220"><ele>22.2</ele><time>2026-05-28T19:03:03Z</time></trkpt>
			<trkpt lat="55.037950" lon="22.032070"><ele>22.1</ele><time>2026-05-28T19:03:13Z</time></trkpt>
			<trkpt lat="55.038030" lon="22.031800"><ele>21.9</ele><time>2026-05-28T19:03:23Z</time></trkpt>
			<trkpt lat="55.038110" lon="22.030860"><ele>21.2</ele><time>2026-05-28T19:03:33Z</time></trkpt>
			<trkpt lat="55.038150" lon="22.030340"><ele>20.9</ele><time>2026-05-28T19:03:42Z</time></trkpt>
			<trkpt lat="55.038220" lon="22.029830"><ele>20.5</ele><time>2026-05-28T19:03:52Z</time></trkpt>
			<trkpt lat="55.038330" lon="22.029450"><ele>20.2</ele><time>2026-05-28T19:04:02Z</time></trkpt>
			<trkpt lat="55.038380" lon="22.029330"><ele>20.1</ele><time>2026-05-28T19:04:12Z</time></trkpt>
			<trkpt lat="55.038830" lon="22.028240"><ele>19.2</ele><time>2026-05-28T19:04:22Z</time></trkpt>
			<trkpt lat="55.038880" lon="22.028130"><ele>19.1</ele><time>2026-05-28T19:04:32Z</time></trkpt>
			<trkpt lat="55.039310" lon="22.027160"><ele>18.3</ele><time>2026-05-28T19:04:42Z</time></trkpt>
			<trkpt lat="55.039430" lon="22.026900"><ele>18.0</ele><time>2026-05-28T19:04:51Z</time></trkpt>
			<trkpt lat="55.039510" lon="22.026660"><ele>17.8</ele><time>2026-05-28T19:05:01Z</time></trkpt>
			<trkpt lat="55.039530" lon="22.026550"><ele>17.8</ele><time>2026-05-28T19:05:11Z</time></trkpt>
			<trkpt lat="55.039580" lon="22.026340"><ele>17.6</ele><time>2026-05-28T19:05:21Z</time></trkpt>
			<trkpt lat="55.039700" lon="22.025450"><ele>17.5</ele><time>2026-05-28T19:05:31Z</time></trkpt>
			<trkpt lat="55.039820" lon="22.024670"><ele>17.7</ele><time>2026-05-28T19:05:41Z</time></trkpt>
			<trkpt lat="55.039880" lon="22.024350"><ele>17.9</ele><time>2026-05-28T19:05:51Z</time></trkpt>
			<trkpt lat="55.040010" lon="22.023910"><ele>18.0</ele><time>2026-05-28T19:06:01Z</time></trkpt>
			<trkpt lat="55.040150" lon="22.023750"><ele>18.1</ele><time>2026-05-28T19:06:10Z</time></trkpt>
			<trkpt lat="55.040350" lon="22.023630"><ele>18.2</ele><time>2026-05-28T19:06:20Z</time></trkpt>
			<trkpt lat="55.040970" lon="22.023410"><ele>18.6</ele><time>2026-05-28T19:06:30Z</time></trkpt>
			<trkpt lat="55.041330" lon="22.023260"><ele>18.8</ele><time>2026-05-28T19:06:40Z</time></trkpt>
			<trkpt lat="55.041490" lon="22.023180"><ele>18.9</ele><time>2026-05-28T19:06:50Z</time></trkpt>
			<trkpt lat="55.041600" lon="22.023070"><ele>19.0</ele><time>2026-05-28T19:07:00Z</time></trkpt>
			<trkpt lat="55.041750" lon="22.022810"><ele>19.2</ele><time>2026-05-28T19:07:10Z</time></trkpt>
			<trkpt lat="55.042030" lon="22.022210"><ele>19.4</ele><time>2026-05-28T19:07:19Z</time></trkpt>
			<trkpt lat="55.042950" lon="22.020320"><ele>20.3</ele><time>2026-05-28T19:07:29Z</time></trkpt>
			<trkpt lat="55.043050" lon="22.020120"><ele>20.4</ele><time>2026-05-28T19:07:39Z</time></trkpt>
			<trkpt lat="55.043130" lon="22.019950"><ele>20.4</ele><time>2026-05-28T19:07:49Z</time></trkpt>
			<trkpt lat="55.043190" lon="22.019820"><ele>20.5</ele><time>2026-05-28T19:07:59Z</time></trkpt>
			<trkpt lat="55.043240" lon="22.019730"><ele>20.5</ele><time>2026-05-28T19:08:09Z</time></trkpt>
			<trkpt lat="55.043300" lon="22.019590"><ele>20.7</ele><time>2026-05-28T19:08:19Z</time></trkpt>
			<trkpt lat="55.043400" lon="22.019330"><ele>20.9</ele><time>2026-05-28T19:08:29Z</time></trkpt>
			<trkpt lat="55.043670" lon="22.018340"><ele>21.8</ele><time>2026-05-28T19:08:38Z</time></trkpt>
			<trkpt lat="55.043790" lon="22.017720"><ele>22.3</ele><time>2026-05-28T19:08:48Z</time></trkpt>
			<trkpt lat="55.044360" lon="22.014410"><ele>25.0</ele><time>2026-05-28T19:08:58Z</time></trkpt>
			<trkpt lat="55.044680" lon="22.012570"><ele>26.6</ele><time>2026-05-28T19:09:08Z</time></trkpt>
			<trkpt lat="55.045100" lon="22.010210"><ele>28.3</ele><time>2026-05-28T19:09:18Z</time></trkpt>
			<trkpt lat="55.045260" lon="22.009160"><ele>28.9</ele><time>2026-05-28T19:09:28Z</time></trkpt>
			<trkpt lat="55.045300" lon="22.008580"><ele>29.2</ele><time>2026-05-28T19:09:38Z</time></trkpt>
			<trkpt lat="55.045300" lon="22.008060"><ele>29.5</ele><time>2026-05-28T19:09:47Z</time></trkpt>
			<trkpt lat="55.045270" lon="22.005400"><ele>30.9</ele><time>2026-05-28T19:09:57Z</time></trkpt>
			<trkpt lat="55.045260" lon="22.005240"><ele>31.0</ele><time>2026-05-28T19:10:07Z</time></trkpt>
			<trkpt lat="55.045250" lon="22.003610"><ele>31.8</ele><time>2026-05-28T19:10:17Z</time></trkpt>
			<trkpt lat="55.045230" lon="22.002350"><ele>32.5</ele><time>2026-05-28T19:10:27Z</time></trkpt>
			<trkpt lat="55.045150" lon="21.998100"><ele>31.7</ele><time>2026-05-28T19:10:37Z</time></trkpt>
			<trkpt lat="55.045080" lon="21.996910"><ele>31.3</ele><time>2026-05-28T19:10:47Z</time></trkpt>
			<trkpt lat="55.044670" lon="21.993220"><ele>29.9</ele><time>2026-05-28T19:10:56Z</time></trkpt>
			<trkpt lat="55.044600" lon="21.992600"><ele>29.7</ele><time>2026-05-28T19:11:06Z</time></trkpt>
			<trkpt lat="55.044600" lon="21.992120"><ele>29.5</ele><time>2026-05-28T19:11:16Z</time></trkpt>
			<trkpt lat="55.044730" lon="21.990680"><ele>31.4</ele><time>2026-05-28T19:11:26Z</time></trkpt>
			<trkpt lat="55.044830" lon="21.989820"><ele>32.6</ele><time>2026-05-28T19:11:36Z</time></trkpt>
			<trkpt lat="55.044930" lon="21.989280"><ele>33.3</ele><time>2026-05-28T19:11:46Z</time></trkpt>
			<trkpt lat="55.045120" lon="21.988570"><ele>34.3</ele><time>2026-05-28T19:11:56Z</time></trkpt>
			<trkpt lat="55.045710" lon="21.986610"><ele>37.2</ele><time>2026-05-28T19:12:06Z</time></trkpt>
			<trkpt lat="55.045990" lon="21.985520"><ele>38.7</ele><time>2026-05-28T19:12:15Z</time></trkpt>
			<trkpt lat="55.046110" lon="21.985130"><ele>39.3</ele><time>2026-05-28T19:12:25Z</time></trkpt>
			<trkpt lat="55.046980" lon="21.982680"><ele>42.3</ele><time>2026-05-28T19:12:35Z</time></trkpt>
			<trkpt lat="55.048030" lon="21.979400"><ele>44.2</ele><time>2026-05-28T19:12:45Z</time></trkpt>
			<trkpt lat="55.048250" lon="21.978730"><ele>44.6</ele><time>2026-05-28T19:12:55Z</time></trkpt>
			<trkpt lat="55.048570" lon="21.978000"><ele>45.1</ele><time>2026-05-28T19:13:05Z</time></trkpt>
			<trkpt lat="55.050980" lon="21.973150"><ele>40.6</ele><time>2026-05-28T19:13:15Z</time></trkpt>
			<trkpt lat="55.051470" lon="21.972130"><ele>38.3</ele><time>2026-05-28T19:13:24Z</time></trkpt>
			<trkpt lat="55.051890" lon="21.971120"><ele>36.2</ele><time>2026-05-28T19:13:34Z</time></trkpt>
			<trkpt lat="55.053080" lon="21.968000"><ele>30.1</ele><time>2026-05-28T19:13:44Z</time></trkpt>
			<trkpt lat="55.053230" lon="21.967530"><ele>30.0</ele><time>2026-05-28T19:13:54Z</time></trkpt>
			<trkpt lat="55.053340" lon="21.967140"><ele>29.8</ele><time>2026-05-28T19:14:04Z</time></trkpt>
			<trkpt lat="55.053380" lon="21.966940"><ele>29.7</ele><time>2026-05-28T19:14:14Z</time></trkpt>
			<trkpt lat="55.053410" lon="21.966730"><ele>29.7</ele><time>2026-05-28T19:14:24Z</time></trkpt>
			<trkpt lat="55.053450" lon="21.966080"><ele>29.4</ele><time>2026-05-28T19:14:34Z</time></trkpt>
			<trkpt lat="55.053470" lon="21.965310"><ele>29.2</ele><time>2026-05-28T19:14:43Z</time></trkpt>
			<trkpt lat="55.053470" lon="21.965070"><ele>29.1</ele><time>2026-05-28T19:14:53Z</time></trkpt>
			<trkpt lat="55.053490" lon="21.964470"><ele>28.9</ele><time>2026-05-28T19:15:03Z</time></trkpt>
			<trkpt lat="55.053480" lon="21.964250"><ele>28.8</ele><time>2026-05-28T19:15:13Z</time></trkpt>
			<trkpt lat="55.053520" lon="21.963660"><ele>28.6</ele><time>2026-05-28T19:15:23Z</time></trkpt>
			<trkpt lat="55.053610" lon="21.963130"><ele>28.4</ele><time>2026-05-28T19:15:33Z</time></trkpt>
			<trkpt lat="55.053890" lon="21.961800"><ele>27.9</ele><time>2026-05-28T19:15:43Z</time></trkpt>
			<trkpt lat="55.054190" lon="21.960700"><ele>27.5</ele><time>2026-05-28T19:15:52Z</time></trkpt>
			<trkpt lat="55.054710" lon="21.958900"><ele>26.7</ele><time>2026-05-28T19:16:02Z</time></trkpt>
			<trkpt lat="55.055090" lon="21.957560"><ele>26.1</ele><time>2026-05-28T19:16:12Z</time></trkpt>
			<trkpt lat="55.055300" lon="21.956790"><ele>25.7</ele><time>2026-05-28T19:16:22Z</time></trkpt>
			<trkpt lat="55.055460" lon="21.956300"><ele>25.5</ele><time>2026-05-28T19:16:32Z</time></trkpt>
			<trkpt lat="55.055630" lon="21.955900"><ele>25.3</ele><time>2026-05-28T19:16:42Z</time></trkpt>
			<trkpt lat="55.055690" lon="21.955790"><ele>25.2</ele><time>2026-05-28T19:16:52Z</time></trkpt>
			<trkpt lat="55.056260" lon="21.955100"><ele>24.7</ele><time>2026-05-28T19:17:02Z</time></trkpt>
			<trkpt lat="55.056910" lon="21.954230"><ele>24.1</ele><time>2026-05-28T19:17:11Z</time></trkpt>
			<trkpt lat="55.057500" lon="21.953250"><ele>23.4</ele><time>2026-05-28T19:17:21Z</time></trkpt>
			<trkpt lat="55.057830" lon="21.952720"><ele>23.1</ele><time>2026-05-28T19:17:31Z</time></trkpt>
			<trkpt lat="55.058160" lon="21.951970"><ele>22.5</ele><time>2026-05-28T19:17:41Z</time></trkpt>
			<trkpt lat="55.058850" lon="21.950690"><ele>20.9</ele><time>2026-05-28T19:17:51Z</time></trkpt>
			<trkpt lat="55.059240" lon="21.950020"><ele>20.0</ele><time>2026-05-28T19:18:01Z</time></trkpt>
			<trkpt lat="55.059710" lon="21.949320"><ele>19.1</ele><time>2026-05-28T19:18:11Z</time></trkpt>
			<trkpt lat="55.059840" lon="21.949150"><ele>18.8</ele><time>2026-05-28T19:18:20Z</time></trkpt>
			<trkpt lat="55.060470" lon="21.948460"><ele>17.7</ele><time>2026-05-28T19:18:30Z</time></trkpt>
			<trkpt lat="55.061210" lon="21.947860"><ele>16.4</ele><time>2026-05-28T19:18:40Z</time></trkpt>
			<trkpt lat="55.061590" lon="21.947580"><ele>15.8</ele><time>2026-05-28T19:18:50Z</time></trkpt>
			<trkpt lat="55.062010" lon="21.947320"><ele>15.1</ele><time>2026-05-28T19:19:00Z</time></trkpt>
			<trkpt lat="55.062480" lon="21.947030"><ele>14.9</ele><time>2026-05-28T19:19:10Z</time></trkpt>
			<trkpt lat="55.063210" lon="21.946510"><ele>17.2</ele><time>2026-05-28T19:19:20Z</time></trkpt>
			<trkpt lat="55.063700" lon="21.946050"><ele>18.8</ele><time>2026-05-28T19:19:30Z</time></trkpt>
			<trkpt lat="55.064930" lon="21.944590"><ele>23.1</ele><time>2026-05-28T19:19:39Z</time></trkpt>
			<trkpt lat="55.065650" lon="21.943790"><ele>25.6</ele><time>2026-05-28T19:19:49Z</time></trkpt>
			<trkpt lat="55.065770" lon="21.943610"><ele>26.0</ele><time>2026-05-28T19:19:59Z</time></trkpt>
			<trkpt lat="55.065920" lon="21.943350"><ele>26.6</ele><time>2026-05-28T19:20:09Z</time></trkpt>
			<trkpt lat="55.066060" lon="21.943050"><ele>27.3</ele><time>2026-05-28T19:20:19Z</time></trkpt>
			<trkpt lat="55.066330" lon="21.942360"><ele>28.6</ele><time>2026-05-28T19:20:29Z</time></trkpt>
			<trkpt lat="55.066950" lon="21.940970"><ele>30.6</ele><time>2026-05-28T19:20:39Z</time></trkpt>
			<trkpt lat="55.068000" lon="21.938510"><ele>32.3</ele><time>2026-05-28T19:20:48Z</time></trkpt>
			<trkpt lat="55.068140" lon="21.938220"><ele>32.5</ele><time>2026-05-28T19:20:58Z</time></trkpt>
			<trkpt lat="55.068520" lon="21.937280"><ele>33.2</ele><time>2026-05-28T19:21:08Z</time></trkpt>
			<trkpt lat="55.068710" lon="21.936890"><ele>33.5</ele><time>2026-05-28T19:21:18Z</time></trkpt>
			<trkpt lat="55.068860" lon="21.936660"><ele>33.7</ele><time>2026-05-28T19:21:28Z</time></trkpt>
			<trkpt lat="55.069700" lon="21.935830"><ele>34.6</ele><time>2026-05-28T19:21:38Z</time></trkpt>
			<trkpt lat="55.070550" lon="21.935040"><ele>35.4</ele><time>2026-05-28T19:21:48Z</time></trkpt>
			<trkpt lat="55.070660" lon="21.934950"><ele>35.3</ele><time>2026-05-28T19:21:57Z</time></trkpt>
			<trkpt lat="55.070830" lon="21.934690"><ele>35.2</ele><time>2026-05-28T19:22:07Z</time></trkpt>
			<trkpt lat="55.071370" lon="21.933810"><ele>34.9</ele><time>2026-05-28T19:22:17Z</time></trkpt>
			<trkpt lat="55.071590" lon="21.933460"><ele>34.8</ele><time>2026-05-28T19:22:27Z</time></trkpt>
			<trkpt lat="55.072380" lon="21.932250"><ele>34.3</ele><time>2026-05-28T19:22:37Z</time></trkpt>
			<trkpt lat="55.072420" lon="21.932210"><ele>34.3</ele><time>2026-05-28T19:22:47Z</time></trkpt>
			<trkpt lat="55.072930" lon="21.931420"><ele>34.0</ele><time>2026-05-28T19:22:57Z</time></trkpt>
			<trkpt lat="55.073370" lon="21.930730"><ele>33.8</ele><time>2026-05-28T19:23:07Z</time></trkpt>
			<trkpt lat="55.073540" lon="21.930430"><ele>33.7</ele><time>2026-05-28T19:23:16Z</time></trkpt>
			<trkpt lat="55.073690" lon="21.930120"><ele>33.6</ele><time>2026-05-28T19:23:26Z</time></trkpt>
			<trkpt lat="55.073940" lon="21.929560"><ele>33.4</ele><time>2026-05-28T19:23:36Z</time></trkpt>
			<trkpt lat="55.074370" lon="21.928660"><ele>33.0</ele><time>2026-05-28T19:23:46Z</time></trkpt>
			<trkpt lat="55.074700" lon="21.927920"><ele>31.8</ele><time>2026-05-28T19:23:56Z</time></trkpt>
			<trkpt lat="55.075210" lon="21.926560"><ele>29.7</ele><time>2026-05-28T19:24:06Z</time></trkpt>
			<trkpt lat="55.075220" lon="21.926510"><ele>29.6</ele><time>2026-05-28T19:24:16Z</time></trkpt>
			<trkpt lat="55.075320" lon="21.926200"><ele>29.2</ele><time>2026-05-28T19:24:25Z</time></trkpt>
			<trkpt lat="55.075490" lon="21.925530"><ele>28.3</ele><time>2026-05-28T19:24:35Z</time></trkpt>
			<trkpt lat="55.075680" lon="21.924640"><ele>27.0</ele><time>2026-05-28T19:24:45Z</time></trkpt>
			<trkpt lat="55.075770" lon="21.924190"><ele>26.4</ele><time>2026-05-28T19:24:55Z</time></trkpt>
			<trkpt lat="55.076050" lon="21.922960"><ele>24.7</ele><time>2026-05-28T19:25:05Z</time></trkpt>
			<trkpt lat="55.076120" lon="21.922630"><ele>24.3</ele><time>2026-05-28T19:25:15Z</time></trkpt>
			<trkpt lat="55.076270" lon="21.922170"><ele>23.6</ele><time>2026-05-28T19:25:25Z</time></trkpt>
			<trkpt lat="55.076370" lon="21.921890"><ele>23.2</ele><time>2026-05-28T19:25:35Z</time></trkpt>
			<trkpt lat="55.076570" lon="21.921380"><ele>22.4</ele><time>2026-05-28T19:25:44Z</time></trkpt>
			<trkpt lat="55.076860" lon="21.920660"><ele>21.2</ele><time>2026-05-28T19:25:54Z</time></trkpt>
			<trkpt lat="55.076900" lon="21.920590"><ele>21.1</ele><time>2026-05-28T19:26:04Z</time></trkpt>
			<trkpt lat="55.077300" lon="21.919600"><ele>20.1</ele><time>2026-05-28T19:26:14Z</time></trkpt>
			<trkpt lat="55.077440" lon="21.919280"><ele>19.7</ele><time>2026-05-28T19:26:24Z</time></trkpt>
			<trkpt lat="55.077820" lon="21.918380"><ele>18.8</ele><time>2026-05-28T19:26:34Z</time></trkpt>
			<trkpt lat="55.078030" lon="21.917780"><ele>18.2</ele><time>2026-05-28T19:26:44Z</time></trkpt>
			<trkpt lat="55.078070" lon="21.917640"><ele>18.0</ele><time>2026-05-28T19:26:53Z</time></trkpt>
			<trkpt lat="55.078100" lon="21.917490"><ele>17.9</ele><time>2026-05-28T19:27:03Z</time></trkpt>
			<trkpt lat="55.078110" lon="21.917070"><ele>17.5</ele><time>2026-05-28T19:27:13Z</time></trkpt>
			<trkpt lat="55.078110" lon="21.916530"><ele>17.1</ele><time>2026-05-28T19:27:23Z</time></trkpt>
			<trkpt lat="55.078140" lon="21.915460"><ele>16.2</ele><time>2026-05-28T19:27:33Z</time></trkpt>
			<trkpt lat="55.078180" lon="21.915090"><ele>15.9</ele><time>2026-05-28T19:27:43Z</time></trkpt>
			<trkpt lat="55.078230" lon="21.914770"><ele>15.6</ele><time>2026-05-28T19:27:53Z</time></trkpt>
			<trkpt lat="55.078280" lon="21.914510"><ele>15.3</ele><time>2026-05-28T19:28:03Z</time></trkpt>
			<trkpt lat="55.078310" lon="21.914320"><ele>15.2</ele><time>2026-05-28T19:28:12Z</time></trkpt>
			<trkpt lat="55.078710" lon="21.912410"><ele>13.5</ele><time>2026-05-28T19:28:22Z</time></trkpt>
			<trkpt lat="55.078920" lon="21.911450"><ele>12.6</ele><time>2026-05-28T19:28:32Z</time></trkpt>
			<trkpt lat="55.078930" lon="21.911380"><ele>12.6</ele><time>2026-05-28T19:28:42Z</time></trkpt>
			<trkpt lat="55.079470" lon="21.908920"><ele>10.6</ele><time>2026-05-28T19:28:52Z</time></trkpt>
			<trkpt lat="55.079580" lon="21.908440"><ele>10.2</ele><time>2026-05-28T19:29:02Z</time></trkpt>
			<trkpt lat="55.079760" lon="21.907910"><ele>9.8</ele><time>2026-05-28T19:29:12Z</time></trkpt>
			<trkpt lat="55.079790" lon="21.907810"><ele>9.7</ele><time>2026-05-28T19:29:21Z</time></trkpt>
			<trkpt lat="55.079820" lon="21.907700"><ele>9.6</ele><time>2026-05-28T19:29:31Z</time></trkpt>
			<trkpt lat="55.080080" lon="21.907060"><ele>9.0</ele><time>2026-05-28T19:29:41Z</time></trkpt>
			<trkpt lat="55.080220" lon="21.906720"><ele>8.7</ele><time>2026-05-28T19:29:51Z</time></trkpt>
			<trkpt lat="55.080570" lon="21.905860"><ele>7.9</ele><time>2026-05-28T19:30:01Z</time></trkpt>
			<trkpt lat="55.080950" lon="21.905160"><ele>7.2</ele><time>2026-05-28T19:30:11Z</time></trkpt>
			<trkpt lat="55.081070" lon="21.905010"><ele>7.0</ele><time>2026-05-28T19:30:21Z</time></trkpt>
			<trkpt lat="55.081120" lon="21.904940"><ele>6.9</ele><time>2026-05-28T19:30:31Z</time></trkpt>
			<trkpt lat="55.081310" lon="21.904680"><ele>6.6</ele><time>2026-05-28T19:30:40Z</time></trkpt>
			<trkpt lat="55.081529" lon="21.904415"><ele>6.3</ele><time>2026-05-28T19:30:50Z</time></trkpt>
			<trkpt lat="55.081530" lon="21.904410"><ele>6.3</ele><time>2026-05-28T19:30:57Z</time></trkpt>
			<trkpt lat="55.081620" lon="21.904290"><ele>6.1</ele><time>2026-05-28T19:31:03Z</time></trkpt>
			<trkpt lat="55.082180" lon="21.903690"><ele>6.9</ele><time>2026-05-28T19:31:10Z</time></trkpt>
			<trkpt lat="55.081990" lon="21.903270"><ele>7.4</ele><time>2026-05-28T19:31:17Z</time></trkpt>
			<trkpt lat="55.081950" lon="21.903140"><ele>7.6</ele><time>2026-05-28T19:31:23Z</time></trkpt>
			<trkpt lat="55.081890" lon="21.903070"><ele>7.7</ele><time>2026-05-28T19:31:30Z</time></trkpt>
			<trkpt lat="55.081850" lon="21.902410"><ele>8.3</ele><time>2026-05-28T19:31:36Z</time></trkpt>
			<trkpt lat="55.081790" lon="21.901630"><ele>9.1</ele><time>2026-05-28T19:31:43Z</time></trkpt>
			<trkpt lat="55.081790" lon="21.901630"><ele>9.1</ele><time>2026-05-28T19:31:53Z</time></trkpt>
			<trkpt lat="55.081710" lon="21.900640"><ele>10.0</ele><time>2026-05-28T19:32:03Z</time></trkpt>
			<trkpt lat="55.081670" lon="21.900130"><ele>10.5</ele><time>2026-05-28T19:32:13Z</time></trkpt>
			<trkpt lat="55.081640" lon="21.899820"><ele>10.8</ele><time>2026-05-28T19:32:23Z</time></trkpt>
			<trkpt lat="55.081630" lon="21.899230"><ele>11.3</ele><time>2026-05-28T19:32:33Z</time></trkpt>
			<trkpt lat="55.081620" lon="21.898810"><ele>11.7</ele><time>2026-05-28T19:32:43Z</time></trkpt>
			<trkpt lat="55.081640" lon="21.896943"><ele>13.5</ele><time>2026-05-28T19:32:53Z</time></trkpt>
			<trkpt lat="55.081641" lon="21.896917"><ele>13.5</ele><time>2026-05-28T19:32:55Z</time></trkpt>
			<trkpt lat="55.080888" lon="21.896819"><ele>14.8</ele><time>2026-05-28T19:34:40Z</time></trkpt>
			<trkpt lat="55.080888" lon="21.896637"><ele>14.9</ele><time>2026-05-28T19:34:54Z</time></trkpt>
			<trkpt lat="55.080899" lon="21.896790"><ele>14.9</ele><time>2026-05-28T19:35:07Z</time></trkpt>
			<trkpt lat="55.081643" lon="21.896882"><ele>14.5</ele><time>2026-05-28T19:36:50Z</time></trkpt>
			<trkpt lat="55.081643" lon="21.896882"><ele>14.5</ele><time>2026-05-28T19:36:59Z</time></trkpt>
			<trkpt lat="55.081650" lon="21.896840"><ele>14.5</ele><time>2026-05-28T19:37:08Z</time></trkpt>
			<trkpt lat="55.081660" lon="21.896240"><ele>14.3</ele><time>2026-05-28T19:37:17Z</time></trkpt>
			<trkpt lat="55.081620" lon="21.894830"><ele>14.0</ele><time>2026-05-28T19:37:25Z</time></trkpt>
			<trkpt lat="55.081620" lon="21.894830"><ele>14.0</ele><time>2026-05-28T19:37:36Z</time></trkpt>
			<trkpt lat="55.081570" lon="21.893340"><ele>13.6</ele><time>2026-05-28T19:37:46Z</time></trkpt>
			<trkpt lat="55.081540" lon="21.893180"><ele>13.5</ele><time>2026-05-28T19:37:57Z</time></trkpt>
			<trkpt lat="55.081140" lon="21.889820"><ele>12.6</ele><time>2026-05-28T19:38:07Z</time></trkpt>
			<trkpt lat="55.081070" lon="21.889010"><ele>12.4</ele><time>2026-05-28T19:38:18Z</time></trkpt>
			<trkpt lat="55.081070" lon="21.888950"><ele>12.4</ele><time>2026-05-28T19:38:28Z</time></trkpt>
			<trkpt lat="55.080890" lon="21.888900"><ele>12.4</ele><time>2026-05-28T19:38:39Z</time></trkpt>
			<trkpt lat="55.080380" lon="21.888380"><ele>12.6</ele><time>2026-05-28T19:38:49Z</time></trkpt>
			<trkpt lat="55.080230" lon="21.888350"><ele>12.6</ele><time>2026-05-28T19:38:59Z</time></trkpt>
			<trkpt lat="55.079520" lon="21.887400"><ele>12.8</ele><time>2026-05-28T19:39:10Z</time></trkpt>
			<trkpt lat="55.079230" lon="21.887010"><ele>12.9</ele><time>2026-05-28T19:39:20Z</time></trkpt>
			<trkpt lat="55.079150" lon="21.886760"><ele>13.0</ele><time>2026-05-28T19:39:31Z</time></trkpt>
			<trkpt lat="55.078950" lon="21.886670"><ele>13.0</ele><time>2026-05-28T19:39:41Z</time></trkpt>
			<trkpt lat="55.078850" lon="21.886520"><ele>13.1</ele><time>2026-05-28T19:39:52Z</time></trkpt>
			<trkpt lat="55.078846" lon="21.886525"><ele>13.1</ele><time>2026-05-28T19:40:10Z</time></trkpt>
			<trkpt lat="55.078650" lon="21.886250"><ele>13.1</ele><time>2026-05-28T19:40:28Z</time></trkpt>
			<trkpt lat="55.078410" lon="21.885880"><ele>13.2</ele><time>2026-05-28T19:40:46Z</time></trkpt>
			<trkpt lat="55.078200" lon="21.883950"><ele>13.5</ele><time>2026-05-28T19:41:05Z</time></trkpt>
			<trkpt lat="55.078170" lon="21.883760"><ele>13.5</ele><time>2026-05-28T19:41:23Z</time></trkpt>
			<trkpt lat="55.077850" lon="21.881370"><ele>13.6</ele><time>2026-05-28T19:41:41Z</time></trkpt>
			<trkpt lat="55.077680" lon="21.880850"><ele>13.4</ele><time>2026-05-28T19:41:59Z</time></trkpt>
			<trkpt lat="55.077400" lon="21.880090"><ele>13.2</ele><time>2026-05-28T19:42:17Z</time></trkpt>
			<trkpt lat="55.077210" lon="21.879510"><ele>13.1</ele><time>2026-05-28T19:42:36Z</time></trkpt>
			<trkpt lat="55.077170" lon="21.879360"><ele>13.1</ele><time>2026-05-28T19:42:54Z</time></trkpt>
			<trkpt lat="55.077150" lon="21.879240"><ele>13.0</ele><time>2026-05-28T19:43:12Z</time></trkpt>
			<trkpt lat="55.077100" lon="21.879020"><ele>13.0</ele><time>2026-05-28T19:43:30Z</time></trkpt>
			<trkpt lat="55.077070" lon="21.878580"><ele>12.9</ele><time>2026-05-28T19:43:48Z</time></trkpt>
			<trkpt lat="55.077060" lon="21.878440"><ele>12.9</ele><time>2026-05-28T19:44:07Z</time></trkpt>
			<trkpt lat="55.076940" lon="21.876920"><ele>12.5</ele><time>2026-05-28T19:44:25Z</time></trkpt>
			<trkpt lat="55.076950" lon="21.876290"><ele>12.4</ele><time>2026-05-28T19:44:43Z</time></trkpt>
			<trkpt lat="55.077000" lon="21.875660"><ele>12.2</ele><time>2026-05-28T19:45:01Z</time></trkpt>
			<trkpt lat="55.077040" lon="21.875330"><ele>12.2</ele><time>2026-05-28T19:45:19Z</time></trkpt>
			<trkpt lat="55.077250" lon="21.874560"><ele>12.0</ele><time>2026-05-28T19:45:38Z</time></trkpt>
			<trkpt lat="55.077280" lon="21.874450"><ele>12.0</ele><time>2026-05-28T19:45:56Z</time></trkpt>
			<trkpt lat="55.077300" lon="21.874330"><ele>11.9</ele><time>2026-05-28T19:46:14Z</time></trkpt>
			<trkpt lat="55.077300" lon="21.873830"><ele>11.8</ele><time>2026-05-28T19:46:32Z</time></trkpt>
			<trkpt lat="55.077290" lon="21.873630"><ele>11.8</ele><time>2026-05-28T19:46:50Z</time></trkpt>
			<trkpt lat="55.077270" lon="21.872950"><ele>11.6</ele><time>2026-05-28T19:47:09Z</time></trkpt>
			<trkpt lat="55.077270" lon="21.872490"><ele>11.6</ele><time>2026-05-28T19:47:27Z</time></trkpt>
			<trkpt lat="55.077290" lon="21.872080"><ele>11.5</ele><time>2026-05-28T19:47:45Z</time></trkpt>
			<trkpt lat="55.077350" lon="21.870910"><ele>11.3</ele><time>2026-05-28T19:48:03Z</time></trkpt>
			<trkpt lat="55.077530" lon="21.866900"><ele>10.6</ele><time>2026-05-28T19:48:22Z</time></trkpt>
			<trkpt lat="55.077640" lon="21.864320"><ele>10.2</ele><time>2026-05-28T19:48:40Z</time></trkpt>
			<trkpt lat="55.077690" lon="21.863230"><ele>10.4</ele><time>2026-05-28T19:48:58Z</time></trkpt>
			<trkpt lat="55.077800" lon="21.861230"><ele>11.4</ele><time>2026-05-28T19:49:16Z</time></trkpt>
			<trkpt lat="55.077810" lon="21.860890"><ele>11.6</ele><time>2026-05-28T19:49:34Z</time></trkpt>
			<trkpt lat="55.077870" lon="21.859720"><ele>12.2</ele><time>2026-05-28T19:49:53Z</time></trkpt>
			<trkpt lat="55.077930" lon="21.857890"><ele>13.1</ele><time>2026-05-28T19:50:11Z</time></trkpt>
			<trkpt lat="55.077950" lon="21.857520"><ele>13.2</ele><time>2026-05-28T19:50:29Z</time></trkpt>
			<trkpt lat="55.077960" lon="21.857030"><ele>13.5</ele><time>2026-05-28T19:50:47Z</time></trkpt>
			<trkpt lat="55.078010" lon="21.855490"><ele>14.2</ele><time>2026-05-28T19:51:05Z</time></trkpt>
			<trkpt lat="55.078050" lon="21.854650"><ele>14.6</ele><time>2026-05-28T19:51:24Z</time></trkpt>
			<trkpt lat="55.078130" lon="21.852700"><ele>13.8</ele><time>2026-05-28T19:51:42Z</time></trkpt>
			<trkpt lat="55.078220" lon="21.850430"><ele>12.6</ele><time>2026-05-28T19:52:00Z</time></trkpt>
			<trkpt lat="55.078250" lon="21.849620"><ele>12.2</ele><time>2026-05-28T19:52:18Z</time></trkpt>
			<trkpt lat="55.078260" lon="21.849360"><ele>12.1</ele><time>2026-05-28T19:52:36Z</time></trkpt>
			<trkpt lat="55.078360" lon="21.846880"><ele>10.8</ele><time>2026-05-28T19:52:55Z</time></trkpt>
			<trkpt lat="55.078400" lon="21.845380"><ele>10.1</ele><time>2026-05-28T19:53:13Z</time></trkpt>
			<trkpt lat="55.078410" lon="21.845150"><ele>10.0</ele><time>2026-05-28T19:53:31Z</time></trkpt>
			<trkpt lat="55.078450" lon="21.844120"><ele>10.0</ele><time>2026-05-28T19:53:49Z</time></trkpt>
			<trkpt lat="55.078480" lon="21.843070"><ele>10.0</ele><time>2026-05-28T19:54:07Z</time></trkpt>
			<trkpt lat="55.078480" lon="21.842620"><ele>10.1</ele><time>2026-05-28T19:54:26Z</time></trkpt>
			<trkpt lat="55.078110" lon="21.841590"><ele>10.1</ele><time>2026-05-28T19:54:44Z</time></trkpt>
			<trkpt lat="55.077200" lon="21.838950"><ele>10.2</ele><time>2026-05-28T19:55:02Z</time></trkpt>
			<trkpt lat="55.076080" lon="21.835600"><ele>11.1</ele><time>2026-05-28T19:55:20Z</time></trkpt>
			<trkpt lat="55.074340" lon="21.830360"><ele>15.0</ele><time>2026-05-28T19:55:38Z</time></trkpt>
			<trkpt lat="55.074010" lon="21.829370"><ele>15.8</ele><time>2026-05-28T19:55:57Z</time></trkpt>
			<trkpt lat="55.073260" lon="21.827100"><ele>16.5</ele><time>2026-05-28T19:56:15Z</time></trkpt>
			<trkpt lat="55.072950" lon="21.826130"><ele>16.6</ele><time>2026-05-28T19:56:33Z</time></trkpt>
			<trkpt lat="55.071720" lon="21.821580"><ele>16.8</ele><time>2026-05-28T19:56:51Z</time></trkpt>
			<trkpt lat="55.071690" lon="21.821540"><ele>16.8</ele><time>2026-05-28T19:57:09Z</time></trkpt>
			<trkpt lat="55.071390" lon="21.821350"><ele>16.8</ele><time>2026-05-28T19:57:28Z</time></trkpt>
			<trkpt lat="55.071220" lon="21.821180"><ele>16.9</ele><time>2026-05-28T19:57:46Z</time></trkpt>
			<trkpt lat="55.071150" lon="21.821000"><ele>16.9</ele><time>2026-05-28T19:58:04Z</time></trkpt>
			<trkpt lat="55.070930" lon="21.820300"><ele>17.1</ele><time>2026-05-28T19:58:22Z</time></trkpt>
			<trkpt lat="55.070570" lon="21.819230"><ele>18.1</ele><time>2026-05-28T19:58:41Z</time></trkpt>
			<trkpt lat="55.068550" lon="21.813350"><ele>23.5</ele><time>2026-05-28T19:58:59Z</time></trkpt>
			<trkpt lat="55.068140" lon="21.812190"><ele>24.2</ele><time>2026-05-28T19:59:17Z</time></trkpt>
			<trkpt lat="55.066770" lon="21.807980"><ele>23.2</ele><time>2026-05-28T19:59:35Z</time></trkpt>
			<trkpt lat="55.066690" lon="21.807760"><ele>23.1</ele><time>2026-05-28T19:59:53Z</time></trkpt>
			<trkpt lat="55.066350" lon="21.806700"><ele>22.9</ele><time>2026-05-28T20:00:12Z</time></trkpt>
			<trkpt lat="55.065760" lon="21.804910"><ele>22.4</ele><time>2026-05-28T20:00:30Z</time></trkpt>
			<trkpt lat="55.064520" lon="21.801320"><ele>23.9</ele><time>2026-05-28T20:00:48Z</time></trkpt>
			<trkpt lat="55.064520" lon="21.801320"><ele>23.9</ele><time>2026-05-28T20:01:03Z</time></trkpt>
			<trkpt lat="55.063470" lon="21.798270"><ele>25.6</ele><time>2026-05-28T20:01:18Z</time></trkpt>
			<trkpt lat="55.062890" lon="21.796700"><ele>26.5</ele><time>2026-05-28T20:01:33Z</time></trkpt>
			<trkpt lat="55.062390" lon="21.795390"><ele>26.5</ele><time>2026-05-28T20:01:49Z</time></trkpt>
			<trkpt lat="55.062320" lon="21.795150"><ele>26.5</ele><time>2026-05-28T20:02:04Z</time></trkpt>
			<trkpt lat="55.062260" lon="21.794900"><ele>26.4</ele><time>2026-05-28T20:02:19Z</time></trkpt>
			<trkpt lat="55.062240" lon="21.794740"><ele>26.4</ele><time>2026-05-28T20:02:34Z</time></trkpt>
			<trkpt lat="55.062240" lon="21.794490"><ele>26.4</ele><time>2026-05-28T20:02:49Z</time></trkpt>
			<trkpt lat="55.062240" lon="21.793880"><ele>26.3</ele><time>2026-05-28T20:03:04Z</time></trkpt>
			<trkpt lat="55.062230" lon="21.793270"><ele>26.1</ele><time>2026-05-28T20:03:19Z</time></trkpt>
			<trkpt lat="55.062260" lon="21.791290"><ele>25.8</ele><time>2026-05-28T20:03:35Z</time></trkpt>
			<trkpt lat="55.062400" lon="21.784820"><ele>24.9</ele><time>2026-05-28T20:03:50Z</time></trkpt>
			<trkpt lat="55.062370" lon="21.784080"><ele>24.9</ele><time>2026-05-28T20:04:05Z</time></trkpt>
			<trkpt lat="55.062340" lon="21.783580"><ele>24.8</ele><time>2026-05-28T20:04:20Z</time></trkpt>
			<trkpt lat="55.061850" lon="21.778730"><ele>24.5</ele><time>2026-05-28T20:04:35Z</time></trkpt>
			<trkpt lat="55.061550" lon="21.775760"><ele>24.3</ele><time>2026-05-28T20:04:50Z</time></trkpt>
			<trkpt lat="55.061420" lon="21.774520"><ele>24.3</ele><time>2026-05-28T20:05:06Z</time></trkpt>
			<trkpt lat="55.061030" lon="21.771950"><ele>24.2</ele><time>2026-05-28T20:05:21Z</time></trkpt>
			<trkpt lat="55.061020" lon="21.771890"><ele>24.2</ele><time>2026-05-28T20:05:36Z</time></trkpt>
			<trkpt lat="55.060760" lon="21.770200"><ele>24.1</ele><time>2026-05-28T20:05:51Z</time></trkpt>
			<trkpt lat="55.060310" lon="21.766500"><ele>23.4</ele><time>2026-05-28T20:06:06Z</time></trkpt>
			<trkpt lat="55.060180" lon="21.765810"><ele>23.2</ele><time>2026-05-28T20:06:21Z</time></trkpt>
			<trkpt lat="55.059900" lon="21.764450"><ele>22.8</ele><time>2026-05-28T20:06:36Z</time></trkpt>
			<trkpt lat="55.059060" lon="21.761320"><ele>21.7</ele><time>2026-05-28T20:06:52Z</time></trkpt>
			<trkpt lat="55.058410" lon="21.758800"><ele>20.6</ele><time>2026-05-28T20:07:07Z</time></trkpt>
			<trkpt lat="55.058380" lon="21.758690"><ele>20.5</ele><time>2026-05-28T20:07:22Z</time></trkpt>
			<trkpt lat="55.057880" lon="21.756770"><ele>19.1</ele><time>2026-05-28T20:07:37Z</time></trkpt>
			<trkpt lat="55.056980" lon="21.753720"><ele>16.9</ele><time>2026-05-28T20:07:52Z</time></trkpt>
			<trkpt lat="55.055600" lon="21.748990"><ele>12.6</ele><time>2026-05-28T20:08:07Z</time></trkpt>
			<trkpt lat="55.054710" lon="21.746000"><ele>9.2</ele><time>2026-05-28T20:08:23Z</time></trkpt>
			<trkpt lat="55.054320" lon="21.744790"><ele>7.8</ele><time>2026-05-28T20:08:38Z</time></trkpt>
			<trkpt lat="55.053500" lon="21.742040"><ele>5.1</ele><time>2026-05-28T20:08:53Z</time></trkpt>
			<trkpt lat="55.053020" lon="21.740380"><ele>4.0</ele><time>2026-05-28T20:09:08Z</time></trkpt>
			<trkpt lat="55.053010" lon="21.740330"><ele>4.0</ele><time>2026-05-28T20:09:23Z</time></trkpt>
			<trkpt lat="55.053000" lon="21.740290"><ele>4.0</ele><time>2026-05-28T20:09:38Z</time></trkpt>
			<trkpt lat="55.052490" lon="21.738460"><ele>2.8</ele><time>2026-05-28T20:09:53Z</time></trkpt>
			<trkpt lat="55.052410" lon="21.737980"><ele>2.5</ele><time>2026-05-28T20:10:09Z</time></trkpt>
			<trkpt lat="55.052270" lon="21.736280"><ele>1.5</ele><time>2026-05-28T20:10:24Z</time></trkpt>
			<trkpt lat="55.051770" lon="21.731440"><ele>0.2</ele><time>2026-05-28T20:10:39Z</time></trkpt>
			<trkpt lat="55.051330" lon="21.726730"><ele>0.3</ele><time>2026-05-28T20:10:54Z</time></trkpt>
			<trkpt lat="55.051140" lon="21.725520"><ele>0.3</ele><time>2026-05-28T20:11:09Z</time></trkpt>
			<trkpt lat="55.051060" lon="21.724940"><ele>0.3</ele><time>2026-05-28T20:11:24Z</time></trkpt>
			<trkpt lat="55.051010" lon="21.724440"><ele>0.3</ele><time>2026-05-28T20:11:39Z</time></trkpt>
			<trkpt lat="55.051010" lon="21.724200"><ele>0.2</ele><time>2026-05-28T20:11:55Z</time></trkpt>
			<trkpt lat="55.051020" lon="21.724040"><ele>0.2</ele><time>2026-05-28T20:12:10Z</time></trkpt>
			<trkpt lat="55.051040" lon="21.723830"><ele>0.2</ele><time>2026-05-28T20:12:25Z</time></trkpt>
			<trkpt lat="55.051060" lon="21.723670"><ele>0.2</ele><time>2026-05-28T20:12:40Z</time></trkpt>
			<trkpt lat="55.051280" lon="21.722510"><ele>0.0</ele><time>2026-05-28T20:12:55Z</time></trkpt>
			<trkpt lat="55.051620" lon="21.720530"><ele>-0.3</ele><time>2026-05-28T20:13:10Z</time></trkpt>
			<trkpt lat="55.051650" lon="21.720060"><ele>-0.3</ele><time>2026-05-28T20:13:26Z</time></trkpt>
			<trkpt lat="55.051640" lon="21.719510"><ele>-0.4</ele><time>2026-05-28T20:13:41Z</time></trkpt>
			<trkpt lat="55.051610" lon="21.718800"><ele>-0.5</ele><time>2026-05-28T20:13:56Z</time></trkpt>
			<trkpt lat="55.051370" lon="21.715030"><ele>-0.8</ele><time>2026-05-28T20:14:11Z</time></trkpt>
			<trkpt lat="55.051000" lon="21.709150"><ele>-0.3</ele><time>2026-05-28T20:14:26Z</time></trkpt>
			<trkpt lat="55.050990" lon="21.709000"><ele>-0.3</ele><time>2026-05-28T20:14:41Z</time></trkpt>
			<trkpt lat="55.050780" lon="21.705210"><ele>0.2</ele><time>2026-05-28T20:14:56Z</time></trkpt>
			<trkpt lat="55.050710" lon="21.704120"><ele>0.4</ele><time>2026-05-28T20:15:12Z</time></trkpt>
			<trkpt lat="55.050620" lon="21.703460"><ele>0.6</ele><time>2026-05-28T20:15:27Z</time></trkpt>
			<trkpt lat="55.050510" lon="21.702800"><ele>0.7</ele><time>2026-05-28T20:15:42Z</time></trkpt>
			<trkpt lat="55.050310" lon="21.701890"><ele>0.9</ele><time>2026-05-28T20:15:57Z</time></trkpt>
			<trkpt lat="55.050060" lon="21.700820"><ele>1.2</ele><time>2026-05-28T20:16:12Z</time></trkpt>
			<trkpt lat="55.049200" lon="21.697390"><ele>1.9</ele><time>2026-05-28T20:16:27Z</time></trkpt>
			<trkpt lat="55.049030" lon="21.696670"><ele>2.3</ele><time>2026-05-28T20:16:43Z</time></trkpt>
			<trkpt lat="55.048430" lon="21.693240"><ele>4.3</ele><time>2026-05-28T20:16:58Z</time></trkpt>
			<trkpt lat="55.048330" lon="21.693030"><ele>4.4</ele><time>2026-05-28T20:17:13Z</time></trkpt>
			<trkpt lat="55.047980" lon="21.692450"><ele>4.9</ele><time>2026-05-28T20:17:28Z</time></trkpt>
			<trkpt lat="55.047720" lon="21.692120"><ele>5.2</ele><time>2026-05-28T20:17:43Z</time></trkpt>
			<trkpt lat="55.047530" lon="21.691700"><ele>5.5</ele><time>2026-05-28T20:17:58Z</time></trkpt>
			<trkpt lat="55.047400" lon="21.691390"><ele>5.7</ele><time>2026-05-28T20:18:13Z</time></trkpt>
			<trkpt lat="55.047200" lon="21.690790"><ele>6.1</ele><time>2026-05-28T20:18:29Z</time></trkpt>
			<trkpt lat="55.046990" lon="21.689990"><ele>6.6</ele><time>2026-05-28T20:18:44Z</time></trkpt>
			<trkpt lat="55.046610" lon="21.688400"><ele>6.8</ele><time>2026-05-28T20:18:59Z</time></trkpt>
			<trkpt lat="55.046530" lon="21.688090"><ele>6.7</ele><time>2026-05-28T20:19:14Z</time></trkpt>
			<trkpt lat="55.046330" lon="21.687270"><ele>6.3</ele><time>2026-05-28T20:19:29Z</time></trkpt>
			<trkpt lat="55.046270" lon="21.687030"><ele>6.2</ele><time>2026-05-28T20:19:44Z</time></trkpt>
			<trkpt lat="55.046070" lon="21.686320"><ele>5.8</ele><time>2026-05-28T20:19:59Z</time></trkpt>
			<trkpt lat="55.045820" lon="21.685610"><ele>5.4</ele><time>2026-05-28T20:20:15Z</time></trkpt>
			<trkpt lat="55.045790" lon="21.685520"><ele>5.4</ele><time>2026-05-28T20:20:30Z</time></trkpt>
			<trkpt lat="55.045530" lon="21.684810"><ele>5.0</ele><time>2026-05-28T20:20:45Z</time></trkpt>
			<trkpt lat="55.045110" lon="21.683680"><ele>4.4</ele><time>2026-05-28T20:21:00Z</time></trkpt>
			<trkpt lat="55.043724" lon="21.679724"><ele>3.1</ele><time>2026-05-28T20:27:09Z</time></trkpt>
			<trkpt lat="55.043720" lon="21.679720"><ele>3.1</ele><time>2026-05-28T20:27:13Z</time></trkpt>
			<trkpt lat="55.043710" lon="21.679720"><ele>3.1</ele><time>2026-05-28T20:27:17Z</time></trkpt>
			<trkpt lat="55.043530" lon="21.679180"><ele>3.1</ele><time>2026-05-28T20:27:21Z</time></trkpt>
			<trkpt lat="55.043430" lon="21.678900"><ele>3.2</ele><time>2026-05-28T20:27:24Z</time></trkpt>
			<trkpt lat="55.043210" lon="21.678260"><ele>3.2</ele><time>2026-05-28T20:27:28Z</time></trkpt>
			<trkpt lat="55.043120" lon="21.678010"><ele>3.3</ele><time>2026-05-28T20:27:32Z</time></trkpt>
			<trkpt lat="55.042570" lon="21.676420"><ele>3.4</ele><time>2026-05-28T20:27:36Z</time></trkpt>
			<trkpt lat="55.042130" lon="21.675100"><ele>3.5</ele><time>2026-05-28T20:27:40Z</time></trkpt>
			<trkpt lat="55.041890" lon="21.674390"><ele>3.6</ele><time>2026-05-28T20:27:44Z</time></trkpt>
			<trkpt lat="55.041830" lon="21.674190"><ele>3.6</ele><time>2026-05-28T20:27:47Z</time></trkpt>
			<trkpt lat="55.041150" lon="21.672130"><ele>3.5</ele><time>2026-05-28T20:27:51Z</time></trkpt>
			<trkpt lat="55.040980" lon="21.671620"><ele>3.3</ele><time>2026-05-28T20:27:55Z</time></trkpt>
			<trkpt lat="55.040830" lon="21.671140"><ele>3.1</ele><time>2026-05-28T20:27:59Z</time></trkpt>
			<trkpt lat="55.040830" lon="21.671140"><ele>3.1</ele><time>2026-05-28T20:28:05Z</time></trkpt>
			<trkpt lat="55.040530" lon="21.670180"><ele>2.7</ele><time>2026-05-28T20:28:11Z</time></trkpt>
			<trkpt lat="55.040470" lon="21.670000"><ele>2.6</ele><time>2026-05-28T20:28:17Z</time></trkpt>
			<trkpt lat="55.040440" lon="21.669910"><ele>2.6</ele><time>2026-05-28T20:28:22Z</time></trkpt>
			<trkpt lat="55.040320" lon="21.669500"><ele>2.4</ele><time>2026-05-28T20:28:28Z</time></trkpt>
			<trkpt lat="55.040250" lon="21.669280"><ele>2.3</ele><time>2026-05-28T20:28:34Z</time></trkpt>
			<trkpt lat="55.040140" lon="21.668700"><ele>2.1</ele><time>2026-05-28T20:28:40Z</time></trkpt>
			<trkpt lat="55.040120" lon="21.668440"><ele>2.0</ele><time>2026-05-28T20:28:46Z</time></trkpt>
			<trkpt lat="55.040110" lon="21.667980"><ele>1.8</ele><time>2026-05-28T20:28:52Z</time></trkpt>
			<trkpt lat="55.040120" lon="21.667100"><ele>1.5</ele><time>2026-05-28T20:28:58Z</time></trkpt>
			<trkpt lat="55.040130" lon="21.666100"><ele>1.1</ele><time>2026-05-28T20:29:04Z</time></trkpt>
			<trkpt lat="55.040140" lon="21.665400"><ele>0.9</ele><time>2026-05-28T20:29:09Z</time></trkpt>
			<trkpt lat="55.040140" lon="21.663840"><ele>0.3</ele><time>2026-05-28T20:29:15Z</time></trkpt>
			<trkpt lat="55.040140" lon="21.663490"><ele>0.3</ele><time>2026-05-28T20:29:21Z</time></trkpt>
			<trkpt lat="55.040130" lon="21.662610"><ele>0.1</ele><time>2026-05-28T20:29:27Z</time></trkpt>
			<trkpt lat="55.040100" lon="21.662040"><ele>-0.0</ele><time>2026-05-28T20:29:33Z</time></trkpt>
			<trkpt lat="55.040060" lon="21.660830"><ele>-0.3</ele><time>2026-05-28T20:29:39Z</time></trkpt>
			<trkpt lat="55.040050" lon="21.660500"><ele>-0.4</ele><time>2026-05-28T20:29:45Z</time></trkpt>
			<trkpt lat="55.040000" lon="21.659840"><ele>-0.5</ele><time>2026-05-28T20:29:51Z</time></trkpt>
			<trkpt lat="55.039920" lon="21.659460"><ele>-0.6</ele><time>2026-05-28T20:29:57Z</time></trkpt>
			<trkpt lat="55.039800" lon="21.659030"><ele>-0.7</ele><time>2026-05-28T20:30:02Z</time></trkpt>
			<trkpt lat="55.039400" lon="21.657680"><ele>-1.0</ele><time>2026-05-28T20:30:08Z</time></trkpt>
			<trkpt lat="55.038890" lon="21.656020"><ele>-1.4</ele><time>2026-05-28T20:30:14Z</time></trkpt>
			<trkpt lat="55.036880" lon="21.649300"><ele>-2.4</ele><time>2026-05-28T20:30:20Z</time></trkpt>
			<trkpt lat="55.036760" lon="21.648920"><ele>-2.4</ele><time>2026-05-28T20:30:26Z</time></trkpt>
			<trkpt lat="55.036490" lon="21.648190"><ele>-2.5</ele><time>2026-05-28T20:30:32Z</time></trkpt>
			<trkpt lat="55.036220" lon="21.647600"><ele>-2.6</ele><time>2026-05-28T20:30:38Z</time></trkpt>
			<trkpt lat="55.035130" lon="21.645250"><ele>-2.0</ele><time>2026-05-28T20:30:44Z</time></trkpt>
			<trkpt lat="55.035040" lon="21.645060"><ele>-1.9</ele><time>2026-05-28T20:30:49Z</time></trkpt>
			<trkpt lat="55.033740" lon="21.642090"><ele>-0.6</ele><time>2026-05-28T20:30:55Z</time></trkpt>
			<trkpt lat="55.033430" lon="21.641340"><ele>-0.3</ele><time>2026-05-28T20:31:01Z</time></trkpt>
			<trkpt lat="55.033300" lon="21.641050"><ele>-0.1</ele><time>2026-05-28T20:31:07Z</time></trkpt>
			<trkpt lat="55.033130" lon="21.640690"><ele>0.0</ele><time>2026-05-28T20:31:13Z</time></trkpt>
			<trkpt lat="55.032620" lon="21.639830"><ele>0.5</ele><time>2026-05-28T20:31:19Z</time></trkpt>
			<trkpt lat="55.032440" lon="21.639490"><ele>0.6</ele><time>2026-05-28T20:31:25Z</time></trkpt>
			<trkpt lat="55.032310" lon="21.639210"><ele>0.6</ele><time>2026-05-28T20:31:31Z</time></trkpt>
			<trkpt lat="55.032120" lon="21.638740"><ele>0.6</ele><time>2026-05-28T20:31:36Z</time></trkpt>
			<trkpt lat="55.031870" lon="21.638130"><ele>0.6</ele><time>2026-05-28T20:31:42Z</time></trkpt>
			<trkpt lat="55.031320" lon="21.636740"><ele>0.6</ele><time>2026-05-28T20:31:48Z</time></trkpt>
			<trkpt lat="55.030980" lon="21.635810"><ele>0.6</ele><time>2026-05-28T20:31:54Z</time></trkpt>
			<trkpt lat="55.030250" lon="21.633930"><ele>0.6</ele><time>2026-05-28T20:32:00Z</time></trkpt>
			<trkpt lat="55.029600" lon="21.632330"><ele>0.6</ele><time>2026-05-28T20:32:06Z</time></trkpt>
			<trkpt lat="55.028670" lon="21.630280"><ele>2.5</ele><time>2026-05-28T20:32:12Z</time></trkpt>
			<trkpt lat="55.028370" lon="21.629620"><ele>3.3</ele><time>2026-05-28T20:32:18Z</time></trkpt>
			<trkpt lat="55.028080" lon="21.629060"><ele>4.0</ele><time>2026-05-28T20:32:23Z</time></trkpt>
			<trkpt lat="55.027910" lon="21.628820"><ele>4.4</ele><time>2026-05-28T20:32:29Z</time></trkpt>
			<trkpt lat="55.027490" lon="21.628320"><ele>5.2</ele><time>2026-05-28T20:32:35Z</time></trkpt>
			<trkpt lat="55.026920" lon="21.627620"><ele>6.4</ele><time>2026-05-28T20:32:41Z</time></trkpt>
			<trkpt lat="55.026270" lon="21.626750"><ele>7.7</ele><time>2026-05-28T20:32:47Z</time></trkpt>
			<trkpt lat="55.025780" lon="21.626260"><ele>8.6</ele><time>2026-05-28T20:32:53Z</time></trkpt>
			<trkpt lat="55.025440" lon="21.626140"><ele>9.2</ele><time>2026-05-28T20:32:59Z</time></trkpt>
			<trkpt lat="55.024790" lon="21.626030"><ele>9.8</ele><time>2026-05-28T20:33:05Z</time></trkpt>
			<trkpt lat="55.023880" lon="21.625840"><ele>10.5</ele><time>2026-05-28T20:33:10Z</time></trkpt>
			<trkpt lat="55.023550" lon="21.625760"><ele>10.7</ele><time>2026-05-28T20:33:16Z</time></trkpt>
			<trkpt lat="55.022580" lon="21.625510"><ele>11.5</ele><time>2026-05-28T20:33:22Z</time></trkpt>
			<trkpt lat="55.022280" lon="21.625500"><ele>11.7</ele><time>2026-05-28T20:33:28Z</time></trkpt>
			<trkpt lat="55.021710" lon="21.625430"><ele>12.1</ele><time>2026-05-28T20:33:34Z</time></trkpt>
			<trkpt lat="55.021400" lon="21.625330"><ele>12.3</ele><time>2026-05-28T20:33:40Z</time></trkpt>
			<trkpt lat="55.021100" lon="21.625070"><ele>12.6</ele><time>2026-05-28T20:33:46Z</time></trkpt>
			<trkpt lat="55.020770" lon="21.624580"><ele>12.9</ele><time>2026-05-28T20:33:52Z</time></trkpt>
			<trkpt lat="55.019580" lon="21.622780"><ele>14.1</ele><time>2026-05-28T20:33:58Z</time></trkpt>
			<trkpt lat="55.019040" lon="21.621900"><ele>14.7</ele><time>2026-05-28T20:34:03Z</time></trkpt>
			<trkpt lat="55.018290" lon="21.620600"><ele>15.5</ele><time>2026-05-28T20:34:09Z</time></trkpt>
			<trkpt lat="55.017970" lon="21.619980"><ele>15.9</ele><time>2026-05-28T20:34:15Z</time></trkpt>
			<trkpt lat="55.017640" lon="21.619350"><ele>16.2</ele><time>2026-05-28T20:34:21Z</time></trkpt>
			<trkpt lat="55.016590" lon="21.617450"><ele>17.4</ele><time>2026-05-28T20:34:27Z</time></trkpt>
			<trkpt lat="55.015760" lon="21.615880"><ele>17.1</ele><time>2026-05-28T20:34:33Z</time></trkpt>
			<trkpt lat="55.015020" lon="21.614260"><ele>16.3</ele><time>2026-05-28T20:34:39Z</time></trkpt>
			<trkpt lat="55.014290" lon="21.612820"><ele>15.7</ele><time>2026-05-28T20:34:45Z</time></trkpt>
			<trkpt lat="55.014160" lon="21.612410"><ele>15.5</ele><time>2026-05-28T20:34:50Z</time></trkpt>
			<trkpt lat="55.014140" lon="21.612200"><ele>15.4</ele><time>2026-05-28T20:34:56Z</time></trkpt>
			<trkpt lat="55.014050" lon="21.611310"><ele>15.1</ele><time>2026-05-28T20:35:02Z</time></trkpt>
			<trkpt lat="55.013740" lon="21.607530"><ele>11.5</ele><time>2026-05-28T20:35:08Z</time></trkpt>
			<trkpt lat="55.013470" lon="21.605310"><ele>7.6</ele><time>2026-05-28T20:35:14Z</time></trkpt>
			<trkpt lat="55.013190" lon="21.603010"><ele>3.5</ele><time>2026-05-28T20:35:20Z</time></trkpt>
			<trkpt lat="55.013070" lon="21.600750"><ele>-0.5</ele><time>2026-05-28T20:35:26Z</time></trkpt>
			<trkpt lat="55.013050" lon="21.600160"><ele>-1.5</ele><time>2026-05-28T20:35:32Z</time></trkpt>
			<trkpt lat="55.013060" lon="21.599570"><ele>-2.1</ele><time>2026-05-28T20:35:37Z</time></trkpt>
			<trkpt lat="55.013120" lon="21.598130"><ele>-2.2</ele><time>2026-05-28T20:35:43Z</time></trkpt>
			<trkpt lat="55.013110" lon="21.597860"><ele>-2.3</ele><time>2026-05-28T20:35:49Z</time></trkpt>
			<trkpt lat="55.013090" lon="21.597590"><ele>-2.3</ele><time>2026-05-28T20:35:55Z</time></trkpt>
			<trkpt lat="55.013000" lon="21.596660"><ele>-2.4</ele><time>2026-05-28T20:36:01Z</time></trkpt>
			<trkpt lat="55.012930" lon="21.595940"><ele>-2.5</ele><time>2026-05-28T20:36:07Z</time></trkpt>
			<trkpt lat="55.012940" lon="21.594750"><ele>-2.6</ele><time>2026-05-28T20:36:13Z</time></trkpt>
			<trkpt lat="55.012930" lon="21.594140"><ele>-2.6</ele><time>2026-05-28T20:36:19Z</time></trkpt>
			<trkpt lat="55.012820" lon="21.586540"><ele>-2.6</ele><time>2026-05-28T20:36:24Z</time></trkpt>
			<trkpt lat="55.012710" lon="21.582940"><ele>-2.2</ele><time>2026-05-28T20:36:30Z</time></trkpt>
			<trkpt lat="55.012640" lon="21.581580"><ele>-2.1</ele><time>2026-05-28T20:36:36Z</time></trkpt>
			<trkpt lat="55.012580" lon="21.580980"><ele>-2.0</ele><time>2026-05-28T20:36:42Z</time></trkpt>
			<trkpt lat="55.012530" lon="21.580230"><ele>-2.0</ele><time>2026-05-28T20:36:48Z</time></trkpt>
			<trkpt lat="55.012480" lon="21.579440"><ele>-1.9</ele><time>2026-05-28T20:36:54Z</time></trkpt>
			<trkpt lat="55.012500" lon="21.578680"><ele>-1.9</ele><time>2026-05-28T20:37:00Z</time></trkpt>
			<trkpt lat="55.012630" lon="21.576910"><ele>-1.8</ele><time>2026-05-28T20:37:06Z</time></trkpt>
			<trkpt lat="55.012750" lon="21.575100"><ele>-1.7</ele><time>2026-05-28T20:37:11Z</time></trkpt>
			<trkpt lat="55.012960" lon="21.571350"><ele>-1.4</ele><time>2026-05-28T20:37:17Z</time></trkpt>
			<trkpt lat="55.013030" lon="21.570350"><ele>-1.4</ele><time>2026-05-28T20:37:23Z</time></trkpt>
			<trkpt lat="55.013060" lon="21.569510"><ele>-1.3</ele><time>2026-05-28T20:37:29Z</time></trkpt>
			<trkpt lat="55.013080" lon="21.568280"><ele>-1.2</ele><time>2026-05-28T20:37:35Z</time></trkpt>
			<trkpt lat="55.013080" lon="21.567580"><ele>-1.1</ele><time>2026-05-28T20:37:41Z</time></trkpt>
			<trkpt lat="55.013030" lon="21.566880"><ele>-1.0</ele><time>2026-05-28T20:37:47Z</time></trkpt>
			<trkpt lat="55.013010" lon="21.566440"><ele>-1.0</ele><time>2026-05-28T20:37:53Z</time></trkpt>
			<trkpt lat="55.013000" lon="21.566400"><ele>-1.0</ele><time>2026-05-28T20:37:59Z</time></trkpt>
			<trkpt lat="55.012980" lon="21.566010"><ele>-1.0</ele><time>2026-05-28T20:38:04Z</time></trkpt>
			<trkpt lat="55.012950" lon="21.565680"><ele>-0.9</ele><time>2026-05-28T20:38:10Z</time></trkpt>
			<trkpt lat="55.012900" lon="21.565310"><ele>-0.9</ele><time>2026-05-28T20:38:16Z</time></trkpt>
			<trkpt lat="55.012860" lon="21.565140"><ele>-0.9</ele><time>2026-05-28T20:38:22Z</time></trkpt>
			<trkpt lat="55.012760" lon="21.564710"><ele>-0.8</ele><time>2026-05-28T20:38:28Z</time></trkpt>
			<trkpt lat="55.012000" lon="21.561680"><ele>-0.8</ele><time>2026-05-28T20:38:34Z</time></trkpt>
			<trkpt lat="55.011940" lon="21.561380"><ele>-0.9</ele><time>2026-05-28T20:38:40Z</time></trkpt>
			<trkpt lat="55.011390" lon="21.561880"><ele>-1.1</ele><time>2026-05-28T20:38:46Z</time></trkpt>
			<trkpt lat="55.011300" lon="21.562040"><ele>-1.1</ele><time>2026-05-28T20:38:51Z</time></trkpt>
			<trkpt lat="55.009940" lon="21.563370"><ele>-1.7</ele><time>2026-05-28T20:38:57Z</time></trkpt>
			<trkpt lat="55.008740" lon="21.564620"><ele>-2.1</ele><time>2026-05-28T20:39:03Z</time></trkpt>
			<trkpt lat="55.008420" lon="21.564960"><ele>-2.3</ele><time>2026-05-28T20:39:09Z</time></trkpt>
			<trkpt lat="55.008220" lon="21.565150"><ele>-2.3</ele><time>2026-05-28T20:39:15Z</time></trkpt>
			<trkpt lat="55.003980" lon="21.569270"><ele>-3.1</ele><time>2026-05-28T20:39:21Z</time></trkpt>
			<trkpt lat="55.003980" lon="21.569270"><ele>-3.1</ele><time>2026-05-28T20:39:32Z</time></trkpt>
			<trkpt lat="55.003890" lon="21.569350"><ele>-3.1</ele><time>2026-05-28T20:39:43Z</time></trkpt>
			<trkpt lat="55.003810" lon="21.569430"><ele>-3.1</ele><time>2026-05-28T20:39:54Z</time></trkpt>
			<trkpt lat="54.998150" lon="21.575080"><ele>-3.2</ele><time>2026-05-28T20:40:05Z</time></trkpt>
			<trkpt lat="54.997960" lon="21.575240"><ele>-3.1</ele><time>2026-05-28T20:40:17Z</time></trkpt>
			<trkpt lat="54.997860" lon="21.575280"><ele>-3.1</ele><time>2026-05-28T20:40:28Z</time></trkpt>
			<trkpt lat="54.997750" lon="21.575310"><ele>-3.1</ele><time>2026-05-28T20:40:39Z</time></trkpt>
			<trkpt lat="54.997460" lon="21.575260"><ele>-2.9</ele><time>2026-05-28T20:40:50Z</time></trkpt>
			<trkpt lat="54.989420" lon="21.573130"><ele>-0.8</ele><time>2026-05-28T20:41:01Z</time></trkpt>
			<trkpt lat="54.988710" lon="21.572950"><ele>-0.8</ele><time>2026-05-28T20:41:12Z</time></trkpt>
			<trkpt lat="54.988250" lon="21.572910"><ele>-0.7</ele><time>2026-05-28T20:41:23Z</time></trkpt>
			<trkpt lat="54.987500" lon="21.573070"><ele>-0.8</ele><time>2026-05-28T20:41:35Z</time></trkpt>
			<trkpt lat="54.984590" lon="21.573570"><ele>-1.5</ele><time>2026-05-28T20:41:46Z</time></trkpt>
			<trkpt lat="54.984210" lon="21.573710"><ele>-1.6</ele><time>2026-05-28T20:41:57Z</time></trkpt>
			<trkpt lat="54.983760" lon="21.574120"><ele>-1.7</ele><time>2026-05-28T20:42:08Z</time></trkpt>
			<trkpt lat="54.979250" lon="21.578780"><ele>-1.5</ele><time>2026-05-28T20:42:19Z</time></trkpt>
			<trkpt lat="54.976930" lon="21.581190"><ele>-1.4</ele><time>2026-05-28T20:42:30Z</time></trkpt>
			<trkpt lat="54.973600" lon="21.582820"><ele>-1.5</ele><time>2026-05-28T20:42:41Z</time></trkpt>
			<trkpt lat="54.973250" lon="21.583000"><ele>-1.5</ele><time>2026-05-28T20:42:53Z</time></trkpt>
			<trkpt lat="54.972800" lon="21.583240"><ele>-1.5</ele><time>2026-05-28T20:43:04Z</time></trkpt>
			<trkpt lat="54.971200" lon="21.584060"><ele>-1.8</ele><time>2026-05-28T20:43:15Z</time></trkpt>
			<trkpt lat="54.970780" lon="21.584260"><ele>-1.8</ele><time>2026-05-28T20:43:26Z</time></trkpt>
			<trkpt lat="54.964190" lon="21.587580"><ele>-1.2</ele><time>2026-05-28T20:43:37Z</time></trkpt>
			<trkpt lat="54.963650" lon="21.587880"><ele>-1.1</ele><time>2026-05-28T20:43:48Z</time></trkpt>
			<trkpt lat="54.963370" lon="21.588110"><ele>-1.0</ele><time>2026-05-28T20:43:59Z</time></trkpt>
			<trkpt lat="54.960490" lon="21.590820"><ele>-0.0</ele><time>2026-05-28T20:44:11Z</time></trkpt>
			<trkpt lat="54.957180" lon="21.593810"><ele>1.8</ele><time>2026-05-28T20:44:22Z</time></trkpt>
			<trkpt lat="54.953390" lon="21.597230"><ele>6.3</ele><time>2026-05-28T20:44:33Z</time></trkpt>
			<trkpt lat="54.948040" lon="21.602110"><ele>6.8</ele><time>2026-05-28T20:44:44Z</time></trkpt>
			<trkpt lat="54.942050" lon="21.607580"><ele>6.0</ele><time>2026-05-28T20:44:55Z</time></trkpt>
			<trkpt lat="54.941680" lon="21.607830"><ele>5.3</ele><time>2026-05-28T20:45:06Z</time></trkpt>
			<trkpt lat="54.941310" lon="21.607950"><ele>4.7</ele><time>2026-05-28T20:45:18Z</time></trkpt>
			<trkpt lat="54.937850" lon="21.608240"><ele>0.2</ele><time>2026-05-28T20:45:29Z</time></trkpt>
			<trkpt lat="54.930680" lon="21.608830"><ele>0.5</ele><time>2026-05-28T20:45:40Z</time></trkpt>
			<trkpt lat="54.923530" lon="21.609300"><ele>1.1</ele><time>2026-05-28T20:45:51Z</time></trkpt>
			<trkpt lat="54.922740" lon="21.609370"><ele>1.4</ele><time>2026-05-28T20:46:02Z</time></trkpt>
			<trkpt lat="54.922600" lon="21.609390"><ele>1.4</ele><time>2026-05-28T20:46:13Z</time></trkpt>
			<trkpt lat="54.922390" lon="21.609480"><ele>1.5</ele><time>2026-05-28T20:46:24Z</time></trkpt>
			<trkpt lat="54.922280" lon="21.609540"><ele>1.5</ele><time>2026-05-28T20:46:36Z</time></trkpt>
			<trkpt lat="54.922100" lon="21.609680"><ele>1.5</ele><time>2026-05-28T20:46:47Z</time></trkpt>
			<trkpt lat="54.921100" lon="21.610650"><ele>1.5</ele><time>2026-05-28T20:46:58Z</time></trkpt>
			<trkpt lat="54.920700" lon="21.611070"><ele>1.5</ele><time>2026-05-28T20:47:09Z</time></trkpt>
			<trkpt lat="54.920290" lon="21.611440"><ele>1.5</ele><time>2026-05-28T20:47:20Z</time></trkpt>
			<trkpt lat="54.919790" lon="21.612030"><ele>1.5</ele><time>2026-05-28T20:47:31Z</time></trkpt>
			<trkpt lat="54.919360" lon="21.612550"><ele>1.5</ele><time>2026-05-28T20:47:42Z</time></trkpt>
			<trkpt lat="54.918220" lon="21.614220"><ele>1.4</ele><time>2026-05-28T20:47:54Z</time></trkpt>
			<trkpt lat="54.917650" lon="21.615100"><ele>1.4</ele><time>2026-05-28T20:48:05Z</time></trkpt>
			<trkpt lat="54.917270" lon="21.615590"><ele>1.4</ele><time>2026-05-28T20:48:16Z</time></trkpt>
			<trkpt lat="54.916940" lon="21.615930"><ele>1.3</ele><time>2026-05-28T20:48:27Z</time></trkpt>
			<trkpt lat="54.915980" lon="21.616850"><ele>1.2</ele><time>2026-05-28T20:48:38Z</time></trkpt>
			<trkpt lat="54.915210" lon="21.617670"><ele>1.2</ele><time>2026-05-28T20:48:49Z</time></trkpt>
			<trkpt lat="54.914180" lon="21.618850"><ele>1.1</ele><time>2026-05-28T20:49:00Z</time></trkpt>
			<trkpt lat="54.908400" lon="21.625740"><ele>0.8</ele><time>2026-05-28T20:49:12Z</time></trkpt>
			<trkpt lat="54.905840" lon="21.628970"><ele>1.4</ele><time>2026-05-28T20:49:23Z</time></trkpt>
			<trkpt lat="54.904630" lon="21.630500"><ele>1.7</ele><time>2026-05-28T20:49:34Z</time></trkpt>
			<trkpt lat="54.901690" lon="21.633750"><ele>4.6</ele><time>2026-05-28T20:49:45Z</time></trkpt>
			<trkpt lat="54.900130" lon="21.636020"><ele>6.4</ele><time>2026-05-28T20:49:56Z</time></trkpt>
			<trkpt lat="54.897310" lon="21.640090"><ele>6.5</ele><time>2026-05-28T20:50:07Z</time></trkpt>
			<trkpt lat="54.896260" lon="21.641530"><ele>6.5</ele><time>2026-05-28T20:50:19Z</time></trkpt>
			<trkpt lat="54.893540" lon="21.644450"><ele>7.0</ele><time>2026-05-28T20:50:30Z</time></trkpt>
			<trkpt lat="54.891040" lon="21.647160"><ele>7.4</ele><time>2026-05-28T20:50:41Z</time></trkpt>
			<trkpt lat="54.890090" lon="21.648150"><ele>7.2</ele><time>2026-05-28T20:50:52Z</time></trkpt>
			<trkpt lat="54.889770" lon="21.648470"><ele>7.1</ele><time>2026-05-28T20:51:03Z</time></trkpt>
			<trkpt lat="54.889370" lon="21.648730"><ele>7.0</ele><time>2026-05-28T20:51:14Z</time></trkpt>
			<trkpt lat="54.889250" lon="21.648780"><ele>7.0</ele><time>2026-05-28T20:51:25Z</time></trkpt>
			<trkpt lat="54.888870" lon="21.648790"><ele>6.9</ele><time>2026-05-28T20:51:37Z</time></trkpt>
			<trkpt lat="54.888780" lon="21.648790"><ele>6.9</ele><time>2026-05-28T20:51:48Z</time></trkpt>
			<trkpt lat="54.888200" lon="21.648670"><ele>6.7</ele><time>2026-05-28T20:51:59Z</time></trkpt>
			<trkpt lat="54.887410" lon="21.648590"><ele>6.6</ele><time>2026-05-28T20:52:10Z</time></trkpt>
			<trkpt lat="54.884860" lon="21.648850"><ele>6.1</ele><time>2026-05-28T20:52:21Z</time></trkpt>
			<trkpt lat="54.884770" lon="21.648860"><ele>6.1</ele><time>2026-05-28T20:52:32Z</time></trkpt>
			<trkpt lat="54.884400" lon="21.648900"><ele>6.0</ele><time>2026-05-28T20:52:43Z</time></trkpt>
			<trkpt lat="54.883650" lon="21.648960"><ele>5.9</ele><time>2026-05-28T20:52:55Z</time></trkpt>
			<trkpt lat="54.882700" lon="21.649080"><ele>5.8</ele><time>2026-05-28T20:53:06Z</time></trkpt>
			<trkpt lat="54.881780" lon="21.649170"><ele>5.7</ele><time>2026-05-28T20:53:17Z</time></trkpt>
			<trkpt lat="54.879680" lon="21.649710"><ele>6.7</ele><time>2026-05-28T20:53:28Z</time></trkpt>
			<trkpt lat="54.878190" lon="21.650040"><ele>8.5</ele><time>2026-05-28T20:53:39Z</time></trkpt>
			<trkpt lat="54.877390" lon="21.650220"><ele>9.5</ele><time>2026-05-28T20:53:50Z</time></trkpt>
			<trkpt lat="54.876810" lon="21.650200"><ele>10.2</ele><time>2026-05-28T20:54:01Z</time></trkpt>
			<trkpt lat="54.876710" lon="21.650200"><ele>10.3</ele><time>2026-05-28T20:54:13Z</time></trkpt>
			<trkpt lat="54.876300" lon="21.650180"><ele>10.8</ele><time>2026-05-28T20:54:24Z</time></trkpt>
			<trkpt lat="54.876360" lon="21.649790"><ele>11.1</ele><time>2026-05-28T20:54:35Z</time></trkpt>
			<trkpt lat="54.876380" lon="21.649590"><ele>11.3</ele><time>2026-05-28T20:54:46Z</time></trkpt>
			<trkpt lat="54.876370" lon="21.649430"><ele>11.4</ele><time>2026-05-28T20:54:57Z</time></trkpt>
			<trkpt lat="54.876350" lon="21.649300"><ele>11.5</ele><time>2026-05-28T20:55:08Z</time></trkpt>
			<trkpt lat="54.876290" lon="21.649060"><ele>11.7</ele><time>2026-05-28T20:55:19Z</time></trkpt>
			<trkpt lat="54.875900" lon="21.647850"><ele>11.2</ele><time>2026-05-28T20:55:31Z</time></trkpt>
			<trkpt lat="54.875820" lon="21.647630"><ele>11.0</ele><time>2026-05-28T20:55:42Z</time></trkpt>
			<trkpt lat="54.875700" lon="21.647420"><ele>10.7</ele><time>2026-05-28T20:55:53Z</time></trkpt>
			<trkpt lat="54.874840" lon="21.646220"><ele>8.7</ele><time>2026-05-28T20:56:04Z</time></trkpt>
			<trkpt lat="54.873680" lon="21.644620"><ele>6.1</ele><time>2026-05-28T20:56:15Z</time></trkpt>
			<trkpt lat="54.867430" lon="21.635910"><ele>5.3</ele><time>2026-05-28T20:56:26Z</time></trkpt>
			<trkpt lat="54.865430" lon="21.633120"><ele>4.8</ele><time>2026-05-28T20:56:38Z</time></trkpt>
			<trkpt lat="54.860930" lon="21.626850"><ele>3.1</ele><time>2026-05-28T20:56:49Z</time></trkpt>
			<trkpt lat="54.860730" lon="21.626580"><ele>3.0</ele><time>2026-05-28T20:57:00Z</time></trkpt>
			<trkpt lat="54.856720" lon="21.620960"><ele>3.6</ele><time>2026-05-28T20:57:11Z</time></trkpt>
			<trkpt lat="54.856460" lon="21.620610"><ele>3.7</ele><time>2026-05-28T20:57:22Z</time></trkpt>
			<trkpt lat="54.854080" lon="21.617310"><ele>4.9</ele><time>2026-05-28T20:57:33Z</time></trkpt>
			<trkpt lat="54.852530" lon="21.615160"><ele>5.9</ele><time>2026-05-28T20:57:44Z</time></trkpt>
			<trkpt lat="54.849530" lon="21.610980"><ele>7.6</ele><time>2026-05-28T20:57:56Z</time></trkpt>
			<trkpt lat="54.841150" lon="21.599320"><ele>11.4</ele><time>2026-05-28T20:58:07Z</time></trkpt>
			<trkpt lat="54.841060" lon="21.599200"><ele>11.3</ele><time>2026-05-28T20:58:18Z</time></trkpt>
			<trkpt lat="54.835450" lon="21.591430"><ele>12.3</ele><time>2026-05-28T20:58:29Z</time></trkpt>
			<trkpt lat="54.834080" lon="21.589480"><ele>14.1</ele><time>2026-05-28T20:58:40Z</time></trkpt>
			<trkpt lat="54.833710" lon="21.588930"><ele>14.2</ele><time>2026-05-28T20:58:51Z</time></trkpt>
			<trkpt lat="54.833350" lon="21.588490"><ele>14.2</ele><time>2026-05-28T20:59:02Z</time></trkpt>
			<trkpt lat="54.833230" lon="21.588360"><ele>14.3</ele><time>2026-05-28T20:59:14Z</time></trkpt>
			<trkpt lat="54.833030" lon="21.588180"><ele>14.3</ele><time>2026-05-28T20:59:25Z</time></trkpt>
			<trkpt lat="54.831990" lon="21.587420"><ele>14.5</ele><time>2026-05-28T20:59:36Z</time></trkpt>
			<trkpt lat="54.830180" lon="21.586050"><ele>14.8</ele><time>2026-05-28T20:59:47Z</time></trkpt>
			<trkpt lat="54.825300" lon="21.582400"><ele>13.6</ele><time>2026-05-28T20:59:58Z</time></trkpt>
			<trkpt lat="54.811920" lon="21.572390"><ele>12.7</ele><time>2026-05-28T21:00:09Z</time></trkpt>
			<trkpt lat="54.810770" lon="21.571510"><ele>12.7</ele><time>2026-05-28T21:00:20Z</time></trkpt>
			<trkpt lat="54.808520" lon="21.569860"><ele>12.5</ele><time>2026-05-28T21:00:32Z</time></trkpt>
			<trkpt lat="54.808420" lon="21.569800"><ele>12.5</ele><time>2026-05-28T21:00:43Z</time></trkpt>
			<trkpt lat="54.807360" lon="21.570790"><ele>12.3</ele><time>2026-05-28T21:00:54Z</time></trkpt>
			<trkpt lat="54.806660" lon="21.571400"><ele>12.2</ele><time>2026-05-28T21:01:05Z</time></trkpt>
			<trkpt lat="54.806000" lon="21.572040"><ele>12.1</ele><time>2026-05-28T21:01:16Z</time></trkpt>
			<trkpt lat="54.805180" lon="21.573170"><ele>12.0</ele><time>2026-05-28T21:01:27Z</time></trkpt>
			<trkpt lat="54.804410" lon="21.574460"><ele>12.7</ele><time>2026-05-28T21:01:38Z</time></trkpt>
			<trkpt lat="54.804080" lon="21.575080"><ele>13.3</ele><time>2026-05-28T21:01:50Z</time></trkpt>
			<trkpt lat="54.803980" lon="21.575450"><ele>13.5</ele><time>2026-05-28T21:02:01Z</time></trkpt>
			<trkpt lat="54.803900" lon="21.575820"><ele>13.8</ele><time>2026-05-28T21:02:12Z</time></trkpt>
			<trkpt lat="54.803850" lon="21.576350"><ele>14.2</ele><time>2026-05-28T21:02:23Z</time></trkpt>
			<trkpt lat="54.803720" lon="21.577080"><ele>14.8</ele><time>2026-05-28T21:02:34Z</time></trkpt>
			<trkpt lat="54.803450" lon="21.578210"><ele>15.6</ele><time>2026-05-28T21:02:45Z</time></trkpt>
			<trkpt lat="54.803350" lon="21.578450"><ele>15.8</ele><time>2026-05-28T21:02:57Z</time></trkpt>
			<trkpt lat="54.802790" lon="21.579750"><ele>17.0</ele><time>2026-05-28T21:03:08Z</time></trkpt>
			<trkpt lat="54.802100" lon="21.581270"><ele>18.4</ele><time>2026-05-28T21:03:19Z</time></trkpt>
			<trkpt lat="54.801330" lon="21.582950"><ele>18.2</ele><time>2026-05-28T21:03:30Z</time></trkpt>
			<trkpt lat="54.801020" lon="21.583570"><ele>18.1</ele><time>2026-05-28T21:03:41Z</time></trkpt>
			<trkpt lat="54.800490" lon="21.584430"><ele>17.8</ele><time>2026-05-28T21:03:52Z</time></trkpt>
			<trkpt lat="54.799710" lon="21.583570"><ele>17.5</ele><time>2026-05-28T21:04:03Z</time></trkpt>
			<trkpt lat="54.799520" lon="21.583340"><ele>17.4</ele><time>2026-05-28T21:04:15Z</time></trkpt>
			<trkpt lat="54.799380" lon="21.583250"><ele>17.4</ele><time>2026-05-28T21:04:26Z</time></trkpt>
			<trkpt lat="54.799270" lon="21.583230"><ele>17.4</ele><time>2026-05-28T21:04:37Z</time></trkpt>
			<trkpt lat="54.799180" lon="21.583250"><ele>17.3</ele><time>2026-05-28T21:04:48Z</time></trkpt>
			<trkpt lat="54.799090" lon="21.583340"><ele>17.3</ele><time>2026-05-28T21:04:59Z</time></trkpt>
			<trkpt lat="54.799050" lon="21.583470"><ele>17.3</ele><time>2026-05-28T21:05:10Z</time></trkpt>
			<trkpt lat="54.799000" lon="21.583790"><ele>17.2</ele><time>2026-05-28T21:05:21Z</time></trkpt>
			<trkpt lat="54.798930" lon="21.584510"><ele>17.1</ele><time>2026-05-28T21:05:33Z</time></trkpt>
			<trkpt lat="54.798890" lon="21.584790"><ele>17.0</ele><time>2026-05-28T21:05:44Z</time></trkpt>
			<trkpt lat="54.798820" lon="21.585000"><ele>17.0</ele><time>2026-05-28T21:05:55Z</time></trkpt>
			<trkpt lat="54.798530" lon="21.585510"><ele>16.8</ele><time>2026-05-28T21:06:06Z</time></trkpt>
			<trkpt lat="54.797160" lon="21.587700"><ele>17.1</ele><time>2026-05-28T21:06:17Z</time></trkpt>
			<trkpt lat="54.797000" lon="21.587990"><ele>17.2</ele><time>2026-05-28T21:06:28Z</time></trkpt>
			<trkpt lat="54.796900" lon="21.588140"><ele>17.2</ele><time>2026-05-28T21:06:39Z</time></trkpt>
			<trkpt lat="54.796700" lon="21.588440"><ele>17.2</ele><time>2026-05-28T21:06:51Z</time></trkpt>
			<trkpt lat="54.796020" lon="21.589350"><ele>17.4</ele><time>2026-05-28T21:07:02Z</time></trkpt>
			<trkpt lat="54.795000" lon="21.590630"><ele>17.6</ele><time>2026-05-28T21:07:13Z</time></trkpt>
			<trkpt lat="54.791500" lon="21.594950"><ele>17.8</ele><time>2026-05-28T21:07:24Z</time></trkpt>
			<trkpt lat="54.790310" lon="21.596470"><ele>17.8</ele><time>2026-05-28T21:07:35Z</time></trkpt>
			<trkpt lat="54.789760" lon="21.597300"><ele>17.8</ele><time>2026-05-28T21:07:46Z</time></trkpt>
			<trkpt lat="54.789570" lon="21.597580"><ele>17.8</ele><time>2026-05-28T21:07:57Z</time></trkpt>
			<trkpt lat="54.786100" lon="21.603310"><ele>17.0</ele><time>2026-05-28T21:08:09Z</time></trkpt>
			<trkpt lat="54.785320" lon="21.604390"><ele>17.2</ele><time>2026-05-28T21:08:20Z</time></trkpt>
			<trkpt lat="54.784430" lon="21.605220"><ele>17.4</ele><time>2026-05-28T21:08:31Z</time></trkpt>
			<trkpt lat="54.782180" lon="21.607360"><ele>18.0</ele><time>2026-05-28T21:08:42Z</time></trkpt>
			<trkpt lat="54.780300" lon="21.608820"><ele>18.4</ele><time>2026-05-28T21:08:53Z</time></trkpt>
			<trkpt lat="54.779800" lon="21.609210"><ele>18.5</ele><time>2026-05-28T21:09:04Z</time></trkpt>
			<trkpt lat="54.777230" lon="21.611120"><ele>19.1</ele><time>2026-05-28T21:09:16Z</time></trkpt>
			<trkpt lat="54.776610" lon="21.611570"><ele>19.2</ele><time>2026-05-28T21:09:27Z</time></trkpt>
			<trkpt lat="54.774870" lon="21.613340"><ele>18.5</ele><time>2026-05-28T21:09:38Z</time></trkpt>
			<trkpt lat="54.774270" lon="21.613980"><ele>18.2</ele><time>2026-05-28T21:09:49Z</time></trkpt>
			<trkpt lat="54.773820" lon="21.614620"><ele>18.0</ele><time>2026-05-28T21:10:00Z</time></trkpt>
			<trkpt lat="54.773440" lon="21.615440"><ele>17.7</ele><time>2026-05-28T21:10:11Z</time></trkpt>
			<trkpt lat="54.772960" lon="21.616770"><ele>17.3</ele><time>2026-05-28T21:10:22Z</time></trkpt>
			<trkpt lat="54.772770" lon="21.617170"><ele>17.2</ele><time>2026-05-28T21:10:34Z</time></trkpt>
			<trkpt lat="54.772520" lon="21.617650"><ele>17.0</ele><time>2026-05-28T21:10:45Z</time></trkpt>
			<trkpt lat="54.769480" lon="21.622870"><ele>18.8</ele><time>2026-05-28T21:10:56Z</time></trkpt>
			<trkpt lat="54.768800" lon="21.624190"><ele>19.2</ele><time>2026-05-28T21:11:07Z</time></trkpt>
			<trkpt lat="54.767480" lon="21.626840"><ele>19.5</ele><time>2026-05-28T21:11:18Z</time></trkpt>
			<trkpt lat="54.765900" lon="21.629430"><ele>19.6</ele><time>2026-05-28T21:11:29Z</time></trkpt>
			<trkpt lat="54.763870" lon="21.632500"><ele>19.7</ele><time>2026-05-28T21:11:40Z</time></trkpt>
			<trkpt lat="54.762350" lon="21.635200"><ele>19.7</ele><time>2026-05-28T21:11:52Z</time></trkpt>
			<trkpt lat="54.761830" lon="21.636120"><ele>19.7</ele><time>2026-05-28T21:12:03Z</time></trkpt>
			<trkpt lat="54.760820" lon="21.637690"><ele>19.8</ele><time>2026-05-28T21:12:14Z</time></trkpt>
			<trkpt lat="54.760390" lon="21.638360"><ele>19.7</ele><time>2026-05-28T21:12:25Z</time></trkpt>
			<trkpt lat="54.759830" lon="21.638930"><ele>19.6</ele><time>2026-05-28T21:12:36Z</time></trkpt>
			<trkpt lat="54.759080" lon="21.639620"><ele>19.4</ele><time>2026-05-28T21:12:47Z</time></trkpt>
			<trkpt lat="54.758880" lon="21.639690"><ele>19.4</ele><time>2026-05-28T21:12:58Z</time></trkpt>
			<trkpt lat="54.758810" lon="21.639720"><ele>19.4</ele><time>2026-05-28T21:13:10Z</time></trkpt>
			<trkpt lat="54.758410" lon="21.639410"><ele>19.3</ele><time>2026-05-28T21:13:21Z</time></trkpt>
			<trkpt lat="54.757940" lon="21.639160"><ele>19.2</ele><time>2026-05-28T21:13:32Z</time></trkpt>
			<trkpt lat="54.757530" lon="21.639250"><ele>19.1</ele><time>2026-05-28T21:13:43Z</time></trkpt>
			<trkpt lat="54.756990" lon="21.639540"><ele>19.0</ele><time>2026-05-28T21:13:54Z</time></trkpt>
			<trkpt lat="54.756050" lon="21.640370"><ele>18.8</ele><time>2026-05-28T21:14:05Z</time></trkpt>
			<trkpt lat="54.755660" lon="21.640830"><ele>19.0</ele><time>2026-05-28T21:14:17Z</time></trkpt>
			<trkpt lat="54.755390" lon="21.640940"><ele>19.1</ele><time>2026-05-28T21:14:28Z</time></trkpt>
			<trkpt lat="54.754290" lon="21.640820"><ele>19.7</ele><time>2026-05-28T21:14:39Z</time></trkpt>
			<trkpt lat="54.750170" lon="21.640540"><ele>21.3</ele><time>2026-05-28T21:14:50Z</time></trkpt>
			<trkpt lat="54.749300" lon="21.640560"><ele>21.2</ele><time>2026-05-28T21:15:01Z</time></trkpt>
			<trkpt lat="54.748230" lon="21.641400"><ele>21.1</ele><time>2026-05-28T21:15:12Z</time></trkpt>
			<trkpt lat="54.746920" lon="21.642390"><ele>20.9</ele><time>2026-05-28T21:15:23Z</time></trkpt>
			<trkpt lat="54.743190" lon="21.645380"><ele>21.7</ele><time>2026-05-28T21:15:35Z</time></trkpt>
			<trkpt lat="54.741960" lon="21.646700"><ele>22.2</ele><time>2026-05-28T21:15:46Z</time></trkpt>
			<trkpt lat="54.741580" lon="21.647480"><ele>22.4</ele><time>2026-05-28T21:15:57Z</time></trkpt>
			<trkpt lat="54.740950" lon="21.648860"><ele>22.4</ele><time>2026-05-28T21:16:08Z</time></trkpt>
			<trkpt lat="54.740100" lon="21.650080"><ele>21.8</ele><time>2026-05-28T21:16:19Z</time></trkpt>
			<trkpt lat="54.739210" lon="21.651420"><ele>21.2</ele><time>2026-05-28T21:16:30Z</time></trkpt>
			<trkpt lat="54.737610" lon="21.653780"><ele>20.1</ele><time>2026-05-28T21:16:41Z</time></trkpt>
			<trkpt lat="54.735220" lon="21.657480"><ele>21.2</ele><time>2026-05-28T21:16:53Z</time></trkpt>
			<trkpt lat="54.734680" lon="21.657760"><ele>21.5</ele><time>2026-05-28T21:17:04Z</time></trkpt>
			<trkpt lat="54.731460" lon="21.658900"><ele>22.8</ele><time>2026-05-28T21:17:15Z</time></trkpt>
			<trkpt lat="54.731140" lon="21.659200"><ele>22.8</ele><time>2026-05-28T21:17:26Z</time></trkpt>
			<trkpt lat="54.729070" lon="21.661390"><ele>22.5</ele><time>2026-05-28T21:17:37Z</time></trkpt>
			<trkpt lat="54.727950" lon="21.662420"><ele>22.4</ele><time>2026-05-28T21:17:48Z</time></trkpt>
			<trkpt lat="54.725760" lon="21.664680"><ele>23.8</ele><time>2026-05-28T21:17:59Z</time></trkpt>
			<trkpt lat="54.723860" lon="21.666890"><ele>25.3</ele><time>2026-05-28T21:18:11Z</time></trkpt>
			<trkpt lat="54.722990" lon="21.667980"><ele>25.9</ele><time>2026-05-28T21:18:22Z</time></trkpt>
			<trkpt lat="54.722730" lon="21.668190"><ele>25.8</ele><time>2026-05-28T21:18:33Z</time></trkpt>
			<trkpt lat="54.722410" lon="21.668360"><ele>25.6</ele><time>2026-05-28T21:18:44Z</time></trkpt>
			<trkpt lat="54.722150" lon="21.668430"><ele>25.5</ele><time>2026-05-28T21:18:55Z</time></trkpt>
			<trkpt lat="54.720820" lon="21.668600"><ele>24.8</ele><time>2026-05-28T21:19:06Z</time></trkpt>
			<trkpt lat="54.720390" lon="21.668620"><ele>24.6</ele><time>2026-05-28T21:19:17Z</time></trkpt>
			<trkpt lat="54.719600" lon="21.668630"><ele>24.2</ele><time>2026-05-28T21:19:29Z</time></trkpt>
			<trkpt lat="54.719020" lon="21.668650"><ele>23.9</ele><time>2026-05-28T21:19:40Z</time></trkpt>
			<trkpt lat="54.718370" lon="21.668690"><ele>23.5</ele><time>2026-05-28T21:19:51Z</time></trkpt>
			<trkpt lat="54.718170" lon="21.668730"><ele>23.4</ele><time>2026-05-28T21:20:02Z</time></trkpt>
			<trkpt lat="54.717880" lon="21.668820"><ele>23.3</ele><time>2026-05-28T21:20:13Z</time></trkpt>
			<trkpt lat="54.717440" lon="21.668990"><ele>23.3</ele><time>2026-05-28T21:20:24Z</time></trkpt>
			<trkpt lat="54.717110" lon="21.669160"><ele>23.3</ele><time>2026-05-28T21:20:36Z</time></trkpt>
			<trkpt lat="54.716780" lon="21.669390"><ele>23.4</ele><time>2026-05-28T21:20:47Z</time></trkpt>
			<trkpt lat="54.712920" lon="21.672830"><ele>23.9</ele><time>2026-05-28T21:20:58Z</time></trkpt>
			<trkpt lat="54.712460" lon="21.673210"><ele>23.9</ele><time>2026-05-28T21:21:09Z</time></trkpt>
			<trkpt lat="54.712320" lon="21.673310"><ele>23.9</ele><time>2026-05-28T21:21:20Z</time></trkpt>
			<trkpt lat="54.712160" lon="21.673390"><ele>23.9</ele><time>2026-05-28T21:21:31Z</time></trkpt>
			<trkpt lat="54.712040" lon="21.673400"><ele>23.9</ele><time>2026-05-28T21:21:42Z</time></trkpt>
			<trkpt lat="54.711530" lon="21.673320"><ele>24.0</ele><time>2026-05-28T21:21:54Z</time></trkpt>
			<trkpt lat="54.707210" lon="21.672380"><ele>24.3</ele><time>2026-05-28T21:22:05Z</time></trkpt>
			<trkpt lat="54.706800" lon="21.672260"><ele>24.5</ele><time>2026-05-28T21:22:16Z</time></trkpt>
			<trkpt lat="54.706330" lon="21.672130"><ele>24.6</ele><time>2026-05-28T21:22:27Z</time></trkpt>
			<trkpt lat="54.705600" lon="21.671940"><ele>24.9</ele><time>2026-05-28T21:22:38Z</time></trkpt>
			<trkpt lat="54.704910" lon="21.672260"><ele>25.1</ele><time>2026-05-28T21:22:49Z</time></trkpt>
			<trkpt lat="54.704400" lon="21.672510"><ele>25.3</ele><time>2026-05-28T21:23:00Z</time></trkpt>
			<trkpt lat="54.703750" lon="21.672840"><ele>25.6</ele><time>2026-05-28T21:23:12Z</time></trkpt>
			<trkpt lat="54.703030" lon="21.673130"><ele>25.8</ele><time>2026-05-28T21:23:23Z</time></trkpt>
			<trkpt lat="54.702180" lon="21.673150"><ele>26.1</ele><time>2026-05-28T21:23:34Z</time></trkpt>
			<trkpt lat="54.701390" lon="21.673070"><ele>26.3</ele><time>2026-05-28T21:23:45Z</time></trkpt>
			<trkpt lat="54.701010" lon="21.672970"><ele>26.3</ele><time>2026-05-28T21:23:56Z</time></trkpt>
			<trkpt lat="54.700800" lon="21.672880"><ele>26.4</ele><time>2026-05-28T21:24:07Z</time></trkpt>
			<trkpt lat="54.700430" lon="21.672630"><ele>26.4</ele><time>2026-05-28T21:24:18Z</time></trkpt>
			<trkpt lat="54.700210" lon="21.672420"><ele>26.5</ele><time>2026-05-28T21:24:30Z</time></trkpt>
			<trkpt lat="54.699470" lon="21.673040"><ele>26.6</ele><time>2026-05-28T21:24:41Z</time></trkpt>
			<trkpt lat="54.699270" lon="21.673170"><ele>26.6</ele><time>2026-05-28T21:24:52Z</time></trkpt>
			<trkpt lat="54.698730" lon="21.673150"><ele>26.7</ele><time>2026-05-28T21:25:03Z</time></trkpt>
			<trkpt lat="54.698400" lon="21.673310"><ele>26.8</ele><time>2026-05-28T21:25:14Z</time></trkpt>
			<trkpt lat="54.698120" lon="21.673550"><ele>26.8</ele><time>2026-05-28T21:25:25Z</time></trkpt>
			<trkpt lat="54.697840" lon="21.673920"><ele>26.9</ele><time>2026-05-28T21:25:36Z</time></trkpt>
			<trkpt lat="54.696070" lon="21.676850"><ele>27.7</ele><time>2026-05-28T21:25:48Z</time></trkpt>
			<trkpt lat="54.693940" lon="21.679620"><ele>28.8</ele><time>2026-05-28T21:25:59Z</time></trkpt>
			<trkpt lat="54.689640" lon="21.685740"><ele>32.4</ele><time>2026-05-28T21:26:10Z</time></trkpt>
			<trkpt lat="54.681460" lon="21.697760"><ele>26.9</ele><time>2026-05-28T21:26:21Z</time></trkpt>
			<trkpt lat="54.681180" lon="21.698080"><ele>26.8</ele><time>2026-05-28T21:26:32Z</time></trkpt>
			<trkpt lat="54.680910" lon="21.698150"><ele>26.7</ele><time>2026-05-28T21:26:43Z</time></trkpt>
			<trkpt lat="54.675750" lon="21.698210"><ele>27.8</ele><time>2026-05-28T21:26:55Z</time></trkpt>
			<trkpt lat="54.674320" lon="21.698710"><ele>28.0</ele><time>2026-05-28T21:27:06Z</time></trkpt>
			<trkpt lat="54.673420" lon="21.699340"><ele>28.1</ele><time>2026-05-28T21:27:17Z</time></trkpt>
			<trkpt lat="54.671770" lon="21.700700"><ele>28.2</ele><time>2026-05-28T21:27:28Z</time></trkpt>
			<trkpt lat="54.671360" lon="21.701040"><ele>28.2</ele><time>2026-05-28T21:27:39Z</time></trkpt>
			<trkpt lat="54.671080" lon="21.701580"><ele>28.3</ele><time>2026-05-28T21:27:50Z</time></trkpt>
			<trkpt lat="54.670900" lon="21.702150"><ele>28.3</ele><time>2026-05-28T21:28:01Z</time></trkpt>
			<trkpt lat="54.670820" lon="21.702420"><ele>28.3</ele><time>2026-05-28T21:28:13Z</time></trkpt>
			<trkpt lat="54.670930" lon="21.703810"><ele>28.1</ele><time>2026-05-28T21:28:24Z</time></trkpt>
			<trkpt lat="54.671380" lon="21.706530"><ele>27.7</ele><time>2026-05-28T21:28:35Z</time></trkpt>
			<trkpt lat="54.671410" lon="21.706870"><ele>27.6</ele><time>2026-05-28T21:28:46Z</time></trkpt>
			<trkpt lat="54.671440" lon="21.707330"><ele>27.5</ele><time>2026-05-28T21:28:57Z</time></trkpt>
			<trkpt lat="54.671440" lon="21.707610"><ele>27.5</ele><time>2026-05-28T21:29:08Z</time></trkpt>
			<trkpt lat="54.671410" lon="21.707920"><ele>27.4</ele><time>2026-05-28T21:29:19Z</time></trkpt>
			<trkpt lat="54.671350" lon="21.708420"><ele>27.3</ele><time>2026-05-28T21:29:31Z</time></trkpt>
			<trkpt lat="54.671260" lon="21.709040"><ele>27.2</ele><time>2026-05-28T21:29:42Z</time></trkpt>
			<trkpt lat="54.671190" lon="21.709370"><ele>27.2</ele><time>2026-05-28T21:29:53Z</time></trkpt>
			<trkpt lat="54.671110" lon="21.709670"><ele>27.1</ele><time>2026-05-28T21:30:04Z</time></trkpt>
			<trkpt lat="54.670950" lon="21.710060"><ele>27.0</ele><time>2026-05-28T21:30:15Z</time></trkpt>
			<trkpt lat="54.670790" lon="21.710370"><ele>27.0</ele><time>2026-05-28T21:30:26Z</time></trkpt>
			<trkpt lat="54.670640" lon="21.710650"><ele>26.9</ele><time>2026-05-28T21:30:37Z</time></trkpt>
			<trkpt lat="54.670550" lon="21.710790"><ele>26.8</ele><time>2026-05-28T21:30:49Z</time></trkpt>
			<trkpt lat="54.670390" lon="21.710970"><ele>26.8</ele><time>2026-05-28T21:31:00Z</time></trkpt>
			<trkpt lat="54.670260" lon="21.711030"><ele>26.8</ele><time>2026-05-28T21:31:11Z</time></trkpt>
			<trkpt lat="54.669940" lon="21.711160"><ele>26.6</ele><time>2026-05-28T21:31:22Z</time></trkpt>
			<trkpt lat="54.667230" lon="21.712390"><ele>25.1</ele><time>2026-05-28T21:31:33Z</time></trkpt>
			<trkpt lat="54.664190" lon="21.713830"><ele>24.3</ele><time>2026-05-28T21:31:44Z</time></trkpt>
			<trkpt lat="54.658950" lon="21.716440"><ele>26.5</ele><time>2026-05-28T21:31:55Z</time></trkpt>
			<trkpt lat="54.657100" lon="21.717070"><ele>24.4</ele><time>2026-05-28T21:32:07Z</time></trkpt>
			<trkpt lat="54.655400" lon="21.717630"><ele>22.5</ele><time>2026-05-28T21:32:18Z</time></trkpt>
			<trkpt lat="54.653540" lon="21.718150"><ele>20.3</ele><time>2026-05-28T21:32:29Z</time></trkpt>
			<trkpt lat="54.652530" lon="21.719190"><ele>18.7</ele><time>2026-05-28T21:32:40Z</time></trkpt>
			<trkpt lat="54.651540" lon="21.720290"><ele>17.1</ele><time>2026-05-28T21:32:51Z</time></trkpt>
			<trkpt lat="54.651530" lon="21.719510"><ele>16.5</ele><time>2026-05-28T21:33:02Z</time></trkpt>
			<trkpt lat="54.651620" lon="21.715290"><ele>13.9</ele><time>2026-05-28T21:33:14Z</time></trkpt>
			<trkpt lat="54.651700" lon="21.712260"><ele>13.0</ele><time>2026-05-28T21:33:25Z</time></trkpt>
			<trkpt lat="54.651480" lon="21.709840"><ele>12.3</ele><time>2026-05-28T21:33:36Z</time></trkpt>
			<trkpt lat="54.651170" lon="21.707360"><ele>11.6</ele><time>2026-05-28T21:33:47Z</time></trkpt>
			<trkpt lat="54.651170" lon="21.707360"><ele>11.6</ele><time>2026-05-28T21:33:55Z</time></trkpt>
			<trkpt lat="54.651010" lon="21.706030"><ele>12.0</ele><time>2026-05-28T21:34:02Z</time></trkpt>
			<trkpt lat="54.650830" lon="21.702240"><ele>13.0</ele><time>2026-05-28T21:34:10Z</time></trkpt>
			<trkpt lat="54.650900" lon="21.700760"><ele>13.4</ele><time>2026-05-28T21:34:17Z</time></trkpt>
			<trkpt lat="54.650970" lon="21.699440"><ele>13.8</ele><time>2026-05-28T21:34:25Z</time></trkpt>
			<trkpt lat="54.651020" lon="21.698150"><ele>14.2</ele><time>2026-05-28T21:34:33Z</time></trkpt>
			<trkpt lat="54.650950" lon="21.697650"><ele>14.2</ele><time>2026-05-28T21:34:40Z</time></trkpt>
			<trkpt lat="54.650430" lon="21.695920"><ele>14.3</ele><time>2026-05-28T21:34:48Z</time></trkpt>
			<trkpt lat="54.650270" lon="21.695320"><ele>14.3</ele><time>2026-05-28T21:34:55Z</time></trkpt>
			<trkpt lat="54.650130" lon="21.694510"><ele>14.3</ele><time>2026-05-28T21:35:03Z</time></trkpt>
			<trkpt lat="54.649680" lon="21.690150"><ele>14.5</ele><time>2026-05-28T21:35:10Z</time></trkpt>
			<trkpt lat="54.649250" lon="21.685870"><ele>13.0</ele><time>2026-05-28T21:35:18Z</time></trkpt>
			<trkpt lat="54.649040" lon="21.684030"><ele>12.1</ele><time>2026-05-28T21:35:26Z</time></trkpt>
			<trkpt lat="54.648830" lon="21.683310"><ele>11.7</ele><time>2026-05-28T21:35:33Z</time></trkpt>
			<trkpt lat="54.648740" lon="21.682680"><ele>11.4</ele><time>2026-05-28T21:35:41Z</time></trkpt>
			<trkpt lat="54.648780" lon="21.682070"><ele>11.2</ele><time>2026-05-28T21:35:48Z</time></trkpt>
			<trkpt lat="54.648840" lon="21.681550"><ele>10.9</ele><time>2026-05-28T21:35:56Z</time></trkpt>
			<trkpt lat="54.648880" lon="21.681220"><ele>10.8</ele><time>2026-05-28T21:36:04Z</time></trkpt>
			<trkpt lat="54.648940" lon="21.680420"><ele>10.4</ele><time>2026-05-28T21:36:11Z</time></trkpt>
			<trkpt lat="54.649030" lon="21.679520"><ele>10.4</ele><time>2026-05-28T21:36:19Z</time></trkpt>
			<trkpt lat="54.649060" lon="21.679220"><ele>10.6</ele><time>2026-05-28T21:36:26Z</time></trkpt>
			<trkpt lat="54.649070" lon="21.678700"><ele>10.8</ele><time>2026-05-28T21:36:34Z</time></trkpt>
			<trkpt lat="54.648970" lon="21.676730"><ele>11.6</ele><time>2026-05-28T21:36:42Z</time></trkpt>
			<trkpt lat="54.648960" lon="21.676410"><ele>11.8</ele><time>2026-05-28T21:36:49Z</time></trkpt>
			<trkpt lat="54.648950" lon="21.676110"><ele>11.9</ele><time>2026-05-28T21:36:57Z</time></trkpt>
			<trkpt lat="54.648840" lon="21.675030"><ele>12.4</ele><time>2026-05-28T21:37:04Z</time></trkpt>
			<trkpt lat="54.648560" lon="21.672300"><ele>13.6</ele><time>2026-05-28T21:37:12Z</time></trkpt>
			<trkpt lat="54.648030" lon="21.667120"><ele>14.4</ele><time>2026-05-28T21:37:20Z</time></trkpt>
			<trkpt lat="54.648000" lon="21.666830"><ele>14.5</ele><time>2026-05-28T21:37:27Z</time></trkpt>
			<trkpt lat="54.647910" lon="21.666400"><ele>14.5</ele><time>2026-05-28T21:37:35Z</time></trkpt>
			<trkpt lat="54.647770" lon="21.665790"><ele>14.5</ele><time>2026-05-28T21:37:42Z</time></trkpt>
			<trkpt lat="54.645230" lon="21.656130"><ele>11.1</ele><time>2026-05-28T21:37:50Z</time></trkpt>
			<trkpt lat="54.644710" lon="21.654160"><ele>10.0</ele><time>2026-05-28T21:37:58Z</time></trkpt>
			<trkpt lat="54.643880" lon="21.650870"><ele>8.9</ele><time>2026-05-28T21:38:05Z</time></trkpt>
			<trkpt lat="54.643770" lon="21.650350"><ele>8.8</ele><time>2026-05-28T21:38:13Z</time></trkpt>
			<trkpt lat="54.643710" lon="21.649920"><ele>8.7</ele><time>2026-05-28T21:38:20Z</time></trkpt>
			<trkpt lat="54.643690" lon="21.649670"><ele>8.6</ele><time>2026-05-28T21:38:28Z</time></trkpt>
			<trkpt lat="54.643690" lon="21.649330"><ele>8.5</ele><time>2026-05-28T21:38:36Z</time></trkpt>
			<trkpt lat="54.643750" lon="21.646460"><ele>7.9</ele><time>2026-05-28T21:38:43Z</time></trkpt>
			<trkpt lat="54.643660" lon="21.644180"><ele>7.5</ele><time>2026-05-28T21:38:51Z</time></trkpt>
			<trkpt lat="54.643570" lon="21.642410"><ele>7.8</ele><time>2026-05-28T21:38:58Z</time></trkpt>
			<trkpt lat="54.643560" lon="21.641550"><ele>8.0</ele><time>2026-05-28T21:39:06Z</time></trkpt>
			<trkpt lat="54.643650" lon="21.640990"><ele>8.1</ele><time>2026-05-28T21:39:13Z</time></trkpt>
			<trkpt lat="54.643750" lon="21.640460"><ele>8.3</ele><time>2026-05-28T21:39:21Z</time></trkpt>
			<trkpt lat="54.643840" lon="21.639860"><ele>8.4</ele><time>2026-05-28T21:39:29Z</time></trkpt>
			<trkpt lat="54.643890" lon="21.639080"><ele>8.5</ele><time>2026-05-28T21:39:36Z</time></trkpt>
			<trkpt lat="54.643930" lon="21.637960"><ele>8.8</ele><time>2026-05-28T21:39:44Z</time></trkpt>
			<trkpt lat="54.643950" lon="21.636880"><ele>9.0</ele><time>2026-05-28T21:39:51Z</time></trkpt>
			<trkpt lat="54.644000" lon="21.636310"><ele>9.1</ele><time>2026-05-28T21:39:59Z</time></trkpt>
			<trkpt lat="54.644140" lon="21.635650"><ele>9.2</ele><time>2026-05-28T21:40:07Z</time></trkpt>
			<trkpt lat="54.644440" lon="21.634430"><ele>10.0</ele><time>2026-05-28T21:40:14Z</time></trkpt>
			<trkpt lat="54.645700" lon="21.629560"><ele>14.4</ele><time>2026-05-28T21:40:22Z</time></trkpt>
			<trkpt lat="54.647060" lon="21.624270"><ele>17.2</ele><time>2026-05-28T21:40:29Z</time></trkpt>
			<trkpt lat="54.647270" lon="21.623540"><ele>17.3</ele><time>2026-05-28T21:40:37Z</time></trkpt>
			<trkpt lat="54.647380" lon="21.622880"><ele>17.4</ele><time>2026-05-28T21:40:45Z</time></trkpt>
			<trkpt lat="54.647390" lon="21.622280"><ele>17.4</ele><time>2026-05-28T21:40:52Z</time></trkpt>
			<trkpt lat="54.647330" lon="21.619980"><ele>17.7</ele><time>2026-05-28T21:41:00Z</time></trkpt>
			<trkpt lat="54.647120" lon="21.614060"><ele>17.5</ele><time>2026-05-28T21:41:07Z</time></trkpt>
			<trkpt lat="54.647100" lon="21.613110"><ele>17.4</ele><time>2026-05-28T21:41:15Z</time></trkpt>
			<trkpt lat="54.647120" lon="21.612420"><ele>17.4</ele><time>2026-05-28T21:41:23Z</time></trkpt>
			<trkpt lat="54.647130" lon="21.612330"><ele>17.4</ele><time>2026-05-28T21:41:30Z</time></trkpt>
			<trkpt lat="54.647350" lon="21.611100"><ele>17.2</ele><time>2026-05-28T21:41:38Z</time></trkpt>
			<trkpt lat="54.647430" lon="21.610650"><ele>17.2</ele><time>2026-05-28T21:41:45Z</time></trkpt>
			<trkpt lat="54.647510" lon="21.610010"><ele>17.1</ele><time>2026-05-28T21:41:53Z</time></trkpt>
			<trkpt lat="54.647740" lon="21.606750"><ele>17.2</ele><time>2026-05-28T21:42:01Z</time></trkpt>
			<trkpt lat="54.647880" lon="21.605520"><ele>17.4</ele><time>2026-05-28T21:42:08Z</time></trkpt>
			<trkpt lat="54.648020" lon="21.604870"><ele>17.4</ele><time>2026-05-28T21:42:16Z</time></trkpt>
			<trkpt lat="54.648290" lon="21.604080"><ele>17.6</ele><time>2026-05-28T21:42:23Z</time></trkpt>
			<trkpt lat="54.648360" lon="21.603830"><ele>17.6</ele><time>2026-05-28T21:42:31Z</time></trkpt>
			<trkpt lat="54.648450" lon="21.603440"><ele>17.6</ele><time>2026-05-28T21:42:39Z</time></trkpt>
			<trkpt lat="54.648600" lon="21.602260"><ele>17.8</ele><time>2026-05-28T21:42:46Z</time></trkpt>
			<trkpt lat="54.648640" lon="21.601880"><ele>17.8</ele><time>2026-05-28T21:42:54Z</time></trkpt>
			<trkpt lat="54.648630" lon="21.601360"><ele>17.9</ele><time>2026-05-28T21:43:01Z</time></trkpt>
			<trkpt lat="54.648520" lon="21.600690"><ele>18.0</ele><time>2026-05-28T21:43:09Z</time></trkpt>
			<trkpt lat="54.648470" lon="21.600280"><ele>18.0</ele><time>2026-05-28T21:43:16Z</time></trkpt>
			<trkpt lat="54.648450" lon="21.599940"><ele>18.1</ele><time>2026-05-28T21:43:24Z</time></trkpt>
			<trkpt lat="54.648330" lon="21.598290"><ele>18.0</ele><time>2026-05-28T21:43:32Z</time></trkpt>
			<trkpt lat="54.648200" lon="21.595690"><ele>17.7</ele><time>2026-05-28T21:43:39Z</time></trkpt>
			<trkpt lat="54.648080" lon="21.591050"><ele>17.2</ele><time>2026-05-28T21:43:47Z</time></trkpt>
			<trkpt lat="54.647860" lon="21.581350"><ele>17.9</ele><time>2026-05-28T21:43:54Z</time></trkpt>
			<trkpt lat="54.647870" lon="21.580530"><ele>17.8</ele><time>2026-05-28T21:44:02Z</time></trkpt>
			<trkpt lat="54.648250" lon="21.576150"><ele>15.5</ele><time>2026-05-28T21:44:10Z</time></trkpt>
			<trkpt lat="54.648290" lon="21.575600"><ele>15.2</ele><time>2026-05-28T21:44:17Z</time></trkpt>
			<trkpt lat="54.648600" lon="21.571400"><ele>13.1</ele><time>2026-05-28T21:44:25Z</time></trkpt>
			<trkpt lat="54.648750" lon="21.569580"><ele>12.5</ele><time>2026-05-28T21:44:32Z</time></trkpt>
			<trkpt lat="54.648830" lon="21.569000"><ele>12.3</ele><time>2026-05-28T21:44:40Z</time></trkpt>
			<trkpt lat="54.648930" lon="21.568570"><ele>12.2</ele><time>2026-05-28T21:44:48Z</time></trkpt>
			<trkpt lat="54.649050" lon="21.568140"><ele>12.1</ele><time>2026-05-28T21:44:55Z</time></trkpt>
			<trkpt lat="54.649220" lon="21.567770"><ele>11.9</ele><time>2026-05-28T21:45:03Z</time></trkpt>
			<trkpt lat="54.649500" lon="21.567230"><ele>11.7</ele><time>2026-05-28T21:45:10Z</time></trkpt>
			<trkpt lat="54.650210" lon="21.565760"><ele>11.1</ele><time>2026-05-28T21:45:18Z</time></trkpt>
			<trkpt lat="54.651280" lon="21.563480"><ele>10.3</ele><time>2026-05-28T21:45:26Z</time></trkpt>
			<trkpt lat="54.651280" lon="21.563480"><ele>10.3</ele><time>2026-05-28T21:45:33Z</time></trkpt>
			<trkpt lat="54.651770" lon="21.562360"><ele>10.2</ele><time>2026-05-28T21:45:40Z</time></trkpt>
			<trkpt lat="54.652030" lon="21.561890"><ele>10.2</ele><time>2026-05-28T21:45:47Z</time></trkpt>
			<trkpt lat="54.652260" lon="21.561250"><ele>10.2</ele><time>2026-05-28T21:45:54Z</time></trkpt>
			<trkpt lat="54.652750" lon="21.559850"><ele>10.1</ele><time>2026-05-28T21:46:02Z</time></trkpt>
			<trkpt lat="54.652930" lon="21.559320"><ele>10.1</ele><time>2026-05-28T21:46:09Z</time></trkpt>
			<trkpt lat="54.653380" lon="21.557880"><ele>10.1</ele><time>2026-05-28T21:46:16Z</time></trkpt>
			<trkpt lat="54.653510" lon="21.557450"><ele>10.1</ele><time>2026-05-28T21:46:23Z</time></trkpt>
			<trkpt lat="54.653750" lon="21.556640"><ele>10.0</ele><time>2026-05-28T21:46:30Z</time></trkpt>
			<trkpt lat="54.654090" lon="21.555480"><ele>10.3</ele><time>2026-05-28T21:46:38Z</time></trkpt>
			<trkpt lat="54.654350" lon="21.554180"><ele>11.5</ele><time>2026-05-28T21:46:45Z</time></trkpt>
			<trkpt lat="54.654420" lon="21.553920"><ele>11.8</ele><time>2026-05-28T21:46:52Z</time></trkpt>
			<trkpt lat="54.654530" lon="21.553600"><ele>12.1</ele><time>2026-05-28T21:46:59Z</time></trkpt>
			<trkpt lat="54.654640" lon="21.553410"><ele>12.3</ele><time>2026-05-28T21:47:06Z</time></trkpt>
			<trkpt lat="54.654810" lon="21.553240"><ele>12.6</ele><time>2026-05-28T21:47:14Z</time></trkpt>
			<trkpt lat="54.655100" lon="21.553010"><ele>13.1</ele><time>2026-05-28T21:47:21Z</time></trkpt>
			<trkpt lat="54.655250" lon="21.552820"><ele>13.4</ele><time>2026-05-28T21:47:28Z</time></trkpt>
			<trkpt lat="54.655310" lon="21.552640"><ele>13.6</ele><time>2026-05-28T21:47:35Z</time></trkpt>
			<trkpt lat="54.655340" lon="21.552430"><ele>13.7</ele><time>2026-05-28T21:47:42Z</time></trkpt>
			<trkpt lat="54.655310" lon="21.552140"><ele>14.0</ele><time>2026-05-28T21:47:50Z</time></trkpt>
			<trkpt lat="54.655250" lon="21.550700"><ele>15.3</ele><time>2026-05-28T21:47:57Z</time></trkpt>
			<trkpt lat="54.655260" lon="21.549790"><ele>16.1</ele><time>2026-05-28T21:48:04Z</time></trkpt>
			<trkpt lat="54.655350" lon="21.548670"><ele>17.0</ele><time>2026-05-28T21:48:11Z</time></trkpt>
			<trkpt lat="54.655390" lon="21.548460"><ele>17.2</ele><time>2026-05-28T21:48:18Z</time></trkpt>
			<trkpt lat="54.655450" lon="21.548220"><ele>17.5</ele><time>2026-05-28T21:48:26Z</time></trkpt>
			<trkpt lat="54.655410" lon="21.548030"><ele>17.6</ele><time>2026-05-28T21:48:33Z</time></trkpt>
			<trkpt lat="54.655350" lon="21.547840"><ele>17.8</ele><time>2026-05-28T21:48:40Z</time></trkpt>
			<trkpt lat="54.655190" lon="21.547510"><ele>18.1</ele><time>2026-05-28T21:48:47Z</time></trkpt>
			<trkpt lat="54.654250" lon="21.546700"><ele>15.9</ele><time>2026-05-28T21:48:54Z</time></trkpt>
			<trkpt lat="54.652870" lon="21.546350"><ele>13.0</ele><time>2026-05-28T21:49:02Z</time></trkpt>
			<trkpt lat="54.651650" lon="21.545890"><ele>10.4</ele><time>2026-05-28T21:49:09Z</time></trkpt>
			<trkpt lat="54.651270" lon="21.545670"><ele>9.6</ele><time>2026-05-28T21:49:16Z</time></trkpt>
			<trkpt lat="54.648670" lon="21.543190"><ele>10.0</ele><time>2026-05-28T21:49:23Z</time></trkpt>
			<trkpt lat="54.647990" lon="21.542530"><ele>11.4</ele><time>2026-05-28T21:49:30Z</time></trkpt>
			<trkpt lat="54.647060" lon="21.540590"><ele>14.1</ele><time>2026-05-28T21:49:38Z</time></trkpt>
			<trkpt lat="54.645330" lon="21.536980"><ele>16.7</ele><time>2026-05-28T21:49:45Z</time></trkpt>
			<trkpt lat="54.643530" lon="21.533460"><ele>16.4</ele><time>2026-05-28T21:49:52Z</time></trkpt>
			<trkpt lat="54.642630" lon="21.532390"><ele>16.3</ele><time>2026-05-28T21:49:59Z</time></trkpt>
			<trkpt lat="54.640480" lon="21.530120"><ele>15.1</ele><time>2026-05-28T21:50:06Z</time></trkpt>
			<trkpt lat="54.640160" lon="21.529850"><ele>14.9</ele><time>2026-05-28T21:50:14Z</time></trkpt>
			<trkpt lat="54.639970" lon="21.529750"><ele>14.8</ele><time>2026-05-28T21:50:21Z</time></trkpt>
			<trkpt lat="54.639770" lon="21.529650"><ele>14.7</ele><time>2026-05-28T21:50:28Z</time></trkpt>
			<trkpt lat="54.639170" lon="21.529590"><ele>14.4</ele><time>2026-05-28T21:50:35Z</time></trkpt>
			<trkpt lat="54.638610" lon="21.529580"><ele>14.1</ele><time>2026-05-28T21:50:42Z</time></trkpt>
			<trkpt lat="54.636410" lon="21.529610"><ele>12.2</ele><time>2026-05-28T21:50:50Z</time></trkpt>
			<trkpt lat="54.635280" lon="21.529600"><ele>10.6</ele><time>2026-05-28T21:50:57Z</time></trkpt>
			<trkpt lat="54.635460" lon="21.525550"><ele>7.3</ele><time>2026-05-28T21:51:04Z</time></trkpt>
			<trkpt lat="54.635550" lon="21.524360"><ele>6.4</ele><time>2026-05-28T21:51:11Z</time></trkpt>
			<trkpt lat="54.635600" lon="21.522740"><ele>5.7</ele><time>2026-05-28T21:51:19Z</time></trkpt>
			<trkpt lat="54.635650" lon="21.522240"><ele>5.6</ele><time>2026-05-28T21:51:26Z</time></trkpt>
			<trkpt lat="54.637490" lon="21.516740"><ele>4.6</ele><time>2026-05-28T21:51:33Z</time></trkpt>
			<trkpt lat="54.637810" lon="21.515510"><ele>4.4</ele><time>2026-05-28T21:51:40Z</time></trkpt>
			<trkpt lat="54.639420" lon="21.508520"><ele>4.1</ele><time>2026-05-28T21:51:47Z</time></trkpt>
			<trkpt lat="54.640160" lon="21.505100"><ele>4.1</ele><time>2026-05-28T21:51:55Z</time></trkpt>
			<trkpt lat="54.641710" lon="21.497540"><ele>4.4</ele><time>2026-05-28T21:52:02Z</time></trkpt>
			<trkpt lat="54.641890" lon="21.496950"><ele>4.4</ele><time>2026-05-28T21:52:09Z</time></trkpt>
			<trkpt lat="54.642230" lon="21.496320"><ele>4.4</ele><time>2026-05-28T21:52:16Z</time></trkpt>
			<trkpt lat="54.642330" lon="21.496030"><ele>4.3</ele><time>2026-05-28T21:52:23Z</time></trkpt>
			<trkpt lat="54.642350" lon="21.495810"><ele>4.3</ele><time>2026-05-28T21:52:31Z</time></trkpt>
			<trkpt lat="54.642320" lon="21.495060"><ele>4.3</ele><time>2026-05-28T21:52:38Z</time></trkpt>
			<trkpt lat="54.642350" lon="21.494600"><ele>4.3</ele><time>2026-05-28T21:52:45Z</time></trkpt>
			<trkpt lat="54.642420" lon="21.494170"><ele>4.3</ele><time>2026-05-28T21:52:52Z</time></trkpt>
			<trkpt lat="54.642560" lon="21.493780"><ele>4.3</ele><time>2026-05-28T21:52:59Z</time></trkpt>
			<trkpt lat="54.643010" lon="21.492920"><ele>4.2</ele><time>2026-05-28T21:53:07Z</time></trkpt>
			<trkpt lat="54.643210" lon="21.492470"><ele>4.2</ele><time>2026-05-28T21:53:14Z</time></trkpt>
			<trkpt lat="54.643353" lon="21.492026"><ele>4.2</ele><time>2026-05-28T21:53:47Z</time></trkpt>
			<trkpt lat="54.643360" lon="21.492030"><ele>4.2</ele><time>2026-05-28T21:53:56Z</time></trkpt>
			<trkpt lat="54.643360" lon="21.492020"><ele>4.2</ele><time>2026-05-28T21:54:05Z</time></trkpt>
			<trkpt lat="54.643320" lon="21.490550"><ele>4.1</ele><time>2026-05-28T21:54:14Z</time></trkpt>
			<trkpt lat="54.643330" lon="21.490250"><ele>4.1</ele><time>2026-05-28T21:54:24Z</time></trkpt>
			<trkpt lat="54.643380" lon="21.489900"><ele>4.1</ele><time>2026-05-28T21:54:33Z</time></trkpt>
			<trkpt lat="54.643470" lon="21.489570"><ele>4.1</ele><time>2026-05-28T21:54:42Z</time></trkpt>
			<trkpt lat="54.643630" lon="21.489060"><ele>4.7</ele><time>2026-05-28T21:54:51Z</time></trkpt>
			<trkpt lat="54.643980" lon="21.487560"><ele>6.2</ele><time>2026-05-28T21:55:00Z</time></trkpt>
			<trkpt lat="54.647380" lon="21.472320"><ele>15.1</ele><time>2026-05-28T21:55:10Z</time></trkpt>
			<trkpt lat="54.647510" lon="21.471900"><ele>14.8</ele><time>2026-05-28T21:55:19Z</time></trkpt>
			<trkpt lat="54.648020" lon="21.470210"><ele>13.0</ele><time>2026-05-28T21:55:28Z</time></trkpt>
			<trkpt lat="54.648690" lon="21.468170"><ele>10.7</ele><time>2026-05-28T21:55:37Z</time></trkpt>
			<trkpt lat="54.650450" lon="21.464280"><ele>6.2</ele><time>2026-05-28T21:55:46Z</time></trkpt>
			<trkpt lat="54.651360" lon="21.462240"><ele>6.2</ele><time>2026-05-28T21:55:56Z</time></trkpt>
			<trkpt lat="54.651550" lon="21.461800"><ele>6.2</ele><time>2026-05-28T21:56:05Z</time></trkpt>
			<trkpt lat="54.651720" lon="21.461270"><ele>6.2</ele><time>2026-05-28T21:56:14Z</time></trkpt>
			<trkpt lat="54.652040" lon="21.460100"><ele>6.2</ele><time>2026-05-28T21:56:23Z</time></trkpt>
			<trkpt lat="54.652900" lon="21.456640"><ele>6.2</ele><time>2026-05-28T21:56:32Z</time></trkpt>
			<trkpt lat="54.654860" lon="21.449430"><ele>9.8</ele><time>2026-05-28T21:56:41Z</time></trkpt>
			<trkpt lat="54.656680" lon="21.444780"><ele>11.6</ele><time>2026-05-28T21:56:51Z</time></trkpt>
			<trkpt lat="54.657770" lon="21.440440"><ele>12.7</ele><time>2026-05-28T21:57:00Z</time></trkpt>
			<trkpt lat="54.658070" lon="21.438570"><ele>12.6</ele><time>2026-05-28T21:57:09Z</time></trkpt>
			<trkpt lat="54.658130" lon="21.436760"><ele>12.2</ele><time>2026-05-28T21:57:18Z</time></trkpt>
			<trkpt lat="54.658160" lon="21.434140"><ele>11.6</ele><time>2026-05-28T21:57:27Z</time></trkpt>
			<trkpt lat="54.658100" lon="21.429990"><ele>10.7</ele><time>2026-05-28T21:57:37Z</time></trkpt>
			<trkpt lat="54.658100" lon="21.429040"><ele>10.7</ele><time>2026-05-28T21:57:46Z</time></trkpt>
			<trkpt lat="54.658110" lon="21.428850"><ele>10.7</ele><time>2026-05-28T21:57:55Z</time></trkpt>
			<trkpt lat="54.658190" lon="21.427550"><ele>10.7</ele><time>2026-05-28T21:58:04Z</time></trkpt>
			<trkpt lat="54.658180" lon="21.426700"><ele>10.7</ele><time>2026-05-28T21:58:13Z</time></trkpt>
			<trkpt lat="54.658280" lon="21.425770"><ele>10.7</ele><time>2026-05-28T21:58:23Z</time></trkpt>
			<trkpt lat="54.658360" lon="21.425210"><ele>10.7</ele><time>2026-05-28T21:58:32Z</time></trkpt>
			<trkpt lat="54.658420" lon="21.424140"><ele>10.6</ele><time>2026-05-28T21:58:41Z</time></trkpt>
			<trkpt lat="54.658590" lon="21.422590"><ele>10.6</ele><time>2026-05-28T21:58:50Z</time></trkpt>
			<trkpt lat="54.658640" lon="21.422460"><ele>10.6</ele><time>2026-05-28T21:58:59Z</time></trkpt>
			<trkpt lat="54.658680" lon="21.422360"><ele>10.6</ele><time>2026-05-28T21:59:09Z</time></trkpt>
			<trkpt lat="54.658820" lon="21.422280"><ele>10.6</ele><time>2026-05-28T21:59:18Z</time></trkpt>
			<trkpt lat="54.659060" lon="21.422360"><ele>10.6</ele><time>2026-05-28T21:59:27Z</time></trkpt>
			<trkpt lat="54.659370" lon="21.422130"><ele>10.7</ele><time>2026-05-28T21:59:36Z</time></trkpt>
			<trkpt lat="54.659620" lon="21.421930"><ele>10.8</ele><time>2026-05-28T21:59:45Z</time></trkpt>
			<trkpt lat="54.660080" lon="21.421320"><ele>11.2</ele><time>2026-05-28T21:59:55Z</time></trkpt>
			<trkpt lat="54.661280" lon="21.418840"><ele>12.5</ele><time>2026-05-28T22:00:04Z</time></trkpt>
			<trkpt lat="54.661940" lon="21.416210"><ele>13.7</ele><time>2026-05-28T22:00:13Z</time></trkpt>
			<trkpt lat="54.662020" lon="21.415380"><ele>14.0</ele><time>2026-05-28T22:00:22Z</time></trkpt>
			<trkpt lat="54.662000" lon="21.414560"><ele>14.3</ele><time>2026-05-28T22:00:31Z</time></trkpt>
			<trkpt lat="54.661940" lon="21.413960"><ele>14.2</ele><time>2026-05-28T22:00:41Z</time></trkpt>
			<trkpt lat="54.661670" lon="21.413220"><ele>14.0</ele><time>2026-05-28T22:00:50Z</time></trkpt>
			<trkpt lat="54.660490" lon="21.410430"><ele>13.5</ele><time>2026-05-28T22:00:59Z</time></trkpt>
			<trkpt lat="54.659940" lon="21.408880"><ele>13.2</ele><time>2026-05-28T22:01:08Z</time></trkpt>
			<trkpt lat="54.659780" lon="21.407950"><ele>13.1</ele><time>2026-05-28T22:01:17Z</time></trkpt>
			<trkpt lat="54.659250" lon="21.405220"><ele>12.9</ele><time>2026-05-28T22:01:27Z</time></trkpt>
			<trkpt lat="54.659530" lon="21.402960"><ele>13.1</ele><time>2026-05-28T22:01:36Z</time></trkpt>
			<trkpt lat="54.659790" lon="21.401250"><ele>13.2</ele><time>2026-05-28T22:01:45Z</time></trkpt>
			<trkpt lat="54.659790" lon="21.401250"><ele>13.2</ele><time>2026-05-28T22:01:51Z</time></trkpt>
			<trkpt lat="54.659930" lon="21.400330"><ele>13.3</ele><time>2026-05-28T22:01:57Z</time></trkpt>
			<trkpt lat="54.660730" lon="21.395830"><ele>12.8</ele><time>2026-05-28T22:02:04Z</time></trkpt>
			<trkpt lat="54.661200" lon="21.392430"><ele>11.6</ele><time>2026-05-28T22:02:10Z</time></trkpt>
			<trkpt lat="54.661550" lon="21.391040"><ele>11.0</ele><time>2026-05-28T22:02:16Z</time></trkpt>
			<trkpt lat="54.661500" lon="21.390400"><ele>10.8</ele><time>2026-05-28T22:02:22Z</time></trkpt>
			<trkpt lat="54.661080" lon="21.388120"><ele>10.3</ele><time>2026-05-28T22:02:28Z</time></trkpt>
			<trkpt lat="54.660700" lon="21.385570"><ele>11.8</ele><time>2026-05-28T22:02:35Z</time></trkpt>
			<trkpt lat="54.660620" lon="21.384640"><ele>12.3</ele><time>2026-05-28T22:02:41Z</time></trkpt>
			<trkpt lat="54.661090" lon="21.381240"><ele>14.2</ele><time>2026-05-28T22:02:47Z</time></trkpt>
			<trkpt lat="54.661070" lon="21.381070"><ele>14.3</ele><time>2026-05-28T22:02:53Z</time></trkpt>
			<trkpt lat="54.660980" lon="21.380320"><ele>14.7</ele><time>2026-05-28T22:03:00Z</time></trkpt>
			<trkpt lat="54.660810" lon="21.379640"><ele>15.1</ele><time>2026-05-28T22:03:06Z</time></trkpt>
			<trkpt lat="54.660600" lon="21.379160"><ele>15.2</ele><time>2026-05-28T22:03:12Z</time></trkpt>
			<trkpt lat="54.659910" lon="21.378360"><ele>15.2</ele><time>2026-05-28T22:03:18Z</time></trkpt>
			<trkpt lat="54.659450" lon="21.377760"><ele>15.2</ele><time>2026-05-28T22:03:24Z</time></trkpt>
			<trkpt lat="54.659090" lon="21.376920"><ele>15.2</ele><time>2026-05-28T22:03:31Z</time></trkpt>
			<trkpt lat="54.659040" lon="21.376230"><ele>15.2</ele><time>2026-05-28T22:03:37Z</time></trkpt>
			<trkpt lat="54.659000" lon="21.375280"><ele>15.2</ele><time>2026-05-28T22:03:43Z</time></trkpt>
			<trkpt lat="54.659120" lon="21.373570"><ele>15.2</ele><time>2026-05-28T22:03:49Z</time></trkpt>
			<trkpt lat="54.659560" lon="21.372180"><ele>15.2</ele><time>2026-05-28T22:03:56Z</time></trkpt>
			<trkpt lat="54.659870" lon="21.370940"><ele>15.2</ele><time>2026-05-28T22:04:02Z</time></trkpt>
			<trkpt lat="54.659880" lon="21.370260"><ele>15.2</ele><time>2026-05-28T22:04:08Z</time></trkpt>
			<trkpt lat="54.659630" lon="21.369290"><ele>15.2</ele><time>2026-05-28T22:04:14Z</time></trkpt>
			<trkpt lat="54.659630" lon="21.368780"><ele>15.1</ele><time>2026-05-28T22:04:20Z</time></trkpt>
			<trkpt lat="54.659720" lon="21.368030"><ele>15.1</ele><time>2026-05-28T22:04:27Z</time></trkpt>
			<trkpt lat="54.659840" lon="21.366710"><ele>15.1</ele><time>2026-05-28T22:04:33Z</time></trkpt>
			<trkpt lat="54.659650" lon="21.364850"><ele>15.1</ele><time>2026-05-28T22:04:39Z</time></trkpt>
			<trkpt lat="54.659240" lon="21.362500"><ele>14.9</ele><time>2026-05-28T22:04:45Z</time></trkpt>
			<trkpt lat="54.659230" lon="21.362340"><ele>14.8</ele><time>2026-05-28T22:04:52Z</time></trkpt>
			<trkpt lat="54.659230" lon="21.362170"><ele>14.7</ele><time>2026-05-28T22:04:58Z</time></trkpt>
			<trkpt lat="54.659260" lon="21.361840"><ele>14.5</ele><time>2026-05-28T22:05:04Z</time></trkpt>
			<trkpt lat="54.659466" lon="21.360771"><ele>13.7</ele><time>2026-05-28T22:05:10Z</time></trkpt>
			<trkpt lat="54.659509" lon="21.360602"><ele>13.6</ele><time>2026-05-28T22:05:25Z</time></trkpt>
			<trkpt lat="54.655942" lon="21.356432"><ele>8.8</ele><time>2026-05-28T22:15:24Z</time></trkpt>
			<trkpt lat="54.655572" lon="21.355873"><ele>8.2</ele><time>2026-05-28T22:16:32Z</time></trkpt>
			<trkpt lat="54.655023" lon="21.354868"><ele>7.2</ele><time>2026-05-28T22:18:23Z</time></trkpt>
			<trkpt lat="54.650244" lon="21.344571"><ele>6.1</ele><time>2026-05-28T22:36:05Z</time></trkpt>
			<trkpt lat="54.650566" lon="21.341814"><ele>7.7</ele><time>2026-05-28T22:39:51Z</time></trkpt>
			<trkpt lat="54.650175" lon="21.344676"><ele>6.2</ele><time>2026-05-28T22:43:47Z</time></trkpt>
			<trkpt lat="54.652776" lon="21.350030"><ele>2.8</ele><time>2026-05-28T22:53:09Z</time></trkpt>
			<trkpt lat="54.655650" lon="21.356081"><ele>8.3</ele><time>2026-05-28T23:03:39Z</time></trkpt>
			<trkpt lat="54.657406" lon="21.358227"><ele>11.7</ele><time>2026-05-28T23:08:38Z</time></trkpt>
			<trkpt lat="54.659425" lon="21.360706"><ele>15.9</ele><time>2026-05-28T23:14:22Z</time></trkpt>
			<trkpt lat="54.659479" lon="21.360761"><ele>16.0</ele><time>2026-05-28T23:14:31Z</time></trkpt>
			<trkpt lat="54.659479" lon="21.360761"><ele>16.0</ele><time>2026-05-28T23:14:42Z</time></trkpt>
			<trkpt lat="54.660210" lon="21.361610"><ele>17.5</ele><time>2026-05-28T23:14:52Z</time></trkpt>
			<trkpt lat="54.661020" lon="21.362540"><ele>18.3</ele><time>2026-05-28T23:15:03Z</time></trkpt>
			<trkpt lat="54.661140" lon="21.362660"><ele>18.3</ele><time>2026-05-28T23:15:13Z</time></trkpt>
			<trkpt lat="54.661280" lon="21.362800"><ele>18.3</ele><time>2026-05-28T23:15:24Z</time></trkpt>
			<trkpt lat="54.661600" lon="21.363080"><ele>18.3</ele><time>2026-05-28T23:15:34Z</time></trkpt>
			<trkpt lat="54.662450" lon="21.364080"><ele>18.4</ele><time>2026-05-28T23:15:45Z</time></trkpt>
			<trkpt lat="54.663090" lon="21.364830"><ele>18.5</ele><time>2026-05-28T23:15:55Z</time></trkpt>
			<trkpt lat="54.664000" lon="21.365910"><ele>18.5</ele><time>2026-05-28T23:16:06Z</time></trkpt>
			<trkpt lat="54.665290" lon="21.367430"><ele>18.6</ele><time>2026-05-28T23:16:16Z</time></trkpt>
			<trkpt lat="54.665380" lon="21.367280"><ele>18.5</ele><time>2026-05-28T23:16:26Z</time></trkpt>
			<trkpt lat="54.668420" lon="21.361930"><ele>17.2</ele><time>2026-05-28T23:16:37Z</time></trkpt>
			<trkpt lat="54.671690" lon="21.356030"><ele>14.4</ele><time>2026-05-28T23:16:47Z</time></trkpt>
			<trkpt lat="54.672100" lon="21.355630"><ele>14.2</ele><time>2026-05-28T23:16:58Z</time></trkpt>
			<trkpt lat="54.672950" lon="21.355230"><ele>13.6</ele><time>2026-05-28T23:17:08Z</time></trkpt>
			<trkpt lat="54.679930" lon="21.352210"><ele>10.6</ele><time>2026-05-28T23:17:19Z</time></trkpt>
			<trkpt lat="54.683300" lon="21.350750"><ele>11.6</ele><time>2026-05-28T23:17:29Z</time></trkpt>
			<trkpt lat="54.684650" lon="21.350140"><ele>11.0</ele><time>2026-05-28T23:17:40Z</time></trkpt>
			<trkpt lat="54.685060" lon="21.349960"><ele>10.7</ele><time>2026-05-28T23:17:50Z</time></trkpt>
			<trkpt lat="54.685260" lon="21.349830"><ele>10.6</ele><time>2026-05-28T23:18:01Z</time></trkpt>
			<trkpt lat="54.685600" lon="21.348930"><ele>10.3</ele><time>2026-05-28T23:18:11Z</time></trkpt>
			<trkpt lat="54.685810" lon="21.348670"><ele>10.1</ele><time>2026-05-28T23:18:22Z</time></trkpt>
			<trkpt lat="54.686100" lon="21.348510"><ele>9.9</ele><time>2026-05-28T23:18:32Z</time></trkpt>
			<trkpt lat="54.686200" lon="21.348490"><ele>9.9</ele><time>2026-05-28T23:18:43Z</time></trkpt>
			<trkpt lat="54.686570" lon="21.348730"><ele>9.7</ele><time>2026-05-28T23:18:53Z</time></trkpt>
			<trkpt lat="54.686670" lon="21.348790"><ele>9.6</ele><time>2026-05-28T23:19:04Z</time></trkpt>
			<trkpt lat="54.686820" lon="21.348840"><ele>9.5</ele><time>2026-05-28T23:19:14Z</time></trkpt>
			<trkpt lat="54.687440" lon="21.348780"><ele>9.2</ele><time>2026-05-28T23:19:25Z</time></trkpt>
			<trkpt lat="54.694010" lon="21.347310"><ele>11.6</ele><time>2026-05-28T23:19:35Z</time></trkpt>
			<trkpt lat="54.694260" lon="21.347190"><ele>11.9</ele><time>2026-05-28T23:19:46Z</time></trkpt>
			<trkpt lat="54.697810" lon="21.344580"><ele>16.5</ele><time>2026-05-28T23:19:56Z</time></trkpt>
			<trkpt lat="54.704420" lon="21.339690"><ele>15.3</ele><time>2026-05-28T23:20:07Z</time></trkpt>
			<trkpt lat="54.708660" lon="21.336570"><ele>16.9</ele><time>2026-05-28T23:20:17Z</time></trkpt>
			<trkpt lat="54.712900" lon="21.333410"><ele>16.1</ele><time>2026-05-28T23:20:28Z</time></trkpt>
			<trkpt lat="54.714090" lon="21.332540"><ele>15.0</ele><time>2026-05-28T23:20:38Z</time></trkpt>
			<trkpt lat="54.715250" lon="21.331730"><ele>12.4</ele><time>2026-05-28T23:20:49Z</time></trkpt>
			<trkpt lat="54.715590" lon="21.331410"><ele>11.6</ele><time>2026-05-28T23:20:59Z</time></trkpt>
			<trkpt lat="54.716340" lon="21.330330"><ele>9.6</ele><time>2026-05-28T23:21:10Z</time></trkpt>
			<trkpt lat="54.716470" lon="21.329860"><ele>9.0</ele><time>2026-05-28T23:21:20Z</time></trkpt>
			<trkpt lat="54.716490" lon="21.329650"><ele>8.8</ele><time>2026-05-28T23:21:31Z</time></trkpt>
			<trkpt lat="54.716510" lon="21.329460"><ele>8.6</ele><time>2026-05-28T23:21:41Z</time></trkpt>
			<trkpt lat="54.716520" lon="21.329120"><ele>8.2</ele><time>2026-05-28T23:21:51Z</time></trkpt>
			<trkpt lat="54.716510" lon="21.328480"><ele>7.4</ele><time>2026-05-28T23:22:02Z</time></trkpt>
			<trkpt lat="54.716550" lon="21.327910"><ele>6.7</ele><time>2026-05-28T23:22:12Z</time></trkpt>
			<trkpt lat="54.716750" lon="21.327350"><ele>5.9</ele><time>2026-05-28T23:22:23Z</time></trkpt>
			<trkpt lat="54.717560" lon="21.325480"><ele>5.4</ele><time>2026-05-28T23:22:33Z</time></trkpt>
			<trkpt lat="54.718280" lon="21.323530"><ele>6.3</ele><time>2026-05-28T23:22:44Z</time></trkpt>
			<trkpt lat="54.718730" lon="21.322040"><ele>6.8</ele><time>2026-05-28T23:22:54Z</time></trkpt>
			<trkpt lat="54.718900" lon="21.321610"><ele>7.0</ele><time>2026-05-28T23:23:05Z</time></trkpt>
			<trkpt lat="54.718990" lon="21.321370"><ele>7.1</ele><time>2026-05-28T23:23:15Z</time></trkpt>
			<trkpt lat="54.719600" lon="21.320110"><ele>7.7</ele><time>2026-05-28T23:23:26Z</time></trkpt>
			<trkpt lat="54.719840" lon="21.319500"><ele>8.0</ele><time>2026-05-28T23:23:36Z</time></trkpt>
			<trkpt lat="54.720140" lon="21.318820"><ele>8.2</ele><time>2026-05-28T23:23:47Z</time></trkpt>
			<trkpt lat="54.720480" lon="21.318210"><ele>8.4</ele><time>2026-05-28T23:23:57Z</time></trkpt>
			<trkpt lat="54.720750" lon="21.317870"><ele>8.4</ele><time>2026-05-28T23:24:08Z</time></trkpt>
			<trkpt lat="54.721050" lon="21.317610"><ele>8.5</ele><time>2026-05-28T23:24:18Z</time></trkpt>
			<trkpt lat="54.721450" lon="21.317440"><ele>8.6</ele><time>2026-05-28T23:24:29Z</time></trkpt>
			<trkpt lat="54.722300" lon="21.317250"><ele>8.8</ele><time>2026-05-28T23:24:39Z</time></trkpt>
			<trkpt lat="54.722820" lon="21.317200"><ele>9.0</ele><time>2026-05-28T23:24:50Z</time></trkpt>
			<trkpt lat="54.725060" lon="21.317370"><ele>9.5</ele><time>2026-05-28T23:25:00Z</time></trkpt>
			<trkpt lat="54.727310" lon="21.317490"><ele>10.4</ele><time>2026-05-28T23:25:11Z</time></trkpt>
			<trkpt lat="54.727310" lon="21.317490"><ele>10.4</ele><time>2026-05-28T23:25:18Z</time></trkpt>
			<trkpt lat="54.730320" lon="21.317560"><ele>11.7</ele><time>2026-05-28T23:25:25Z</time></trkpt>
			<trkpt lat="54.732670" lon="21.317420"><ele>11.1</ele><time>2026-05-28T23:25:32Z</time></trkpt>
			<trkpt lat="54.732880" lon="21.317340"><ele>11.0</ele><time>2026-05-28T23:25:39Z</time></trkpt>
			<trkpt lat="54.733190" lon="21.317080"><ele>10.9</ele><time>2026-05-28T23:25:46Z</time></trkpt>
			<trkpt lat="54.733910" lon="21.316320"><ele>10.6</ele><time>2026-05-28T23:25:53Z</time></trkpt>
			<trkpt lat="54.734300" lon="21.315870"><ele>10.5</ele><time>2026-05-28T23:26:00Z</time></trkpt>
			<trkpt lat="54.734460" lon="21.315790"><ele>10.4</ele><time>2026-05-28T23:26:07Z</time></trkpt>
			<trkpt lat="54.734580" lon="21.315800"><ele>10.4</ele><time>2026-05-28T23:26:14Z</time></trkpt>
			<trkpt lat="54.734710" lon="21.315900"><ele>10.3</ele><time>2026-05-28T23:26:21Z</time></trkpt>
			<trkpt lat="54.734830" lon="21.316050"><ele>10.3</ele><time>2026-05-28T23:26:28Z</time></trkpt>
			<trkpt lat="54.734980" lon="21.316130"><ele>10.2</ele><time>2026-05-28T23:26:35Z</time></trkpt>
			<trkpt lat="54.735110" lon="21.316160"><ele>10.2</ele><time>2026-05-28T23:26:42Z</time></trkpt>
			<trkpt lat="54.735350" lon="21.316040"><ele>10.1</ele><time>2026-05-28T23:26:49Z</time></trkpt>
			<trkpt lat="54.735760" lon="21.315780"><ele>10.0</ele><time>2026-05-28T23:26:56Z</time></trkpt>
			<trkpt lat="54.736110" lon="21.315530"><ele>10.1</ele><time>2026-05-28T23:27:03Z</time></trkpt>
			<trkpt lat="54.736290" lon="21.315350"><ele>10.2</ele><time>2026-05-28T23:27:10Z</time></trkpt>
			<trkpt lat="54.736400" lon="21.315140"><ele>10.2</ele><time>2026-05-28T23:27:17Z</time></trkpt>
			<trkpt lat="54.736500" lon="21.314850"><ele>10.3</ele><time>2026-05-28T23:27:24Z</time></trkpt>
			<trkpt lat="54.736580" lon="21.314130"><ele>10.4</ele><time>2026-05-28T23:27:31Z</time></trkpt>
			<trkpt lat="54.736680" lon="21.313100"><ele>10.6</ele><time>2026-05-28T23:27:38Z</time></trkpt>
			<trkpt lat="54.736780" lon="21.312590"><ele>10.7</ele><time>2026-05-28T23:27:45Z</time></trkpt>
			<trkpt lat="54.736960" lon="21.312140"><ele>10.8</ele><time>2026-05-28T23:27:52Z</time></trkpt>
			<trkpt lat="54.737380" lon="21.311350"><ele>10.9</ele><time>2026-05-28T23:27:59Z</time></trkpt>
			<trkpt lat="54.737600" lon="21.311010"><ele>11.0</ele><time>2026-05-28T23:28:06Z</time></trkpt>
			<trkpt lat="54.738090" lon="21.310460"><ele>11.2</ele><time>2026-05-28T23:28:13Z</time></trkpt>
			<trkpt lat="54.742680" lon="21.305870"><ele>11.0</ele><time>2026-05-28T23:28:20Z</time></trkpt>
			<trkpt lat="54.742960" lon="21.305450"><ele>10.9</ele><time>2026-05-28T23:28:27Z</time></trkpt>
			<trkpt lat="54.744530" lon="21.302830"><ele>11.5</ele><time>2026-05-28T23:28:34Z</time></trkpt>
			<trkpt lat="54.746740" lon="21.299010"><ele>13.2</ele><time>2026-05-28T23:28:41Z</time></trkpt>
			<trkpt lat="54.746880" lon="21.298680"><ele>13.4</ele><time>2026-05-28T23:28:48Z</time></trkpt>
			<trkpt lat="54.747000" lon="21.298250"><ele>13.5</ele><time>2026-05-28T23:28:55Z</time></trkpt>
			<trkpt lat="54.747220" lon="21.297620"><ele>13.8</ele><time>2026-05-28T23:29:03Z</time></trkpt>
			<trkpt lat="54.747360" lon="21.297100"><ele>13.8</ele><time>2026-05-28T23:29:10Z</time></trkpt>
			<trkpt lat="54.747620" lon="21.295880"><ele>13.8</ele><time>2026-05-28T23:29:17Z</time></trkpt>
			<trkpt lat="54.747700" lon="21.295380"><ele>13.8</ele><time>2026-05-28T23:29:24Z</time></trkpt>
			<trkpt lat="54.747860" lon="21.294830"><ele>13.9</ele><time>2026-05-28T23:29:31Z</time></trkpt>
			<trkpt lat="54.748710" lon="21.292920"><ele>13.9</ele><time>2026-05-28T23:29:38Z</time></trkpt>
			<trkpt lat="54.749040" lon="21.292260"><ele>13.9</ele><time>2026-05-28T23:29:45Z</time></trkpt>
			<trkpt lat="54.749410" lon="21.291600"><ele>13.9</ele><time>2026-05-28T23:29:52Z</time></trkpt>
			<trkpt lat="54.750230" lon="21.290280"><ele>13.9</ele><time>2026-05-28T23:29:59Z</time></trkpt>
			<trkpt lat="54.751970" lon="21.287380"><ele>13.9</ele><time>2026-05-28T23:30:06Z</time></trkpt>
			<trkpt lat="54.755930" lon="21.280640"><ele>11.7</ele><time>2026-05-28T23:30:13Z</time></trkpt>
			<trkpt lat="54.757530" lon="21.277830"><ele>9.7</ele><time>2026-05-28T23:30:20Z</time></trkpt>
			<trkpt lat="54.757580" lon="21.277750"><ele>9.6</ele><time>2026-05-28T23:30:27Z</time></trkpt>
			<trkpt lat="54.758010" lon="21.276990"><ele>9.1</ele><time>2026-05-28T23:30:34Z</time></trkpt>
			<trkpt lat="54.758400" lon="21.276300"><ele>9.0</ele><time>2026-05-28T23:30:41Z</time></trkpt>
			<trkpt lat="54.759470" lon="21.274800"><ele>8.8</ele><time>2026-05-28T23:30:48Z</time></trkpt>
			<trkpt lat="54.765810" lon="21.265860"><ele>7.8</ele><time>2026-05-28T23:30:55Z</time></trkpt>
			<trkpt lat="54.768470" lon="21.261990"><ele>10.9</ele><time>2026-05-28T23:31:02Z</time></trkpt>
			<trkpt lat="54.768920" lon="21.261350"><ele>11.6</ele><time>2026-05-28T23:31:09Z</time></trkpt>
			<trkpt lat="54.770160" lon="21.259570"><ele>13.5</ele><time>2026-05-28T23:31:16Z</time></trkpt>
			<trkpt lat="54.770470" lon="21.259160"><ele>14.0</ele><time>2026-05-28T23:31:23Z</time></trkpt>
			<trkpt lat="54.771030" lon="21.258510"><ele>14.3</ele><time>2026-05-28T23:31:30Z</time></trkpt>
			<trkpt lat="54.773980" lon="21.255490"><ele>15.3</ele><time>2026-05-28T23:31:37Z</time></trkpt>
			<trkpt lat="54.776160" lon="21.253150"><ele>14.9</ele><time>2026-05-28T23:31:44Z</time></trkpt>
			<trkpt lat="54.778340" lon="21.250840"><ele>12.7</ele><time>2026-05-28T23:31:51Z</time></trkpt>
			<trkpt lat="54.780210" lon="21.248890"><ele>11.0</ele><time>2026-05-28T23:31:58Z</time></trkpt>
			<trkpt lat="54.781180" lon="21.247850"><ele>10.3</ele><time>2026-05-28T23:32:05Z</time></trkpt>
			<trkpt lat="54.781560" lon="21.247490"><ele>10.1</ele><time>2026-05-28T23:32:12Z</time></trkpt>
			<trkpt lat="54.781950" lon="21.247190"><ele>9.8</ele><time>2026-05-28T23:32:19Z</time></trkpt>
			<trkpt lat="54.784150" lon="21.245840"><ele>8.4</ele><time>2026-05-28T23:32:26Z</time></trkpt>
			<trkpt lat="54.785500" lon="21.244990"><ele>8.8</ele><time>2026-05-28T23:32:33Z</time></trkpt>
			<trkpt lat="54.786360" lon="21.244420"><ele>9.7</ele><time>2026-05-28T23:32:40Z</time></trkpt>
			<trkpt lat="54.791000" lon="21.241210"><ele>11.6</ele><time>2026-05-28T23:32:47Z</time></trkpt>
			<trkpt lat="54.791870" lon="21.240770"><ele>10.5</ele><time>2026-05-28T23:32:54Z</time></trkpt>
			<trkpt lat="54.792210" lon="21.240700"><ele>10.1</ele><time>2026-05-28T23:33:01Z</time></trkpt>
			<trkpt lat="54.792710" lon="21.240550"><ele>9.4</ele><time>2026-05-28T23:33:08Z</time></trkpt>
			<trkpt lat="54.792980" lon="21.241130"><ele>8.9</ele><time>2026-05-28T23:33:15Z</time></trkpt>
			<trkpt lat="54.793310" lon="21.241670"><ele>8.4</ele><time>2026-05-28T23:33:22Z</time></trkpt>
			<trkpt lat="54.793740" lon="21.241930"><ele>7.8</ele><time>2026-05-28T23:33:29Z</time></trkpt>
			<trkpt lat="54.794390" lon="21.242100"><ele>7.0</ele><time>2026-05-28T23:33:37Z</time></trkpt>
			<trkpt lat="54.794540" lon="21.242060"><ele>6.8</ele><time>2026-05-28T23:33:44Z</time></trkpt>
			<trkpt lat="54.795140" lon="21.241890"><ele>6.5</ele><time>2026-05-28T23:33:51Z</time></trkpt>
			<trkpt lat="54.797830" lon="21.240830"><ele>5.9</ele><time>2026-05-28T23:33:58Z</time></trkpt>
			<trkpt lat="54.798900" lon="21.240190"><ele>5.6</ele><time>2026-05-28T23:34:05Z</time></trkpt>
			<trkpt lat="54.801560" lon="21.238300"><ele>6.2</ele><time>2026-05-28T23:34:12Z</time></trkpt>
			<trkpt lat="54.804630" lon="21.236080"><ele>7.7</ele><time>2026-05-28T23:34:19Z</time></trkpt>
			<trkpt lat="54.806280" lon="21.235230"><ele>6.8</ele><time>2026-05-28T23:34:26Z</time></trkpt>
			<trkpt lat="54.810910" lon="21.232940"><ele>4.4</ele><time>2026-05-28T23:34:33Z</time></trkpt>
			<trkpt lat="54.815370" lon="21.230630"><ele>6.8</ele><time>2026-05-28T23:34:40Z</time></trkpt>
			<trkpt lat="54.816450" lon="21.231100"><ele>6.6</ele><time>2026-05-28T23:34:47Z</time></trkpt>
			<trkpt lat="54.821680" lon="21.233640"><ele>5.9</ele><time>2026-05-28T23:34:54Z</time></trkpt>
			<trkpt lat="54.823270" lon="21.234340"><ele>6.2</ele><time>2026-05-28T23:35:01Z</time></trkpt>
			<trkpt lat="54.824460" lon="21.234780"><ele>6.4</ele><time>2026-05-28T23:35:08Z</time></trkpt>
			<trkpt lat="54.825370" lon="21.234820"><ele>6.6</ele><time>2026-05-28T23:35:15Z</time></trkpt>
			<trkpt lat="54.826860" lon="21.234730"><ele>5.4</ele><time>2026-05-28T23:35:22Z</time></trkpt>
			<trkpt lat="54.828010" lon="21.234800"><ele>4.1</ele><time>2026-05-28T23:35:29Z</time></trkpt>
			<trkpt lat="54.828440" lon="21.234930"><ele>3.6</ele><time>2026-05-28T23:35:36Z</time></trkpt>
			<trkpt lat="54.829570" lon="21.235230"><ele>2.3</ele><time>2026-05-28T23:35:43Z</time></trkpt>
			<trkpt lat="54.829840" lon="21.235350"><ele>1.9</ele><time>2026-05-28T23:35:50Z</time></trkpt>
			<trkpt lat="54.829970" lon="21.235440"><ele>1.8</ele><time>2026-05-28T23:35:57Z</time></trkpt>
			<trkpt lat="54.830110" lon="21.235570"><ele>1.6</ele><time>2026-05-28T23:36:04Z</time></trkpt>
			<trkpt lat="54.830340" lon="21.235820"><ele>1.3</ele><time>2026-05-28T23:36:11Z</time></trkpt>
			<trkpt lat="54.831390" lon="21.237170"><ele>0.5</ele><time>2026-05-28T23:36:18Z</time></trkpt>
			<trkpt lat="54.831630" lon="21.237520"><ele>0.5</ele><time>2026-05-28T23:36:25Z</time></trkpt>
			<trkpt lat="54.832050" lon="21.238220"><ele>0.6</ele><time>2026-05-28T23:36:32Z</time></trkpt>
			<trkpt lat="54.832310" lon="21.238580"><ele>0.6</ele><time>2026-05-28T23:36:39Z</time></trkpt>
			<trkpt lat="54.832400" lon="21.238700"><ele>0.6</ele><time>2026-05-28T23:36:46Z</time></trkpt>
			<trkpt lat="54.832650" lon="21.238950"><ele>0.7</ele><time>2026-05-28T23:36:53Z</time></trkpt>
			<trkpt lat="54.833050" lon="21.239270"><ele>0.7</ele><time>2026-05-28T23:37:00Z</time></trkpt>
			<trkpt lat="54.833470" lon="21.239530"><ele>0.8</ele><time>2026-05-28T23:37:07Z</time></trkpt>
			<trkpt lat="54.834830" lon="21.235080"><ele>0.8</ele><time>2026-05-28T23:37:14Z</time></trkpt>
			<trkpt lat="54.836680" lon="21.229030"><ele>-0.2</ele><time>2026-05-28T23:37:21Z</time></trkpt>
			<trkpt lat="54.837130" lon="21.227560"><ele>-0.3</ele><time>2026-05-28T23:37:28Z</time></trkpt>
			<trkpt lat="54.838100" lon="21.224820"><ele>0.4</ele><time>2026-05-28T23:37:35Z</time></trkpt>
			<trkpt lat="54.838400" lon="21.224030"><ele>0.7</ele><time>2026-05-28T23:37:42Z</time></trkpt>
			<trkpt lat="54.842100" lon="21.214000"><ele>0.0</ele><time>2026-05-28T23:37:49Z</time></trkpt>
			<trkpt lat="54.842500" lon="21.212580"><ele>-0.4</ele><time>2026-05-28T23:37:56Z</time></trkpt>
			<trkpt lat="54.842830" lon="21.211340"><ele>-0.8</ele><time>2026-05-28T23:38:03Z</time></trkpt>
			<trkpt lat="54.843010" lon="21.210300"><ele>-1.0</ele><time>2026-05-28T23:38:11Z</time></trkpt>
			<trkpt lat="54.843270" lon="21.208700"><ele>-1.4</ele><time>2026-05-28T23:38:18Z</time></trkpt>
			<trkpt lat="54.843420" lon="21.207810"><ele>-1.7</ele><time>2026-05-28T23:38:25Z</time></trkpt>
			<trkpt lat="54.843670" lon="21.205840"><ele>-2.1</ele><time>2026-05-28T23:38:32Z</time></trkpt>
			<trkpt lat="54.843850" lon="21.204190"><ele>-2.5</ele><time>2026-05-28T23:38:39Z</time></trkpt>
			<trkpt lat="54.843890" lon="21.203450"><ele>-2.7</ele><time>2026-05-28T23:38:46Z</time></trkpt>
			<trkpt lat="54.843950" lon="21.202190"><ele>-2.8</ele><time>2026-05-28T23:38:53Z</time></trkpt>
			<trkpt lat="54.843860" lon="21.195830"><ele>-1.2</ele><time>2026-05-28T23:39:00Z</time></trkpt>
			<trkpt lat="54.843880" lon="21.195590"><ele>-1.1</ele><time>2026-05-28T23:39:07Z</time></trkpt>
			<trkpt lat="54.843900" lon="21.195400"><ele>-1.1</ele><time>2026-05-28T23:39:14Z</time></trkpt>
			<trkpt lat="54.843930" lon="21.195210"><ele>-1.0</ele><time>2026-05-28T23:39:21Z</time></trkpt>
			<trkpt lat="54.843990" lon="21.195010"><ele>-1.0</ele><time>2026-05-28T23:39:28Z</time></trkpt>
			<trkpt lat="54.844050" lon="21.194860"><ele>-0.9</ele><time>2026-05-28T23:39:35Z</time></trkpt>
			<trkpt lat="54.844140" lon="21.194690"><ele>-0.9</ele><time>2026-05-28T23:39:42Z</time></trkpt>
			<trkpt lat="54.844750" lon="21.193740"><ele>-0.5</ele><time>2026-05-28T23:39:49Z</time></trkpt>
			<trkpt lat="54.844890" lon="21.193530"><ele>-0.5</ele><time>2026-05-28T23:39:56Z</time></trkpt>
			<trkpt lat="54.845110" lon="21.193200"><ele>-0.5</ele><time>2026-05-28T23:40:03Z</time></trkpt>
			<trkpt lat="54.845220" lon="21.193040"><ele>-0.5</ele><time>2026-05-28T23:40:10Z</time></trkpt>
			<trkpt lat="54.845380" lon="21.192850"><ele>-0.5</ele><time>2026-05-28T23:40:17Z</time></trkpt>
			<trkpt lat="54.845550" lon="21.192700"><ele>-0.4</ele><time>2026-05-28T23:40:24Z</time></trkpt>
			<trkpt lat="54.845700" lon="21.192610"><ele>-0.4</ele><time>2026-05-28T23:40:31Z</time></trkpt>
			<trkpt lat="54.845830" lon="21.192570"><ele>-0.4</ele><time>2026-05-28T23:40:38Z</time></trkpt>
			<trkpt lat="54.846100" lon="21.192520"><ele>-0.4</ele><time>2026-05-28T23:40:45Z</time></trkpt>
			<trkpt lat="54.846890" lon="21.192460"><ele>-0.3</ele><time>2026-05-28T23:40:52Z</time></trkpt>
			<trkpt lat="54.847420" lon="21.192400"><ele>-0.3</ele><time>2026-05-28T23:40:59Z</time></trkpt>
			<trkpt lat="54.847850" lon="21.192220"><ele>-0.2</ele><time>2026-05-28T23:41:06Z</time></trkpt>
			<trkpt lat="54.848280" lon="21.191910"><ele>-0.2</ele><time>2026-05-28T23:41:13Z</time></trkpt>
			<trkpt lat="54.848800" lon="21.191420"><ele>-0.1</ele><time>2026-05-28T23:41:20Z</time></trkpt>
			<trkpt lat="54.849620" lon="21.190530"><ele>-0.0</ele><time>2026-05-28T23:41:27Z</time></trkpt>
			<trkpt lat="54.852120" lon="21.187950"><ele>1.4</ele><time>2026-05-28T23:41:34Z</time></trkpt>
			<trkpt lat="54.855380" lon="21.184590"><ele>2.3</ele><time>2026-05-28T23:41:41Z</time></trkpt>
			<trkpt lat="54.855610" lon="21.184330"><ele>2.2</ele><time>2026-05-28T23:41:48Z</time></trkpt>
			<trkpt lat="54.855970" lon="21.183940"><ele>2.1</ele><time>2026-05-28T23:41:55Z</time></trkpt>
			<trkpt lat="54.856640" lon="21.183140"><ele>1.8</ele><time>2026-05-28T23:42:02Z</time></trkpt>
			<trkpt lat="54.857400" lon="21.182100"><ele>1.5</ele><time>2026-05-28T23:42:09Z</time></trkpt>
			<trkpt lat="54.857990" lon="21.181270"><ele>1.3</ele><time>2026-05-28T23:42:16Z</time></trkpt>
			<trkpt lat="54.858480" lon="21.180500"><ele>1.1</ele><time>2026-05-28T23:42:23Z</time></trkpt>
			<trkpt lat="54.859030" lon="21.179520"><ele>0.7</ele><time>2026-05-28T23:42:30Z</time></trkpt>
			<trkpt lat="54.859360" lon="21.178680"><ele>0.5</ele><time>2026-05-28T23:42:37Z</time></trkpt>
			<trkpt lat="54.859590" lon="21.177930"><ele>0.2</ele><time>2026-05-28T23:42:45Z</time></trkpt>
			<trkpt lat="54.859830" lon="21.176760"><ele>-0.1</ele><time>2026-05-28T23:42:52Z</time></trkpt>
			<trkpt lat="54.860310" lon="21.174110"><ele>-0.8</ele><time>2026-05-28T23:42:59Z</time></trkpt>
			<trkpt lat="54.860390" lon="21.173530"><ele>-1.0</ele><time>2026-05-28T23:43:06Z</time></trkpt>
			<trkpt lat="54.860470" lon="21.172680"><ele>-1.2</ele><time>2026-05-28T23:43:13Z</time></trkpt>
			<trkpt lat="54.860570" lon="21.172180"><ele>-1.4</ele><time>2026-05-28T23:43:20Z</time></trkpt>
			<trkpt lat="54.860890" lon="21.170760"><ele>-1.4</ele><time>2026-05-28T23:43:27Z</time></trkpt>
			<trkpt lat="54.861360" lon="21.168520"><ele>-1.1</ele><time>2026-05-28T23:43:34Z</time></trkpt>
			<trkpt lat="54.862090" lon="21.164560"><ele>-0.6</ele><time>2026-05-28T23:43:41Z</time></trkpt>
			<trkpt lat="54.862270" lon="21.163740"><ele>-0.5</ele><time>2026-05-28T23:43:48Z</time></trkpt>
			<trkpt lat="54.862430" lon="21.163270"><ele>-0.4</ele><time>2026-05-28T23:43:55Z</time></trkpt>
			<trkpt lat="54.862960" lon="21.162070"><ele>-0.7</ele><time>2026-05-28T23:44:02Z</time></trkpt>
			<trkpt lat="54.863170" lon="21.161390"><ele>-0.9</ele><time>2026-05-28T23:44:09Z</time></trkpt>
			<trkpt lat="54.863320" lon="21.160550"><ele>-1.2</ele><time>2026-05-28T23:44:16Z</time></trkpt>
			<trkpt lat="54.863380" lon="21.160060"><ele>-1.3</ele><time>2026-05-28T23:44:23Z</time></trkpt>
			<trkpt lat="54.863610" lon="21.157990"><ele>-2.0</ele><time>2026-05-28T23:44:30Z</time></trkpt>
			<trkpt lat="54.863970" lon="21.154180"><ele>-3.1</ele><time>2026-05-28T23:44:37Z</time></trkpt>
			<trkpt lat="54.864190" lon="21.152030"><ele>-3.1</ele><time>2026-05-28T23:44:44Z</time></trkpt>
			<trkpt lat="54.864210" lon="21.151340"><ele>-3.1</ele><time>2026-05-28T23:44:51Z</time></trkpt>
			<trkpt lat="54.864190" lon="21.150880"><ele>-3.1</ele><time>2026-05-28T23:44:58Z</time></trkpt>
			<trkpt lat="54.864060" lon="21.149470"><ele>-3.1</ele><time>2026-05-28T23:45:05Z</time></trkpt>
			<trkpt lat="54.863890" lon="21.147550"><ele>-3.1</ele><time>2026-05-28T23:45:12Z</time></trkpt>
			<trkpt lat="54.863850" lon="21.146920"><ele>-3.0</ele><time>2026-05-28T23:45:19Z</time></trkpt>
			<trkpt lat="54.863830" lon="21.145560"><ele>-3.0</ele><time>2026-05-28T23:45:26Z</time></trkpt>
			<trkpt lat="54.863820" lon="21.142990"><ele>-2.8</ele><time>2026-05-28T23:45:33Z</time></trkpt>
			<trkpt lat="54.863840" lon="21.142370"><ele>-2.7</ele><time>2026-05-28T23:45:40Z</time></trkpt>
			<trkpt lat="54.863890" lon="21.141910"><ele>-2.6</ele><time>2026-05-28T23:45:47Z</time></trkpt>
			<trkpt lat="54.863990" lon="21.141130"><ele>-2.5</ele><time>2026-05-28T23:45:54Z</time></trkpt>
			<trkpt lat="54.864150" lon="21.140210"><ele>-2.4</ele><time>2026-05-28T23:46:01Z</time></trkpt>
			<trkpt lat="54.865120" lon="21.134220"><ele>-1.9</ele><time>2026-05-28T23:46:08Z</time></trkpt>
			<trkpt lat="54.865170" lon="21.133880"><ele>-2.0</ele><time>2026-05-28T23:46:15Z</time></trkpt>
			<trkpt lat="54.866080" lon="21.129100"><ele>-2.5</ele><time>2026-05-28T23:46:22Z</time></trkpt>
			<trkpt lat="54.866560" lon="21.125860"><ele>-2.5</ele><time>2026-05-28T23:46:29Z</time></trkpt>
			<trkpt lat="54.866650" lon="21.125280"><ele>-2.4</ele><time>2026-05-28T23:46:36Z</time></trkpt>
			<trkpt lat="54.866690" lon="21.124980"><ele>-2.3</ele><time>2026-05-28T23:46:43Z</time></trkpt>
			<trkpt lat="54.866720" lon="21.124610"><ele>-2.2</ele><time>2026-05-28T23:46:50Z</time></trkpt>
			<trkpt lat="54.866770" lon="21.124130"><ele>-2.1</ele><time>2026-05-28T23:46:57Z</time></trkpt>
			<trkpt lat="54.866750" lon="21.123160"><ele>-1.8</ele><time>2026-05-28T23:47:04Z</time></trkpt>
			<trkpt lat="54.866640" lon="21.122470"><ele>-1.6</ele><time>2026-05-28T23:47:11Z</time></trkpt>
			<trkpt lat="54.866530" lon="21.121860"><ele>-1.5</ele><time>2026-05-28T23:47:19Z</time></trkpt>
			<trkpt lat="54.866360" lon="21.121000"><ele>-1.2</ele><time>2026-05-28T23:47:26Z</time></trkpt>
			<trkpt lat="54.866230" lon="21.120500"><ele>-1.1</ele><time>2026-05-28T23:47:33Z</time></trkpt>
			<trkpt lat="54.865790" lon="21.119300"><ele>-0.7</ele><time>2026-05-28T23:47:40Z</time></trkpt>
			<trkpt lat="54.865380" lon="21.118100"><ele>-0.3</ele><time>2026-05-28T23:47:47Z</time></trkpt>
			<trkpt lat="54.865280" lon="21.117820"><ele>-0.3</ele><time>2026-05-28T23:47:54Z</time></trkpt>
			<trkpt lat="54.865090" lon="21.117340"><ele>-0.1</ele><time>2026-05-28T23:48:01Z</time></trkpt>
			<trkpt lat="54.864920" lon="21.116900"><ele>0.0</ele><time>2026-05-28T23:48:08Z</time></trkpt>
			<trkpt lat="54.864700" lon="21.116370"><ele>0.2</ele><time>2026-05-28T23:48:15Z</time></trkpt>
			<trkpt lat="54.864520" lon="21.115890"><ele>0.4</ele><time>2026-05-28T23:48:22Z</time></trkpt>
			<trkpt lat="54.864280" lon="21.115140"><ele>0.6</ele><time>2026-05-28T23:48:29Z</time></trkpt>
			<trkpt lat="54.863930" lon="21.114080"><ele>1.0</ele><time>2026-05-28T23:48:36Z</time></trkpt>
			<trkpt lat="54.863870" lon="21.113890"><ele>1.0</ele><time>2026-05-28T23:48:43Z</time></trkpt>
			<trkpt lat="54.863810" lon="21.113660"><ele>1.1</ele><time>2026-05-28T23:48:50Z</time></trkpt>
			<trkpt lat="54.863360" lon="21.112240"><ele>1.5</ele><time>2026-05-28T23:48:57Z</time></trkpt>
			<trkpt lat="54.863220" lon="21.111810"><ele>1.7</ele><time>2026-05-28T23:49:04Z</time></trkpt>
			<trkpt lat="54.862950" lon="21.110950"><ele>1.9</ele><time>2026-05-28T23:49:11Z</time></trkpt>
			<trkpt lat="54.862920" lon="21.110850"><ele>2.0</ele><time>2026-05-28T23:49:18Z</time></trkpt>
			<trkpt lat="54.862860" lon="21.110670"><ele>2.0</ele><time>2026-05-28T23:49:25Z</time></trkpt>
			<trkpt lat="54.862770" lon="21.110510"><ele>2.1</ele><time>2026-05-28T23:49:32Z</time></trkpt>
			<trkpt lat="54.862550" lon="21.110360"><ele>2.2</ele><time>2026-05-28T23:49:39Z</time></trkpt>
			<trkpt lat="54.862430" lon="21.110290"><ele>2.3</ele><time>2026-05-28T23:49:46Z</time></trkpt>
			<trkpt lat="54.862280" lon="21.110190"><ele>2.3</ele><time>2026-05-28T23:49:53Z</time></trkpt>
			<trkpt lat="54.861540" lon="21.109670"><ele>2.3</ele><time>2026-05-28T23:50:00Z</time></trkpt>
			<trkpt lat="54.860940" lon="21.109310"><ele>2.3</ele><time>2026-05-28T23:50:07Z</time></trkpt>
			<trkpt lat="54.860830" lon="21.109220"><ele>2.3</ele><time>2026-05-28T23:50:14Z</time></trkpt>
			<trkpt lat="54.860770" lon="21.109160"><ele>2.3</ele><time>2026-05-28T23:50:21Z</time></trkpt>
			<trkpt lat="54.860630" lon="21.109020"><ele>2.3</ele><time>2026-05-28T23:50:28Z</time></trkpt>
			<trkpt lat="54.860460" lon="21.108760"><ele>2.3</ele><time>2026-05-28T23:50:35Z</time></trkpt>
			<trkpt lat="54.860410" lon="21.108660"><ele>2.3</ele><time>2026-05-28T23:50:42Z</time></trkpt>
			<trkpt lat="54.860360" lon="21.108570"><ele>2.4</ele><time>2026-05-28T23:50:49Z</time></trkpt>
			<trkpt lat="54.860010" lon="21.107630"><ele>2.4</ele><time>2026-05-28T23:50:56Z</time></trkpt>
			<trkpt lat="54.859830" lon="21.107120"><ele>2.4</ele><time>2026-05-28T23:51:03Z</time></trkpt>
			<trkpt lat="54.859820" lon="21.107090"><ele>2.4</ele><time>2026-05-28T23:51:10Z</time></trkpt>
			<trkpt lat="54.859480" lon="21.106120"><ele>2.4</ele><time>2026-05-28T23:51:17Z</time></trkpt>
			<trkpt lat="54.859430" lon="21.105960"><ele>2.4</ele><time>2026-05-28T23:51:24Z</time></trkpt>
			<trkpt lat="54.859310" lon="21.105630"><ele>2.4</ele><time>2026-05-28T23:51:31Z</time></trkpt>
			<trkpt lat="54.859200" lon="21.105330"><ele>2.4</ele><time>2026-05-28T23:51:38Z</time></trkpt>
			<trkpt lat="54.858930" lon="21.104690"><ele>2.4</ele><time>2026-05-28T23:51:45Z</time></trkpt>
			<trkpt lat="54.858690" lon="21.104200"><ele>2.4</ele><time>2026-05-28T23:51:53Z</time></trkpt>
			<trkpt lat="54.858400" lon="21.103610"><ele>2.4</ele><time>2026-05-28T23:52:00Z</time></trkpt>
			<trkpt lat="54.858340" lon="21.103480"><ele>2.3</ele><time>2026-05-28T23:52:07Z</time></trkpt>
			<trkpt lat="54.858170" lon="21.103120"><ele>2.3</ele><time>2026-05-28T23:52:14Z</time></trkpt>
			<trkpt lat="54.857960" lon="21.102670"><ele>2.2</ele><time>2026-05-28T23:52:21Z</time></trkpt>
			<trkpt lat="54.857920" lon="21.102580"><ele>2.2</ele><time>2026-05-28T23:52:28Z</time></trkpt>
			<trkpt lat="54.857810" lon="21.102290"><ele>2.2</ele><time>2026-05-28T23:52:35Z</time></trkpt>
			<trkpt lat="54.857380" lon="21.101080"><ele>2.0</ele><time>2026-05-28T23:52:42Z</time></trkpt>
			<trkpt lat="54.857150" lon="21.100490"><ele>1.9</ele><time>2026-05-28T23:52:49Z</time></trkpt>
			<trkpt lat="54.857060" lon="21.100270"><ele>1.9</ele><time>2026-05-28T23:52:56Z</time></trkpt>
			<trkpt lat="54.856350" lon="21.098390"><ele>1.6</ele><time>2026-05-28T23:53:03Z</time></trkpt>
			<trkpt lat="54.856250" lon="21.098150"><ele>1.6</ele><time>2026-05-28T23:53:10Z</time></trkpt>
			<trkpt lat="54.856070" lon="21.097630"><ele>1.5</ele><time>2026-05-28T23:53:17Z</time></trkpt>
			<trkpt lat="54.855920" lon="21.097220"><ele>1.5</ele><time>2026-05-28T23:53:24Z</time></trkpt>
			<trkpt lat="54.855770" lon="21.096830"><ele>1.4</ele><time>2026-05-28T23:53:31Z</time></trkpt>
			<trkpt lat="54.855610" lon="21.096400"><ele>1.4</ele><time>2026-05-28T23:53:38Z</time></trkpt>
			<trkpt lat="54.854990" lon="21.094830"><ele>1.6</ele><time>2026-05-28T23:53:45Z</time></trkpt>
			<trkpt lat="54.854690" lon="21.094060"><ele>1.8</ele><time>2026-05-28T23:53:52Z</time></trkpt>
			<trkpt lat="54.854450" lon="21.093430"><ele>1.9</ele><time>2026-05-28T23:53:59Z</time></trkpt>
			<trkpt lat="54.854420" lon="21.093340"><ele>1.9</ele><time>2026-05-28T23:54:06Z</time></trkpt>
			<trkpt lat="54.854280" lon="21.092990"><ele>2.0</ele><time>2026-05-28T23:54:13Z</time></trkpt>
			<trkpt lat="54.854200" lon="21.092780"><ele>2.1</ele><time>2026-05-28T23:54:20Z</time></trkpt>
			<trkpt lat="54.854150" lon="21.092650"><ele>2.1</ele><time>2026-05-28T23:54:27Z</time></trkpt>
			<trkpt lat="54.853800" lon="21.091760"><ele>2.3</ele><time>2026-05-28T23:54:34Z</time></trkpt>
			<trkpt lat="54.853760" lon="21.091670"><ele>2.3</ele><time>2026-05-28T23:54:41Z</time></trkpt>
			<trkpt lat="54.853630" lon="21.091340"><ele>2.4</ele><time>2026-05-28T23:54:48Z</time></trkpt>
			<trkpt lat="54.853360" lon="21.090630"><ele>2.5</ele><time>2026-05-28T23:54:55Z</time></trkpt>
			<trkpt lat="54.853150" lon="21.090050"><ele>2.6</ele><time>2026-05-28T23:55:02Z</time></trkpt>
			<trkpt lat="54.852120" lon="21.087320"><ele>2.8</ele><time>2026-05-28T23:55:09Z</time></trkpt>
			<trkpt lat="54.851910" lon="21.086780"><ele>2.8</ele><time>2026-05-28T23:55:16Z</time></trkpt>
			<trkpt lat="54.851740" lon="21.086330"><ele>2.7</ele><time>2026-05-28T23:55:23Z</time></trkpt>
			<trkpt lat="54.850870" lon="21.084070"><ele>2.5</ele><time>2026-05-28T23:55:30Z</time></trkpt>
			<trkpt lat="54.850640" lon="21.083460"><ele>2.4</ele><time>2026-05-28T23:55:37Z</time></trkpt>
			<trkpt lat="54.850350" lon="21.082710"><ele>2.3</ele><time>2026-05-28T23:55:44Z</time></trkpt>
			<trkpt lat="54.850130" lon="21.082140"><ele>2.3</ele><time>2026-05-28T23:55:51Z</time></trkpt>
			<trkpt lat="54.849880" lon="21.081500"><ele>2.2</ele><time>2026-05-28T23:55:58Z</time></trkpt>
			<trkpt lat="54.849470" lon="21.080490"><ele>2.1</ele><time>2026-05-28T23:56:05Z</time></trkpt>
			<trkpt lat="54.849230" lon="21.079890"><ele>2.3</ele><time>2026-05-28T23:56:12Z</time></trkpt>
			<trkpt lat="54.848380" lon="21.077720"><ele>3.0</ele><time>2026-05-28T23:56:19Z</time></trkpt>
			<trkpt lat="54.847980" lon="21.076700"><ele>3.3</ele><time>2026-05-28T23:56:27Z</time></trkpt>
			<trkpt lat="54.844990" lon="21.069100"><ele>5.0</ele><time>2026-05-28T23:56:34Z</time></trkpt>
			<trkpt lat="54.843840" lon="21.066190"><ele>5.5</ele><time>2026-05-28T23:56:41Z</time></trkpt>
			<trkpt lat="54.843550" lon="21.065460"><ele>5.7</ele><time>2026-05-28T23:56:48Z</time></trkpt>
			<trkpt lat="54.842770" lon="21.063420"><ele>6.1</ele><time>2026-05-28T23:56:55Z</time></trkpt>
			<trkpt lat="54.842440" lon="21.062570"><ele>6.3</ele><time>2026-05-28T23:57:02Z</time></trkpt>
			<trkpt lat="54.842390" lon="21.062450"><ele>6.4</ele><time>2026-05-28T23:57:09Z</time></trkpt>
			<trkpt lat="54.842230" lon="21.061720"><ele>6.5</ele><time>2026-05-28T23:57:16Z</time></trkpt>
			<trkpt lat="54.842150" lon="21.061120"><ele>6.6</ele><time>2026-05-28T23:57:23Z</time></trkpt>
			<trkpt lat="54.841850" lon="21.058700"><ele>7.1</ele><time>2026-05-28T23:57:30Z</time></trkpt>
			<trkpt lat="54.841770" lon="21.058060"><ele>7.3</ele><time>2026-05-28T23:57:37Z</time></trkpt>
			<trkpt lat="54.841730" lon="21.057500"><ele>7.4</ele><time>2026-05-28T23:57:44Z</time></trkpt>
			<trkpt lat="54.841730" lon="21.056930"><ele>7.5</ele><time>2026-05-28T23:57:51Z</time></trkpt>
			<trkpt lat="54.841760" lon="21.056490"><ele>7.6</ele><time>2026-05-28T23:57:58Z</time></trkpt>
			<trkpt lat="54.842520" lon="21.048250"><ele>5.1</ele><time>2026-05-28T23:58:05Z</time></trkpt>
			<trkpt lat="54.843640" lon="21.036060"><ele>4.8</ele><time>2026-05-28T23:58:12Z</time></trkpt>
			<trkpt lat="54.843780" lon="21.034490"><ele>5.0</ele><time>2026-05-28T23:58:19Z</time></trkpt>
			<trkpt lat="54.843870" lon="21.033470"><ele>5.2</ele><time>2026-05-28T23:58:26Z</time></trkpt>
			<trkpt lat="54.844000" lon="21.031840"><ele>5.4</ele><time>2026-05-28T23:58:33Z</time></trkpt>
			<trkpt lat="54.844000" lon="21.031550"><ele>5.5</ele><time>2026-05-28T23:58:40Z</time></trkpt>
			<trkpt lat="54.844010" lon="21.030940"><ele>5.6</ele><time>2026-05-28T23:58:47Z</time></trkpt>
			<trkpt lat="54.844040" lon="21.030500"><ele>5.6</ele><time>2026-05-28T23:58:54Z</time></trkpt>
			<trkpt lat="54.844080" lon="21.030200"><ele>5.7</ele><time>2026-05-28T23:59:01Z</time></trkpt>
			<trkpt lat="54.844170" lon="21.029610"><ele>5.8</ele><time>2026-05-28T23:59:08Z</time></trkpt>
			<trkpt lat="54.844200" lon="21.029100"><ele>5.8</ele><time>2026-05-28T23:59:15Z</time></trkpt>
			<trkpt lat="54.844190" lon="21.025740"><ele>5.9</ele><time>2026-05-28T23:59:22Z</time></trkpt>
			<trkpt lat="54.844090" lon="21.024660"><ele>5.9</ele><time>2026-05-28T23:59:29Z</time></trkpt>
			<trkpt lat="54.843830" lon="21.023320"><ele>5.9</ele><time>2026-05-28T23:59:36Z</time></trkpt>
			<trkpt lat="54.843770" lon="21.022960"><ele>5.9</ele><time>2026-05-28T23:59:43Z</time></trkpt>
			<trkpt lat="54.843730" lon="21.022550"><ele>5.9</ele><time>2026-05-28T23:59:50Z</time></trkpt>
			<trkpt lat="54.843720" lon="21.022000"><ele>5.8</ele><time>2026-05-28T23:59:57Z</time></trkpt>
			<trkpt lat="54.843730" lon="21.021820"><ele>5.8</ele><time>2026-05-29T00:00:04Z</time></trkpt>
			<trkpt lat="54.843760" lon="21.021210"><ele>5.8</ele><time>2026-05-29T00:00:11Z</time></trkpt>
			<trkpt lat="54.843800" lon="21.019910"><ele>5.8</ele><time>2026-05-29T00:00:18Z</time></trkpt>
			<trkpt lat="54.843900" lon="21.016590"><ele>5.4</ele><time>2026-05-29T00:00:25Z</time></trkpt>
			<trkpt lat="54.843940" lon="21.014960"><ele>5.2</ele><time>2026-05-29T00:00:32Z</time></trkpt>
			<trkpt lat="54.843400" lon="21.009500"><ele>4.3</ele><time>2026-05-29T00:00:39Z</time></trkpt>
			<trkpt lat="54.843280" lon="21.008310"><ele>4.0</ele><time>2026-05-29T00:00:46Z</time></trkpt>
			<trkpt lat="54.843100" lon="21.007310"><ele>3.7</ele><time>2026-05-29T00:00:53Z</time></trkpt>
			<trkpt lat="54.842640" lon="21.005020"><ele>3.1</ele><time>2026-05-29T00:01:01Z</time></trkpt>
			<trkpt lat="54.841970" lon="21.001790"><ele>2.2</ele><time>2026-05-29T00:01:08Z</time></trkpt>
			<trkpt lat="54.841810" lon="21.000880"><ele>2.0</ele><time>2026-05-29T00:01:15Z</time></trkpt>
			<trkpt lat="54.841620" lon="20.999500"><ele>2.0</ele><time>2026-05-29T00:01:22Z</time></trkpt>
			<trkpt lat="54.840600" lon="20.991800"><ele>1.9</ele><time>2026-05-29T00:01:29Z</time></trkpt>
			<trkpt lat="54.840570" lon="20.991550"><ele>2.0</ele><time>2026-05-29T00:01:36Z</time></trkpt>
			<trkpt lat="54.839820" lon="20.984880"><ele>5.8</ele><time>2026-05-29T00:01:43Z</time></trkpt>
			<trkpt lat="54.839740" lon="20.984360"><ele>6.1</ele><time>2026-05-29T00:01:50Z</time></trkpt>
			<trkpt lat="54.839680" lon="20.984000"><ele>6.3</ele><time>2026-05-29T00:01:57Z</time></trkpt>
			<trkpt lat="54.839620" lon="20.983700"><ele>6.5</ele><time>2026-05-29T00:02:04Z</time></trkpt>
			<trkpt lat="54.839580" lon="20.983510"><ele>6.6</ele><time>2026-05-29T00:02:11Z</time></trkpt>
			<trkpt lat="54.839410" lon="20.982680"><ele>7.0</ele><time>2026-05-29T00:02:18Z</time></trkpt>
			<trkpt lat="54.838440" lon="20.978300"><ele>6.6</ele><time>2026-05-29T00:02:25Z</time></trkpt>
			<trkpt lat="54.838090" lon="20.976710"><ele>6.4</ele><time>2026-05-29T00:02:32Z</time></trkpt>
			<trkpt lat="54.838070" lon="20.976630"><ele>6.4</ele><time>2026-05-29T00:02:39Z</time></trkpt>
			<trkpt lat="54.837800" lon="20.975390"><ele>6.3</ele><time>2026-05-29T00:02:46Z</time></trkpt>
			<trkpt lat="54.837050" lon="20.972100"><ele>5.7</ele><time>2026-05-29T00:02:53Z</time></trkpt>
			<trkpt lat="54.836920" lon="20.971500"><ele>5.6</ele><time>2026-05-29T00:03:00Z</time></trkpt>
			<trkpt lat="54.836680" lon="20.970430"><ele>5.3</ele><time>2026-05-29T00:03:07Z</time></trkpt>
			<trkpt lat="54.836180" lon="20.968210"><ele>4.8</ele><time>2026-05-29T00:03:14Z</time></trkpt>
			<trkpt lat="54.835510" lon="20.965020"><ele>4.0</ele><time>2026-05-29T00:03:21Z</time></trkpt>
			<trkpt lat="54.835270" lon="20.963860"><ele>3.6</ele><time>2026-05-29T00:03:28Z</time></trkpt>
			<trkpt lat="54.834840" lon="20.961740"><ele>2.8</ele><time>2026-05-29T00:03:35Z</time></trkpt>
			<trkpt lat="54.834610" lon="20.960570"><ele>2.4</ele><time>2026-05-29T00:03:42Z</time></trkpt>
			<trkpt lat="54.834310" lon="20.959440"><ele>2.0</ele><time>2026-05-29T00:03:49Z</time></trkpt>
			<trkpt lat="54.834220" lon="20.959210"><ele>1.9</ele><time>2026-05-29T00:03:56Z</time></trkpt>
			<trkpt lat="54.834020" lon="20.958720"><ele>1.7</ele><time>2026-05-29T00:04:03Z</time></trkpt>
			<trkpt lat="54.833590" lon="20.957930"><ele>1.3</ele><time>2026-05-29T00:04:10Z</time></trkpt>
			<trkpt lat="54.833520" lon="20.957800"><ele>1.3</ele><time>2026-05-29T00:04:17Z</time></trkpt>
			<trkpt lat="54.833070" lon="20.956830"><ele>1.0</ele><time>2026-05-29T00:04:24Z</time></trkpt>
			<trkpt lat="54.832880" lon="20.956440"><ele>1.1</ele><time>2026-05-29T00:04:31Z</time></trkpt>
			<trkpt lat="54.832630" lon="20.955960"><ele>1.3</ele><time>2026-05-29T00:04:38Z</time></trkpt>
			<trkpt lat="54.832130" lon="20.955030"><ele>1.6</ele><time>2026-05-29T00:04:45Z</time></trkpt>
			<trkpt lat="54.831700" lon="20.954300"><ele>1.8</ele><time>2026-05-29T00:04:52Z</time></trkpt>
			<trkpt lat="54.831310" lon="20.953740"><ele>2.0</ele><time>2026-05-29T00:04:59Z</time></trkpt>
			<trkpt lat="54.830660" lon="20.952810"><ele>2.4</ele><time>2026-05-29T00:05:06Z</time></trkpt>
			<trkpt lat="54.827890" lon="20.948800"><ele>3.9</ele><time>2026-05-29T00:05:13Z</time></trkpt>
			<trkpt lat="54.827550" lon="20.948250"><ele>4.1</ele><time>2026-05-29T00:05:20Z</time></trkpt>
			<trkpt lat="54.826990" lon="20.947480"><ele>4.4</ele><time>2026-05-29T00:05:27Z</time></trkpt>
			<trkpt lat="54.823530" lon="20.942490"><ele>5.8</ele><time>2026-05-29T00:05:35Z</time></trkpt>
			<trkpt lat="54.818320" lon="20.934950"><ele>5.0</ele><time>2026-05-29T00:05:42Z</time></trkpt>
			<trkpt lat="54.817110" lon="20.933180"><ele>4.4</ele><time>2026-05-29T00:05:49Z</time></trkpt>
			<trkpt lat="54.816960" lon="20.932980"><ele>4.3</ele><time>2026-05-29T00:05:56Z</time></trkpt>
			<trkpt lat="54.815660" lon="20.931180"><ele>4.1</ele><time>2026-05-29T00:06:03Z</time></trkpt>
			<trkpt lat="54.815190" lon="20.930530"><ele>4.1</ele><time>2026-05-29T00:06:10Z</time></trkpt>
			<trkpt lat="54.814850" lon="20.929920"><ele>4.0</ele><time>2026-05-29T00:06:17Z</time></trkpt>
			<trkpt lat="54.814660" lon="20.929560"><ele>4.0</ele><time>2026-05-29T00:06:24Z</time></trkpt>
			<trkpt lat="54.814640" lon="20.929460"><ele>4.0</ele><time>2026-05-29T00:06:31Z</time></trkpt>
			<trkpt lat="54.814580" lon="20.929200"><ele>4.0</ele><time>2026-05-29T00:06:38Z</time></trkpt>
			<trkpt lat="54.814540" lon="20.928830"><ele>4.0</ele><time>2026-05-29T00:06:45Z</time></trkpt>
			<trkpt lat="54.814500" lon="20.928360"><ele>3.9</ele><time>2026-05-29T00:06:52Z</time></trkpt>
			<trkpt lat="54.814490" lon="20.927780"><ele>3.9</ele><time>2026-05-29T00:06:59Z</time></trkpt>
			<trkpt lat="54.814450" lon="20.926560"><ele>3.8</ele><time>2026-05-29T00:07:06Z</time></trkpt>
			<trkpt lat="54.814400" lon="20.924890"><ele>3.7</ele><time>2026-05-29T00:07:13Z</time></trkpt>
			<trkpt lat="54.814260" lon="20.917690"><ele>2.7</ele><time>2026-05-29T00:07:20Z</time></trkpt>
			<trkpt lat="54.813880" lon="20.904970"><ele>-3.3</ele><time>2026-05-29T00:07:27Z</time></trkpt>
			<trkpt lat="54.813860" lon="20.904110"><ele>-3.2</ele><time>2026-05-29T00:07:34Z</time></trkpt>
			<trkpt lat="54.813790" lon="20.900750"><ele>-3.1</ele><time>2026-05-29T00:07:41Z</time></trkpt>
			<trkpt lat="54.813760" lon="20.898990"><ele>-3.1</ele><time>2026-05-29T00:07:48Z</time></trkpt>
			<trkpt lat="54.813650" lon="20.894310"><ele>-2.2</ele><time>2026-05-29T00:07:55Z</time></trkpt>
			<trkpt lat="54.813640" lon="20.893720"><ele>-2.0</ele><time>2026-05-29T00:08:02Z</time></trkpt>
			<trkpt lat="54.813340" lon="20.883400"><ele>2.8</ele><time>2026-05-29T00:08:09Z</time></trkpt>
			<trkpt lat="54.813270" lon="20.880600"><ele>4.8</ele><time>2026-05-29T00:08:16Z</time></trkpt>
			<trkpt lat="54.813190" lon="20.878560"><ele>6.2</ele><time>2026-05-29T00:08:23Z</time></trkpt>
			<trkpt lat="54.813200" lon="20.878320"><ele>6.4</ele><time>2026-05-29T00:08:30Z</time></trkpt>
			<trkpt lat="54.813140" lon="20.876540"><ele>7.3</ele><time>2026-05-29T00:08:37Z</time></trkpt>
			<trkpt lat="54.813100" lon="20.874450"><ele>8.4</ele><time>2026-05-29T00:08:44Z</time></trkpt>
			<trkpt lat="54.813110" lon="20.872760"><ele>9.2</ele><time>2026-05-29T00:08:51Z</time></trkpt>
			<trkpt lat="54.813080" lon="20.871810"><ele>9.7</ele><time>2026-05-29T00:08:58Z</time></trkpt>
			<trkpt lat="54.813060" lon="20.870650"><ele>10.3</ele><time>2026-05-29T00:09:05Z</time></trkpt>
			<trkpt lat="54.813000" lon="20.868460"><ele>11.0</ele><time>2026-05-29T00:09:12Z</time></trkpt>
			<trkpt lat="54.812970" lon="20.866560"><ele>10.0</ele><time>2026-05-29T00:09:19Z</time></trkpt>
			<trkpt lat="54.812950" lon="20.865530"><ele>9.4</ele><time>2026-05-29T00:09:26Z</time></trkpt>
			<trkpt lat="54.812930" lon="20.864360"><ele>8.8</ele><time>2026-05-29T00:09:33Z</time></trkpt>
			<trkpt lat="54.812850" lon="20.860840"><ele>6.9</ele><time>2026-05-29T00:09:40Z</time></trkpt>
			<trkpt lat="54.812600" lon="20.851410"><ele>5.4</ele><time>2026-05-29T00:09:47Z</time></trkpt>
			<trkpt lat="54.812500" lon="20.845830"><ele>6.1</ele><time>2026-05-29T00:09:54Z</time></trkpt>
			<trkpt lat="54.812430" lon="20.842670"><ele>6.7</ele><time>2026-05-29T00:10:01Z</time></trkpt>
			<trkpt lat="54.812410" lon="20.841900"><ele>6.9</ele><time>2026-05-29T00:10:09Z</time></trkpt>
			<trkpt lat="54.812010" lon="20.824790"><ele>9.2</ele><time>2026-05-29T00:10:16Z</time></trkpt>
			<trkpt lat="54.812000" lon="20.824730"><ele>9.2</ele><time>2026-05-29T00:10:23Z</time></trkpt>
			<trkpt lat="54.811710" lon="20.812840"><ele>12.7</ele><time>2026-05-29T00:10:30Z</time></trkpt>
			<trkpt lat="54.811660" lon="20.811630"><ele>12.4</ele><time>2026-05-29T00:10:37Z</time></trkpt>
			<trkpt lat="54.811600" lon="20.810370"><ele>12.0</ele><time>2026-05-29T00:10:44Z</time></trkpt>
			<trkpt lat="54.810880" lon="20.798120"><ele>10.2</ele><time>2026-05-29T00:10:51Z</time></trkpt>
			<trkpt lat="54.810310" lon="20.788350"><ele>10.9</ele><time>2026-05-29T00:10:58Z</time></trkpt>
			<trkpt lat="54.810310" lon="20.788350"><ele>10.9</ele><time>2026-05-29T00:11:06Z</time></trkpt>
			<trkpt lat="54.810030" lon="20.783430"><ele>11.2</ele><time>2026-05-29T00:11:14Z</time></trkpt>
			<trkpt lat="54.809950" lon="20.781970"><ele>11.5</ele><time>2026-05-29T00:11:22Z</time></trkpt>
			<trkpt lat="54.809010" lon="20.765950"><ele>12.0</ele><time>2026-05-29T00:11:30Z</time></trkpt>
			<trkpt lat="54.809420" lon="20.765470"><ele>12.1</ele><time>2026-05-29T00:11:38Z</time></trkpt>
			<trkpt lat="54.809470" lon="20.765410"><ele>12.1</ele><time>2026-05-29T00:11:46Z</time></trkpt>
			<trkpt lat="54.809830" lon="20.764860"><ele>12.2</ele><time>2026-05-29T00:11:54Z</time></trkpt>
			<trkpt lat="54.809930" lon="20.764790"><ele>12.2</ele><time>2026-05-29T00:12:02Z</time></trkpt>
			<trkpt lat="54.810040" lon="20.764790"><ele>12.2</ele><time>2026-05-29T00:12:10Z</time></trkpt>
			<trkpt lat="54.811730" lon="20.764940"><ele>12.6</ele><time>2026-05-29T00:12:18Z</time></trkpt>
			<trkpt lat="54.812190" lon="20.764940"><ele>12.6</ele><time>2026-05-29T00:12:26Z</time></trkpt>
			<trkpt lat="54.812890" lon="20.764840"><ele>12.8</ele><time>2026-05-29T00:12:34Z</time></trkpt>
			<trkpt lat="54.816280" lon="20.764480"><ele>13.2</ele><time>2026-05-29T00:12:42Z</time></trkpt>
			<trkpt lat="54.821860" lon="20.763860"><ele>12.5</ele><time>2026-05-29T00:12:51Z</time></trkpt>
			<trkpt lat="54.822020" lon="20.763860"><ele>12.5</ele><time>2026-05-29T00:12:59Z</time></trkpt>
			<trkpt lat="54.822230" lon="20.763920"><ele>12.4</ele><time>2026-05-29T00:13:07Z</time></trkpt>
			<trkpt lat="54.822390" lon="20.764040"><ele>12.3</ele><time>2026-05-29T00:13:15Z</time></trkpt>
			<trkpt lat="54.822470" lon="20.764280"><ele>12.3</ele><time>2026-05-29T00:13:23Z</time></trkpt>
			<trkpt lat="54.822890" lon="20.764090"><ele>12.1</ele><time>2026-05-29T00:13:31Z</time></trkpt>
			<trkpt lat="54.823090" lon="20.763930"><ele>12.0</ele><time>2026-05-29T00:13:39Z</time></trkpt>
			<trkpt lat="54.823240" lon="20.763730"><ele>12.0</ele><time>2026-05-29T00:13:47Z</time></trkpt>
			<trkpt lat="54.823390" lon="20.763470"><ele>11.9</ele><time>2026-05-29T00:13:55Z</time></trkpt>
			<trkpt lat="54.823460" lon="20.763380"><ele>11.8</ele><time>2026-05-29T00:14:03Z</time></trkpt>
			<trkpt lat="54.823540" lon="20.763300"><ele>11.8</ele><time>2026-05-29T00:14:11Z</time></trkpt>
			<trkpt lat="54.825100" lon="20.763330"><ele>11.4</ele><time>2026-05-29T00:14:19Z</time></trkpt>
			<trkpt lat="54.826560" lon="20.763330"><ele>11.4</ele><time>2026-05-29T00:14:27Z</time></trkpt>
			<trkpt lat="54.826890" lon="20.763460"><ele>11.4</ele><time>2026-05-29T00:14:35Z</time></trkpt>
			<trkpt lat="54.827350" lon="20.764030"><ele>11.4</ele><time>2026-05-29T00:14:43Z</time></trkpt>
			<trkpt lat="54.828290" lon="20.765450"><ele>11.4</ele><time>2026-05-29T00:14:51Z</time></trkpt>
			<trkpt lat="54.828460" lon="20.765630"><ele>11.5</ele><time>2026-05-29T00:15:00Z</time></trkpt>
			<trkpt lat="54.828690" lon="20.765780"><ele>11.5</ele><time>2026-05-29T00:15:08Z</time></trkpt>
			<trkpt lat="54.829180" lon="20.765980"><ele>11.5</ele><time>2026-05-29T00:15:16Z</time></trkpt>
			<trkpt lat="54.829420" lon="20.766000"><ele>11.5</ele><time>2026-05-29T00:15:24Z</time></trkpt>
			<trkpt lat="54.831390" lon="20.764980"><ele>11.0</ele><time>2026-05-29T00:15:32Z</time></trkpt>
			<trkpt lat="54.833430" lon="20.763900"><ele>10.4</ele><time>2026-05-29T00:15:40Z</time></trkpt>
			<trkpt lat="54.835110" lon="20.762700"><ele>10.1</ele><time>2026-05-29T00:15:48Z</time></trkpt>
			<trkpt lat="54.836270" lon="20.761840"><ele>10.3</ele><time>2026-05-29T00:15:56Z</time></trkpt>
			<trkpt lat="54.836570" lon="20.761640"><ele>10.4</ele><time>2026-05-29T00:16:04Z</time></trkpt>
			<trkpt lat="54.837030" lon="20.761290"><ele>10.4</ele><time>2026-05-29T00:16:12Z</time></trkpt>
			<trkpt lat="54.837370" lon="20.761010"><ele>10.5</ele><time>2026-05-29T00:16:20Z</time></trkpt>
			<trkpt lat="54.837600" lon="20.760730"><ele>10.6</ele><time>2026-05-29T00:16:28Z</time></trkpt>
			<trkpt lat="54.839300" lon="20.758580"><ele>10.9</ele><time>2026-05-29T00:16:36Z</time></trkpt>
			<trkpt lat="54.840330" lon="20.757190"><ele>10.5</ele><time>2026-05-29T00:16:44Z</time></trkpt>
			<trkpt lat="54.840880" lon="20.756210"><ele>10.1</ele><time>2026-05-29T00:16:52Z</time></trkpt>
			<trkpt lat="54.841130" lon="20.755890"><ele>10.0</ele><time>2026-05-29T00:17:00Z</time></trkpt>
			<trkpt lat="54.841270" lon="20.755620"><ele>9.9</ele><time>2026-05-29T00:17:09Z</time></trkpt>
			<trkpt lat="54.841830" lon="20.753750"><ele>9.3</ele><time>2026-05-29T00:17:17Z</time></trkpt>
			<trkpt lat="54.842010" lon="20.753070"><ele>9.2</ele><time>2026-05-29T00:17:25Z</time></trkpt>
			<trkpt lat="54.842150" lon="20.752370"><ele>9.0</ele><time>2026-05-29T00:17:33Z</time></trkpt>
			<trkpt lat="54.842260" lon="20.751640"><ele>8.8</ele><time>2026-05-29T00:17:41Z</time></trkpt>
			<trkpt lat="54.842290" lon="20.751280"><ele>8.7</ele><time>2026-05-29T00:17:49Z</time></trkpt>
			<trkpt lat="54.842290" lon="20.750810"><ele>8.6</ele><time>2026-05-29T00:17:57Z</time></trkpt>
			<trkpt lat="54.842290" lon="20.750070"><ele>8.7</ele><time>2026-05-29T00:18:05Z</time></trkpt>
			<trkpt lat="54.842270" lon="20.749490"><ele>8.8</ele><time>2026-05-29T00:18:13Z</time></trkpt>
			<trkpt lat="54.842280" lon="20.749150"><ele>8.9</ele><time>2026-05-29T00:18:21Z</time></trkpt>
			<trkpt lat="54.842320" lon="20.748490"><ele>9.0</ele><time>2026-05-29T00:18:29Z</time></trkpt>
			<trkpt lat="54.842350" lon="20.748190"><ele>9.0</ele><time>2026-05-29T00:18:37Z</time></trkpt>
			<trkpt lat="54.842390" lon="20.747910"><ele>9.1</ele><time>2026-05-29T00:18:45Z</time></trkpt>
			<trkpt lat="54.842500" lon="20.747010"><ele>9.2</ele><time>2026-05-29T00:18:53Z</time></trkpt>
			<trkpt lat="54.842960" lon="20.746630"><ele>9.3</ele><time>2026-05-29T00:19:01Z</time></trkpt>
			<trkpt lat="54.845080" lon="20.751190"><ele>10.0</ele><time>2026-05-29T00:19:09Z</time></trkpt>
			<trkpt lat="54.845260" lon="20.751520"><ele>10.0</ele><time>2026-05-29T00:19:18Z</time></trkpt>
			<trkpt lat="54.845480" lon="20.751780"><ele>10.0</ele><time>2026-05-29T00:19:26Z</time></trkpt>
			<trkpt lat="54.846550" lon="20.752510"><ele>9.9</ele><time>2026-05-29T00:19:34Z</time></trkpt>
			<trkpt lat="54.852210" lon="20.756200"><ele>8.3</ele><time>2026-05-29T00:19:42Z</time></trkpt>
			<trkpt lat="54.853750" lon="20.757240"><ele>7.6</ele><time>2026-05-29T00:19:50Z</time></trkpt>
			<trkpt lat="54.855090" lon="20.757830"><ele>7.4</ele><time>2026-05-29T00:19:58Z</time></trkpt>
			<trkpt lat="54.856390" lon="20.758330"><ele>7.5</ele><time>2026-05-29T00:20:06Z</time></trkpt>
			<trkpt lat="54.857770" lon="20.758930"><ele>7.6</ele><time>2026-05-29T00:20:14Z</time></trkpt>
			<trkpt lat="54.858220" lon="20.759120"><ele>7.7</ele><time>2026-05-29T00:20:22Z</time></trkpt>
			<trkpt lat="54.858460" lon="20.759400"><ele>7.7</ele><time>2026-05-29T00:20:30Z</time></trkpt>
			<trkpt lat="54.859100" lon="20.760450"><ele>7.8</ele><time>2026-05-29T00:20:38Z</time></trkpt>
			<trkpt lat="54.860210" lon="20.762270"><ele>7.6</ele><time>2026-05-29T00:20:46Z</time></trkpt>
			<trkpt lat="54.860790" lon="20.763040"><ele>7.5</ele><time>2026-05-29T00:20:54Z</time></trkpt>
			<trkpt lat="54.861140" lon="20.763620"><ele>7.4</ele><time>2026-05-29T00:21:02Z</time></trkpt>
			<trkpt lat="54.861830" lon="20.764870"><ele>7.2</ele><time>2026-05-29T00:21:10Z</time></trkpt>
			<trkpt lat="54.861980" lon="20.764540"><ele>7.1</ele><time>2026-05-29T00:21:18Z</time></trkpt>
			<trkpt lat="54.862580" lon="20.763190"><ele>7.0</ele><time>2026-05-29T00:21:27Z</time></trkpt>
			<trkpt lat="54.863540" lon="20.760930"><ele>6.6</ele><time>2026-05-29T00:21:35Z</time></trkpt>
			<trkpt lat="54.864080" lon="20.759870"><ele>6.5</ele><time>2026-05-29T00:21:43Z</time></trkpt>
			<trkpt lat="54.864280" lon="20.759550"><ele>6.4</ele><time>2026-05-29T00:21:51Z</time></trkpt>
			<trkpt lat="54.864480" lon="20.759290"><ele>6.3</ele><time>2026-05-29T00:21:59Z</time></trkpt>
			<trkpt lat="54.864860" lon="20.759060"><ele>6.3</ele><time>2026-05-29T00:22:07Z</time></trkpt>
			<trkpt lat="54.865150" lon="20.758990"><ele>6.2</ele><time>2026-05-29T00:22:15Z</time></trkpt>
			<trkpt lat="54.865440" lon="20.758980"><ele>6.1</ele><time>2026-05-29T00:22:23Z</time></trkpt>
			<trkpt lat="54.865940" lon="20.759140"><ele>6.0</ele><time>2026-05-29T00:22:31Z</time></trkpt>
			<trkpt lat="54.866050" lon="20.759170"><ele>6.0</ele><time>2026-05-29T00:22:39Z</time></trkpt>
			<trkpt lat="54.866830" lon="20.759330"><ele>5.8</ele><time>2026-05-29T00:22:47Z</time></trkpt>
			<trkpt lat="54.868580" lon="20.759650"><ele>5.3</ele><time>2026-05-29T00:22:55Z</time></trkpt>
			<trkpt lat="54.871550" lon="20.760270"><ele>4.2</ele><time>2026-05-29T00:23:03Z</time></trkpt>
			<trkpt lat="54.872880" lon="20.760570"><ele>3.7</ele><time>2026-05-29T00:23:11Z</time></trkpt>
			<trkpt lat="54.874380" lon="20.760930"><ele>3.9</ele><time>2026-05-29T00:23:19Z</time></trkpt>
			<trkpt lat="54.875800" lon="20.761250"><ele>4.2</ele><time>2026-05-29T00:23:27Z</time></trkpt>
			<trkpt lat="54.876270" lon="20.755210"><ele>5.1</ele><time>2026-05-29T00:23:36Z</time></trkpt>
			<trkpt lat="54.876400" lon="20.753590"><ele>5.5</ele><time>2026-05-29T00:23:44Z</time></trkpt>
			<trkpt lat="54.876510" lon="20.751990"><ele>5.9</ele><time>2026-05-29T00:23:52Z</time></trkpt>
			<trkpt lat="54.876540" lon="20.751410"><ele>6.1</ele><time>2026-05-29T00:24:00Z</time></trkpt>
			<trkpt lat="54.876770" lon="20.745090"><ele>7.3</ele><time>2026-05-29T00:24:08Z</time></trkpt>
			<trkpt lat="54.876870" lon="20.742820"><ele>7.5</ele><time>2026-05-29T00:24:16Z</time></trkpt>
			<trkpt lat="54.876910" lon="20.740780"><ele>7.7</ele><time>2026-05-29T00:24:24Z</time></trkpt>
			<trkpt lat="54.876980" lon="20.738850"><ele>7.9</ele><time>2026-05-29T00:24:32Z</time></trkpt>
			<trkpt lat="54.877020" lon="20.738270"><ele>8.0</ele><time>2026-05-29T00:24:40Z</time></trkpt>
			<trkpt lat="54.877150" lon="20.737060"><ele>7.7</ele><time>2026-05-29T00:24:48Z</time></trkpt>
			<trkpt lat="54.877200" lon="20.736720"><ele>7.6</ele><time>2026-05-29T00:24:56Z</time></trkpt>
			<trkpt lat="54.877220" lon="20.735980"><ele>7.3</ele><time>2026-05-29T00:25:04Z</time></trkpt>
			<trkpt lat="54.877180" lon="20.733580"><ele>6.5</ele><time>2026-05-29T00:25:12Z</time></trkpt>
			<trkpt lat="54.877130" lon="20.731380"><ele>5.8</ele><time>2026-05-29T00:25:20Z</time></trkpt>
			<trkpt lat="54.877150" lon="20.731060"><ele>5.7</ele><time>2026-05-29T00:25:28Z</time></trkpt>
			<trkpt lat="54.877230" lon="20.730350"><ele>5.5</ele><time>2026-05-29T00:25:36Z</time></trkpt>
			<trkpt lat="54.877330" lon="20.729450"><ele>5.2</ele><time>2026-05-29T00:25:45Z</time></trkpt>
			<trkpt lat="54.878070" lon="20.723120"><ele>4.1</ele><time>2026-05-29T00:25:53Z</time></trkpt>
			<trkpt lat="54.878280" lon="20.721700"><ele>3.9</ele><time>2026-05-29T00:26:01Z</time></trkpt>
			<trkpt lat="54.878480" lon="20.720170"><ele>3.7</ele><time>2026-05-29T00:26:09Z</time></trkpt>
			<trkpt lat="54.878480" lon="20.720170"><ele>3.7</ele><time>2026-05-29T00:26:21Z</time></trkpt>
			<trkpt lat="54.879140" lon="20.714400"><ele>4.2</ele><time>2026-05-29T00:26:34Z</time></trkpt>
			<trkpt lat="54.880720" lon="20.703060"><ele>5.1</ele><time>2026-05-29T00:26:47Z</time></trkpt>
			<trkpt lat="54.881270" lon="20.699370"><ele>5.4</ele><time>2026-05-29T00:26:59Z</time></trkpt>
			<trkpt lat="54.881450" lon="20.698260"><ele>5.4</ele><time>2026-05-29T00:27:12Z</time></trkpt>
			<trkpt lat="54.881890" lon="20.695020"><ele>5.6</ele><time>2026-05-29T00:27:24Z</time></trkpt>
			<trkpt lat="54.881930" lon="20.694700"><ele>5.6</ele><time>2026-05-29T00:27:37Z</time></trkpt>
			<trkpt lat="54.881980" lon="20.694210"><ele>5.6</ele><time>2026-05-29T00:27:50Z</time></trkpt>
			<trkpt lat="54.882010" lon="20.693670"><ele>5.7</ele><time>2026-05-29T00:28:02Z</time></trkpt>
			<trkpt lat="54.882060" lon="20.692710"><ele>5.7</ele><time>2026-05-29T00:28:15Z</time></trkpt>
			<trkpt lat="54.882120" lon="20.690400"><ele>6.2</ele><time>2026-05-29T00:28:27Z</time></trkpt>
			<trkpt lat="54.882190" lon="20.689810"><ele>6.3</ele><time>2026-05-29T00:28:40Z</time></trkpt>
			<trkpt lat="54.883160" lon="20.684110"><ele>7.7</ele><time>2026-05-29T00:28:53Z</time></trkpt>
			<trkpt lat="54.883210" lon="20.683710"><ele>7.8</ele><time>2026-05-29T00:29:05Z</time></trkpt>
			<trkpt lat="54.883240" lon="20.683250"><ele>7.9</ele><time>2026-05-29T00:29:18Z</time></trkpt>
			<trkpt lat="54.883250" lon="20.681750"><ele>7.6</ele><time>2026-05-29T00:29:31Z</time></trkpt>
			<trkpt lat="54.883320" lon="20.677720"><ele>6.7</ele><time>2026-05-29T00:29:43Z</time></trkpt>
			<trkpt lat="54.883370" lon="20.675320"><ele>6.1</ele><time>2026-05-29T00:29:56Z</time></trkpt>
			<trkpt lat="54.885450" lon="20.677290"><ele>5.0</ele><time>2026-05-29T00:30:08Z</time></trkpt>
			<trkpt lat="54.885450" lon="20.677290"><ele>5.0</ele><time>2026-05-29T00:30:14Z</time></trkpt>
			<trkpt lat="54.886020" lon="20.677830"><ele>4.7</ele><time>2026-05-29T00:30:19Z</time></trkpt>
			<trkpt lat="54.890250" lon="20.681940"><ele>4.1</ele><time>2026-05-29T00:30:24Z</time></trkpt>
			<trkpt lat="54.892730" lon="20.684310"><ele>6.2</ele><time>2026-05-29T00:30:29Z</time></trkpt>
			<trkpt lat="54.892900" lon="20.684510"><ele>6.3</ele><time>2026-05-29T00:30:35Z</time></trkpt>
			<trkpt lat="54.893150" lon="20.684760"><ele>6.5</ele><time>2026-05-29T00:30:40Z</time></trkpt>
			<trkpt lat="54.893440" lon="20.684990"><ele>6.8</ele><time>2026-05-29T00:30:45Z</time></trkpt>
			<trkpt lat="54.894050" lon="20.685530"><ele>6.8</ele><time>2026-05-29T00:30:50Z</time></trkpt>
			<trkpt lat="54.894640" lon="20.686000"><ele>6.5</ele><time>2026-05-29T00:30:56Z</time></trkpt>
			<trkpt lat="54.894880" lon="20.686090"><ele>6.4</ele><time>2026-05-29T00:31:01Z</time></trkpt>
			<trkpt lat="54.896130" lon="20.686300"><ele>5.7</ele><time>2026-05-29T00:31:06Z</time></trkpt>
			<trkpt lat="54.896310" lon="20.685870"><ele>5.6</ele><time>2026-05-29T00:31:11Z</time></trkpt>
			<trkpt lat="54.896600" lon="20.685340"><ele>5.4</ele><time>2026-05-29T00:31:16Z</time></trkpt>
			<trkpt lat="54.898660" lon="20.682000"><ele>4.3</ele><time>2026-05-29T00:31:22Z</time></trkpt>
			<trkpt lat="54.899010" lon="20.681380"><ele>4.4</ele><time>2026-05-29T00:31:27Z</time></trkpt>
			<trkpt lat="54.899810" lon="20.680010"><ele>4.4</ele><time>2026-05-29T00:31:32Z</time></trkpt>
			<trkpt lat="54.900280" lon="20.679200"><ele>4.5</ele><time>2026-05-29T00:31:37Z</time></trkpt>
			<trkpt lat="54.901370" lon="20.677320"><ele>4.5</ele><time>2026-05-29T00:31:43Z</time></trkpt>
			<trkpt lat="54.901450" lon="20.677190"><ele>4.6</ele><time>2026-05-29T00:31:48Z</time></trkpt>
			<trkpt lat="54.901650" lon="20.676850"><ele>4.6</ele><time>2026-05-29T00:31:53Z</time></trkpt>
			<trkpt lat="54.901880" lon="20.676400"><ele>4.6</ele><time>2026-05-29T00:31:58Z</time></trkpt>
			<trkpt lat="54.902080" lon="20.675940"><ele>4.6</ele><time>2026-05-29T00:32:04Z</time></trkpt>
			<trkpt lat="54.902340" lon="20.675370"><ele>4.5</ele><time>2026-05-29T00:32:09Z</time></trkpt>
			<trkpt lat="54.902500" lon="20.675050"><ele>4.5</ele><time>2026-05-29T00:32:14Z</time></trkpt>
			<trkpt lat="54.902620" lon="20.674900"><ele>4.5</ele><time>2026-05-29T00:32:19Z</time></trkpt>
			<trkpt lat="54.902730" lon="20.674750"><ele>4.4</ele><time>2026-05-29T00:32:25Z</time></trkpt>
			<trkpt lat="54.903330" lon="20.674130"><ele>4.3</ele><time>2026-05-29T00:32:30Z</time></trkpt>
			<trkpt lat="54.903580" lon="20.673780"><ele>4.3</ele><time>2026-05-29T00:32:35Z</time></trkpt>
			<trkpt lat="54.903730" lon="20.673480"><ele>4.3</ele><time>2026-05-29T00:32:40Z</time></trkpt>
			<trkpt lat="54.903850" lon="20.673210"><ele>4.2</ele><time>2026-05-29T00:32:46Z</time></trkpt>
			<trkpt lat="54.904220" lon="20.672180"><ele>4.1</ele><time>2026-05-29T00:32:51Z</time></trkpt>
			<trkpt lat="54.904410" lon="20.671730"><ele>4.1</ele><time>2026-05-29T00:32:56Z</time></trkpt>
			<trkpt lat="54.904700" lon="20.671150"><ele>4.0</ele><time>2026-05-29T00:33:01Z</time></trkpt>
			<trkpt lat="54.904910" lon="20.670710"><ele>4.0</ele><time>2026-05-29T00:33:07Z</time></trkpt>
			<trkpt lat="54.905090" lon="20.670420"><ele>3.9</ele><time>2026-05-29T00:33:12Z</time></trkpt>
			<trkpt lat="54.905270" lon="20.670250"><ele>3.9</ele><time>2026-05-29T00:33:17Z</time></trkpt>
			<trkpt lat="54.905420" lon="20.670160"><ele>3.9</ele><time>2026-05-29T00:33:22Z</time></trkpt>
			<trkpt lat="54.905590" lon="20.670110"><ele>3.9</ele><time>2026-05-29T00:33:27Z</time></trkpt>
			<trkpt lat="54.905880" lon="20.670080"><ele>3.8</ele><time>2026-05-29T00:33:33Z</time></trkpt>
			<trkpt lat="54.906020" lon="20.670040"><ele>3.7</ele><time>2026-05-29T00:33:38Z</time></trkpt>
			<trkpt lat="54.906120" lon="20.669970"><ele>3.6</ele><time>2026-05-29T00:33:43Z</time></trkpt>
			<trkpt lat="54.906240" lon="20.669860"><ele>3.6</ele><time>2026-05-29T00:33:48Z</time></trkpt>
			<trkpt lat="54.906360" lon="20.669700"><ele>3.5</ele><time>2026-05-29T00:33:54Z</time></trkpt>
			<trkpt lat="54.906630" lon="20.669260"><ele>3.2</ele><time>2026-05-29T00:33:59Z</time></trkpt>
			<trkpt lat="54.906820" lon="20.668860"><ele>3.0</ele><time>2026-05-29T00:34:04Z</time></trkpt>
			<trkpt lat="54.907020" lon="20.668320"><ele>2.8</ele><time>2026-05-29T00:34:09Z</time></trkpt>
			<trkpt lat="54.907070" lon="20.668160"><ele>2.7</ele><time>2026-05-29T00:34:15Z</time></trkpt>
			<trkpt lat="54.907120" lon="20.667910"><ele>2.6</ele><time>2026-05-29T00:34:20Z</time></trkpt>
			<trkpt lat="54.907140" lon="20.667710"><ele>2.5</ele><time>2026-05-29T00:34:25Z</time></trkpt>
			<trkpt lat="54.907140" lon="20.667540"><ele>2.5</ele><time>2026-05-29T00:34:30Z</time></trkpt>
			<trkpt lat="54.907110" lon="20.667040"><ele>2.3</ele><time>2026-05-29T00:34:36Z</time></trkpt>
			<trkpt lat="54.907030" lon="20.665870"><ele>1.8</ele><time>2026-05-29T00:34:41Z</time></trkpt>
			<trkpt lat="54.907250" lon="20.665790"><ele>1.7</ele><time>2026-05-29T00:34:46Z</time></trkpt>
			<trkpt lat="54.907490" lon="20.665680"><ele>1.5</ele><time>2026-05-29T00:34:51Z</time></trkpt>
			<trkpt lat="54.908020" lon="20.665430"><ele>1.1</ele><time>2026-05-29T00:34:57Z</time></trkpt>
			<trkpt lat="54.909000" lon="20.664960"><ele>0.5</ele><time>2026-05-29T00:35:02Z</time></trkpt>
			<trkpt lat="54.909920" lon="20.664620"><ele>0.2</ele><time>2026-05-29T00:35:07Z</time></trkpt>
			<trkpt lat="54.910470" lon="20.664450"><ele>0.1</ele><time>2026-05-29T00:35:12Z</time></trkpt>
			<trkpt lat="54.910820" lon="20.664300"><ele>0.1</ele><time>2026-05-29T00:35:18Z</time></trkpt>
			<trkpt lat="54.911100" lon="20.664100"><ele>0.0</ele><time>2026-05-29T00:35:23Z</time></trkpt>
			<trkpt lat="54.911980" lon="20.663340"><ele>-0.1</ele><time>2026-05-29T00:35:28Z</time></trkpt>
			<trkpt lat="54.912860" lon="20.662630"><ele>-0.2</ele><time>2026-05-29T00:35:33Z</time></trkpt>
			<trkpt lat="54.914450" lon="20.661250"><ele>-0.4</ele><time>2026-05-29T00:35:38Z</time></trkpt>
			<trkpt lat="54.916330" lon="20.658970"><ele>-0.6</ele><time>2026-05-29T00:35:44Z</time></trkpt>
			<trkpt lat="54.917020" lon="20.658110"><ele>-0.7</ele><time>2026-05-29T00:35:49Z</time></trkpt>
			<trkpt lat="54.918030" lon="20.656940"><ele>-0.9</ele><time>2026-05-29T00:35:54Z</time></trkpt>
			<trkpt lat="54.920090" lon="20.654610"><ele>-1.0</ele><time>2026-05-29T00:35:59Z</time></trkpt>
			<trkpt lat="54.922160" lon="20.652250"><ele>-1.0</ele><time>2026-05-29T00:36:05Z</time></trkpt>
			<trkpt lat="54.923270" lon="20.650960"><ele>-1.0</ele><time>2026-05-29T00:36:10Z</time></trkpt>
			<trkpt lat="54.924360" lon="20.649750"><ele>-1.0</ele><time>2026-05-29T00:36:15Z</time></trkpt>
			<trkpt lat="54.924530" lon="20.649570"><ele>-1.0</ele><time>2026-05-29T00:36:20Z</time></trkpt>
			<trkpt lat="54.924720" lon="20.649480"><ele>-1.0</ele><time>2026-05-29T00:36:26Z</time></trkpt>
			<trkpt lat="54.924910" lon="20.649460"><ele>-1.0</ele><time>2026-05-29T00:36:31Z</time></trkpt>
			<trkpt lat="54.925730" lon="20.649450"><ele>-1.1</ele><time>2026-05-29T00:36:36Z</time></trkpt>
			<trkpt lat="54.926480" lon="20.649410"><ele>-1.1</ele><time>2026-05-29T00:36:41Z</time></trkpt>
			<trkpt lat="54.926650" lon="20.649390"><ele>-1.1</ele><time>2026-05-29T00:36:47Z</time></trkpt>
			<trkpt lat="54.928990" lon="20.648710"><ele>-0.9</ele><time>2026-05-29T00:36:52Z</time></trkpt>
			<trkpt lat="54.929160" lon="20.648640"><ele>-0.8</ele><time>2026-05-29T00:36:57Z</time></trkpt>
			<trkpt lat="54.929230" lon="20.648580"><ele>-0.8</ele><time>2026-05-29T00:37:02Z</time></trkpt>
			<trkpt lat="54.929310" lon="20.648480"><ele>-0.8</ele><time>2026-05-29T00:37:08Z</time></trkpt>
			<trkpt lat="54.929360" lon="20.648370"><ele>-0.7</ele><time>2026-05-29T00:37:13Z</time></trkpt>
			<trkpt lat="54.929860" lon="20.646770"><ele>-0.3</ele><time>2026-05-29T00:37:18Z</time></trkpt>
			<trkpt lat="54.930270" lon="20.645650"><ele>0.0</ele><time>2026-05-29T00:37:23Z</time></trkpt>
			<trkpt lat="54.930340" lon="20.645440"><ele>0.1</ele><time>2026-05-29T00:37:29Z</time></trkpt>
			<trkpt lat="54.930400" lon="20.645210"><ele>0.2</ele><time>2026-05-29T00:37:34Z</time></trkpt>
			<trkpt lat="54.930450" lon="20.644970"><ele>0.2</ele><time>2026-05-29T00:37:39Z</time></trkpt>
			<trkpt lat="54.930880" lon="20.642770"><ele>0.8</ele><time>2026-05-29T00:37:44Z</time></trkpt>
			<trkpt lat="54.930910" lon="20.642580"><ele>0.8</ele><time>2026-05-29T00:37:49Z</time></trkpt>
			<trkpt lat="54.930910" lon="20.642350"><ele>0.9</ele><time>2026-05-29T00:37:55Z</time></trkpt>
			<trkpt lat="54.930890" lon="20.642140"><ele>1.0</ele><time>2026-05-29T00:38:00Z</time></trkpt>
			<trkpt lat="54.930660" lon="20.641270"><ele>1.1</ele><time>2026-05-29T00:38:05Z</time></trkpt>
			<trkpt lat="54.930410" lon="20.639920"><ele>0.8</ele><time>2026-05-29T00:38:10Z</time></trkpt>
			<trkpt lat="54.930370" lon="20.639570"><ele>0.8</ele><time>2026-05-29T00:38:16Z</time></trkpt>
			<trkpt lat="54.930410" lon="20.639290"><ele>0.7</ele><time>2026-05-29T00:38:21Z</time></trkpt>
			<trkpt lat="54.930570" lon="20.638960"><ele>0.6</ele><time>2026-05-29T00:38:26Z</time></trkpt>
			<trkpt lat="54.930850" lon="20.638430"><ele>0.5</ele><time>2026-05-29T00:38:31Z</time></trkpt>
			<trkpt lat="54.931100" lon="20.637950"><ele>0.3</ele><time>2026-05-29T00:38:37Z</time></trkpt>
			<trkpt lat="54.931100" lon="20.637500"><ele>0.2</ele><time>2026-05-29T00:38:42Z</time></trkpt>
			<trkpt lat="54.930640" lon="20.635130"><ele>-0.3</ele><time>2026-05-29T00:38:47Z</time></trkpt>
			<trkpt lat="54.930460" lon="20.633990"><ele>-0.5</ele><time>2026-05-29T00:38:52Z</time></trkpt>
			<trkpt lat="54.929840" lon="20.630010"><ele>-0.5</ele><time>2026-05-29T00:38:58Z</time></trkpt>
			<trkpt lat="54.929840" lon="20.630010"><ele>-0.5</ele><time>2026-05-29T00:39:03Z</time></trkpt>
			<trkpt lat="54.929740" lon="20.629360"><ele>-0.4</ele><time>2026-05-29T00:39:09Z</time></trkpt>
			<trkpt lat="54.929560" lon="20.626760"><ele>-0.1</ele><time>2026-05-29T00:39:15Z</time></trkpt>
			<trkpt lat="54.929460" lon="20.624170"><ele>0.1</ele><time>2026-05-29T00:39:21Z</time></trkpt>
			<trkpt lat="54.929090" lon="20.622320"><ele>0.3</ele><time>2026-05-29T00:39:26Z</time></trkpt>
			<trkpt lat="54.927720" lon="20.617310"><ele>0.5</ele><time>2026-05-29T00:39:32Z</time></trkpt>
			<trkpt lat="54.927220" lon="20.614750"><ele>0.6</ele><time>2026-05-29T00:39:38Z</time></trkpt>
			<trkpt lat="54.927060" lon="20.613070"><ele>0.7</ele><time>2026-05-29T00:39:44Z</time></trkpt>
			<trkpt lat="54.926890" lon="20.611850"><ele>0.7</ele><time>2026-05-29T00:39:49Z</time></trkpt>
			<trkpt lat="54.926050" lon="20.607890"><ele>0.7</ele><time>2026-05-29T00:39:55Z</time></trkpt>
			<trkpt lat="54.925680" lon="20.606130"><ele>0.7</ele><time>2026-05-29T00:40:01Z</time></trkpt>
			<trkpt lat="54.925390" lon="20.605310"><ele>0.5</ele><time>2026-05-29T00:40:07Z</time></trkpt>
			<trkpt lat="54.925090" lon="20.604410"><ele>0.2</ele><time>2026-05-29T00:40:12Z</time></trkpt>
			<trkpt lat="54.924730" lon="20.603760"><ele>-0.0</ele><time>2026-05-29T00:40:18Z</time></trkpt>
			<trkpt lat="54.924200" lon="20.603090"><ele>-0.3</ele><time>2026-05-29T00:40:24Z</time></trkpt>
			<trkpt lat="54.922950" lon="20.601950"><ele>-1.0</ele><time>2026-05-29T00:40:29Z</time></trkpt>
			<trkpt lat="54.921600" lon="20.600720"><ele>-1.8</ele><time>2026-05-29T00:40:35Z</time></trkpt>
			<trkpt lat="54.919990" lon="20.599240"><ele>-1.6</ele><time>2026-05-29T00:40:41Z</time></trkpt>
			<trkpt lat="54.918480" lon="20.597800"><ele>-1.3</ele><time>2026-05-29T00:40:47Z</time></trkpt>
			<trkpt lat="54.918020" lon="20.597390"><ele>-1.2</ele><time>2026-05-29T00:40:52Z</time></trkpt>
			<trkpt lat="54.917240" lon="20.596630"><ele>-1.1</ele><time>2026-05-29T00:40:58Z</time></trkpt>
			<trkpt lat="54.916600" lon="20.596040"><ele>-0.9</ele><time>2026-05-29T00:41:04Z</time></trkpt>
			<trkpt lat="54.916560" lon="20.596000"><ele>-0.9</ele><time>2026-05-29T00:41:10Z</time></trkpt>
			<trkpt lat="54.916370" lon="20.595820"><ele>-0.9</ele><time>2026-05-29T00:41:15Z</time></trkpt>
			<trkpt lat="54.916230" lon="20.595670"><ele>-0.8</ele><time>2026-05-29T00:41:21Z</time></trkpt>
			<trkpt lat="54.915570" lon="20.594910"><ele>-0.6</ele><time>2026-05-29T00:41:27Z</time></trkpt>
			<trkpt lat="54.915190" lon="20.594430"><ele>-0.5</ele><time>2026-05-29T00:41:33Z</time></trkpt>
			<trkpt lat="54.914330" lon="20.593240"><ele>-0.1</ele><time>2026-05-29T00:41:38Z</time></trkpt>
			<trkpt lat="54.913770" lon="20.592450"><ele>0.1</ele><time>2026-05-29T00:41:44Z</time></trkpt>
			<trkpt lat="54.912910" lon="20.591260"><ele>0.4</ele><time>2026-05-29T00:41:50Z</time></trkpt>
			<trkpt lat="54.912820" lon="20.591150"><ele>0.4</ele><time>2026-05-29T00:41:56Z</time></trkpt>
			<trkpt lat="54.912750" lon="20.591080"><ele>0.4</ele><time>2026-05-29T00:42:01Z</time></trkpt>
			<trkpt lat="54.912660" lon="20.591020"><ele>0.4</ele><time>2026-05-29T00:42:07Z</time></trkpt>
			<trkpt lat="54.912610" lon="20.590990"><ele>0.5</ele><time>2026-05-29T00:42:13Z</time></trkpt>
			<trkpt lat="54.912520" lon="20.590970"><ele>0.5</ele><time>2026-05-29T00:42:19Z</time></trkpt>
			<trkpt lat="54.912480" lon="20.589970"><ele>0.6</ele><time>2026-05-29T00:42:24Z</time></trkpt>
			<trkpt lat="54.912480" lon="20.589740"><ele>0.6</ele><time>2026-05-29T00:42:30Z</time></trkpt>
			<trkpt lat="54.912510" lon="20.589480"><ele>0.7</ele><time>2026-05-29T00:42:36Z</time></trkpt>
			<trkpt lat="54.912560" lon="20.589290"><ele>0.7</ele><time>2026-05-29T00:42:42Z</time></trkpt>
			<trkpt lat="54.912620" lon="20.589140"><ele>0.7</ele><time>2026-05-29T00:42:47Z</time></trkpt>
			<trkpt lat="54.913500" lon="20.586800"><ele>1.0</ele><time>2026-05-29T00:42:53Z</time></trkpt>
			<trkpt lat="54.913530" lon="20.586720"><ele>1.0</ele><time>2026-05-29T00:42:59Z</time></trkpt>
			<trkpt lat="54.913580" lon="20.586560"><ele>1.0</ele><time>2026-05-29T00:43:05Z</time></trkpt>
			<trkpt lat="54.913880" lon="20.585490"><ele>1.1</ele><time>2026-05-29T00:43:10Z</time></trkpt>
			<trkpt lat="54.914050" lon="20.584900"><ele>1.1</ele><time>2026-05-29T00:43:16Z</time></trkpt>
			<trkpt lat="54.914340" lon="20.583950"><ele>1.2</ele><time>2026-05-29T00:43:22Z</time></trkpt>
			<trkpt lat="54.914510" lon="20.583420"><ele>1.3</ele><time>2026-05-29T00:43:28Z</time></trkpt>
			<trkpt lat="54.914930" lon="20.582120"><ele>1.4</ele><time>2026-05-29T00:43:33Z</time></trkpt>
			<trkpt lat="54.915310" lon="20.580930"><ele>1.3</ele><time>2026-05-29T00:43:39Z</time></trkpt>
			<trkpt lat="54.915580" lon="20.580310"><ele>1.3</ele><time>2026-05-29T00:43:45Z</time></trkpt>
			<trkpt lat="54.915730" lon="20.580110"><ele>1.3</ele><time>2026-05-29T00:43:50Z</time></trkpt>
			<trkpt lat="54.915880" lon="20.579990"><ele>1.2</ele><time>2026-05-29T00:43:56Z</time></trkpt>
			<trkpt lat="54.916020" lon="20.579930"><ele>1.2</ele><time>2026-05-29T00:44:02Z</time></trkpt>
			<trkpt lat="54.917310" lon="20.579450"><ele>1.1</ele><time>2026-05-29T00:44:08Z</time></trkpt>
			<trkpt lat="54.918410" lon="20.579200"><ele>0.9</ele><time>2026-05-29T00:44:13Z</time></trkpt>
			<trkpt lat="54.920200" lon="20.578870"><ele>0.7</ele><time>2026-05-29T00:44:19Z</time></trkpt>
			<trkpt lat="54.921440" lon="20.579030"><ele>0.5</ele><time>2026-05-29T00:44:25Z</time></trkpt>
			<trkpt lat="54.922310" lon="20.579230"><ele>0.4</ele><time>2026-05-29T00:44:31Z</time></trkpt>
			<trkpt lat="54.922740" lon="20.579420"><ele>0.3</ele><time>2026-05-29T00:44:36Z</time></trkpt>
			<trkpt lat="54.922880" lon="20.579470"><ele>0.3</ele><time>2026-05-29T00:44:42Z</time></trkpt>
			<trkpt lat="54.923000" lon="20.579450"><ele>0.3</ele><time>2026-05-29T00:44:48Z</time></trkpt>
			<trkpt lat="54.923120" lon="20.579370"><ele>0.3</ele><time>2026-05-29T00:44:54Z</time></trkpt>
			<trkpt lat="54.923230" lon="20.579260"><ele>0.2</ele><time>2026-05-29T00:44:59Z</time></trkpt>
			<trkpt lat="54.923330" lon="20.579090"><ele>0.2</ele><time>2026-05-29T00:45:05Z</time></trkpt>
			<trkpt lat="54.923420" lon="20.578920"><ele>0.2</ele><time>2026-05-29T00:45:11Z</time></trkpt>
			<trkpt lat="54.923470" lon="20.578670"><ele>0.2</ele><time>2026-05-29T00:45:17Z</time></trkpt>
			<trkpt lat="54.923510" lon="20.578320"><ele>0.2</ele><time>2026-05-29T00:45:22Z</time></trkpt>
			<trkpt lat="54.923570" lon="20.577000"><ele>0.1</ele><time>2026-05-29T00:45:28Z</time></trkpt>
			<trkpt lat="54.923460" lon="20.574030"><ele>-0.0</ele><time>2026-05-29T00:45:34Z</time></trkpt>
			<trkpt lat="54.923460" lon="20.572610"><ele>-0.0</ele><time>2026-05-29T00:45:40Z</time></trkpt>
			<trkpt lat="54.923470" lon="20.571170"><ele>-0.0</ele><time>2026-05-29T00:45:45Z</time></trkpt>
			<trkpt lat="54.924290" lon="20.566280"><ele>-0.0</ele><time>2026-05-29T00:45:51Z</time></trkpt>
			<trkpt lat="54.924470" lon="20.565100"><ele>-0.0</ele><time>2026-05-29T00:45:57Z</time></trkpt>
			<trkpt lat="54.924760" lon="20.564460"><ele>-0.0</ele><time>2026-05-29T00:46:03Z</time></trkpt>
			<trkpt lat="54.925010" lon="20.563760"><ele>-0.0</ele><time>2026-05-29T00:46:08Z</time></trkpt>
			<trkpt lat="54.925470" lon="20.562190"><ele>-0.0</ele><time>2026-05-29T00:46:14Z</time></trkpt>
			<trkpt lat="54.925890" lon="20.560140"><ele>-0.1</ele><time>2026-05-29T00:46:20Z</time></trkpt>
			<trkpt lat="54.926110" lon="20.556410"><ele>0.4</ele><time>2026-05-29T00:46:26Z</time></trkpt>
			<trkpt lat="54.926970" lon="20.544400"><ele>1.0</ele><time>2026-05-29T00:46:31Z</time></trkpt>
			<trkpt lat="54.927000" lon="20.544230"><ele>1.0</ele><time>2026-05-29T00:46:37Z</time></trkpt>
			<trkpt lat="54.927030" lon="20.544130"><ele>0.9</ele><time>2026-05-29T00:46:43Z</time></trkpt>
			<trkpt lat="54.927070" lon="20.544020"><ele>0.9</ele><time>2026-05-29T00:46:49Z</time></trkpt>
			<trkpt lat="54.927120" lon="20.543920"><ele>0.9</ele><time>2026-05-29T00:46:54Z</time></trkpt>
			<trkpt lat="54.927180" lon="20.543840"><ele>0.9</ele><time>2026-05-29T00:47:00Z</time></trkpt>
			<trkpt lat="54.927330" lon="20.543670"><ele>0.8</ele><time>2026-05-29T00:47:06Z</time></trkpt>
			<trkpt lat="54.929410" lon="20.541530"><ele>-0.0</ele><time>2026-05-29T00:47:11Z</time></trkpt>
			<trkpt lat="54.930260" lon="20.540670"><ele>-0.2</ele><time>2026-05-29T00:47:17Z</time></trkpt>
			<trkpt lat="54.930420" lon="20.540530"><ele>-0.3</ele><time>2026-05-29T00:47:23Z</time></trkpt>
			<trkpt lat="54.930510" lon="20.540490"><ele>-0.3</ele><time>2026-05-29T00:47:29Z</time></trkpt>
			<trkpt lat="54.930560" lon="20.540470"><ele>-0.3</ele><time>2026-05-29T00:47:34Z</time></trkpt>
			<trkpt lat="54.930710" lon="20.540470"><ele>-0.3</ele><time>2026-05-29T00:47:40Z</time></trkpt>
			<trkpt lat="54.932330" lon="20.540760"><ele>-0.6</ele><time>2026-05-29T00:47:46Z</time></trkpt>
			<trkpt lat="54.933420" lon="20.540920"><ele>-0.8</ele><time>2026-05-29T00:47:52Z</time></trkpt>
			<trkpt lat="54.933910" lon="20.541000"><ele>-0.9</ele><time>2026-05-29T00:47:57Z</time></trkpt>
			<trkpt lat="54.934110" lon="20.541010"><ele>-0.9</ele><time>2026-05-29T00:48:03Z</time></trkpt>
			<trkpt lat="54.934180" lon="20.540990"><ele>-0.9</ele><time>2026-05-29T00:48:09Z</time></trkpt>
			<trkpt lat="54.934280" lon="20.540930"><ele>-0.9</ele><time>2026-05-29T00:48:15Z</time></trkpt>
			<trkpt lat="54.934400" lon="20.540820"><ele>-1.0</ele><time>2026-05-29T00:48:20Z</time></trkpt>
			<trkpt lat="54.934500" lon="20.540650"><ele>-1.0</ele><time>2026-05-29T00:48:26Z</time></trkpt>
			<trkpt lat="54.934620" lon="20.540320"><ele>-1.0</ele><time>2026-05-29T00:48:32Z</time></trkpt>
			<trkpt lat="54.934680" lon="20.539870"><ele>-1.0</ele><time>2026-05-29T00:48:38Z</time></trkpt>
			<trkpt lat="54.934680" lon="20.539470"><ele>-1.1</ele><time>2026-05-29T00:48:43Z</time></trkpt>
			<trkpt lat="54.934630" lon="20.537690"><ele>-1.2</ele><time>2026-05-29T00:48:49Z</time></trkpt>
			<trkpt lat="54.934620" lon="20.537620"><ele>-1.2</ele><time>2026-05-29T00:48:55Z</time></trkpt>
			<trkpt lat="54.934610" lon="20.537360"><ele>-1.2</ele><time>2026-05-29T00:49:01Z</time></trkpt>
			<trkpt lat="54.934520" lon="20.534270"><ele>-1.5</ele><time>2026-05-29T00:49:06Z</time></trkpt>
			<trkpt lat="54.934520" lon="20.533940"><ele>-1.5</ele><time>2026-05-29T00:49:12Z</time></trkpt>
			<trkpt lat="54.934800" lon="20.530570"><ele>-1.7</ele><time>2026-05-29T00:49:18Z</time></trkpt>
			<trkpt lat="54.935170" lon="20.525950"><ele>-1.8</ele><time>2026-05-29T00:49:24Z</time></trkpt>
			<trkpt lat="54.935350" lon="20.523690"><ele>-1.9</ele><time>2026-05-29T00:49:29Z</time></trkpt>
			<trkpt lat="54.935650" lon="20.520050"><ele>-1.3</ele><time>2026-05-29T00:49:35Z</time></trkpt>
			<trkpt lat="54.935980" lon="20.516730"><ele>-0.5</ele><time>2026-05-29T00:49:41Z</time></trkpt>
			<trkpt lat="54.936070" lon="20.515660"><ele>-0.2</ele><time>2026-05-29T00:49:47Z</time></trkpt>
			<trkpt lat="54.936330" lon="20.512600"><ele>0.2</ele><time>2026-05-29T00:49:52Z</time></trkpt>
			<trkpt lat="54.936370" lon="20.511780"><ele>-0.1</ele><time>2026-05-29T00:49:58Z</time></trkpt>
			<trkpt lat="54.936410" lon="20.511110"><ele>-0.5</ele><time>2026-05-29T00:50:04Z</time></trkpt>
			<trkpt lat="54.936420" lon="20.510930"><ele>-0.6</ele><time>2026-05-29T00:50:10Z</time></trkpt>
			<trkpt lat="54.936440" lon="20.510750"><ele>-0.6</ele><time>2026-05-29T00:50:15Z</time></trkpt>
			<trkpt lat="54.936450" lon="20.510550"><ele>-0.7</ele><time>2026-05-29T00:50:21Z</time></trkpt>
			<trkpt lat="54.936460" lon="20.510500"><ele>-0.8</ele><time>2026-05-29T00:50:27Z</time></trkpt>
			<trkpt lat="54.936480" lon="20.510220"><ele>-0.9</ele><time>2026-05-29T00:50:32Z</time></trkpt>
			<trkpt lat="54.936550" lon="20.509360"><ele>-1.3</ele><time>2026-05-29T00:50:38Z</time></trkpt>
			<trkpt lat="54.936620" lon="20.508460"><ele>-1.8</ele><time>2026-05-29T00:50:44Z</time></trkpt>
			<trkpt lat="54.936640" lon="20.508260"><ele>-1.9</ele><time>2026-05-29T00:50:50Z</time></trkpt>
			<trkpt lat="54.936660" lon="20.508020"><ele>-2.0</ele><time>2026-05-29T00:50:55Z</time></trkpt>
			<trkpt lat="54.936670" lon="20.507780"><ele>-2.1</ele><time>2026-05-29T00:51:01Z</time></trkpt>
			<trkpt lat="54.936680" lon="20.507330"><ele>-2.3</ele><time>2026-05-29T00:51:07Z</time></trkpt>
			<trkpt lat="54.936670" lon="20.506910"><ele>-2.5</ele><time>2026-05-29T00:51:13Z</time></trkpt>
			<trkpt lat="54.936660" lon="20.506770"><ele>-2.6</ele><time>2026-05-29T00:51:18Z</time></trkpt>
			<trkpt lat="54.936630" lon="20.506510"><ele>-2.7</ele><time>2026-05-29T00:51:24Z</time></trkpt>
			<trkpt lat="54.936440" lon="20.505510"><ele>-3.2</ele><time>2026-05-29T00:51:30Z</time></trkpt>
			<trkpt lat="54.936270" lon="20.504650"><ele>-3.6</ele><time>2026-05-29T00:51:36Z</time></trkpt>
			<trkpt lat="54.936220" lon="20.504380"><ele>-3.8</ele><time>2026-05-29T00:51:41Z</time></trkpt>
			<trkpt lat="54.936140" lon="20.503970"><ele>-4.0</ele><time>2026-05-29T00:51:47Z</time></trkpt>
			<trkpt lat="54.936110" lon="20.503820"><ele>-4.0</ele><time>2026-05-29T00:51:53Z</time></trkpt>
			<trkpt lat="54.934450" lon="20.495160"><ele>-4.7</ele><time>2026-05-29T00:51:59Z</time></trkpt>
			<trkpt lat="54.934030" lon="20.493270"><ele>-3.1</ele><time>2026-05-29T00:52:04Z</time></trkpt>
			<trkpt lat="54.933340" lon="20.489680"><ele>0.2</ele><time>2026-05-29T00:52:10Z</time></trkpt>
			<trkpt lat="54.933270" lon="20.489290"><ele>0.6</ele><time>2026-05-29T00:52:16Z</time></trkpt>
			<trkpt lat="54.932750" lon="20.486580"><ele>3.1</ele><time>2026-05-29T00:52:22Z</time></trkpt>
			<trkpt lat="54.932490" lon="20.485120"><ele>4.4</ele><time>2026-05-29T00:52:27Z</time></trkpt>
			<trkpt lat="54.932490" lon="20.485120"><ele>4.4</ele><time>2026-05-29T00:52:32Z</time></trkpt>
			<trkpt lat="54.932330" lon="20.484200"><ele>5.3</ele><time>2026-05-29T00:52:37Z</time></trkpt>
			<trkpt lat="54.931960" lon="20.482380"><ele>6.9</ele><time>2026-05-29T00:52:42Z</time></trkpt>
			<trkpt lat="54.931910" lon="20.481350"><ele>7.8</ele><time>2026-05-29T00:52:47Z</time></trkpt>
			<trkpt lat="54.931930" lon="20.480430"><ele>8.6</ele><time>2026-05-29T00:52:52Z</time></trkpt>
			<trkpt lat="54.932040" lon="20.479630"><ele>9.3</ele><time>2026-05-29T00:52:57Z</time></trkpt>
			<trkpt lat="54.932200" lon="20.478860"><ele>10.0</ele><time>2026-05-29T00:53:02Z</time></trkpt>
			<trkpt lat="54.932410" lon="20.478260"><ele>10.7</ele><time>2026-05-29T00:53:07Z</time></trkpt>
			<trkpt lat="54.932640" lon="20.477700"><ele>11.3</ele><time>2026-05-29T00:53:12Z</time></trkpt>
			<trkpt lat="54.932940" lon="20.477210"><ele>11.6</ele><time>2026-05-29T00:53:17Z</time></trkpt>
			<trkpt lat="54.933280" lon="20.476760"><ele>11.0</ele><time>2026-05-29T00:53:22Z</time></trkpt>
			<trkpt lat="54.933360" lon="20.476690"><ele>10.9</ele><time>2026-05-29T00:53:27Z</time></trkpt>
			<trkpt lat="54.934610" lon="20.475940"><ele>9.2</ele><time>2026-05-29T00:53:32Z</time></trkpt>
			<trkpt lat="54.934730" lon="20.475870"><ele>9.0</ele><time>2026-05-29T00:53:37Z</time></trkpt>
			<trkpt lat="54.937740" lon="20.474480"><ele>4.9</ele><time>2026-05-29T00:53:42Z</time></trkpt>
			<trkpt lat="54.941720" lon="20.472430"><ele>-0.3</ele><time>2026-05-29T00:53:47Z</time></trkpt>
			<trkpt lat="54.942240" lon="20.472170"><ele>-1.0</ele><time>2026-05-29T00:53:52Z</time></trkpt>
			<trkpt lat="54.942510" lon="20.472030"><ele>-1.4</ele><time>2026-05-29T00:53:57Z</time></trkpt>
			<trkpt lat="54.943040" lon="20.471770"><ele>-2.0</ele><time>2026-05-29T00:54:02Z</time></trkpt>
			<trkpt lat="54.943280" lon="20.471650"><ele>-2.1</ele><time>2026-05-29T00:54:06Z</time></trkpt>
			<trkpt lat="54.943420" lon="20.471580"><ele>-2.1</ele><time>2026-05-29T00:54:11Z</time></trkpt>
			<trkpt lat="54.944670" lon="20.470930"><ele>-1.9</ele><time>2026-05-29T00:54:16Z</time></trkpt>
			<trkpt lat="54.944860" lon="20.470770"><ele>-1.9</ele><time>2026-05-29T00:54:21Z</time></trkpt>
			<trkpt lat="54.944950" lon="20.470650"><ele>-1.9</ele><time>2026-05-29T00:54:26Z</time></trkpt>
			<trkpt lat="54.945020" lon="20.470520"><ele>-1.9</ele><time>2026-05-29T00:54:31Z</time></trkpt>
			<trkpt lat="54.945070" lon="20.470400"><ele>-1.9</ele><time>2026-05-29T00:54:36Z</time></trkpt>
			<trkpt lat="54.945140" lon="20.470220"><ele>-1.8</ele><time>2026-05-29T00:54:41Z</time></trkpt>
			<trkpt lat="54.945250" lon="20.469690"><ele>-1.8</ele><time>2026-05-29T00:54:46Z</time></trkpt>
			<trkpt lat="54.945420" lon="20.468550"><ele>-1.7</ele><time>2026-05-29T00:54:51Z</time></trkpt>
			<trkpt lat="54.945590" lon="20.467550"><ele>-1.6</ele><time>2026-05-29T00:54:56Z</time></trkpt>
			<trkpt lat="54.944650" lon="20.466950"><ele>-1.4</ele><time>2026-05-29T00:55:01Z</time></trkpt>
			<trkpt lat="54.944450" lon="20.466760"><ele>-1.4</ele><time>2026-05-29T00:55:06Z</time></trkpt>
			<trkpt lat="54.944330" lon="20.466600"><ele>-1.4</ele><time>2026-05-29T00:55:11Z</time></trkpt>
			<trkpt lat="54.944050" lon="20.466110"><ele>-1.3</ele><time>2026-05-29T00:55:16Z</time></trkpt>
			<trkpt lat="54.943960" lon="20.465840"><ele>-1.2</ele><time>2026-05-29T00:55:21Z</time></trkpt>
			<trkpt lat="54.943470" lon="20.464340"><ele>-0.8</ele><time>2026-05-29T00:55:26Z</time></trkpt>
			<trkpt lat="54.943320" lon="20.463910"><ele>-0.6</ele><time>2026-05-29T00:55:31Z</time></trkpt>
			<trkpt lat="54.942720" lon="20.462240"><ele>-0.1</ele><time>2026-05-29T00:55:36Z</time></trkpt>
			<trkpt lat="54.942010" lon="20.460170"><ele>0.5</ele><time>2026-05-29T00:55:41Z</time></trkpt>
			<trkpt lat="54.940830" lon="20.456720"><ele>1.6</ele><time>2026-05-29T00:55:46Z</time></trkpt>
			<trkpt lat="54.940690" lon="20.456320"><ele>1.8</ele><time>2026-05-29T00:55:51Z</time></trkpt>
			<trkpt lat="54.940240" lon="20.455020"><ele>2.3</ele><time>2026-05-29T00:55:56Z</time></trkpt>
			<trkpt lat="54.940050" lon="20.454480"><ele>2.5</ele><time>2026-05-29T00:56:00Z</time></trkpt>
			<trkpt lat="54.938850" lon="20.451010"><ele>3.9</ele><time>2026-05-29T00:56:05Z</time></trkpt>
			<trkpt lat="54.937910" lon="20.448280"><ele>4.3</ele><time>2026-05-29T00:56:10Z</time></trkpt>
			<trkpt lat="54.937430" lon="20.446890"><ele>4.4</ele><time>2026-05-29T00:56:15Z</time></trkpt>
			<trkpt lat="54.936830" lon="20.445130"><ele>4.5</ele><time>2026-05-29T00:56:20Z</time></trkpt>
			<trkpt lat="54.936060" lon="20.442900"><ele>4.6</ele><time>2026-05-29T00:56:25Z</time></trkpt>
			<trkpt lat="54.935290" lon="20.440670"><ele>3.6</ele><time>2026-05-29T00:56:30Z</time></trkpt>
			<trkpt lat="54.934530" lon="20.438440"><ele>2.2</ele><time>2026-05-29T00:56:35Z</time></trkpt>
			<trkpt lat="54.934160" lon="20.437360"><ele>1.5</ele><time>2026-05-29T00:56:40Z</time></trkpt>
			<trkpt lat="54.934120" lon="20.437250"><ele>1.4</ele><time>2026-05-29T00:56:45Z</time></trkpt>
			<trkpt lat="54.933570" lon="20.435760"><ele>0.4</ele><time>2026-05-29T00:56:50Z</time></trkpt>
			<trkpt lat="54.932390" lon="20.432330"><ele>-0.4</ele><time>2026-05-29T00:56:55Z</time></trkpt>
			<trkpt lat="54.931260" lon="20.429070"><ele>-0.1</ele><time>2026-05-29T00:57:00Z</time></trkpt>
			<trkpt lat="54.929410" lon="20.423760"><ele>0.6</ele><time>2026-05-29T00:57:05Z</time></trkpt>
			<trkpt lat="54.929140" lon="20.422940"><ele>0.8</ele><time>2026-05-29T00:57:10Z</time></trkpt>
			<trkpt lat="54.929050" lon="20.422570"><ele>0.9</ele><time>2026-05-29T00:57:15Z</time></trkpt>
			<trkpt lat="54.928990" lon="20.422240"><ele>0.9</ele><time>2026-05-29T00:57:20Z</time></trkpt>
			<trkpt lat="54.928960" lon="20.421970"><ele>0.9</ele><time>2026-05-29T00:57:25Z</time></trkpt>
			<trkpt lat="54.928940" lon="20.421710"><ele>1.0</ele><time>2026-05-29T00:57:30Z</time></trkpt>
			<trkpt lat="54.928950" lon="20.421410"><ele>1.0</ele><time>2026-05-29T00:57:35Z</time></trkpt>
			<trkpt lat="54.928960" lon="20.421150"><ele>1.1</ele><time>2026-05-29T00:57:40Z</time></trkpt>
			<trkpt lat="54.928960" lon="20.421070"><ele>1.1</ele><time>2026-05-29T00:57:45Z</time></trkpt>
			<trkpt lat="54.928960" lon="20.420850"><ele>1.1</ele><time>2026-05-29T00:57:50Z</time></trkpt>
			<trkpt lat="54.928980" lon="20.419060"><ele>1.4</ele><time>2026-05-29T00:57:54Z</time></trkpt>
			<trkpt lat="54.929010" lon="20.418240"><ele>1.5</ele><time>2026-05-29T00:57:59Z</time></trkpt>
			<trkpt lat="54.929020" lon="20.418130"><ele>1.6</ele><time>2026-05-29T00:58:04Z</time></trkpt>
			<trkpt lat="54.929040" lon="20.417730"><ele>1.6</ele><time>2026-05-29T00:58:09Z</time></trkpt>
			<trkpt lat="54.929100" lon="20.415420"><ele>1.6</ele><time>2026-05-29T00:58:14Z</time></trkpt>
			<trkpt lat="54.929150" lon="20.413620"><ele>1.5</ele><time>2026-05-29T00:58:19Z</time></trkpt>
			<trkpt lat="54.929150" lon="20.413370"><ele>1.4</ele><time>2026-05-29T00:58:24Z</time></trkpt>
			<trkpt lat="54.929190" lon="20.411880"><ele>1.3</ele><time>2026-05-29T00:58:29Z</time></trkpt>
			<trkpt lat="54.929200" lon="20.411710"><ele>1.3</ele><time>2026-05-29T00:58:34Z</time></trkpt>
			<trkpt lat="54.929300" lon="20.408300"><ele>1.1</ele><time>2026-05-29T00:58:39Z</time></trkpt>
			<trkpt lat="54.929360" lon="20.406080"><ele>0.9</ele><time>2026-05-29T00:58:44Z</time></trkpt>
			<trkpt lat="54.929350" lon="20.405720"><ele>0.8</ele><time>2026-05-29T00:58:49Z</time></trkpt>
			<trkpt lat="54.929280" lon="20.405100"><ele>0.8</ele><time>2026-05-29T00:58:54Z</time></trkpt>
			<trkpt lat="54.928790" lon="20.402180"><ele>0.4</ele><time>2026-05-29T00:58:59Z</time></trkpt>
			<trkpt lat="54.928740" lon="20.401930"><ele>0.4</ele><time>2026-05-29T00:59:04Z</time></trkpt>
			<trkpt lat="54.928680" lon="20.401720"><ele>0.4</ele><time>2026-05-29T00:59:09Z</time></trkpt>
			<trkpt lat="54.928570" lon="20.401260"><ele>0.3</ele><time>2026-05-29T00:59:14Z</time></trkpt>
			<trkpt lat="54.928330" lon="20.400580"><ele>0.2</ele><time>2026-05-29T00:59:19Z</time></trkpt>
			<trkpt lat="54.928070" lon="20.400010"><ele>0.1</ele><time>2026-05-29T00:59:24Z</time></trkpt>
			<trkpt lat="54.927880" lon="20.399660"><ele>0.1</ele><time>2026-05-29T00:59:29Z</time></trkpt>
			<trkpt lat="54.927640" lon="20.399290"><ele>0.0</ele><time>2026-05-29T00:59:34Z</time></trkpt>
			<trkpt lat="54.927470" lon="20.399050"><ele>0.0</ele><time>2026-05-29T00:59:39Z</time></trkpt>
			<trkpt lat="54.927130" lon="20.398680"><ele>0.0</ele><time>2026-05-29T00:59:44Z</time></trkpt>
			<trkpt lat="54.926780" lon="20.398390"><ele>0.0</ele><time>2026-05-29T00:59:48Z</time></trkpt>
			<trkpt lat="54.926460" lon="20.398160"><ele>0.0</ele><time>2026-05-29T00:59:53Z</time></trkpt>
			<trkpt lat="54.925900" lon="20.397950"><ele>0.0</ele><time>2026-05-29T00:59:58Z</time></trkpt>
			<trkpt lat="54.925720" lon="20.397940"><ele>0.0</ele><time>2026-05-29T01:00:03Z</time></trkpt>
			<trkpt lat="54.925340" lon="20.397890"><ele>0.0</ele><time>2026-05-29T01:00:08Z</time></trkpt>
			<trkpt lat="54.925120" lon="20.397920"><ele>0.0</ele><time>2026-05-29T01:00:13Z</time></trkpt>
			<trkpt lat="54.924580" lon="20.398030"><ele>0.0</ele><time>2026-05-29T01:00:18Z</time></trkpt>
			<trkpt lat="54.924350" lon="20.398080"><ele>0.0</ele><time>2026-05-29T01:00:23Z</time></trkpt>
			<trkpt lat="54.924290" lon="20.398100"><ele>0.0</ele><time>2026-05-29T01:00:28Z</time></trkpt>
			<trkpt lat="54.923910" lon="20.398190"><ele>0.0</ele><time>2026-05-29T01:00:33Z</time></trkpt>
			<trkpt lat="54.923280" lon="20.398320"><ele>0.1</ele><time>2026-05-29T01:00:38Z</time></trkpt>
			<trkpt lat="54.922500" lon="20.398490"><ele>0.1</ele><time>2026-05-29T01:00:43Z</time></trkpt>
			<trkpt lat="54.922110" lon="20.398570"><ele>0.4</ele><time>2026-05-29T01:00:48Z</time></trkpt>
			<trkpt lat="54.921860" lon="20.398610"><ele>0.6</ele><time>2026-05-29T01:00:53Z</time></trkpt>
			<trkpt lat="54.921210" lon="20.398740"><ele>1.2</ele><time>2026-05-29T01:00:58Z</time></trkpt>
			<trkpt lat="54.920380" lon="20.398890"><ele>1.9</ele><time>2026-05-29T01:01:03Z</time></trkpt>
			<trkpt lat="54.920140" lon="20.398960"><ele>2.1</ele><time>2026-05-29T01:01:08Z</time></trkpt>
			<trkpt lat="54.917280" lon="20.399750"><ele>4.6</ele><time>2026-05-29T01:01:13Z</time></trkpt>
			<trkpt lat="54.913610" lon="20.400840"><ele>4.9</ele><time>2026-05-29T01:01:18Z</time></trkpt>
			<trkpt lat="54.913120" lon="20.400980"><ele>4.9</ele><time>2026-05-29T01:01:23Z</time></trkpt>
			<trkpt lat="54.913010" lon="20.400990"><ele>4.9</ele><time>2026-05-29T01:01:28Z</time></trkpt>
			<trkpt lat="54.911070" lon="20.401570"><ele>5.2</ele><time>2026-05-29T01:01:33Z</time></trkpt>
			<trkpt lat="54.910950" lon="20.401600"><ele>5.2</ele><time>2026-05-29T01:01:38Z</time></trkpt>
			<trkpt lat="54.909890" lon="20.401870"><ele>5.5</ele><time>2026-05-29T01:01:42Z</time></trkpt>
			<trkpt lat="54.909310" lon="20.402020"><ele>5.6</ele><time>2026-05-29T01:01:47Z</time></trkpt>
			<trkpt lat="54.909220" lon="20.400330"><ele>5.9</ele><time>2026-05-29T01:01:52Z</time></trkpt>
			<trkpt lat="54.909120" lon="20.399060"><ele>6.1</ele><time>2026-05-29T01:01:57Z</time></trkpt>
			<trkpt lat="54.909060" lon="20.397990"><ele>6.3</ele><time>2026-05-29T01:02:02Z</time></trkpt>
			<trkpt lat="54.908960" lon="20.396570"><ele>6.7</ele><time>2026-05-29T01:02:07Z</time></trkpt>
			<trkpt lat="54.908790" lon="20.394090"><ele>8.1</ele><time>2026-05-29T01:02:12Z</time></trkpt>
			<trkpt lat="54.908010" lon="20.388640"><ele>11.2</ele><time>2026-05-29T01:02:17Z</time></trkpt>
			<trkpt lat="54.907140" lon="20.382810"><ele>13.7</ele><time>2026-05-29T01:02:22Z</time></trkpt>
			<trkpt lat="54.906600" lon="20.379440"><ele>15.0</ele><time>2026-05-29T01:02:27Z</time></trkpt>
			<trkpt lat="54.906560" lon="20.378820"><ele>15.2</ele><time>2026-05-29T01:02:32Z</time></trkpt>
			<trkpt lat="54.906470" lon="20.375450"><ele>14.9</ele><time>2026-05-29T01:02:37Z</time></trkpt>
			<trkpt lat="54.906440" lon="20.372660"><ele>14.6</ele><time>2026-05-29T01:02:42Z</time></trkpt>
			<trkpt lat="54.906450" lon="20.372100"><ele>14.6</ele><time>2026-05-29T01:02:47Z</time></trkpt>
			<trkpt lat="54.906460" lon="20.371860"><ele>14.6</ele><time>2026-05-29T01:02:52Z</time></trkpt>
			<trkpt lat="54.906510" lon="20.371420"><ele>14.5</ele><time>2026-05-29T01:02:57Z</time></trkpt>
			<trkpt lat="54.906650" lon="20.370500"><ele>14.4</ele><time>2026-05-29T01:03:02Z</time></trkpt>
			<trkpt lat="54.906890" lon="20.369050"><ele>14.2</ele><time>2026-05-29T01:03:07Z</time></trkpt>
			<trkpt lat="54.907000" lon="20.368330"><ele>14.0</ele><time>2026-05-29T01:03:12Z</time></trkpt>
			<trkpt lat="54.907040" lon="20.368070"><ele>14.0</ele><time>2026-05-29T01:03:17Z</time></trkpt>
			<trkpt lat="54.907200" lon="20.367050"><ele>13.7</ele><time>2026-05-29T01:03:22Z</time></trkpt>
			<trkpt lat="54.907230" lon="20.366840"><ele>13.6</ele><time>2026-05-29T01:03:27Z</time></trkpt>
			<trkpt lat="54.907260" lon="20.366570"><ele>13.6</ele><time>2026-05-29T01:03:32Z</time></trkpt>
			<trkpt lat="54.907260" lon="20.366120"><ele>13.5</ele><time>2026-05-29T01:03:36Z</time></trkpt>
			<trkpt lat="54.907250" lon="20.365200"><ele>13.2</ele><time>2026-05-29T01:03:41Z</time></trkpt>
			<trkpt lat="54.907230" lon="20.364000"><ele>12.9</ele><time>2026-05-29T01:03:46Z</time></trkpt>
			<trkpt lat="54.907170" lon="20.360660"><ele>12.1</ele><time>2026-05-29T01:03:51Z</time></trkpt>
			<trkpt lat="54.907150" lon="20.360110"><ele>11.9</ele><time>2026-05-29T01:03:56Z</time></trkpt>
			<trkpt lat="54.907150" lon="20.360110"><ele>11.9</ele><time>2026-05-29T01:04:03Z</time></trkpt>
			<trkpt lat="54.906960" lon="20.352730"><ele>16.0</ele><time>2026-05-29T01:04:10Z</time></trkpt>
			<trkpt lat="54.906860" lon="20.351890"><ele>16.4</ele><time>2026-05-29T01:04:16Z</time></trkpt>
			<trkpt lat="54.906630" lon="20.350760"><ele>17.0</ele><time>2026-05-29T01:04:23Z</time></trkpt>
			<trkpt lat="54.906220" lon="20.348780"><ele>16.5</ele><time>2026-05-29T01:04:30Z</time></trkpt>
			<trkpt lat="54.905730" lon="20.346540"><ele>15.8</ele><time>2026-05-29T01:04:36Z</time></trkpt>
			<trkpt lat="54.905680" lon="20.346270"><ele>15.8</ele><time>2026-05-29T01:04:43Z</time></trkpt>
			<trkpt lat="54.905560" lon="20.345320"><ele>15.5</ele><time>2026-05-29T01:04:50Z</time></trkpt>
			<trkpt lat="54.905390" lon="20.344000"><ele>15.1</ele><time>2026-05-29T01:04:56Z</time></trkpt>
			<trkpt lat="54.904960" lon="20.339920"><ele>13.9</ele><time>2026-05-29T01:05:03Z</time></trkpt>
			<trkpt lat="54.904930" lon="20.339640"><ele>13.8</ele><time>2026-05-29T01:05:10Z</time></trkpt>
			<trkpt lat="54.904700" lon="20.337490"><ele>13.1</ele><time>2026-05-29T01:05:16Z</time></trkpt>
			<trkpt lat="54.910380" lon="20.335560"><ele>16.1</ele><time>2026-05-29T01:05:23Z</time></trkpt>
			<trkpt lat="54.910920" lon="20.335120"><ele>17.0</ele><time>2026-05-29T01:05:30Z</time></trkpt>
			<trkpt lat="54.912970" lon="20.332740"><ele>20.2</ele><time>2026-05-29T01:05:36Z</time></trkpt>
			<trkpt lat="54.914870" lon="20.330530"><ele>20.8</ele><time>2026-05-29T01:05:43Z</time></trkpt>
			<trkpt lat="54.917210" lon="20.327800"><ele>21.3</ele><time>2026-05-29T01:05:50Z</time></trkpt>
			<trkpt lat="54.918490" lon="20.326290"><ele>20.1</ele><time>2026-05-29T01:05:57Z</time></trkpt>
			<trkpt lat="54.919510" lon="20.325110"><ele>19.2</ele><time>2026-05-29T01:06:03Z</time></trkpt>
			<trkpt lat="54.919680" lon="20.324960"><ele>19.1</ele><time>2026-05-29T01:06:10Z</time></trkpt>
			<trkpt lat="54.919870" lon="20.324830"><ele>18.9</ele><time>2026-05-29T01:06:17Z</time></trkpt>
			<trkpt lat="54.920010" lon="20.324760"><ele>18.8</ele><time>2026-05-29T01:06:23Z</time></trkpt>
			<trkpt lat="54.920060" lon="20.324730"><ele>18.8</ele><time>2026-05-29T01:06:30Z</time></trkpt>
			<trkpt lat="54.920340" lon="20.324660"><ele>18.5</ele><time>2026-05-29T01:06:37Z</time></trkpt>
			<trkpt lat="54.920560" lon="20.324620"><ele>18.4</ele><time>2026-05-29T01:06:43Z</time></trkpt>
			<trkpt lat="54.922040" lon="20.324390"><ele>17.3</ele><time>2026-05-29T01:06:50Z</time></trkpt>
			<trkpt lat="54.922350" lon="20.324340"><ele>17.2</ele><time>2026-05-29T01:06:57Z</time></trkpt>
			<trkpt lat="54.922660" lon="20.324310"><ele>17.1</ele><time>2026-05-29T01:07:03Z</time></trkpt>
			<trkpt lat="54.924870" lon="20.324040"><ele>16.1</ele><time>2026-05-29T01:07:10Z</time></trkpt>
			<trkpt lat="54.925860" lon="20.323910"><ele>15.7</ele><time>2026-05-29T01:07:17Z</time></trkpt>
			<trkpt lat="54.926130" lon="20.323870"><ele>15.6</ele><time>2026-05-29T01:07:23Z</time></trkpt>
			<trkpt lat="54.926710" lon="20.323840"><ele>15.3</ele><time>2026-05-29T01:07:30Z</time></trkpt>
			<trkpt lat="54.927720" lon="20.324020"><ele>14.8</ele><time>2026-05-29T01:07:37Z</time></trkpt>
			<trkpt lat="54.928210" lon="20.324140"><ele>14.5</ele><time>2026-05-29T01:07:43Z</time></trkpt>
			<trkpt lat="54.929250" lon="20.324410"><ele>14.0</ele><time>2026-05-29T01:07:50Z</time></trkpt>
			<trkpt lat="54.929930" lon="20.324570"><ele>13.6</ele><time>2026-05-29T01:07:57Z</time></trkpt>
			<trkpt lat="54.930140" lon="20.324680"><ele>13.5</ele><time>2026-05-29T01:08:03Z</time></trkpt>
			<trkpt lat="54.930220" lon="20.324730"><ele>13.4</ele><time>2026-05-29T01:08:10Z</time></trkpt>
			<trkpt lat="54.930640" lon="20.325160"><ele>13.2</ele><time>2026-05-29T01:08:17Z</time></trkpt>
			<trkpt lat="54.930810" lon="20.325390"><ele>13.0</ele><time>2026-05-29T01:08:23Z</time></trkpt>
			<trkpt lat="54.932030" lon="20.326130"><ele>12.3</ele><time>2026-05-29T01:08:30Z</time></trkpt>
			<trkpt lat="54.932400" lon="20.326230"><ele>12.1</ele><time>2026-05-29T01:08:37Z</time></trkpt>
			<trkpt lat="54.932850" lon="20.326330"><ele>11.8</ele><time>2026-05-29T01:08:43Z</time></trkpt>
			<trkpt lat="54.933380" lon="20.326340"><ele>11.4</ele><time>2026-05-29T01:08:50Z</time></trkpt>
			<trkpt lat="54.933640" lon="20.326270"><ele>11.2</ele><time>2026-05-29T01:08:57Z</time></trkpt>
			<trkpt lat="54.933770" lon="20.326180"><ele>11.1</ele><time>2026-05-29T01:09:03Z</time></trkpt>
			<trkpt lat="54.933880" lon="20.326000"><ele>10.9</ele><time>2026-05-29T01:09:10Z</time></trkpt>
			<trkpt lat="54.933960" lon="20.325670"><ele>10.8</ele><time>2026-05-29T01:09:17Z</time></trkpt>
			<trkpt lat="54.934010" lon="20.325480"><ele>10.7</ele><time>2026-05-29T01:09:24Z</time></trkpt>
			<trkpt lat="54.936240" lon="20.312390"><ele>5.2</ele><time>2026-05-29T01:09:30Z</time></trkpt>
			<trkpt lat="54.936640" lon="20.310300"><ele>4.6</ele><time>2026-05-29T01:09:37Z</time></trkpt>
			<trkpt lat="54.936950" lon="20.309330"><ele>5.1</ele><time>2026-05-29T01:09:44Z</time></trkpt>
			<trkpt lat="54.937320" lon="20.308360"><ele>5.6</ele><time>2026-05-29T01:09:50Z</time></trkpt>
			<trkpt lat="54.937380" lon="20.308230"><ele>5.7</ele><time>2026-05-29T01:09:57Z</time></trkpt>
			<trkpt lat="54.937940" lon="20.307060"><ele>6.4</ele><time>2026-05-29T01:10:04Z</time></trkpt>
			<trkpt lat="54.938190" lon="20.306510"><ele>6.7</ele><time>2026-05-29T01:10:10Z</time></trkpt>
			<trkpt lat="54.938810" lon="20.305170"><ele>7.4</ele><time>2026-05-29T01:10:17Z</time></trkpt>
			<trkpt lat="54.939050" lon="20.304620"><ele>7.7</ele><time>2026-05-29T01:10:24Z</time></trkpt>
			<trkpt lat="54.939150" lon="20.304390"><ele>7.9</ele><time>2026-05-29T01:10:30Z</time></trkpt>
			<trkpt lat="54.940280" lon="20.301870"><ele>9.4</ele><time>2026-05-29T01:10:37Z</time></trkpt>
			<trkpt lat="54.940280" lon="20.301870"><ele>9.4</ele><time>2026-05-29T01:10:39Z</time></trkpt>
			<trkpt lat="54.940890" lon="20.300540"><ele>10.3</ele><time>2026-05-29T01:10:42Z</time></trkpt>
			<trkpt lat="54.941260" lon="20.299710"><ele>10.8</ele><time>2026-05-29T01:10:44Z</time></trkpt>
			<trkpt lat="54.942570" lon="20.296820"><ele>12.6</ele><time>2026-05-29T01:10:47Z</time></trkpt>
			<trkpt lat="54.943390" lon="20.295080"><ele>13.8</ele><time>2026-05-29T01:10:49Z</time></trkpt>
			<trkpt lat="54.943600" lon="20.294600"><ele>14.1</ele><time>2026-05-29T01:10:52Z</time></trkpt>
			<trkpt lat="54.943720" lon="20.294360"><ele>14.2</ele><time>2026-05-29T01:10:54Z</time></trkpt>
			<trkpt lat="54.943870" lon="20.294080"><ele>14.4</ele><time>2026-05-29T01:10:56Z</time></trkpt>
			<trkpt lat="54.944340" lon="20.293330"><ele>15.0</ele><time>2026-05-29T01:10:59Z</time></trkpt>
			<trkpt lat="54.944800" lon="20.292620"><ele>15.5</ele><time>2026-05-29T01:11:01Z</time></trkpt>
			<trkpt lat="54.945750" lon="20.291110"><ele>16.7</ele><time>2026-05-29T01:11:04Z</time></trkpt>
			<trkpt lat="54.948940" lon="20.286060"><ele>14.3</ele><time>2026-05-29T01:11:06Z</time></trkpt>
			<trkpt lat="54.949060" lon="20.285850"><ele>14.1</ele><time>2026-05-29T01:11:09Z</time></trkpt>
			<trkpt lat="54.949320" lon="20.285340"><ele>13.5</ele><time>2026-05-29T01:11:11Z</time></trkpt>
			<trkpt lat="54.949510" lon="20.284900"><ele>13.1</ele><time>2026-05-29T01:11:13Z</time></trkpt>
			<trkpt lat="54.949700" lon="20.284380"><ele>12.6</ele><time>2026-05-29T01:11:16Z</time></trkpt>
			<trkpt lat="54.949800" lon="20.284040"><ele>12.2</ele><time>2026-05-29T01:11:18Z</time></trkpt>
			<trkpt lat="54.949910" lon="20.283610"><ele>11.8</ele><time>2026-05-29T01:11:21Z</time></trkpt>
			<trkpt lat="54.950050" lon="20.282990"><ele>11.3</ele><time>2026-05-29T01:11:23Z</time></trkpt>
			<trkpt lat="54.950620" lon="20.279800"><ele>10.5</ele><time>2026-05-29T01:11:26Z</time></trkpt>
			<trkpt lat="54.950720" lon="20.279200"><ele>10.5</ele><time>2026-05-29T01:11:28Z</time></trkpt>
			<trkpt lat="54.951430" lon="20.275310"><ele>10.9</ele><time>2026-05-29T01:11:30Z</time></trkpt>
			<trkpt lat="54.951520" lon="20.274740"><ele>10.9</ele><time>2026-05-29T01:11:33Z</time></trkpt>
			<trkpt lat="54.951640" lon="20.273850"><ele>11.0</ele><time>2026-05-29T01:11:35Z</time></trkpt>
			<trkpt lat="54.951650" lon="20.273520"><ele>11.0</ele><time>2026-05-29T01:11:38Z</time></trkpt>
			<trkpt lat="54.951610" lon="20.273030"><ele>11.1</ele><time>2026-05-29T01:11:40Z</time></trkpt>
			<trkpt lat="54.951500" lon="20.271050"><ele>10.9</ele><time>2026-05-29T01:11:43Z</time></trkpt>
			<trkpt lat="54.951470" lon="20.270400"><ele>10.8</ele><time>2026-05-29T01:11:45Z</time></trkpt>
			<trkpt lat="54.951390" lon="20.268920"><ele>10.6</ele><time>2026-05-29T01:11:48Z</time></trkpt>
			<trkpt lat="54.951270" lon="20.267090"><ele>10.4</ele><time>2026-05-29T01:11:50Z</time></trkpt>
			<trkpt lat="54.951200" lon="20.265960"><ele>10.2</ele><time>2026-05-29T01:11:52Z</time></trkpt>
			<trkpt lat="54.951110" lon="20.264300"><ele>10.0</ele><time>2026-05-29T01:11:55Z</time></trkpt>
			<trkpt lat="54.951080" lon="20.263990"><ele>10.0</ele><time>2026-05-29T01:11:57Z</time></trkpt>
			<trkpt lat="54.951050" lon="20.263400"><ele>9.9</ele><time>2026-05-29T01:12:00Z</time></trkpt>
			<trkpt lat="54.950980" lon="20.262410"><ele>9.6</ele><time>2026-05-29T01:12:02Z</time></trkpt>
			<trkpt lat="54.950970" lon="20.262210"><ele>9.5</ele><time>2026-05-29T01:12:05Z</time></trkpt>
			<trkpt lat="54.950860" lon="20.261020"><ele>9.2</ele><time>2026-05-29T01:12:07Z</time></trkpt>
			<trkpt lat="54.950780" lon="20.260270"><ele>8.9</ele><time>2026-05-29T01:12:09Z</time></trkpt>
			<trkpt lat="54.950710" lon="20.259670"><ele>8.8</ele><time>2026-05-29T01:12:12Z</time></trkpt>
			<trkpt lat="54.950700" lon="20.259540"><ele>8.7</ele><time>2026-05-29T01:12:14Z</time></trkpt>
			<trkpt lat="54.950590" lon="20.258610"><ele>8.4</ele><time>2026-05-29T01:12:17Z</time></trkpt>
			<trkpt lat="54.950550" lon="20.258290"><ele>8.3</ele><time>2026-05-29T01:12:19Z</time></trkpt>
			<trkpt lat="54.950500" lon="20.257840"><ele>8.2</ele><time>2026-05-29T01:12:22Z</time></trkpt>
			<trkpt lat="54.950450" lon="20.257620"><ele>8.1</ele><time>2026-05-29T01:12:24Z</time></trkpt>
			<trkpt lat="54.950420" lon="20.257520"><ele>8.1</ele><time>2026-05-29T01:12:26Z</time></trkpt>
			<trkpt lat="54.950380" lon="20.257450"><ele>8.1</ele><time>2026-05-29T01:12:29Z</time></trkpt>
			<trkpt lat="54.950320" lon="20.257380"><ele>8.0</ele><time>2026-05-29T01:12:31Z</time></trkpt>
			<trkpt lat="54.950220" lon="20.257340"><ele>8.0</ele><time>2026-05-29T01:12:34Z</time></trkpt>
			<trkpt lat="54.950130" lon="20.257340"><ele>7.9</ele><time>2026-05-29T01:12:36Z</time></trkpt>
			<trkpt lat="54.949980" lon="20.257360"><ele>7.9</ele><time>2026-05-29T01:12:39Z</time></trkpt>
			<trkpt lat="54.949960" lon="20.256880"><ele>7.7</ele><time>2026-05-29T01:12:41Z</time></trkpt>
			<trkpt lat="54.949890" lon="20.255630"><ele>7.3</ele><time>2026-05-29T01:12:43Z</time></trkpt>
			<trkpt lat="54.949880" lon="20.255270"><ele>7.2</ele><time>2026-05-29T01:12:46Z</time></trkpt>
			<trkpt lat="54.949900" lon="20.255140"><ele>7.2</ele><time>2026-05-29T01:12:48Z</time></trkpt>
			<trkpt lat="54.949940" lon="20.255020"><ele>7.2</ele><time>2026-05-29T01:12:51Z</time></trkpt>
			<trkpt lat="54.949980" lon="20.254950"><ele>7.1</ele><time>2026-05-29T01:12:53Z</time></trkpt>
			<trkpt lat="54.950030" lon="20.254900"><ele>7.1</ele><time>2026-05-29T01:12:56Z</time></trkpt>
			<trkpt lat="54.950140" lon="20.254840"><ele>7.4</ele><time>2026-05-29T01:12:58Z</time></trkpt>
			<trkpt lat="54.950540" lon="20.254720"><ele>8.1</ele><time>2026-05-29T01:13:00Z</time></trkpt>
			<trkpt lat="54.950600" lon="20.254680"><ele>8.2</ele><time>2026-05-29T01:13:03Z</time></trkpt>
			<trkpt lat="54.950640" lon="20.254640"><ele>8.3</ele><time>2026-05-29T01:13:05Z</time></trkpt>
			<trkpt lat="54.950670" lon="20.254570"><ele>8.4</ele><time>2026-05-29T01:13:08Z</time></trkpt>
			<trkpt lat="54.950710" lon="20.254410"><ele>8.6</ele><time>2026-05-29T01:13:10Z</time></trkpt>
			<trkpt lat="54.950710" lon="20.254160"><ele>8.8</ele><time>2026-05-29T01:13:13Z</time></trkpt>
			<trkpt lat="54.950670" lon="20.253290"><ele>9.7</ele><time>2026-05-29T01:13:15Z</time></trkpt>
			<trkpt lat="54.950640" lon="20.252640"><ele>10.4</ele><time>2026-05-29T01:13:17Z</time></trkpt>
			<trkpt lat="54.950580" lon="20.251800"><ele>11.3</ele><time>2026-05-29T01:13:20Z</time></trkpt>
			<trkpt lat="54.950530" lon="20.251180"><ele>12.0</ele><time>2026-05-29T01:13:22Z</time></trkpt>
			<trkpt lat="54.950530" lon="20.250670"><ele>12.5</ele><time>2026-05-29T01:13:25Z</time></trkpt>
			<trkpt lat="54.950550" lon="20.250170"><ele>13.0</ele><time>2026-05-29T01:13:27Z</time></trkpt>
			<trkpt lat="54.950610" lon="20.249730"><ele>13.5</ele><time>2026-05-29T01:13:30Z</time></trkpt>
			<trkpt lat="54.951800" lon="20.241000"><ele>16.5</ele><time>2026-05-29T01:13:32Z</time></trkpt>
			<trkpt lat="54.951960" lon="20.239830"><ele>16.5</ele><time>2026-05-29T01:13:35Z</time></trkpt>
			<trkpt lat="54.952000" lon="20.239620"><ele>16.4</ele><time>2026-05-29T01:13:37Z</time></trkpt>
			<trkpt lat="54.952010" lon="20.239500"><ele>16.4</ele><time>2026-05-29T01:13:39Z</time></trkpt>
			<trkpt lat="54.952040" lon="20.239300"><ele>16.4</ele><time>2026-05-29T01:13:42Z</time></trkpt>
			<trkpt lat="54.952210" lon="20.238080"><ele>16.3</ele><time>2026-05-29T01:13:44Z</time></trkpt>
			<trkpt lat="54.952240" lon="20.237860"><ele>16.3</ele><time>2026-05-29T01:13:47Z</time></trkpt>
			<trkpt lat="54.952360" lon="20.237010"><ele>16.4</ele><time>2026-05-29T01:13:49Z</time></trkpt>
			<trkpt lat="54.952410" lon="20.236790"><ele>16.5</ele><time>2026-05-29T01:13:52Z</time></trkpt>
			<trkpt lat="54.952420" lon="20.236740"><ele>16.6</ele><time>2026-05-29T01:13:54Z</time></trkpt>
			<trkpt lat="54.952580" lon="20.236290"><ele>16.8</ele><time>2026-05-29T01:13:56Z</time></trkpt>
			<trkpt lat="54.952720" lon="20.235890"><ele>17.0</ele><time>2026-05-29T01:13:59Z</time></trkpt>
			<trkpt lat="54.952950" lon="20.235230"><ele>17.3</ele><time>2026-05-29T01:14:01Z</time></trkpt>
			<trkpt lat="54.953010" lon="20.235030"><ele>17.4</ele><time>2026-05-29T01:14:04Z</time></trkpt>
			<trkpt lat="54.953050" lon="20.234910"><ele>17.5</ele><time>2026-05-29T01:14:06Z</time></trkpt>
			<trkpt lat="54.953130" lon="20.234600"><ele>17.6</ele><time>2026-05-29T01:14:09Z</time></trkpt>
			<trkpt lat="54.953240" lon="20.233990"><ele>17.9</ele><time>2026-05-29T01:14:11Z</time></trkpt>
			<trkpt lat="54.953250" lon="20.233920"><ele>18.0</ele><time>2026-05-29T01:14:13Z</time></trkpt>
			<trkpt lat="54.953340" lon="20.233430"><ele>18.2</ele><time>2026-05-29T01:14:16Z</time></trkpt>
			<trkpt lat="54.953410" lon="20.233050"><ele>18.4</ele><time>2026-05-29T01:14:18Z</time></trkpt>
			<trkpt lat="54.953420" lon="20.232940"><ele>18.4</ele><time>2026-05-29T01:14:21Z</time></trkpt>
			<trkpt lat="54.953430" lon="20.232820"><ele>18.5</ele><time>2026-05-29T01:14:23Z</time></trkpt>
			<trkpt lat="54.953440" lon="20.232590"><ele>18.6</ele><time>2026-05-29T01:14:26Z</time></trkpt>
			<trkpt lat="54.953450" lon="20.231880"><ele>18.9</ele><time>2026-05-29T01:14:28Z</time></trkpt>
			<trkpt lat="54.953460" lon="20.231260"><ele>19.1</ele><time>2026-05-29T01:14:30Z</time></trkpt>
			<trkpt lat="54.953470" lon="20.231000"><ele>19.3</ele><time>2026-05-29T01:14:33Z</time></trkpt>
			<trkpt lat="54.953470" lon="20.230900"><ele>19.3</ele><time>2026-05-29T01:14:35Z</time></trkpt>
			<trkpt lat="54.953480" lon="20.230160"><ele>19.6</ele><time>2026-05-29T01:14:38Z</time></trkpt>
			<trkpt lat="54.953500" lon="20.229830"><ele>19.8</ele><time>2026-05-29T01:14:40Z</time></trkpt>
			<trkpt lat="54.953510" lon="20.229720"><ele>19.8</ele><time>2026-05-29T01:14:43Z</time></trkpt>
			<trkpt lat="54.953530" lon="20.229610"><ele>19.9</ele><time>2026-05-29T01:14:45Z</time></trkpt>
			<trkpt lat="54.953580" lon="20.229320"><ele>20.0</ele><time>2026-05-29T01:14:47Z</time></trkpt>
			<trkpt lat="54.953610" lon="20.229130"><ele>20.1</ele><time>2026-05-29T01:14:50Z</time></trkpt>
			<trkpt lat="54.953680" lon="20.228720"><ele>20.3</ele><time>2026-05-29T01:14:52Z</time></trkpt>
			<trkpt lat="54.953690" lon="20.228410"><ele>20.4</ele><time>2026-05-29T01:14:55Z</time></trkpt>
			<trkpt lat="54.953680" lon="20.228290"><ele>20.2</ele><time>2026-05-29T01:14:57Z</time></trkpt>
			<trkpt lat="54.953640" lon="20.227630"><ele>19.5</ele><time>2026-05-29T01:15:00Z</time></trkpt>
			<trkpt lat="54.953610" lon="20.227310"><ele>19.1</ele><time>2026-05-29T01:15:02Z</time></trkpt>
			<trkpt lat="54.953620" lon="20.226890"><ele>18.6</ele><time>2026-05-29T01:15:04Z</time></trkpt>
			<trkpt lat="54.953700" lon="20.225810"><ele>17.4</ele><time>2026-05-29T01:15:07Z</time></trkpt>
			<trkpt lat="54.953700" lon="20.225640"><ele>17.2</ele><time>2026-05-29T01:15:09Z</time></trkpt>
			<trkpt lat="54.953680" lon="20.225280"><ele>16.8</ele><time>2026-05-29T01:15:12Z</time></trkpt>
			<trkpt lat="54.953650" lon="20.225170"><ele>16.7</ele><time>2026-05-29T01:15:14Z</time></trkpt>
			<trkpt lat="54.953770" lon="20.225040"><ele>16.4</ele><time>2026-05-29T01:15:17Z</time></trkpt>
			<trkpt lat="54.953890" lon="20.224800"><ele>16.0</ele><time>2026-05-29T01:15:19Z</time></trkpt>
			<trkpt lat="54.953970" lon="20.224580"><ele>15.7</ele><time>2026-05-29T01:15:22Z</time></trkpt>
			<trkpt lat="54.954010" lon="20.224360"><ele>15.5</ele><time>2026-05-29T01:15:24Z</time></trkpt>
			<trkpt lat="54.954040" lon="20.224110"><ele>15.2</ele><time>2026-05-29T01:15:26Z</time></trkpt>
			<trkpt lat="54.954150" lon="20.223190"><ele>14.1</ele><time>2026-05-29T01:15:29Z</time></trkpt>
			<trkpt lat="54.954210" lon="20.222720"><ele>13.6</ele><time>2026-05-29T01:15:31Z</time></trkpt>
			<trkpt lat="54.954250" lon="20.222470"><ele>13.3</ele><time>2026-05-29T01:15:34Z</time></trkpt>
			<trkpt lat="54.954260" lon="20.222360"><ele>13.1</ele><time>2026-05-29T01:15:36Z</time></trkpt>
			<trkpt lat="54.954250" lon="20.221940"><ele>12.7</ele><time>2026-05-29T01:15:39Z</time></trkpt>
			<trkpt lat="54.954270" lon="20.221560"><ele>12.2</ele><time>2026-05-29T01:15:41Z</time></trkpt>
			<trkpt lat="54.954300" lon="20.221460"><ele>12.1</ele><time>2026-05-29T01:15:43Z</time></trkpt>
			<trkpt lat="54.954310" lon="20.221340"><ele>12.0</ele><time>2026-05-29T01:15:46Z</time></trkpt>
			<trkpt lat="54.954310" lon="20.221230"><ele>11.8</ele><time>2026-05-29T01:15:48Z</time></trkpt>
			<trkpt lat="54.954290" lon="20.221120"><ele>11.7</ele><time>2026-05-29T01:15:51Z</time></trkpt>
			<trkpt lat="54.954250" lon="20.221020"><ele>11.6</ele><time>2026-05-29T01:15:53Z</time></trkpt>
			<trkpt lat="54.954210" lon="20.220940"><ele>11.5</ele><time>2026-05-29T01:15:56Z</time></trkpt>
			<trkpt lat="54.954080" lon="20.220840"><ele>11.2</ele><time>2026-05-29T01:15:58Z</time></trkpt>
			<trkpt lat="54.954010" lon="20.220840"><ele>11.0</ele><time>2026-05-29T01:16:00Z</time></trkpt>
			<trkpt lat="54.953940" lon="20.220670"><ele>10.8</ele><time>2026-05-29T01:16:03Z</time></trkpt>
			<trkpt lat="54.953840" lon="20.220110"><ele>10.1</ele><time>2026-05-29T01:16:05Z</time></trkpt>
			<trkpt lat="54.953770" lon="20.219350"><ele>10.3</ele><time>2026-05-29T01:16:08Z</time></trkpt>
			<trkpt lat="54.953690" lon="20.218710"><ele>11.1</ele><time>2026-05-29T01:16:10Z</time></trkpt>
			<trkpt lat="54.953610" lon="20.218370"><ele>11.6</ele><time>2026-05-29T01:16:13Z</time></trkpt>
			<trkpt lat="54.953550" lon="20.218170"><ele>11.8</ele><time>2026-05-29T01:16:15Z</time></trkpt>
			<trkpt lat="54.953490" lon="20.218040"><ele>12.1</ele><time>2026-05-29T01:16:17Z</time></trkpt>
			<trkpt lat="54.953310" lon="20.217730"><ele>12.6</ele><time>2026-05-29T01:16:20Z</time></trkpt>
			<trkpt lat="54.953260" lon="20.217660"><ele>12.7</ele><time>2026-05-29T01:16:22Z</time></trkpt>
			<trkpt lat="54.953140" lon="20.217520"><ele>13.1</ele><time>2026-05-29T01:16:25Z</time></trkpt>
			<trkpt lat="54.953090" lon="20.217440"><ele>13.2</ele><time>2026-05-29T01:16:27Z</time></trkpt>
			<trkpt lat="54.952640" lon="20.216870"><ele>14.4</ele><time>2026-05-29T01:16:30Z</time></trkpt>
			<trkpt lat="54.952470" lon="20.216630"><ele>14.9</ele><time>2026-05-29T01:16:32Z</time></trkpt>
			<trkpt lat="54.952350" lon="20.216440"><ele>15.3</ele><time>2026-05-29T01:16:34Z</time></trkpt>
			<trkpt lat="54.952230" lon="20.216220"><ele>15.6</ele><time>2026-05-29T01:16:37Z</time></trkpt>
			<trkpt lat="54.952130" lon="20.215960"><ele>16.0</ele><time>2026-05-29T01:16:39Z</time></trkpt>
			<trkpt lat="54.951990" lon="20.215520"><ele>16.7</ele><time>2026-05-29T01:16:42Z</time></trkpt>
			<trkpt lat="54.951900" lon="20.215210"><ele>17.1</ele><time>2026-05-29T01:16:44Z</time></trkpt>
			<trkpt lat="54.951850" lon="20.214880"><ele>17.5</ele><time>2026-05-29T01:16:47Z</time></trkpt>
			<trkpt lat="54.951850" lon="20.214440"><ele>18.1</ele><time>2026-05-29T01:16:49Z</time></trkpt>
			<trkpt lat="54.951860" lon="20.214250"><ele>18.3</ele><time>2026-05-29T01:16:52Z</time></trkpt>
			<trkpt lat="54.951890" lon="20.214140"><ele>18.5</ele><time>2026-05-29T01:16:54Z</time></trkpt>
			<trkpt lat="54.951900" lon="20.214050"><ele>18.6</ele><time>2026-05-29T01:16:56Z</time></trkpt>
			<trkpt lat="54.951970" lon="20.213860"><ele>18.9</ele><time>2026-05-29T01:16:59Z</time></trkpt>
			<trkpt lat="54.952070" lon="20.213640"><ele>19.2</ele><time>2026-05-29T01:17:01Z</time></trkpt>
			<trkpt lat="54.952280" lon="20.213200"><ele>20.0</ele><time>2026-05-29T01:17:04Z</time></trkpt>
			<trkpt lat="54.952460" lon="20.212640"><ele>20.8</ele><time>2026-05-29T01:17:06Z</time></trkpt>
			<trkpt lat="54.952560" lon="20.212010"><ele>21.6</ele><time>2026-05-29T01:17:09Z</time></trkpt>
			<trkpt lat="54.952610" lon="20.211760"><ele>21.9</ele><time>2026-05-29T01:17:11Z</time></trkpt>
			<trkpt lat="54.952800" lon="20.210720"><ele>23.1</ele><time>2026-05-29T01:17:13Z</time></trkpt>
			<trkpt lat="54.952860" lon="20.210320"><ele>23.6</ele><time>2026-05-29T01:17:16Z</time></trkpt>
			<trkpt lat="54.952880" lon="20.209750"><ele>24.2</ele><time>2026-05-29T01:17:18Z</time></trkpt>
			<trkpt lat="54.952880" lon="20.209150"><ele>24.9</ele><time>2026-05-29T01:17:21Z</time></trkpt>
			<trkpt lat="54.952840" lon="20.208540"><ele>25.5</ele><time>2026-05-29T01:17:23Z</time></trkpt>
			<trkpt lat="54.952840" lon="20.207770"><ele>26.4</ele><time>2026-05-29T01:17:26Z</time></trkpt>
			<trkpt lat="54.952850" lon="20.207020"><ele>27.2</ele><time>2026-05-29T01:17:28Z</time></trkpt>
			<trkpt lat="54.952850" lon="20.206650"><ele>27.7</ele><time>2026-05-29T01:17:30Z</time></trkpt>
			<trkpt lat="54.952830" lon="20.206470"><ele>27.9</ele><time>2026-05-29T01:17:33Z</time></trkpt>
			<trkpt lat="54.952790" lon="20.206220"><ele>28.2</ele><time>2026-05-29T01:17:35Z</time></trkpt>
			<trkpt lat="54.952710" lon="20.205890"><ele>28.6</ele><time>2026-05-29T01:17:38Z</time></trkpt>
			<trkpt lat="54.952580" lon="20.205560"><ele>29.0</ele><time>2026-05-29T01:17:40Z</time></trkpt>
			<trkpt lat="54.952210" lon="20.204740"><ele>30.2</ele><time>2026-05-29T01:17:43Z</time></trkpt>
			<trkpt lat="54.951950" lon="20.204070"><ele>31.1</ele><time>2026-05-29T01:17:45Z</time></trkpt>
			<trkpt lat="54.951920" lon="20.203990"><ele>31.2</ele><time>2026-05-29T01:17:47Z</time></trkpt>
			<trkpt lat="54.951890" lon="20.203890"><ele>31.3</ele><time>2026-05-29T01:17:50Z</time></trkpt>
			<trkpt lat="54.951770" lon="20.203470"><ele>31.8</ele><time>2026-05-29T01:17:52Z</time></trkpt>
			<trkpt lat="54.951640" lon="20.202850"><ele>32.0</ele><time>2026-05-29T01:17:55Z</time></trkpt>
			<trkpt lat="54.951450" lon="20.201920"><ele>31.9</ele><time>2026-05-29T01:17:57Z</time></trkpt>
			<trkpt lat="54.951270" lon="20.200500"><ele>31.7</ele><time>2026-05-29T01:18:00Z</time></trkpt>
			<trkpt lat="54.951100" lon="20.199880"><ele>31.6</ele><time>2026-05-29T01:18:02Z</time></trkpt>
			<trkpt lat="54.951100" lon="20.199850"><ele>31.6</ele><time>2026-05-29T01:18:04Z</time></trkpt>
			<trkpt lat="54.950860" lon="20.199320"><ele>31.6</ele><time>2026-05-29T01:18:07Z</time></trkpt>
			<trkpt lat="54.950550" lon="20.198580"><ele>31.4</ele><time>2026-05-29T01:18:09Z</time></trkpt>
			<trkpt lat="54.950460" lon="20.198250"><ele>31.4</ele><time>2026-05-29T01:18:12Z</time></trkpt>
			<trkpt lat="54.950410" lon="20.197960"><ele>31.4</ele><time>2026-05-29T01:18:14Z</time></trkpt>
			<trkpt lat="54.950380" lon="20.197660"><ele>31.3</ele><time>2026-05-29T01:18:17Z</time></trkpt>
			<trkpt lat="54.950400" lon="20.197230"><ele>31.3</ele><time>2026-05-29T01:18:19Z</time></trkpt>
			<trkpt lat="54.950610" lon="20.195850"><ele>31.1</ele><time>2026-05-29T01:18:21Z</time></trkpt>
			<trkpt lat="54.950630" lon="20.195390"><ele>31.1</ele><time>2026-05-29T01:18:24Z</time></trkpt>
			<trkpt lat="54.950540" lon="20.194400"><ele>30.9</ele><time>2026-05-29T01:18:26Z</time></trkpt>
			<trkpt lat="54.950550" lon="20.194210"><ele>30.8</ele><time>2026-05-29T01:18:29Z</time></trkpt>
			<trkpt lat="54.950540" lon="20.193450"><ele>30.3</ele><time>2026-05-29T01:18:31Z</time></trkpt>
			<trkpt lat="54.950550" lon="20.192550"><ele>29.7</ele><time>2026-05-29T01:18:34Z</time></trkpt>
			<trkpt lat="54.950560" lon="20.192380"><ele>29.5</ele><time>2026-05-29T01:18:36Z</time></trkpt>
			<trkpt lat="54.950570" lon="20.192190"><ele>29.4</ele><time>2026-05-29T01:18:39Z</time></trkpt>
			<trkpt lat="54.950600" lon="20.191860"><ele>29.2</ele><time>2026-05-29T01:18:41Z</time></trkpt>
			<trkpt lat="54.950630" lon="20.191620"><ele>29.0</ele><time>2026-05-29T01:18:43Z</time></trkpt>
			<trkpt lat="54.950710" lon="20.191130"><ele>28.7</ele><time>2026-05-29T01:18:46Z</time></trkpt>
			<trkpt lat="54.950740" lon="20.190780"><ele>28.5</ele><time>2026-05-29T01:18:48Z</time></trkpt>
			<trkpt lat="54.950750" lon="20.190660"><ele>28.4</ele><time>2026-05-29T01:18:51Z</time></trkpt>
			<trkpt lat="54.950720" lon="20.190480"><ele>28.3</ele><time>2026-05-29T01:18:53Z</time></trkpt>
			<trkpt lat="54.950650" lon="20.190200"><ele>28.1</ele><time>2026-05-29T01:18:56Z</time></trkpt>
			<trkpt lat="54.950510" lon="20.189730"><ele>27.7</ele><time>2026-05-29T01:18:58Z</time></trkpt>
			<trkpt lat="54.950340" lon="20.189230"><ele>27.3</ele><time>2026-05-29T01:19:00Z</time></trkpt>
			<trkpt lat="54.950290" lon="20.189020"><ele>27.2</ele><time>2026-05-29T01:19:03Z</time></trkpt>
			<trkpt lat="54.950310" lon="20.189010"><ele>27.1</ele><time>2026-05-29T01:19:05Z</time></trkpt>
			<trkpt lat="54.950340" lon="20.188940"><ele>27.1</ele><time>2026-05-29T01:19:08Z</time></trkpt>
			<trkpt lat="54.950360" lon="20.188860"><ele>27.0</ele><time>2026-05-29T01:19:10Z</time></trkpt>
			<trkpt lat="54.950370" lon="20.188770"><ele>27.0</ele><time>2026-05-29T01:19:13Z</time></trkpt>
			<trkpt lat="54.950370" lon="20.188740"><ele>26.9</ele><time>2026-05-29T01:19:15Z</time></trkpt>
			<trkpt lat="54.950360" lon="20.188680"><ele>26.9</ele><time>2026-05-29T01:19:17Z</time></trkpt>
			<trkpt lat="54.950330" lon="20.188610"><ele>26.8</ele><time>2026-05-29T01:19:20Z</time></trkpt>
			<trkpt lat="54.950290" lon="20.188550"><ele>26.8</ele><time>2026-05-29T01:19:22Z</time></trkpt>
			<trkpt lat="54.950240" lon="20.188520"><ele>26.7</ele><time>2026-05-29T01:19:25Z</time></trkpt>
			<trkpt lat="54.950190" lon="20.188520"><ele>26.7</ele><time>2026-05-29T01:19:27Z</time></trkpt>
			<trkpt lat="54.950150" lon="20.188550"><ele>26.6</ele><time>2026-05-29T01:19:30Z</time></trkpt>
			<trkpt lat="54.950110" lon="20.188600"><ele>26.6</ele><time>2026-05-29T01:19:32Z</time></trkpt>
			<trkpt lat="54.950080" lon="20.188670"><ele>26.5</ele><time>2026-05-29T01:19:34Z</time></trkpt>
			<trkpt lat="54.950060" lon="20.188750"><ele>26.4</ele><time>2026-05-29T01:19:37Z</time></trkpt>
			<trkpt lat="54.950060" lon="20.188800"><ele>26.4</ele><time>2026-05-29T01:19:39Z</time></trkpt>
			<trkpt lat="54.949900" lon="20.188690"><ele>26.2</ele><time>2026-05-29T01:19:42Z</time></trkpt>
			<trkpt lat="54.949760" lon="20.188550"><ele>26.0</ele><time>2026-05-29T01:19:44Z</time></trkpt>
			<trkpt lat="54.949670" lon="20.188420"><ele>25.9</ele><time>2026-05-29T01:19:47Z</time></trkpt>
			<trkpt lat="54.949450" lon="20.188110"><ele>25.6</ele><time>2026-05-29T01:19:49Z</time></trkpt>
			<trkpt lat="54.949280" lon="20.187940"><ele>25.3</ele><time>2026-05-29T01:19:51Z</time></trkpt>
			<trkpt lat="54.949120" lon="20.187810"><ele>25.1</ele><time>2026-05-29T01:19:54Z</time></trkpt>
			<trkpt lat="54.948940" lon="20.187740"><ele>24.9</ele><time>2026-05-29T01:19:56Z</time></trkpt>
			<trkpt lat="54.948760" lon="20.187750"><ele>24.7</ele><time>2026-05-29T01:19:59Z</time></trkpt>
			<trkpt lat="54.948520" lon="20.187840"><ele>24.9</ele><time>2026-05-29T01:20:01Z</time></trkpt>
			<trkpt lat="54.948110" lon="20.187960"><ele>25.2</ele><time>2026-05-29T01:20:04Z</time></trkpt>
			<trkpt lat="54.947840" lon="20.187960"><ele>25.4</ele><time>2026-05-29T01:20:06Z</time></trkpt>
			<trkpt lat="54.947820" lon="20.187550"><ele>25.6</ele><time>2026-05-29T01:20:08Z</time></trkpt>
			<trkpt lat="54.947810" lon="20.187460"><ele>25.6</ele><time>2026-05-29T01:20:11Z</time></trkpt>
			<trkpt lat="54.947750" lon="20.187370"><ele>25.7</ele><time>2026-05-29T01:20:13Z</time></trkpt>
			<trkpt lat="54.947670" lon="20.187330"><ele>25.8</ele><time>2026-05-29T01:20:16Z</time></trkpt>
			<trkpt lat="54.947480" lon="20.187340"><ele>25.9</ele><time>2026-05-29T01:20:18Z</time></trkpt>
			<trkpt lat="54.947360" lon="20.187300"><ele>26.0</ele><time>2026-05-29T01:20:21Z</time></trkpt>
			<trkpt lat="54.947290" lon="20.187150"><ele>26.1</ele><time>2026-05-29T01:20:23Z</time></trkpt>
			<trkpt lat="54.947190" lon="20.186500"><ele>26.4</ele><time>2026-05-29T01:20:26Z</time></trkpt>
			<trkpt lat="54.947140" lon="20.186010"><ele>26.6</ele><time>2026-05-29T01:20:28Z</time></trkpt>
			<trkpt lat="54.947150" lon="20.185420"><ele>26.9</ele><time>2026-05-29T01:20:30Z</time></trkpt>
			<trkpt lat="54.947130" lon="20.185220"><ele>27.0</ele><time>2026-05-29T01:20:33Z</time></trkpt>
			<trkpt lat="54.947040" lon="20.184940"><ele>27.1</ele><time>2026-05-29T01:20:35Z</time></trkpt>
			<trkpt lat="54.946720" lon="20.184350"><ele>27.5</ele><time>2026-05-29T01:20:38Z</time></trkpt>
			<trkpt lat="54.946140" lon="20.183310"><ele>28.2</ele><time>2026-05-29T01:20:40Z</time></trkpt>
			<trkpt lat="54.945690" lon="20.182350"><ele>28.7</ele><time>2026-05-29T01:20:43Z</time></trkpt>
			<trkpt lat="54.945640" lon="20.182270"><ele>28.8</ele><time>2026-05-29T01:20:45Z</time></trkpt>
			<trkpt lat="54.945010" lon="20.181370"><ele>28.8</ele><time>2026-05-29T01:20:47Z</time></trkpt>
			<trkpt lat="54.945010" lon="20.181370"><ele>28.8</ele><time>2026-05-29T01:20:51Z</time></trkpt>
			<trkpt lat="54.944480" lon="20.180630"><ele>28.6</ele><time>2026-05-29T01:20:55Z</time></trkpt>
			<trkpt lat="54.943790" lon="20.179510"><ele>28.3</ele><time>2026-05-29T01:20:59Z</time></trkpt>
			<trkpt lat="54.943650" lon="20.179230"><ele>28.3</ele><time>2026-05-29T01:21:02Z</time></trkpt>
			<trkpt lat="54.943200" lon="20.178260"><ele>28.0</ele><time>2026-05-29T01:21:06Z</time></trkpt>
			<trkpt lat="54.943190" lon="20.178230"><ele>28.0</ele><time>2026-05-29T01:21:10Z</time></trkpt>
			<trkpt lat="54.942750" lon="20.177430"><ele>27.9</ele><time>2026-05-29T01:21:13Z</time></trkpt>
			<trkpt lat="54.942050" lon="20.176720"><ele>27.6</ele><time>2026-05-29T01:21:17Z</time></trkpt>
			<trkpt lat="54.941410" lon="20.176110"><ele>27.4</ele><time>2026-05-29T01:21:21Z</time></trkpt>
			<trkpt lat="54.941110" lon="20.175950"><ele>27.8</ele><time>2026-05-29T01:21:25Z</time></trkpt>
			<trkpt lat="54.940880" lon="20.175780"><ele>28.2</ele><time>2026-05-29T01:21:28Z</time></trkpt>
			<trkpt lat="54.940250" lon="20.175150"><ele>29.3</ele><time>2026-05-29T01:21:32Z</time></trkpt>
			<trkpt lat="54.939100" lon="20.174460"><ele>31.2</ele><time>2026-05-29T01:21:36Z</time></trkpt>
			<trkpt lat="54.938840" lon="20.174120"><ele>31.7</ele><time>2026-05-29T01:21:40Z</time></trkpt>
			<trkpt lat="54.938650" lon="20.173860"><ele>32.1</ele><time>2026-05-29T01:21:43Z</time></trkpt>
			<trkpt lat="54.938350" lon="20.174310"><ele>32.7</ele><time>2026-05-29T01:21:47Z</time></trkpt>
			<trkpt lat="54.937990" lon="20.173520"><ele>33.6</ele><time>2026-05-29T01:21:51Z</time></trkpt>
			<trkpt lat="54.937580" lon="20.172440"><ele>34.8</ele><time>2026-05-29T01:21:54Z</time></trkpt>
			<trkpt lat="54.937070" lon="20.171300"><ele>35.9</ele><time>2026-05-29T01:21:58Z</time></trkpt>
			<trkpt lat="54.936710" lon="20.170580"><ele>35.9</ele><time>2026-05-29T01:22:02Z</time></trkpt>
			<trkpt lat="54.936460" lon="20.170070"><ele>35.9</ele><time>2026-05-29T01:22:06Z</time></trkpt>
			<trkpt lat="54.935190" lon="20.167290"><ele>36.0</ele><time>2026-05-29T01:22:09Z</time></trkpt>
			<trkpt lat="54.933940" lon="20.164390"><ele>36.0</ele><time>2026-05-29T01:22:13Z</time></trkpt>
			<trkpt lat="54.933620" lon="20.163440"><ele>37.2</ele><time>2026-05-29T01:22:17Z</time></trkpt>
			<trkpt lat="54.933410" lon="20.162690"><ele>38.5</ele><time>2026-05-29T01:22:21Z</time></trkpt>
			<trkpt lat="54.933320" lon="20.162330"><ele>39.2</ele><time>2026-05-29T01:22:24Z</time></trkpt>
			<trkpt lat="54.932850" lon="20.163000"><ele>40.8</ele><time>2026-05-29T01:22:28Z</time></trkpt>
			<trkpt lat="54.932630" lon="20.163300"><ele>41.6</ele><time>2026-05-29T01:22:32Z</time></trkpt>
			<trkpt lat="54.932210" lon="20.163900"><ele>43.1</ele><time>2026-05-29T01:22:35Z</time></trkpt>
			<trkpt lat="54.931980" lon="20.164220"><ele>43.9</ele><time>2026-05-29T01:22:39Z</time></trkpt>
			<trkpt lat="54.931290" lon="20.165180"><ele>46.3</ele><time>2026-05-29T01:22:43Z</time></trkpt>
			<trkpt lat="54.931200" lon="20.165310"><ele>46.6</ele><time>2026-05-29T01:22:47Z</time></trkpt>
			<trkpt lat="54.930680" lon="20.166030"><ele>48.4</ele><time>2026-05-29T01:22:50Z</time></trkpt>
			<trkpt lat="54.930350" lon="20.166520"><ele>49.6</ele><time>2026-05-29T01:22:54Z</time></trkpt>
			<trkpt lat="54.930290" lon="20.166590"><ele>49.8</ele><time>2026-05-29T01:22:58Z</time></trkpt>
			<trkpt lat="54.929690" lon="20.167460"><ele>50.5</ele><time>2026-05-29T01:23:02Z</time></trkpt>
			<trkpt lat="54.929600" lon="20.167540"><ele>50.4</ele><time>2026-05-29T01:23:05Z</time></trkpt>
			<trkpt lat="54.929490" lon="20.167580"><ele>50.3</ele><time>2026-05-29T01:23:09Z</time></trkpt>
			<trkpt lat="54.929420" lon="20.167570"><ele>50.2</ele><time>2026-05-29T01:23:13Z</time></trkpt>
			<trkpt lat="54.929340" lon="20.167590"><ele>50.2</ele><time>2026-05-29T01:23:16Z</time></trkpt>
			<trkpt lat="54.929280" lon="20.167640"><ele>50.1</ele><time>2026-05-29T01:23:20Z</time></trkpt>
			<trkpt lat="54.929210" lon="20.167760"><ele>50.0</ele><time>2026-05-29T01:23:24Z</time></trkpt>
			<trkpt lat="54.929170" lon="20.167920"><ele>50.0</ele><time>2026-05-29T01:23:28Z</time></trkpt>
			<trkpt lat="54.929180" lon="20.168070"><ele>49.9</ele><time>2026-05-29T01:23:31Z</time></trkpt>
			<trkpt lat="54.929220" lon="20.168230"><ele>49.8</ele><time>2026-05-29T01:23:35Z</time></trkpt>
			<trkpt lat="54.929200" lon="20.168550"><ele>49.7</ele><time>2026-05-29T01:23:39Z</time></trkpt>
			<trkpt lat="54.929140" lon="20.168720"><ele>49.6</ele><time>2026-05-29T01:23:43Z</time></trkpt>
			<trkpt lat="54.928800" lon="20.169450"><ele>49.1</ele><time>2026-05-29T01:23:46Z</time></trkpt>
			<trkpt lat="54.928490" lon="20.170220"><ele>48.7</ele><time>2026-05-29T01:23:50Z</time></trkpt>
			<trkpt lat="54.928340" lon="20.170620"><ele>48.5</ele><time>2026-05-29T01:23:54Z</time></trkpt>
			<trkpt lat="54.928140" lon="20.171090"><ele>48.2</ele><time>2026-05-29T01:23:57Z</time></trkpt>
			<trkpt lat="54.927980" lon="20.171430"><ele>48.0</ele><time>2026-05-29T01:24:01Z</time></trkpt>
			<trkpt lat="54.927830" lon="20.171700"><ele>47.8</ele><time>2026-05-29T01:24:05Z</time></trkpt>
			<trkpt lat="54.927550" lon="20.172100"><ele>47.5</ele><time>2026-05-29T01:24:09Z</time></trkpt>
			<trkpt lat="54.927090" lon="20.172700"><ele>47.1</ele><time>2026-05-29T01:24:12Z</time></trkpt>
			<trkpt lat="54.926630" lon="20.173240"><ele>46.6</ele><time>2026-05-29T01:24:16Z</time></trkpt>
			<trkpt lat="54.925680" lon="20.174380"><ele>47.1</ele><time>2026-05-29T01:24:20Z</time></trkpt>
			<trkpt lat="54.923980" lon="20.176530"><ele>48.5</ele><time>2026-05-29T01:24:24Z</time></trkpt>
			<trkpt lat="54.922920" lon="20.177940"><ele>49.4</ele><time>2026-05-29T01:24:27Z</time></trkpt>
			<trkpt lat="54.922030" lon="20.179110"><ele>50.3</ele><time>2026-05-29T01:24:31Z</time></trkpt>
			<trkpt lat="54.921760" lon="20.178820"><ele>50.9</ele><time>2026-05-29T01:24:35Z</time></trkpt>
			<trkpt lat="54.920740" lon="20.177820"><ele>53.2</ele><time>2026-05-29T01:24:38Z</time></trkpt>
			<trkpt lat="54.920600" lon="20.177680"><ele>53.5</ele><time>2026-05-29T01:24:42Z</time></trkpt>
			<trkpt lat="54.920600" lon="20.177680"><ele>53.5</ele><time>2026-05-29T01:24:50Z</time></trkpt>
			<trkpt lat="54.920260" lon="20.177300"><ele>54.3</ele><time>2026-05-29T01:24:57Z</time></trkpt>
			<trkpt lat="54.919730" lon="20.176580"><ele>55.6</ele><time>2026-05-29T01:25:05Z</time></trkpt>
			<trkpt lat="54.919060" lon="20.175760"><ele>57.2</ele><time>2026-05-29T01:25:13Z</time></trkpt>
			<trkpt lat="54.918820" lon="20.175490"><ele>57.8</ele><time>2026-05-29T01:25:21Z</time></trkpt>
			<trkpt lat="54.918000" lon="20.174690"><ele>59.6</ele><time>2026-05-29T01:25:28Z</time></trkpt>
			<trkpt lat="54.917910" lon="20.174620"><ele>59.8</ele><time>2026-05-29T01:25:36Z</time></trkpt>
			<trkpt lat="54.917710" lon="20.174500"><ele>60.2</ele><time>2026-05-29T01:25:44Z</time></trkpt>
			<trkpt lat="54.917650" lon="20.174400"><ele>60.4</ele><time>2026-05-29T01:25:51Z</time></trkpt>
			<trkpt lat="54.917480" lon="20.173870"><ele>60.6</ele><time>2026-05-29T01:25:59Z</time></trkpt>
			<trkpt lat="54.917360" lon="20.173670"><ele>60.6</ele><time>2026-05-29T01:26:07Z</time></trkpt>
			<trkpt lat="54.917270" lon="20.173610"><ele>60.6</ele><time>2026-05-29T01:26:14Z</time></trkpt>
			<trkpt lat="54.917170" lon="20.173570"><ele>60.6</ele><time>2026-05-29T01:26:22Z</time></trkpt>
			<trkpt lat="54.917010" lon="20.173560"><ele>60.6</ele><time>2026-05-29T01:26:30Z</time></trkpt>
			<trkpt lat="54.916950" lon="20.173570"><ele>60.5</ele><time>2026-05-29T01:26:37Z</time></trkpt>
			<trkpt lat="54.916900" lon="20.173530"><ele>60.5</ele><time>2026-05-29T01:26:45Z</time></trkpt>
			<trkpt lat="54.916860" lon="20.173500"><ele>60.5</ele><time>2026-05-29T01:26:53Z</time></trkpt>
			<trkpt lat="54.916670" lon="20.173140"><ele>60.5</ele><time>2026-05-29T01:27:00Z</time></trkpt>
			<trkpt lat="54.916590" lon="20.172860"><ele>60.5</ele><time>2026-05-29T01:27:08Z</time></trkpt>
			<trkpt lat="54.916360" lon="20.171670"><ele>60.4</ele><time>2026-05-29T01:27:16Z</time></trkpt>
			<trkpt lat="54.916310" lon="20.171390"><ele>60.3</ele><time>2026-05-29T01:27:23Z</time></trkpt>
			<trkpt lat="54.916090" lon="20.170230"><ele>60.2</ele><time>2026-05-29T01:27:31Z</time></trkpt>
			<trkpt lat="54.916030" lon="20.169910"><ele>60.2</ele><time>2026-05-29T01:27:39Z</time></trkpt>
			<trkpt lat="54.915710" lon="20.169060"><ele>60.1</ele><time>2026-05-29T01:27:46Z</time></trkpt>
			<trkpt lat="54.915580" lon="20.168520"><ele>60.1</ele><time>2026-05-29T01:27:54Z</time></trkpt>
			<trkpt lat="54.915550" lon="20.168220"><ele>60.0</ele><time>2026-05-29T01:28:02Z</time></trkpt>
			<trkpt lat="54.915520" lon="20.167910"><ele>60.0</ele><time>2026-05-29T01:28:09Z</time></trkpt>
			<trkpt lat="54.915450" lon="20.167130"><ele>59.9</ele><time>2026-05-29T01:28:17Z</time></trkpt>
			<trkpt lat="54.914920" lon="20.161310"><ele>54.9</ele><time>2026-05-29T01:28:25Z</time></trkpt>
			<trkpt lat="54.914920" lon="20.161280"><ele>54.9</ele><time>2026-05-29T01:28:33Z</time></trkpt>
			<trkpt lat="54.914640" lon="20.158140"><ele>51.7</ele><time>2026-05-29T01:28:40Z</time></trkpt>
			<trkpt lat="54.914460" lon="20.157340"><ele>50.8</ele><time>2026-05-29T01:28:48Z</time></trkpt>
			<trkpt lat="54.914020" lon="20.156180"><ele>52.5</ele><time>2026-05-29T01:28:56Z</time></trkpt>
			<trkpt lat="54.913910" lon="20.155880"><ele>53.2</ele><time>2026-05-29T01:29:03Z</time></trkpt>
			<trkpt lat="54.911830" lon="20.150330"><ele>66.9</ele><time>2026-05-29T01:29:11Z</time></trkpt>
			<trkpt lat="54.910700" lon="20.147250"><ele>68.0</ele><time>2026-05-29T01:29:19Z</time></trkpt>
			<trkpt lat="54.910650" lon="20.147100"><ele>67.8</ele><time>2026-05-29T01:29:26Z</time></trkpt>
			<trkpt lat="54.910560" lon="20.146870"><ele>67.6</ele><time>2026-05-29T01:29:34Z</time></trkpt>
			<trkpt lat="54.909010" lon="20.142560"><ele>63.2</ele><time>2026-05-29T01:29:42Z</time></trkpt>
			<trkpt lat="54.908210" lon="20.140400"><ele>61.8</ele><time>2026-05-29T01:29:49Z</time></trkpt>
			<trkpt lat="54.907540" lon="20.139230"><ele>61.8</ele><time>2026-05-29T01:29:57Z</time></trkpt>
			<trkpt lat="54.906470" lon="20.137330"><ele>61.9</ele><time>2026-05-29T01:30:05Z</time></trkpt>
			<trkpt lat="54.905230" lon="20.135160"><ele>61.9</ele><time>2026-05-29T01:30:12Z</time></trkpt>
			<trkpt lat="54.903960" lon="20.132950"><ele>61.3</ele><time>2026-05-29T01:30:20Z</time></trkpt>
			<trkpt lat="54.903710" lon="20.132440"><ele>61.1</ele><time>2026-05-29T01:30:28Z</time></trkpt>
			<trkpt lat="54.902840" lon="20.130430"><ele>60.3</ele><time>2026-05-29T01:30:35Z</time></trkpt>
			<trkpt lat="54.902710" lon="20.130120"><ele>60.2</ele><time>2026-05-29T01:30:43Z</time></trkpt>
			<trkpt lat="54.901840" lon="20.128040"><ele>59.4</ele><time>2026-05-29T01:30:51Z</time></trkpt>
			<trkpt lat="54.901680" lon="20.127670"><ele>59.3</ele><time>2026-05-29T01:30:58Z</time></trkpt>
			<trkpt lat="54.901550" lon="20.127370"><ele>59.2</ele><time>2026-05-29T01:31:06Z</time></trkpt>
			<trkpt lat="54.901290" lon="20.126730"><ele>59.0</ele><time>2026-05-29T01:31:14Z</time></trkpt>
			<trkpt lat="54.901220" lon="20.126420"><ele>59.0</ele><time>2026-05-29T01:31:21Z</time></trkpt>
			<trkpt lat="54.901120" lon="20.125700"><ele>59.0</ele><time>2026-05-29T01:31:29Z</time></trkpt>
			<trkpt lat="54.901090" lon="20.125440"><ele>59.0</ele><time>2026-05-29T01:31:37Z</time></trkpt>
			<trkpt lat="54.901010" lon="20.124710"><ele>59.0</ele><time>2026-05-29T01:31:44Z</time></trkpt>
			<trkpt lat="54.900980" lon="20.124510"><ele>59.0</ele><time>2026-05-29T01:31:52Z</time></trkpt>
			<trkpt lat="54.900950" lon="20.124370"><ele>59.0</ele><time>2026-05-29T01:32:00Z</time></trkpt>
			<trkpt lat="54.900910" lon="20.124200"><ele>59.0</ele><time>2026-05-29T01:32:08Z</time></trkpt>
			<trkpt lat="54.900550" lon="20.123200"><ele>58.9</ele><time>2026-05-29T01:32:15Z</time></trkpt>
			<trkpt lat="54.900420" lon="20.122600"><ele>58.9</ele><time>2026-05-29T01:32:23Z</time></trkpt>
			<trkpt lat="54.900280" lon="20.121840"><ele>58.9</ele><time>2026-05-29T01:32:31Z</time></trkpt>
			<trkpt lat="54.900160" lon="20.121410"><ele>58.9</ele><time>2026-05-29T01:32:38Z</time></trkpt>
			<trkpt lat="54.899590" lon="20.119820"><ele>58.8</ele><time>2026-05-29T01:32:46Z</time></trkpt>
			<trkpt lat="54.898520" lon="20.117040"><ele>59.3</ele><time>2026-05-29T01:32:54Z</time></trkpt>
			<trkpt lat="54.897210" lon="20.113690"><ele>60.4</ele><time>2026-05-29T01:33:01Z</time></trkpt>
			<trkpt lat="54.894840" lon="20.107580"><ele>58.2</ele><time>2026-05-29T01:33:09Z</time></trkpt>
			<trkpt lat="54.894810" lon="20.107500"><ele>58.2</ele><time>2026-05-29T01:33:17Z</time></trkpt>
			<trkpt lat="54.893840" lon="20.104990"><ele>55.8</ele><time>2026-05-29T01:33:24Z</time></trkpt>
			<trkpt lat="54.893780" lon="20.104720"><ele>55.6</ele><time>2026-05-29T01:33:32Z</time></trkpt>
			<trkpt lat="54.891870" lon="20.104990"><ele>53.8</ele><time>2026-05-29T01:33:40Z</time></trkpt>
			<trkpt lat="54.889970" lon="20.105250"><ele>53.4</ele><time>2026-05-29T01:33:47Z</time></trkpt>
			<trkpt lat="54.889450" lon="20.105370"><ele>53.3</ele><time>2026-05-29T01:33:55Z</time></trkpt>
			<trkpt lat="54.887150" lon="20.105750"><ele>52.7</ele><time>2026-05-29T01:34:03Z</time></trkpt>
			<trkpt lat="54.886670" lon="20.105790"><ele>52.4</ele><time>2026-05-29T01:34:10Z</time></trkpt>
			<trkpt lat="54.883860" lon="20.105400"><ele>50.6</ele><time>2026-05-29T01:34:18Z</time></trkpt>
			<trkpt lat="54.882180" lon="20.105230"><ele>49.6</ele><time>2026-05-29T01:34:26Z</time></trkpt>
			<trkpt lat="54.881530" lon="20.104860"><ele>49.0</ele><time>2026-05-29T01:34:33Z</time></trkpt>
			<trkpt lat="54.881040" lon="20.104500"><ele>48.4</ele><time>2026-05-29T01:34:41Z</time></trkpt>
			<trkpt lat="54.877940" lon="20.102370"><ele>44.8</ele><time>2026-05-29T01:34:49Z</time></trkpt>
			<trkpt lat="54.877610" lon="20.102160"><ele>44.4</ele><time>2026-05-29T01:34:56Z</time></trkpt>
			<trkpt lat="54.876020" lon="20.101010"><ele>43.4</ele><time>2026-05-29T01:35:04Z</time></trkpt>
			<trkpt lat="54.875470" lon="20.100560"><ele>43.3</ele><time>2026-05-29T01:35:12Z</time></trkpt>
			<trkpt lat="54.874110" lon="20.099290"><ele>43.0</ele><time>2026-05-29T01:35:20Z</time></trkpt>
			<trkpt lat="54.873640" lon="20.098880"><ele>42.9</ele><time>2026-05-29T01:35:27Z</time></trkpt>
			<trkpt lat="54.873070" lon="20.098400"><ele>42.8</ele><time>2026-05-29T01:35:35Z</time></trkpt>
			<trkpt lat="54.872890" lon="20.098240"><ele>42.8</ele><time>2026-05-29T01:35:43Z</time></trkpt>
			<trkpt lat="54.872400" lon="20.097830"><ele>42.7</ele><time>2026-05-29T01:35:50Z</time></trkpt>
			<trkpt lat="54.872180" lon="20.097780"><ele>42.7</ele><time>2026-05-29T01:35:58Z</time></trkpt>
			<trkpt lat="54.871830" lon="20.097770"><ele>42.6</ele><time>2026-05-29T01:36:06Z</time></trkpt>
			<trkpt lat="54.871570" lon="20.097850"><ele>42.6</ele><time>2026-05-29T01:36:13Z</time></trkpt>
			<trkpt lat="54.870920" lon="20.098500"><ele>42.4</ele><time>2026-05-29T01:36:21Z</time></trkpt>
			<trkpt lat="54.859600" lon="20.110080"><ele>40.7</ele><time>2026-05-29T01:36:29Z</time></trkpt>
			<trkpt lat="54.853800" lon="20.115990"><ele>38.8</ele><time>2026-05-29T01:36:36Z</time></trkpt>
			<trkpt lat="54.847920" lon="20.121990"><ele>42.6</ele><time>2026-05-29T01:36:44Z</time></trkpt>
			<trkpt lat="54.840770" lon="20.129270"><ele>42.9</ele><time>2026-05-29T01:36:52Z</time></trkpt>
			<trkpt lat="54.838440" lon="20.131650"><ele>42.3</ele><time>2026-05-29T01:36:59Z</time></trkpt>
			<trkpt lat="54.837140" lon="20.132950"><ele>40.1</ele><time>2026-05-29T01:37:07Z</time></trkpt>
			<trkpt lat="54.836920" lon="20.133180"><ele>39.8</ele><time>2026-05-29T01:37:15Z</time></trkpt>
			<trkpt lat="54.836910" lon="20.133190"><ele>39.7</ele><time>2026-05-29T01:37:22Z</time></trkpt>
			<trkpt lat="54.836180" lon="20.133990"><ele>38.5</ele><time>2026-05-29T01:37:30Z</time></trkpt>
			<trkpt lat="54.833010" lon="20.139220"><ele>33.8</ele><time>2026-05-29T01:37:38Z</time></trkpt>
			<trkpt lat="54.831210" lon="20.142260"><ele>31.8</ele><time>2026-05-29T01:37:45Z</time></trkpt>
			<trkpt lat="54.830840" lon="20.142830"><ele>31.6</ele><time>2026-05-29T01:37:53Z</time></trkpt>
			<trkpt lat="54.830720" lon="20.142970"><ele>31.7</ele><time>2026-05-29T01:38:01Z</time></trkpt>
			<trkpt lat="54.830510" lon="20.143200"><ele>31.7</ele><time>2026-05-29T01:38:08Z</time></trkpt>
			<trkpt lat="54.826580" lon="20.146470"><ele>33.3</ele><time>2026-05-29T01:38:16Z</time></trkpt>
			<trkpt lat="54.825880" lon="20.147000"><ele>32.9</ele><time>2026-05-29T01:38:24Z</time></trkpt>
			<trkpt lat="54.825880" lon="20.147000"><ele>32.9</ele><time>2026-05-29T01:38:30Z</time></trkpt>
			<trkpt lat="54.824810" lon="20.147820"><ele>31.0</ele><time>2026-05-29T01:38:37Z</time></trkpt>
			<trkpt lat="54.823030" lon="20.149040"><ele>27.9</ele><time>2026-05-29T01:38:44Z</time></trkpt>
			<trkpt lat="54.822600" lon="20.149460"><ele>27.1</ele><time>2026-05-29T01:38:50Z</time></trkpt>
			<trkpt lat="54.819340" lon="20.153080"><ele>25.1</ele><time>2026-05-29T01:38:57Z</time></trkpt>
			<trkpt lat="54.819210" lon="20.153240"><ele>25.2</ele><time>2026-05-29T01:39:03Z</time></trkpt>
			<trkpt lat="54.818370" lon="20.154130"><ele>25.4</ele><time>2026-05-29T01:39:10Z</time></trkpt>
			<trkpt lat="54.815000" lon="20.156280"><ele>25.8</ele><time>2026-05-29T01:39:17Z</time></trkpt>
			<trkpt lat="54.814070" lon="20.156850"><ele>25.8</ele><time>2026-05-29T01:39:23Z</time></trkpt>
			<trkpt lat="54.814770" lon="20.164510"><ele>24.5</ele><time>2026-05-29T01:39:30Z</time></trkpt>
			<trkpt lat="54.814890" lon="20.165810"><ele>23.9</ele><time>2026-05-29T01:39:36Z</time></trkpt>
			<trkpt lat="54.814900" lon="20.166470"><ele>23.7</ele><time>2026-05-29T01:39:43Z</time></trkpt>
			<trkpt lat="54.814900" lon="20.166850"><ele>23.5</ele><time>2026-05-29T01:39:50Z</time></trkpt>
			<trkpt lat="54.814880" lon="20.170000"><ele>22.2</ele><time>2026-05-29T01:39:56Z</time></trkpt>
			<trkpt lat="54.814790" lon="20.174080"><ele>23.1</ele><time>2026-05-29T01:40:03Z</time></trkpt>
			<trkpt lat="54.814710" lon="20.178770"><ele>25.0</ele><time>2026-05-29T01:40:09Z</time></trkpt>
			<trkpt lat="54.814640" lon="20.178780"><ele>25.1</ele><time>2026-05-29T01:40:16Z</time></trkpt>
			<trkpt lat="54.814220" lon="20.179100"><ele>25.4</ele><time>2026-05-29T01:40:23Z</time></trkpt>
			<trkpt lat="54.812960" lon="20.180220"><ele>26.1</ele><time>2026-05-29T01:40:29Z</time></trkpt>
			<trkpt lat="54.811360" lon="20.181670"><ele>26.9</ele><time>2026-05-29T01:40:36Z</time></trkpt>
			<trkpt lat="54.811320" lon="20.181710"><ele>26.9</ele><time>2026-05-29T01:40:42Z</time></trkpt>
			<trkpt lat="54.809360" lon="20.183400"><ele>27.9</ele><time>2026-05-29T01:40:49Z</time></trkpt>
			<trkpt lat="54.808360" lon="20.184310"><ele>27.9</ele><time>2026-05-29T01:40:56Z</time></trkpt>
			<trkpt lat="54.806620" lon="20.185930"><ele>27.6</ele><time>2026-05-29T01:41:02Z</time></trkpt>
			<trkpt lat="54.806410" lon="20.186140"><ele>27.6</ele><time>2026-05-29T01:41:09Z</time></trkpt>
			<trkpt lat="54.805090" lon="20.187370"><ele>27.3</ele><time>2026-05-29T01:41:15Z</time></trkpt>
			<trkpt lat="54.800440" lon="20.191450"><ele>33.6</ele><time>2026-05-29T01:41:22Z</time></trkpt>
			<trkpt lat="54.799550" lon="20.192250"><ele>35.1</ele><time>2026-05-29T01:41:28Z</time></trkpt>
			<trkpt lat="54.798000" lon="20.193830"><ele>38.3</ele><time>2026-05-29T01:41:35Z</time></trkpt>
			<trkpt lat="54.797420" lon="20.194520"><ele>39.5</ele><time>2026-05-29T01:41:42Z</time></trkpt>
			<trkpt lat="54.796320" lon="20.195840"><ele>41.9</ele><time>2026-05-29T01:41:48Z</time></trkpt>
			<trkpt lat="54.795360" lon="20.196930"><ele>43.9</ele><time>2026-05-29T01:41:55Z</time></trkpt>
			<trkpt lat="54.794240" lon="20.198170"><ele>47.4</ele><time>2026-05-29T01:42:01Z</time></trkpt>
			<trkpt lat="54.793340" lon="20.198800"><ele>50.5</ele><time>2026-05-29T01:42:08Z</time></trkpt>
			<trkpt lat="54.791720" lon="20.199730"><ele>55.8</ele><time>2026-05-29T01:42:15Z</time></trkpt>
			<trkpt lat="54.791510" lon="20.200030"><ele>56.6</ele><time>2026-05-29T01:42:21Z</time></trkpt>
			<trkpt lat="54.791360" lon="20.200820"><ele>58.1</ele><time>2026-05-29T01:42:28Z</time></trkpt>
			<trkpt lat="54.791220" lon="20.201920"><ele>60.1</ele><time>2026-05-29T01:42:34Z</time></trkpt>
			<trkpt lat="54.791150" lon="20.202180"><ele>60.6</ele><time>2026-05-29T01:42:41Z</time></trkpt>
			<trkpt lat="54.790990" lon="20.202560"><ele>61.5</ele><time>2026-05-29T01:42:48Z</time></trkpt>
			<trkpt lat="54.790900" lon="20.202670"><ele>61.2</ele><time>2026-05-29T01:42:54Z</time></trkpt>
			<trkpt lat="54.790530" lon="20.203140"><ele>60.1</ele><time>2026-05-29T01:43:01Z</time></trkpt>
			<trkpt lat="54.790160" lon="20.203560"><ele>59.0</ele><time>2026-05-29T01:43:07Z</time></trkpt>
			<trkpt lat="54.787600" lon="20.206490"><ele>51.5</ele><time>2026-05-29T01:43:14Z</time></trkpt>
			<trkpt lat="54.787140" lon="20.207000"><ele>50.1</ele><time>2026-05-29T01:43:21Z</time></trkpt>
			<trkpt lat="54.786880" lon="20.207300"><ele>49.4</ele><time>2026-05-29T01:43:27Z</time></trkpt>
			<trkpt lat="54.785500" lon="20.208940"><ele>46.2</ele><time>2026-05-29T01:43:34Z</time></trkpt>
			<trkpt lat="54.783340" lon="20.211420"><ele>41.7</ele><time>2026-05-29T01:43:40Z</time></trkpt>
			<trkpt lat="54.782960" lon="20.211820"><ele>40.9</ele><time>2026-05-29T01:43:47Z</time></trkpt>
			<trkpt lat="54.781810" lon="20.213160"><ele>39.5</ele><time>2026-05-29T01:43:54Z</time></trkpt>
			<trkpt lat="54.781370" lon="20.213590"><ele>40.7</ele><time>2026-05-29T01:44:00Z</time></trkpt>
			<trkpt lat="54.781090" lon="20.213860"><ele>41.5</ele><time>2026-05-29T01:44:07Z</time></trkpt>
			<trkpt lat="54.780760" lon="20.214020"><ele>42.4</ele><time>2026-05-29T01:44:13Z</time></trkpt>
			<trkpt lat="54.780470" lon="20.214010"><ele>43.1</ele><time>2026-05-29T01:44:20Z</time></trkpt>
			<trkpt lat="54.778410" lon="20.213460"><ele>48.3</ele><time>2026-05-29T01:44:27Z</time></trkpt>
			<trkpt lat="54.777650" lon="20.213290"><ele>50.2</ele><time>2026-05-29T01:44:33Z</time></trkpt>
			<trkpt lat="54.777410" lon="20.213220"><ele>50.8</ele><time>2026-05-29T01:44:40Z</time></trkpt>
			<trkpt lat="54.777240" lon="20.213190"><ele>51.2</ele><time>2026-05-29T01:44:46Z</time></trkpt>
			<trkpt lat="54.776570" lon="20.213010"><ele>51.9</ele><time>2026-05-29T01:44:53Z</time></trkpt>
			<trkpt lat="54.776040" lon="20.212980"><ele>50.7</ele><time>2026-05-29T01:45:00Z</time></trkpt>
			<trkpt lat="54.774630" lon="20.213170"><ele>47.5</ele><time>2026-05-29T01:45:06Z</time></trkpt>
			<trkpt lat="54.773970" lon="20.213350"><ele>46.0</ele><time>2026-05-29T01:45:13Z</time></trkpt>
			<trkpt lat="54.773820" lon="20.213330"><ele>45.7</ele><time>2026-05-29T01:45:19Z</time></trkpt>
			<trkpt lat="54.773260" lon="20.213270"><ele>44.4</ele><time>2026-05-29T01:45:26Z</time></trkpt>
			<trkpt lat="54.771960" lon="20.213220"><ele>41.5</ele><time>2026-05-29T01:45:33Z</time></trkpt>
			<trkpt lat="54.770390" lon="20.213240"><ele>38.2</ele><time>2026-05-29T01:45:39Z</time></trkpt>
			<trkpt lat="54.768360" lon="20.213280"><ele>34.2</ele><time>2026-05-29T01:45:46Z</time></trkpt>
			<trkpt lat="54.767670" lon="20.213290"><ele>32.9</ele><time>2026-05-29T01:45:52Z</time></trkpt>
			<trkpt lat="54.767350" lon="20.213260"><ele>32.2</ele><time>2026-05-29T01:45:59Z</time></trkpt>
			<trkpt lat="54.767100" lon="20.213160"><ele>31.7</ele><time>2026-05-29T01:46:06Z</time></trkpt>
			<trkpt lat="54.766890" lon="20.212960"><ele>31.2</ele><time>2026-05-29T01:46:12Z</time></trkpt>
			<trkpt lat="54.766750" lon="20.212580"><ele>30.7</ele><time>2026-05-29T01:46:19Z</time></trkpt>
			<trkpt lat="54.766720" lon="20.212460"><ele>30.6</ele><time>2026-05-29T01:46:25Z</time></trkpt>
			<trkpt lat="54.766540" lon="20.211780"><ele>29.7</ele><time>2026-05-29T01:46:32Z</time></trkpt>
			<trkpt lat="54.766410" lon="20.211530"><ele>29.6</ele><time>2026-05-29T01:46:39Z</time></trkpt>
			<trkpt lat="54.766260" lon="20.211340"><ele>29.8</ele><time>2026-05-29T01:46:45Z</time></trkpt>
			<trkpt lat="54.766000" lon="20.211100"><ele>30.1</ele><time>2026-05-29T01:46:52Z</time></trkpt>
			<trkpt lat="54.765800" lon="20.210610"><ele>30.4</ele><time>2026-05-29T01:46:58Z</time></trkpt>
			<trkpt lat="54.765400" lon="20.209280"><ele>31.3</ele><time>2026-05-29T01:47:05Z</time></trkpt>
			<trkpt lat="54.765240" lon="20.208780"><ele>31.6</ele><time>2026-05-29T01:47:11Z</time></trkpt>
			<trkpt lat="54.765170" lon="20.208600"><ele>31.7</ele><time>2026-05-29T01:47:18Z</time></trkpt>
			<trkpt lat="54.764450" lon="20.208100"><ele>32.5</ele><time>2026-05-29T01:47:25Z</time></trkpt>
			<trkpt lat="54.764150" lon="20.207900"><ele>32.8</ele><time>2026-05-29T01:47:31Z</time></trkpt>
			<trkpt lat="54.764070" lon="20.207850"><ele>32.9</ele><time>2026-05-29T01:47:38Z</time></trkpt>
			<trkpt lat="54.763100" lon="20.206740"><ele>34.0</ele><time>2026-05-29T01:47:44Z</time></trkpt>
			<trkpt lat="54.762910" lon="20.206520"><ele>34.2</ele><time>2026-05-29T01:47:51Z</time></trkpt>
			<trkpt lat="54.761970" lon="20.205430"><ele>34.2</ele><time>2026-05-29T01:47:58Z</time></trkpt>
			<trkpt lat="54.760990" lon="20.204210"><ele>32.7</ele><time>2026-05-29T01:48:04Z</time></trkpt>
			<trkpt lat="54.760050" lon="20.203090"><ele>31.3</ele><time>2026-05-29T01:48:11Z</time></trkpt>
			<trkpt lat="54.754600" lon="20.196620"><ele>20.2</ele><time>2026-05-29T01:48:17Z</time></trkpt>
			<trkpt lat="54.754270" lon="20.196240"><ele>19.5</ele><time>2026-05-29T01:48:24Z</time></trkpt>
			<trkpt lat="54.753570" lon="20.195420"><ele>17.8</ele><time>2026-05-29T01:48:31Z</time></trkpt>
			<trkpt lat="54.752390" lon="20.194060"><ele>18.3</ele><time>2026-05-29T01:48:37Z</time></trkpt>
			<trkpt lat="54.750730" lon="20.192070"><ele>19.2</ele><time>2026-05-29T01:48:44Z</time></trkpt>
			<trkpt lat="54.750630" lon="20.191970"><ele>19.2</ele><time>2026-05-29T01:48:50Z</time></trkpt>
			<trkpt lat="54.750560" lon="20.191970"><ele>19.3</ele><time>2026-05-29T01:48:57Z</time></trkpt>
			<trkpt lat="54.750510" lon="20.192000"><ele>19.3</ele><time>2026-05-29T01:49:04Z</time></trkpt>
			<trkpt lat="54.750480" lon="20.192050"><ele>19.3</ele><time>2026-05-29T01:49:10Z</time></trkpt>
			<trkpt lat="54.750460" lon="20.192110"><ele>19.3</ele><time>2026-05-29T01:49:17Z</time></trkpt>
			<trkpt lat="54.750450" lon="20.192180"><ele>19.4</ele><time>2026-05-29T01:49:23Z</time></trkpt>
			<trkpt lat="54.750450" lon="20.192180"><ele>19.4</ele><time>2026-05-29T01:49:29Z</time></trkpt>
			<trkpt lat="54.750370" lon="20.194340"><ele>19.9</ele><time>2026-05-29T01:49:35Z</time></trkpt>
			<trkpt lat="54.750300" lon="20.196060"><ele>19.9</ele><time>2026-05-29T01:49:41Z</time></trkpt>
			<trkpt lat="54.750300" lon="20.196230"><ele>19.8</ele><time>2026-05-29T01:49:47Z</time></trkpt>
			<trkpt lat="54.750250" lon="20.197470"><ele>19.5</ele><time>2026-05-29T01:49:53Z</time></trkpt>
			<trkpt lat="54.749900" lon="20.205800"><ele>17.6</ele><time>2026-05-29T01:49:59Z</time></trkpt>
			<trkpt lat="54.749720" lon="20.209550"><ele>16.7</ele><time>2026-05-29T01:50:05Z</time></trkpt>
			<trkpt lat="54.749480" lon="20.215410"><ele>15.2</ele><time>2026-05-29T01:50:11Z</time></trkpt>
			<trkpt lat="54.749410" lon="20.216990"><ele>14.7</ele><time>2026-05-29T01:50:17Z</time></trkpt>
			<trkpt lat="54.749360" lon="20.218330"><ele>14.3</ele><time>2026-05-29T01:50:23Z</time></trkpt>
			<trkpt lat="54.749290" lon="20.219520"><ele>13.9</ele><time>2026-05-29T01:50:29Z</time></trkpt>
			<trkpt lat="54.749140" lon="20.221230"><ele>13.4</ele><time>2026-05-29T01:50:35Z</time></trkpt>
			<trkpt lat="54.748900" lon="20.223630"><ele>13.0</ele><time>2026-05-29T01:50:41Z</time></trkpt>
			<trkpt lat="54.748750" lon="20.225260"><ele>13.5</ele><time>2026-05-29T01:50:47Z</time></trkpt>
			<trkpt lat="54.748630" lon="20.226540"><ele>13.9</ele><time>2026-05-29T01:50:53Z</time></trkpt>
			<trkpt lat="54.748520" lon="20.227550"><ele>14.3</ele><time>2026-05-29T01:50:59Z</time></trkpt>
			<trkpt lat="54.748210" lon="20.230860"><ele>15.3</ele><time>2026-05-29T01:51:05Z</time></trkpt>
			<trkpt lat="54.747840" lon="20.234830"><ele>17.9</ele><time>2026-05-29T01:51:11Z</time></trkpt>
			<trkpt lat="54.747770" lon="20.235340"><ele>18.3</ele><time>2026-05-29T01:51:17Z</time></trkpt>
			<trkpt lat="54.747670" lon="20.235770"><ele>18.7</ele><time>2026-05-29T01:51:23Z</time></trkpt>
			<trkpt lat="54.747480" lon="20.236320"><ele>19.2</ele><time>2026-05-29T01:51:28Z</time></trkpt>
			<trkpt lat="54.747420" lon="20.236500"><ele>19.4</ele><time>2026-05-29T01:51:34Z</time></trkpt>
			<trkpt lat="54.747270" lon="20.237040"><ele>19.9</ele><time>2026-05-29T01:51:40Z</time></trkpt>
			<trkpt lat="54.746430" lon="20.239760"><ele>22.3</ele><time>2026-05-29T01:51:46Z</time></trkpt>
			<trkpt lat="54.744720" lon="20.245350"><ele>24.8</ele><time>2026-05-29T01:51:52Z</time></trkpt>
			<trkpt lat="54.744310" lon="20.246850"><ele>25.3</ele><time>2026-05-29T01:51:58Z</time></trkpt>
			<trkpt lat="54.744140" lon="20.247400"><ele>25.4</ele><time>2026-05-29T01:52:04Z</time></trkpt>
			<trkpt lat="54.743940" lon="20.248090"><ele>25.7</ele><time>2026-05-29T01:52:10Z</time></trkpt>
			<trkpt lat="54.743370" lon="20.249860"><ele>25.6</ele><time>2026-05-29T01:52:16Z</time></trkpt>
			<trkpt lat="54.742660" lon="20.252160"><ele>24.4</ele><time>2026-05-29T01:52:22Z</time></trkpt>
			<trkpt lat="54.742610" lon="20.252610"><ele>24.2</ele><time>2026-05-29T01:52:28Z</time></trkpt>
			<trkpt lat="54.742620" lon="20.253680"><ele>23.7</ele><time>2026-05-29T01:52:34Z</time></trkpt>
			<trkpt lat="54.742710" lon="20.256040"><ele>22.6</ele><time>2026-05-29T01:52:40Z</time></trkpt>
			<trkpt lat="54.742730" lon="20.256650"><ele>22.3</ele><time>2026-05-29T01:52:46Z</time></trkpt>
			<trkpt lat="54.742770" lon="20.257080"><ele>22.1</ele><time>2026-05-29T01:52:52Z</time></trkpt>
			<trkpt lat="54.742840" lon="20.257360"><ele>22.0</ele><time>2026-05-29T01:52:58Z</time></trkpt>
			<trkpt lat="54.742930" lon="20.257600"><ele>21.8</ele><time>2026-05-29T01:53:04Z</time></trkpt>
			<trkpt lat="54.743420" lon="20.258280"><ele>21.2</ele><time>2026-05-29T01:53:10Z</time></trkpt>
			<trkpt lat="54.743800" lon="20.258860"><ele>20.7</ele><time>2026-05-29T01:53:16Z</time></trkpt>
			<trkpt lat="54.743910" lon="20.259290"><ele>20.4</ele><time>2026-05-29T01:53:22Z</time></trkpt>
			<trkpt lat="54.743920" lon="20.259450"><ele>20.3</ele><time>2026-05-29T01:53:28Z</time></trkpt>
			<trkpt lat="54.743940" lon="20.259860"><ele>20.1</ele><time>2026-05-29T01:53:34Z</time></trkpt>
			<trkpt lat="54.744100" lon="20.261670"><ele>18.9</ele><time>2026-05-29T01:53:40Z</time></trkpt>
			<trkpt lat="54.744610" lon="20.266270"><ele>16.1</ele><time>2026-05-29T01:53:45Z</time></trkpt>
			<trkpt lat="54.744750" lon="20.267360"><ele>15.1</ele><time>2026-05-29T01:53:51Z</time></trkpt>
			<trkpt lat="54.745100" lon="20.270490"><ele>12.1</ele><time>2026-05-29T01:53:57Z</time></trkpt>
			<trkpt lat="54.745310" lon="20.272310"><ele>10.3</ele><time>2026-05-29T01:54:03Z</time></trkpt>
			<trkpt lat="54.745450" lon="20.273640"><ele>9.1</ele><time>2026-05-29T01:54:09Z</time></trkpt>
			<trkpt lat="54.745630" lon="20.275200"><ele>7.5</ele><time>2026-05-29T01:54:15Z</time></trkpt>
			<trkpt lat="54.745670" lon="20.275460"><ele>7.3</ele><time>2026-05-29T01:54:21Z</time></trkpt>
			<trkpt lat="54.745710" lon="20.275640"><ele>7.1</ele><time>2026-05-29T01:54:27Z</time></trkpt>
			<trkpt lat="54.745750" lon="20.275780"><ele>7.1</ele><time>2026-05-29T01:54:33Z</time></trkpt>
			<trkpt lat="54.745930" lon="20.276270"><ele>7.3</ele><time>2026-05-29T01:54:39Z</time></trkpt>
			<trkpt lat="54.746010" lon="20.276460"><ele>7.3</ele><time>2026-05-29T01:54:45Z</time></trkpt>
			<trkpt lat="54.746170" lon="20.276870"><ele>7.5</ele><time>2026-05-29T01:54:51Z</time></trkpt>
			<trkpt lat="54.746400" lon="20.277510"><ele>7.8</ele><time>2026-05-29T01:54:57Z</time></trkpt>
			<trkpt lat="54.746720" lon="20.278370"><ele>8.1</ele><time>2026-05-29T01:55:03Z</time></trkpt>
			<trkpt lat="54.747030" lon="20.279220"><ele>8.4</ele><time>2026-05-29T01:55:09Z</time></trkpt>
			<trkpt lat="54.747140" lon="20.279530"><ele>8.5</ele><time>2026-05-29T01:55:15Z</time></trkpt>
			<trkpt lat="54.747620" lon="20.280800"><ele>9.0</ele><time>2026-05-29T01:55:21Z</time></trkpt>
			<trkpt lat="54.747700" lon="20.280980"><ele>9.1</ele><time>2026-05-29T01:55:27Z</time></trkpt>
			<trkpt lat="54.747780" lon="20.281230"><ele>9.2</ele><time>2026-05-29T01:55:33Z</time></trkpt>
			<trkpt lat="54.747840" lon="20.281520"><ele>9.3</ele><time>2026-05-29T01:55:39Z</time></trkpt>
			<trkpt lat="54.747920" lon="20.282040"><ele>9.5</ele><time>2026-05-29T01:55:45Z</time></trkpt>
			<trkpt lat="54.748170" lon="20.284060"><ele>10.1</ele><time>2026-05-29T01:55:51Z</time></trkpt>
			<trkpt lat="54.748270" lon="20.284820"><ele>9.8</ele><time>2026-05-29T01:55:56Z</time></trkpt>
			<trkpt lat="54.748300" lon="20.285070"><ele>9.7</ele><time>2026-05-29T01:56:02Z</time></trkpt>
			<trkpt lat="54.748360" lon="20.285520"><ele>9.5</ele><time>2026-05-29T01:56:08Z</time></trkpt>
			<trkpt lat="54.748440" lon="20.286130"><ele>9.3</ele><time>2026-05-29T01:56:14Z</time></trkpt>
			<trkpt lat="54.748950" lon="20.290060"><ele>7.8</ele><time>2026-05-29T01:56:20Z</time></trkpt>
			<trkpt lat="54.749100" lon="20.291190"><ele>7.3</ele><time>2026-05-29T01:56:26Z</time></trkpt>
			<trkpt lat="54.749140" lon="20.291610"><ele>7.2</ele><time>2026-05-29T01:56:32Z</time></trkpt>
			<trkpt lat="54.749140" lon="20.292120"><ele>7.0</ele><time>2026-05-29T01:56:38Z</time></trkpt>
			<trkpt lat="54.749020" lon="20.293910"><ele>6.8</ele><time>2026-05-29T01:56:44Z</time></trkpt>
			<trkpt lat="54.749020" lon="20.294240"><ele>6.9</ele><time>2026-05-29T01:56:50Z</time></trkpt>
			<trkpt lat="54.749050" lon="20.294520"><ele>6.9</ele><time>2026-05-29T01:56:56Z</time></trkpt>
			<trkpt lat="54.749110" lon="20.294760"><ele>7.0</ele><time>2026-05-29T01:57:02Z</time></trkpt>
			<trkpt lat="54.749260" lon="20.295250"><ele>7.1</ele><time>2026-05-29T01:57:08Z</time></trkpt>
			<trkpt lat="54.749350" lon="20.295630"><ele>7.2</ele><time>2026-05-29T01:57:14Z</time></trkpt>
			<trkpt lat="54.749400" lon="20.295880"><ele>7.3</ele><time>2026-05-29T01:57:20Z</time></trkpt>
			<trkpt lat="54.749420" lon="20.296350"><ele>7.4</ele><time>2026-05-29T01:57:26Z</time></trkpt>
			<trkpt lat="54.749420" lon="20.296700"><ele>7.5</ele><time>2026-05-29T01:57:32Z</time></trkpt>
			<trkpt lat="54.749490" lon="20.298670"><ele>8.0</ele><time>2026-05-29T01:57:38Z</time></trkpt>
			<trkpt lat="54.749490" lon="20.299110"><ele>8.1</ele><time>2026-05-29T01:57:44Z</time></trkpt>
			<trkpt lat="54.749400" lon="20.299540"><ele>8.2</ele><time>2026-05-29T01:57:50Z</time></trkpt>
			<trkpt lat="54.749320" lon="20.299820"><ele>8.3</ele><time>2026-05-29T01:57:56Z</time></trkpt>
			<trkpt lat="54.749120" lon="20.300330"><ele>8.4</ele><time>2026-05-29T01:58:02Z</time></trkpt>
			<trkpt lat="54.749030" lon="20.300590"><ele>8.5</ele><time>2026-05-29T01:58:08Z</time></trkpt>
			<trkpt lat="54.748980" lon="20.300990"><ele>8.6</ele><time>2026-05-29T01:58:13Z</time></trkpt>
			<trkpt lat="54.748940" lon="20.302280"><ele>9.0</ele><time>2026-05-29T01:58:19Z</time></trkpt>
			<trkpt lat="54.749010" lon="20.302620"><ele>9.4</ele><time>2026-05-29T01:58:25Z</time></trkpt>
			<trkpt lat="54.749580" lon="20.303840"><ele>10.7</ele><time>2026-05-29T01:58:31Z</time></trkpt>
			<trkpt lat="54.754110" lon="20.313660"><ele>20.3</ele><time>2026-05-29T01:58:37Z</time></trkpt>
			<trkpt lat="54.757440" lon="20.320880"><ele>24.9</ele><time>2026-05-29T01:58:43Z</time></trkpt>
			<trkpt lat="54.761150" lon="20.328890"><ele>26.2</ele><time>2026-05-29T01:58:49Z</time></trkpt>
			<trkpt lat="54.760940" lon="20.329320"><ele>26.1</ele><time>2026-05-29T01:58:55Z</time></trkpt>
			<trkpt lat="54.759690" lon="20.331800"><ele>26.4</ele><time>2026-05-29T01:59:01Z</time></trkpt>
			<trkpt lat="54.758450" lon="20.334310"><ele>28.5</ele><time>2026-05-29T01:59:07Z</time></trkpt>
			<trkpt lat="54.757580" lon="20.336060"><ele>30.0</ele><time>2026-05-29T01:59:13Z</time></trkpt>
			<trkpt lat="54.756710" lon="20.337830"><ele>31.5</ele><time>2026-05-29T01:59:19Z</time></trkpt>
			<trkpt lat="54.756580" lon="20.338120"><ele>31.7</ele><time>2026-05-29T01:59:25Z</time></trkpt>
			<trkpt lat="54.756540" lon="20.338290"><ele>31.8</ele><time>2026-05-29T01:59:31Z</time></trkpt>
			<trkpt lat="54.756490" lon="20.338520"><ele>32.0</ele><time>2026-05-29T01:59:37Z</time></trkpt>
			<trkpt lat="54.756470" lon="20.338640"><ele>31.9</ele><time>2026-05-29T01:59:43Z</time></trkpt>
			<trkpt lat="54.756200" lon="20.340330"><ele>31.3</ele><time>2026-05-29T01:59:49Z</time></trkpt>
			<trkpt lat="54.756010" lon="20.341900"><ele>30.8</ele><time>2026-05-29T01:59:55Z</time></trkpt>
			<trkpt lat="54.755910" lon="20.342580"><ele>30.6</ele><time>2026-05-29T02:00:01Z</time></trkpt>
			<trkpt lat="54.755470" lon="20.344990"><ele>29.7</ele><time>2026-05-29T02:00:07Z</time></trkpt>
			<trkpt lat="54.755310" lon="20.345840"><ele>29.4</ele><time>2026-05-29T02:00:13Z</time></trkpt>
			<trkpt lat="54.755240" lon="20.346600"><ele>29.1</ele><time>2026-05-29T02:00:19Z</time></trkpt>
			<trkpt lat="54.755240" lon="20.347300"><ele>28.9</ele><time>2026-05-29T02:00:24Z</time></trkpt>
			<trkpt lat="54.755250" lon="20.347590"><ele>28.8</ele><time>2026-05-29T02:00:30Z</time></trkpt>
			<trkpt lat="54.755450" lon="20.353030"><ele>27.0</ele><time>2026-05-29T02:00:36Z</time></trkpt>
			<trkpt lat="54.755470" lon="20.353850"><ele>26.8</ele><time>2026-05-29T02:00:42Z</time></trkpt>
			<trkpt lat="54.755470" lon="20.353850"><ele>26.8</ele><time>2026-05-29T02:00:48Z</time></trkpt>
			<trkpt lat="54.755590" lon="20.358430"><ele>26.2</ele><time>2026-05-29T02:00:53Z</time></trkpt>
			<trkpt lat="54.755730" lon="20.362550"><ele>27.3</ele><time>2026-05-29T02:00:58Z</time></trkpt>
			<trkpt lat="54.755740" lon="20.363120"><ele>27.5</ele><time>2026-05-29T02:01:04Z</time></trkpt>
			<trkpt lat="54.755930" lon="20.368140"><ele>29.4</ele><time>2026-05-29T02:01:09Z</time></trkpt>
			<trkpt lat="54.756230" lon="20.377300"><ele>32.8</ele><time>2026-05-29T02:01:14Z</time></trkpt>
			<trkpt lat="54.756250" lon="20.377710"><ele>32.6</ele><time>2026-05-29T02:01:19Z</time></trkpt>
			<trkpt lat="54.756290" lon="20.378030"><ele>32.5</ele><time>2026-05-29T02:01:25Z</time></trkpt>
			<trkpt lat="54.756490" lon="20.379150"><ele>32.0</ele><time>2026-05-29T02:01:30Z</time></trkpt>
			<trkpt lat="54.756730" lon="20.380310"><ele>31.4</ele><time>2026-05-29T02:01:35Z</time></trkpt>
			<trkpt lat="54.757410" lon="20.383640"><ele>29.9</ele><time>2026-05-29T02:01:41Z</time></trkpt>
			<trkpt lat="54.759300" lon="20.393040"><ele>25.3</ele><time>2026-05-29T02:01:46Z</time></trkpt>
			<trkpt lat="54.759510" lon="20.393970"><ele>25.4</ele><time>2026-05-29T02:01:51Z</time></trkpt>
			<trkpt lat="54.759610" lon="20.394510"><ele>25.6</ele><time>2026-05-29T02:01:57Z</time></trkpt>
			<trkpt lat="54.759710" lon="20.395240"><ele>25.9</ele><time>2026-05-29T02:02:02Z</time></trkpt>
			<trkpt lat="54.759760" lon="20.395760"><ele>26.1</ele><time>2026-05-29T02:02:07Z</time></trkpt>
			<trkpt lat="54.759780" lon="20.396020"><ele>26.2</ele><time>2026-05-29T02:02:12Z</time></trkpt>
			<trkpt lat="54.759790" lon="20.396970"><ele>26.6</ele><time>2026-05-29T02:02:18Z</time></trkpt>
			<trkpt lat="54.759760" lon="20.398550"><ele>27.3</ele><time>2026-05-29T02:02:23Z</time></trkpt>
			<trkpt lat="54.759590" lon="20.404320"><ele>28.8</ele><time>2026-05-29T02:02:28Z</time></trkpt>
			<trkpt lat="54.759480" lon="20.407870"><ele>28.2</ele><time>2026-05-29T02:02:34Z</time></trkpt>
			<trkpt lat="54.759390" lon="20.410590"><ele>27.8</ele><time>2026-05-29T02:02:39Z</time></trkpt>
			<trkpt lat="54.759370" lon="20.411040"><ele>27.8</ele><time>2026-05-29T02:02:44Z</time></trkpt>
			<trkpt lat="54.759350" lon="20.411600"><ele>27.7</ele><time>2026-05-29T02:02:49Z</time></trkpt>
			<trkpt lat="54.759370" lon="20.412330"><ele>27.7</ele><time>2026-05-29T02:02:55Z</time></trkpt>
			<trkpt lat="54.759450" lon="20.413020"><ele>27.7</ele><time>2026-05-29T02:03:00Z</time></trkpt>
			<trkpt lat="54.759640" lon="20.414210"><ele>27.8</ele><time>2026-05-29T02:03:05Z</time></trkpt>
			<trkpt lat="54.759900" lon="20.415230"><ele>27.9</ele><time>2026-05-29T02:03:11Z</time></trkpt>
			<trkpt lat="54.760690" lon="20.418090"><ele>28.2</ele><time>2026-05-29T02:03:16Z</time></trkpt>
			<trkpt lat="54.762120" lon="20.425030"><ele>28.1</ele><time>2026-05-29T02:03:21Z</time></trkpt>
			<trkpt lat="54.763330" lon="20.431340"><ele>27.7</ele><time>2026-05-29T02:03:27Z</time></trkpt>
			<trkpt lat="54.763420" lon="20.431840"><ele>27.7</ele><time>2026-05-29T02:03:32Z</time></trkpt>
			<trkpt lat="54.763430" lon="20.432000"><ele>27.7</ele><time>2026-05-29T02:03:37Z</time></trkpt>
			<trkpt lat="54.763430" lon="20.432160"><ele>27.7</ele><time>2026-05-29T02:03:42Z</time></trkpt>
			<trkpt lat="54.763350" lon="20.432410"><ele>27.8</ele><time>2026-05-29T02:03:48Z</time></trkpt>
			<trkpt lat="54.762950" lon="20.433060"><ele>27.8</ele><time>2026-05-29T02:03:53Z</time></trkpt>
			<trkpt lat="54.762650" lon="20.433540"><ele>27.9</ele><time>2026-05-29T02:03:58Z</time></trkpt>
			<trkpt lat="54.762610" lon="20.433610"><ele>27.9</ele><time>2026-05-29T02:04:04Z</time></trkpt>
			<trkpt lat="54.762560" lon="20.433690"><ele>27.9</ele><time>2026-05-29T02:04:09Z</time></trkpt>
			<trkpt lat="54.762290" lon="20.434110"><ele>27.9</ele><time>2026-05-29T02:04:14Z</time></trkpt>
			<trkpt lat="54.761340" lon="20.435580"><ele>28.1</ele><time>2026-05-29T02:04:19Z</time></trkpt>
			<trkpt lat="54.761220" lon="20.435760"><ele>28.1</ele><time>2026-05-29T02:04:25Z</time></trkpt>
			<trkpt lat="54.760760" lon="20.436570"><ele>28.1</ele><time>2026-05-29T02:04:30Z</time></trkpt>
			<trkpt lat="54.760740" lon="20.436610"><ele>28.2</ele><time>2026-05-29T02:04:35Z</time></trkpt>
			<trkpt lat="54.761310" lon="20.437270"><ele>28.4</ele><time>2026-05-29T02:04:41Z</time></trkpt>
			<trkpt lat="54.761530" lon="20.437550"><ele>28.5</ele><time>2026-05-29T02:04:46Z</time></trkpt>
			<trkpt lat="54.761690" lon="20.437800"><ele>28.5</ele><time>2026-05-29T02:04:51Z</time></trkpt>
			<trkpt lat="54.761810" lon="20.438040"><ele>28.6</ele><time>2026-05-29T02:04:57Z</time></trkpt>
			<trkpt lat="54.761900" lon="20.438270"><ele>28.7</ele><time>2026-05-29T02:05:02Z</time></trkpt>
			<trkpt lat="54.762060" lon="20.438740"><ele>28.8</ele><time>2026-05-29T02:05:07Z</time></trkpt>
			<trkpt lat="54.762200" lon="20.439070"><ele>28.9</ele><time>2026-05-29T02:05:12Z</time></trkpt>
			<trkpt lat="54.762330" lon="20.439350"><ele>28.9</ele><time>2026-05-29T02:05:18Z</time></trkpt>
			<trkpt lat="54.762570" lon="20.439770"><ele>29.0</ele><time>2026-05-29T02:05:23Z</time></trkpt>
			<trkpt lat="54.762660" lon="20.439950"><ele>29.1</ele><time>2026-05-29T02:05:28Z</time></trkpt>
			<trkpt lat="54.762670" lon="20.440040"><ele>29.1</ele><time>2026-05-29T02:05:34Z</time></trkpt>
			<trkpt lat="54.762670" lon="20.440120"><ele>29.1</ele><time>2026-05-29T02:05:39Z</time></trkpt>
			<trkpt lat="54.762650" lon="20.440220"><ele>29.2</ele><time>2026-05-29T02:05:44Z</time></trkpt>
			<trkpt lat="54.762620" lon="20.440380"><ele>29.2</ele><time>2026-05-29T02:05:50Z</time></trkpt>
			<trkpt lat="54.762020" lon="20.441000"><ele>29.4</ele><time>2026-05-29T02:05:55Z</time></trkpt>
			<trkpt lat="54.761820" lon="20.441210"><ele>29.5</ele><time>2026-05-29T02:06:00Z</time></trkpt>
			<trkpt lat="54.761000" lon="20.442210"><ele>29.9</ele><time>2026-05-29T02:06:05Z</time></trkpt>
			<trkpt lat="54.760750" lon="20.442490"><ele>30.0</ele><time>2026-05-29T02:06:11Z</time></trkpt>
			<trkpt lat="54.760570" lon="20.442680"><ele>30.1</ele><time>2026-05-29T02:06:16Z</time></trkpt>
			<trkpt lat="54.760440" lon="20.442800"><ele>30.1</ele><time>2026-05-29T02:06:21Z</time></trkpt>
			<trkpt lat="54.759390" lon="20.443740"><ele>29.2</ele><time>2026-05-29T02:06:27Z</time></trkpt>
			<trkpt lat="54.758180" lon="20.444750"><ele>28.3</ele><time>2026-05-29T02:06:32Z</time></trkpt>
			<trkpt lat="54.757730" lon="20.445190"><ele>27.9</ele><time>2026-05-29T02:06:37Z</time></trkpt>
			<trkpt lat="54.757410" lon="20.445500"><ele>27.6</ele><time>2026-05-29T02:06:42Z</time></trkpt>
			<trkpt lat="54.757000" lon="20.445910"><ele>27.3</ele><time>2026-05-29T02:06:48Z</time></trkpt>
			<trkpt lat="54.754820" lon="20.448070"><ele>26.6</ele><time>2026-05-29T02:06:53Z</time></trkpt>
			<trkpt lat="54.754520" lon="20.448390"><ele>26.7</ele><time>2026-05-29T02:06:58Z</time></trkpt>
			<trkpt lat="54.754260" lon="20.448680"><ele>26.8</ele><time>2026-05-29T02:07:04Z</time></trkpt>
			<trkpt lat="54.754080" lon="20.448910"><ele>26.8</ele><time>2026-05-29T02:07:09Z</time></trkpt>
			<trkpt lat="54.753650" lon="20.449470"><ele>27.0</ele><time>2026-05-29T02:07:14Z</time></trkpt>
			<trkpt lat="54.753470" lon="20.449750"><ele>27.1</ele><time>2026-05-29T02:07:20Z</time></trkpt>
			<trkpt lat="54.753300" lon="20.450040"><ele>27.2</ele><time>2026-05-29T02:07:25Z</time></trkpt>
			<trkpt lat="54.753180" lon="20.450250"><ele>27.2</ele><time>2026-05-29T02:07:30Z</time></trkpt>
			<trkpt lat="54.753130" lon="20.450350"><ele>27.2</ele><time>2026-05-29T02:07:35Z</time></trkpt>
			<trkpt lat="54.752660" lon="20.451180"><ele>27.4</ele><time>2026-05-29T02:07:41Z</time></trkpt>
			<trkpt lat="54.752530" lon="20.451440"><ele>27.5</ele><time>2026-05-29T02:07:46Z</time></trkpt>
			<trkpt lat="54.751950" lon="20.452540"><ele>27.8</ele><time>2026-05-29T02:07:51Z</time></trkpt>
			<trkpt lat="54.751200" lon="20.453870"><ele>27.9</ele><time>2026-05-29T02:07:57Z</time></trkpt>
			<trkpt lat="54.751130" lon="20.453990"><ele>27.9</ele><time>2026-05-29T02:08:02Z</time></trkpt>
			<trkpt lat="54.749570" lon="20.456850"><ele>28.0</ele><time>2026-05-29T02:08:07Z</time></trkpt>
			<trkpt lat="54.748930" lon="20.458020"><ele>28.0</ele><time>2026-05-29T02:08:12Z</time></trkpt>
			<trkpt lat="54.748620" lon="20.458590"><ele>28.0</ele><time>2026-05-29T02:08:18Z</time></trkpt>
			<trkpt lat="54.748180" lon="20.459430"><ele>28.0</ele><time>2026-05-29T02:08:23Z</time></trkpt>
			<trkpt lat="54.748300" lon="20.459500"><ele>28.0</ele><time>2026-05-29T02:08:28Z</time></trkpt>
			<trkpt lat="54.748580" lon="20.459660"><ele>28.0</ele><time>2026-05-29T02:08:34Z</time></trkpt>
		</trkseg>
	</trk>
</gpx>